<?xml version='1.0' encoding='UTF-8'?><gpx version="1.1" creator="JPX - https://github.com/jenetics/jpx" xmlns="http://www.topografix.com/GPX/1/1"><trk><trkseg><trkpt lat="43.250341351837996" lon="12.970324126782204"><ele>408.0</ele><time>2026-03-28T08:21:04.081Z</time></trkpt><trkpt lat="43.25049519966415" lon="12.9701784535299"><ele>408.0</ele><time>2026-03-28T08:21:07.081Z</time></trkpt><trkpt lat="43.25055867584251" lon="12.97013792496051"><ele>408.0</ele><time>2026-03-28T08:21:09.081Z</time></trkpt><trkpt lat="43.250519349739335" lon="12.970225667601586"><ele>408.0</ele><time>2026-03-28T08:21:13.081Z</time></trkpt><trkpt lat="43.250452957632945" lon="12.970303149659848"><ele>408.0</ele><time>2026-03-28T08:21:17.94Z</time></trkpt><trkpt lat="43.250391796509206" lon="12.970362708966553"><ele>408.0</ele><time>2026-03-28T08:21:34.94Z</time></trkpt><trkpt lat="43.250334819384754" lon="12.97041459720952"><ele>408.0</ele><time>2026-03-28T08:21:40.94Z</time></trkpt><trkpt lat="43.25029652213035" lon="12.97033219017814"><ele>408.0</ele><time>2026-03-28T08:21:48.939Z</time></trkpt><trkpt lat="43.25024170588757" lon="12.97023777662363"><ele>408.0</ele><time>2026-03-28T08:21:52.939Z</time></trkpt><trkpt lat="43.250291158336" lon="12.970151242467564"><ele>408.0</ele><time>2026-03-28T08:21:55.939Z</time></trkpt><trkpt lat="43.25031852186973" lon="12.970071987494713"><ele>408.0</ele><time>2026-03-28T08:21:56.939Z</time></trkpt><trkpt lat="43.25035344162555" lon="12.969972010190347"><ele>408.0</ele><time>2026-03-28T08:21:57.939Z</time></trkpt><trkpt lat="43.25039659945266" lon="12.969863308428485"><ele>408.0</ele><time>2026-03-28T08:21:58.939Z</time></trkpt><trkpt lat="43.25045001299969" lon="12.969750467046293"><ele>408.0</ele><time>2026-03-28T08:21:59.939Z</time></trkpt><trkpt lat="43.25047108971473" lon="12.969608261755731"><ele>408.0</ele><time>2026-03-28T08:22:00.939Z</time></trkpt><trkpt lat="43.25052076085743" lon="12.969478932213708"><ele>408.0</ele><time>2026-03-28T08:22:01.939Z</time></trkpt><trkpt lat="43.25052087485302" lon="12.969326440932235"><ele>408.0</ele><time>2026-03-28T08:22:02.939Z</time></trkpt><trkpt lat="43.25056196828609" lon="12.969206418456741"><ele>408.0</ele><time>2026-03-28T08:22:03.939Z</time></trkpt><trkpt lat="43.250608161196496" lon="12.969091664810351"><ele>408.0</ele><time>2026-03-28T08:22:04.939Z</time></trkpt><trkpt lat="43.250661597826564" lon="12.968981394184237"><ele>408.0</ele><time>2026-03-28T08:22:05.939Z</time></trkpt><trkpt lat="43.250695121368075" lon="12.968860582933143"><ele>408.0</ele><time>2026-03-28T08:22:06.939Z</time></trkpt><trkpt lat="43.250741636086644" lon="12.968745888823342"><ele>408.79999999999995</ele><time>2026-03-28T08:22:07.939Z</time></trkpt><trkpt lat="43.25077775875212" lon="12.968620219496424"><ele>409.6</ele><time>2026-03-28T08:22:08.939Z</time></trkpt><trkpt lat="43.25080779784155" lon="12.968475173489344"><ele>410.4</ele><time>2026-03-28T08:22:09.939Z</time></trkpt><trkpt lat="43.25082449855249" lon="12.968336017969502"><ele>411.20000000000005</ele><time>2026-03-28T08:22:10.939Z</time></trkpt><trkpt lat="43.250834282224496" lon="12.96819254562762"><ele>412.0</ele><time>2026-03-28T08:22:11.939Z</time></trkpt><trkpt lat="43.250835865811595" lon="12.968045414291433"><ele>412.0</ele><time>2026-03-28T08:22:12.939Z</time></trkpt><trkpt lat="43.250828645456885" lon="12.967897678791326"><ele>412.0</ele><time>2026-03-28T08:22:13.939Z</time></trkpt><trkpt lat="43.25081316095491" lon="12.967737347707018"><ele>412.0</ele><time>2026-03-28T08:22:14.939Z</time></trkpt><trkpt lat="43.25078921465381" lon="12.96756980922622"><ele>412.0</ele><time>2026-03-28T08:22:15.939Z</time></trkpt><trkpt lat="43.250755491281964" lon="12.967394204087185"><ele>411.5</ele><time>2026-03-28T08:22:16.939Z</time></trkpt><trkpt lat="43.250713295226475" lon="12.967218737980405"><ele>411.0</ele><time>2026-03-28T08:22:17.939Z</time></trkpt><trkpt lat="43.25067064726122" lon="12.967053666381403"><ele>410.5</ele><time>2026-03-28T08:22:18.939Z</time></trkpt><trkpt lat="43.250630114312195" lon="12.966897544325022"><ele>410.0</ele><time>2026-03-28T08:22:19.939Z</time></trkpt><trkpt lat="43.250579910349195" lon="12.966748155416473"><ele>409.75</ele><time>2026-03-28T08:22:20.939Z</time></trkpt><trkpt lat="43.25053821247579" lon="12.966594205263116"><ele>409.5</ele><time>2026-03-28T08:22:21.939Z</time></trkpt><trkpt lat="43.25050237574591" lon="12.966436693376934"><ele>409.25</ele><time>2026-03-28T08:22:22.939Z</time></trkpt><trkpt lat="43.25046501334776" lon="12.966281669201724"><ele>409.0</ele><time>2026-03-28T08:22:23.939Z</time></trkpt><trkpt lat="43.25042676905955" lon="12.966127555075987"><ele>409.0</ele><time>2026-03-28T08:22:24.939Z</time></trkpt><trkpt lat="43.25038851871191" lon="12.965979036605829"><ele>409.0</ele><time>2026-03-28T08:22:25.939Z</time></trkpt><trkpt lat="43.25035220028284" lon="12.965838626274266"><ele>409.0</ele><time>2026-03-28T08:22:26.939Z</time></trkpt><trkpt lat="43.25031721550462" lon="12.965694557228067"><ele>409.0</ele><time>2026-03-28T08:22:27.939Z</time></trkpt><trkpt lat="43.250275813342675" lon="12.965549449646092"><ele>409.0</ele><time>2026-03-28T08:22:28.939Z</time></trkpt><trkpt lat="43.250220746232316" lon="12.965413738883262"><ele>409.79999999999995</ele><time>2026-03-28T08:22:29.939Z</time></trkpt><trkpt lat="43.250185860341" lon="12.965296072926824"><ele>410.59999999999997</ele><time>2026-03-28T08:22:30.939Z</time></trkpt><trkpt lat="43.250145417755064" lon="12.965179139173017"><ele>411.4</ele><time>2026-03-28T08:22:31.939Z</time></trkpt><trkpt lat="43.25012827741958" lon="12.965090152244972"><ele>412.2</ele><time>2026-03-28T08:22:32.939Z</time></trkpt><trkpt lat="43.250001323148744" lon="12.964941882254303"><ele>413.0</ele><time>2026-03-28T08:22:33.939Z</time></trkpt><trkpt lat="43.24985694962751" lon="12.964958755624114"><ele>413.25</ele><time>2026-03-28T08:22:35.939Z</time></trkpt><trkpt lat="43.249743456539655" lon="12.964957660868603"><ele>413.5</ele><time>2026-03-28T08:22:36.939Z</time></trkpt><trkpt lat="43.24959805403847" lon="12.96495773389233"><ele>413.75</ele><time>2026-03-28T08:22:37.939Z</time></trkpt><trkpt lat="43.249463096815205" lon="12.96495898582374"><ele>414.0</ele><time>2026-03-28T08:22:38.939Z</time></trkpt><trkpt lat="43.2493318066187" lon="12.964961529377666"><ele>414.0</ele><time>2026-03-28T08:22:39.939Z</time></trkpt><trkpt lat="43.24919788812914" lon="12.96498579686467"><ele>414.0</ele><time>2026-03-28T08:22:40.939Z</time></trkpt><trkpt lat="43.249082981622294" lon="12.964974017656266"><ele>414.0</ele><time>2026-03-28T08:22:41.939Z</time></trkpt><trkpt lat="43.24896787381798" lon="12.964956399567548"><ele>414.0</ele><time>2026-03-28T08:22:42.939Z</time></trkpt><trkpt lat="43.24885415731753" lon="12.96494871565312"><ele>414.0</ele><time>2026-03-28T08:22:43.939Z</time></trkpt><trkpt lat="43.24873120905145" lon="12.964944604717061"><ele>414.0</ele><time>2026-03-28T08:22:44.939Z</time></trkpt><trkpt lat="43.24861053469925" lon="12.964920422392796"><ele>414.0</ele><time>2026-03-28T08:22:45.939Z</time></trkpt><trkpt lat="43.24848795389665" lon="12.964913842627737"><ele>414.0</ele><time>2026-03-28T08:22:46.939Z</time></trkpt><trkpt lat="43.24835698115377" lon="12.964906812412607"><ele>414.0</ele><time>2026-03-28T08:22:47.939Z</time></trkpt><trkpt lat="43.248216185320956" lon="12.964899254924383"><ele>414.0</ele><time>2026-03-28T08:22:48.939Z</time></trkpt><trkpt lat="43.248088586426036" lon="12.964892405809527"><ele>414.0</ele><time>2026-03-28T08:22:49.939Z</time></trkpt><trkpt lat="43.247981618958356" lon="12.964885301345577"><ele>414.0</ele><time>2026-03-28T08:22:50.939Z</time></trkpt><trkpt lat="43.24788647320632" lon="12.964874324575161"><ele>413.79999999999995</ele><time>2026-03-28T08:22:51.939Z</time></trkpt><trkpt lat="43.24778376981661" lon="12.964866454627524"><ele>413.59999999999997</ele><time>2026-03-28T08:22:52.939Z</time></trkpt><trkpt lat="43.24768223014973" lon="12.964870878390032"><ele>413.4</ele><time>2026-03-28T08:22:53.939Z</time></trkpt><trkpt lat="43.24758130560228" lon="12.96490823018402"><ele>413.2</ele><time>2026-03-28T08:22:54.939Z</time></trkpt><trkpt lat="43.247491892089215" lon="12.96493022171409"><ele>413.0</ele><time>2026-03-28T08:22:55.939Z</time></trkpt><trkpt lat="43.247398784153354" lon="12.96496605634353"><ele>413.0</ele><time>2026-03-28T08:22:56.939Z</time></trkpt><trkpt lat="43.247320468760165" lon="12.965014773697831"><ele>413.0</ele><time>2026-03-28T08:22:57.939Z</time></trkpt><trkpt lat="43.24724028282209" lon="12.96505134475453"><ele>413.0</ele><time>2026-03-28T08:22:58.939Z</time></trkpt><trkpt lat="43.24715470079485" lon="12.965086929969088"><ele>413.0</ele><time>2026-03-28T08:22:59.939Z</time></trkpt><trkpt lat="43.24705921410338" lon="12.96512852713473"><ele>413.0</ele><time>2026-03-28T08:23:00.939Z</time></trkpt><trkpt lat="43.24694456970505" lon="12.96515959283826"><ele>413.0</ele><time>2026-03-28T08:23:01.939Z</time></trkpt><trkpt lat="43.24680569548372" lon="12.965196165721068"><ele>413.0</ele><time>2026-03-28T08:23:02.939Z</time></trkpt><trkpt lat="43.2466664783696" lon="12.965251700879065"><ele>413.0</ele><time>2026-03-28T08:23:03.939Z</time></trkpt><trkpt lat="43.24652523203186" lon="12.965298178238799"><ele>413.0</ele><time>2026-03-28T08:23:04.939Z</time></trkpt><trkpt lat="43.246369991236" lon="12.965347758123816"><ele>413.75</ele><time>2026-03-28T08:23:05.939Z</time></trkpt><trkpt lat="43.24622241049204" lon="12.965399591429145"><ele>414.5</ele><time>2026-03-28T08:23:06.939Z</time></trkpt><trkpt lat="43.24607975254582" lon="12.965437315930469"><ele>415.25</ele><time>2026-03-28T08:23:07.939Z</time></trkpt><trkpt lat="43.24594056880829" lon="12.965455033066211"><ele>416.0</ele><time>2026-03-28T08:23:08.939Z</time></trkpt><trkpt lat="43.245815096618166" lon="12.965493608936724"><ele>416.0</ele><time>2026-03-28T08:23:09.939Z</time></trkpt><trkpt lat="43.24569637985873" lon="12.965493933766426"><ele>416.0</ele><time>2026-03-28T08:23:10.939Z</time></trkpt><trkpt lat="43.24556202616224" lon="12.965526528804798"><ele>416.0</ele><time>2026-03-28T08:23:11.939Z</time></trkpt><trkpt lat="43.245437368858276" lon="12.965593374425884"><ele>416.0</ele><time>2026-03-28T08:23:12.939Z</time></trkpt><trkpt lat="43.24530990156067" lon="12.965632152158497"><ele>416.20000000000005</ele><time>2026-03-28T08:23:13.939Z</time></trkpt><trkpt lat="43.24519611760797" lon="12.965698519874127"><ele>416.40000000000003</ele><time>2026-03-28T08:23:14.939Z</time></trkpt><trkpt lat="43.2450853255358" lon="12.96575444209468"><ele>416.6</ele><time>2026-03-28T08:23:15.939Z</time></trkpt><trkpt lat="43.24498806125841" lon="12.965807597074727"><ele>416.8</ele><time>2026-03-28T08:23:16.939Z</time></trkpt><trkpt lat="43.244887147454946" lon="12.965825303402964"><ele>417.0</ele><time>2026-03-28T08:23:17.938Z</time></trkpt><trkpt lat="43.244794909417934" lon="12.96580441279405"><ele>417.20000000000005</ele><time>2026-03-28T08:23:18.938Z</time></trkpt><trkpt lat="43.24470978448359" lon="12.965764384590322"><ele>417.4</ele><time>2026-03-28T08:23:19.938Z</time></trkpt><trkpt lat="43.244618005189004" lon="12.965696497312958"><ele>417.6</ele><time>2026-03-28T08:23:20.938Z</time></trkpt><trkpt lat="43.24451874995333" lon="12.965616247165617"><ele>417.79999999999995</ele><time>2026-03-28T08:23:21.938Z</time></trkpt><trkpt lat="43.24440146904104" lon="12.965523063596535"><ele>418.0</ele><time>2026-03-28T08:23:22.938Z</time></trkpt><trkpt lat="43.24428173277809" lon="12.965432111420458"><ele>418.0</ele><time>2026-03-28T08:23:23.938Z</time></trkpt><trkpt lat="43.244163235681675" lon="12.965354461486978"><ele>418.0</ele><time>2026-03-28T08:23:24.938Z</time></trkpt><trkpt lat="43.24404900611338" lon="12.965282516908413"><ele>418.0</ele><time>2026-03-28T08:23:25.938Z</time></trkpt><trkpt lat="43.24395156900229" lon="12.965225158026737"><ele>418.0</ele><time>2026-03-28T08:23:26.938Z</time></trkpt><trkpt lat="43.24387380091393" lon="12.965157459795037"><ele>419.25</ele><time>2026-03-28T08:23:27.938Z</time></trkpt><trkpt lat="43.24380373332364" lon="12.96505658838406"><ele>420.5</ele><time>2026-03-28T08:23:28.938Z</time></trkpt><trkpt lat="43.24372282080409" lon="12.964919771997607"><ele>421.75</ele><time>2026-03-28T08:23:29.938Z</time></trkpt><trkpt lat="43.24363704979663" lon="12.96481243736084"><ele>423.0</ele><time>2026-03-28T08:23:30.938Z</time></trkpt><trkpt lat="43.24354370946917" lon="12.964711492581745"><ele>423.0</ele><time>2026-03-28T08:23:31.938Z</time></trkpt><trkpt lat="43.24344419716603" lon="12.964610904515892"><ele>423.0</ele><time>2026-03-28T08:23:32.938Z</time></trkpt><trkpt lat="43.243349217306765" lon="12.964517067196807"><ele>423.0</ele><time>2026-03-28T08:23:33.938Z</time></trkpt><trkpt lat="43.24326541354225" lon="12.964407845941281"><ele>423.0</ele><time>2026-03-28T08:23:34.938Z</time></trkpt><trkpt lat="43.24314278518159" lon="12.964306458323472"><ele>423.5</ele><time>2026-03-28T08:23:35.938Z</time></trkpt><trkpt lat="43.24303431310878" lon="12.964233341448145"><ele>424.0</ele><time>2026-03-28T08:23:36.938Z</time></trkpt><trkpt lat="43.24291544073424" lon="12.964144650930434"><ele>424.5</ele><time>2026-03-28T08:23:37.938Z</time></trkpt><trkpt lat="43.242795405231895" lon="12.964085111707112"><ele>425.0</ele><time>2026-03-28T08:23:38.938Z</time></trkpt><trkpt lat="43.24269123792289" lon="12.964039338884445"><ele>425.0</ele><time>2026-03-28T08:23:39.938Z</time></trkpt><trkpt lat="43.24259121418327" lon="12.963999024700861"><ele>425.0</ele><time>2026-03-28T08:23:40.938Z</time></trkpt><trkpt lat="43.24250103636326" lon="12.963961860889686"><ele>425.0</ele><time>2026-03-28T08:23:41.938Z</time></trkpt><trkpt lat="43.242427557342474" lon="12.963920182696581"><ele>425.0</ele><time>2026-03-28T08:23:42.938Z</time></trkpt><trkpt lat="43.242351625840435" lon="12.963812273717528"><ele>425.0</ele><time>2026-03-28T08:23:44.938Z</time></trkpt><trkpt lat="43.24218751753338" lon="12.963855079789676"><ele>425.5</ele><time>2026-03-28T08:23:46.938Z</time></trkpt><trkpt lat="43.24210524171253" lon="12.963853412953885"><ele>426.0</ele><time>2026-03-28T08:23:48.938Z</time></trkpt><trkpt lat="43.242232958284234" lon="12.964033016399556"><ele>426.5</ele><time>2026-03-28T08:23:49.938Z</time></trkpt><trkpt lat="43.24221279243024" lon="12.964153392061695"><ele>427.0</ele><time>2026-03-28T08:23:50.938Z</time></trkpt><trkpt lat="43.24218285262261" lon="12.964287681152985"><ele>427.0</ele><time>2026-03-28T08:23:51.938Z</time></trkpt><trkpt lat="43.242147865072404" lon="12.96440815963615"><ele>427.00000000000006</ele><time>2026-03-28T08:23:52.938Z</time></trkpt><trkpt lat="43.24211707945545" lon="12.964506832271155"><ele>427.00000000000006</ele><time>2026-03-28T08:23:53.938Z</time></trkpt><trkpt lat="43.242072221195436" lon="12.964631109782959"><ele>427.0</ele><time>2026-03-28T08:23:54.938Z</time></trkpt><trkpt lat="43.242011636667236" lon="12.96474517170336"><ele>427.0</ele><time>2026-03-28T08:23:55.938Z</time></trkpt><trkpt lat="43.24193351458608" lon="12.964870205311852"><ele>427.0</ele><time>2026-03-28T08:23:56.938Z</time></trkpt><trkpt lat="43.24184350917188" lon="12.96499373977536"><ele>427.0</ele><time>2026-03-28T08:23:57.938Z</time></trkpt><trkpt lat="43.24173143396449" lon="12.965116010732421"><ele>427.0</ele><time>2026-03-28T08:23:58.938Z</time></trkpt><trkpt lat="43.241640387210836" lon="12.965259353002551"><ele>427.0</ele><time>2026-03-28T08:23:59.938Z</time></trkpt><trkpt lat="43.24155699747127" lon="12.965366384657615"><ele>428.83333333333337</ele><time>2026-03-28T08:24:00.937Z</time></trkpt><trkpt lat="43.24150050815168" lon="12.965448667008925"><ele>430.6666666666667</ele><time>2026-03-28T08:24:01.937Z</time></trkpt><trkpt lat="43.241443263383296" lon="12.965514127523027"><ele>432.5</ele><time>2026-03-28T08:24:02.937Z</time></trkpt><trkpt lat="43.24139368916201" lon="12.965577174817046"><ele>434.33333333333337</ele><time>2026-03-28T08:24:03.937Z</time></trkpt><trkpt lat="43.2413454289062" lon="12.965681870576326"><ele>436.1666666666667</ele><time>2026-03-28T08:24:04.937Z</time></trkpt><trkpt lat="43.24127138158922" lon="12.965763606350096"><ele>438.0</ele><time>2026-03-28T08:24:06.937Z</time></trkpt><trkpt lat="43.241123298038964" lon="12.965878460558118"><ele>438.33333333333337</ele><time>2026-03-28T08:24:08.937Z</time></trkpt><trkpt lat="43.2412857456224" lon="12.966077658520451"><ele>438.6666666666667</ele><time>2026-03-28T08:24:09.937Z</time></trkpt><trkpt lat="43.241244086393344" lon="12.96579092712905"><ele>439.0</ele><time>2026-03-28T08:24:14.937Z</time></trkpt><trkpt lat="43.241119913510445" lon="12.965939187502961"><ele>441.75</ele><time>2026-03-28T08:24:15.937Z</time></trkpt><trkpt lat="43.24107048684192" lon="12.966095721551655"><ele>444.5</ele><time>2026-03-28T08:24:16.937Z</time></trkpt><trkpt lat="43.24103880035265" lon="12.96618271872369"><ele>447.25</ele><time>2026-03-28T08:24:17.937Z</time></trkpt><trkpt lat="43.24106293547763" lon="12.966401221811362"><ele>450.0</ele><time>2026-03-28T08:24:18.937Z</time></trkpt><trkpt lat="43.2412746048932" lon="12.966577955313964"><ele>450.0</ele><time>2026-03-28T08:24:19.937Z</time></trkpt><trkpt lat="43.24124027158337" lon="12.966692240558313"><ele>450.0</ele><time>2026-03-28T08:24:20.937Z</time></trkpt><trkpt lat="43.24121046153095" lon="12.966813187428647"><ele>450.0</ele><time>2026-03-28T08:24:21.937Z</time></trkpt><trkpt lat="43.24118696843526" lon="12.966933638409177"><ele>450.0</ele><time>2026-03-28T08:24:22.937Z</time></trkpt><trkpt lat="43.241162557005744" lon="12.967036647160214"><ele>450.0</ele><time>2026-03-28T08:24:23.937Z</time></trkpt><trkpt lat="43.241133532647645" lon="12.96712506166341"><ele>450.0</ele><time>2026-03-28T08:24:24.937Z</time></trkpt><trkpt lat="43.24108495656477" lon="12.967203320346314"><ele>451.1666666666667</ele><time>2026-03-28T08:24:25.937Z</time></trkpt><trkpt lat="43.241021235554655" lon="12.96727047105863"><ele>452.33333333333337</ele><time>2026-03-28T08:24:26.937Z</time></trkpt><trkpt lat="43.24095173038022" lon="12.96733746456174"><ele>453.5</ele><time>2026-03-28T08:24:27.937Z</time></trkpt><trkpt lat="43.240878889283664" lon="12.967393820862554"><ele>454.6666666666667</ele><time>2026-03-28T08:24:28.937Z</time></trkpt><trkpt lat="43.240796382451656" lon="12.967449298663338"><ele>455.83333333333337</ele><time>2026-03-28T08:24:29.937Z</time></trkpt><trkpt lat="43.24071522907117" lon="12.967505932057767"><ele>457.0</ele><time>2026-03-28T08:24:30.937Z</time></trkpt><trkpt lat="43.24063417502256" lon="12.96755259456797"><ele>458.1666666666667</ele><time>2026-03-28T08:24:31.937Z</time></trkpt><trkpt lat="43.240553490883265" lon="12.967600633652006"><ele>459.33333333333337</ele><time>2026-03-28T08:24:32.937Z</time></trkpt><trkpt lat="43.2404750264999" lon="12.967646035456843"><ele>460.5</ele><time>2026-03-28T08:24:33.937Z</time></trkpt><trkpt lat="43.24040154080397" lon="12.967680377444417"><ele>461.66666666666663</ele><time>2026-03-28T08:24:34.937Z</time></trkpt><trkpt lat="43.240332119532454" lon="12.96772498247616"><ele>462.8333333333333</ele><time>2026-03-28T08:24:35.937Z</time></trkpt><trkpt lat="43.24025440559279" lon="12.967785586391905"><ele>464.0</ele><time>2026-03-28T08:24:36.937Z</time></trkpt><trkpt lat="43.24018315463004" lon="12.967865862157431"><ele>463.99999999999994</ele><time>2026-03-28T08:24:37.937Z</time></trkpt><trkpt lat="43.24012689204645" lon="12.967943318408757"><ele>464.0</ele><time>2026-03-28T08:24:38.937Z</time></trkpt><trkpt lat="43.24008037047906" lon="12.968005891363076"><ele>464.0</ele><time>2026-03-28T08:24:39.937Z</time></trkpt><trkpt lat="43.24000725108666" lon="12.968073764408217"><ele>464.0</ele><time>2026-03-28T08:24:41.937Z</time></trkpt><trkpt lat="43.23988290288923" lon="12.968037202398571"><ele>463.99999999999994</ele><time>2026-03-28T08:24:43.937Z</time></trkpt><trkpt lat="43.23979906429186" lon="12.96799640891149"><ele>464.0</ele><time>2026-03-28T08:24:44.937Z</time></trkpt><trkpt lat="43.239702932988145" lon="12.967948122591139"><ele>463.3333333333333</ele><time>2026-03-28T08:24:45.937Z</time></trkpt><trkpt lat="43.23961499442959" lon="12.96789266144828"><ele>462.66666666666663</ele><time>2026-03-28T08:24:46.937Z</time></trkpt><trkpt lat="43.23953659105631" lon="12.967831244938782"><ele>462.0</ele><time>2026-03-28T08:24:47.937Z</time></trkpt><trkpt lat="43.2394672493767" lon="12.967775127096836"><ele>461.33333333333337</ele><time>2026-03-28T08:24:48.937Z</time></trkpt><trkpt lat="43.23940156911028" lon="12.967724975160918"><ele>460.6666666666667</ele><time>2026-03-28T08:24:49.937Z</time></trkpt><trkpt lat="43.23933911430992" lon="12.967668628385358"><ele>460.0</ele><time>2026-03-28T08:24:50.937Z</time></trkpt><trkpt lat="43.23927400107688" lon="12.967604964870413"><ele>460.0</ele><time>2026-03-28T08:24:51.937Z</time></trkpt><trkpt lat="43.23921453867289" lon="12.96752969851016"><ele>460.0</ele><time>2026-03-28T08:24:52.937Z</time></trkpt><trkpt lat="43.239159702683594" lon="12.967442380001076"><ele>460.0</ele><time>2026-03-28T08:24:53.937Z</time></trkpt><trkpt lat="43.239099621014745" lon="12.9673448974105"><ele>460.0</ele><time>2026-03-28T08:24:54.937Z</time></trkpt><trkpt lat="43.23903212897148" lon="12.967241661944435"><ele>460.0</ele><time>2026-03-28T08:24:55.937Z</time></trkpt><trkpt lat="43.238965216479784" lon="12.967136784794906"><ele>461.4</ele><time>2026-03-28T08:24:56.937Z</time></trkpt><trkpt lat="43.238896397186366" lon="12.967027834583407"><ele>462.8</ele><time>2026-03-28T08:24:57.937Z</time></trkpt><trkpt lat="43.238823522699136" lon="12.966919315028626"><ele>464.20000000000005</ele><time>2026-03-28T08:24:58.937Z</time></trkpt><trkpt lat="43.238745202751446" lon="12.966820820628824"><ele>465.6</ele><time>2026-03-28T08:24:59.937Z</time></trkpt><trkpt lat="43.23865233330305" lon="12.966736009970107"><ele>467.0</ele><time>2026-03-28T08:25:00.937Z</time></trkpt><trkpt lat="43.2385567042767" lon="12.96665643444891"><ele>468.5</ele><time>2026-03-28T08:25:01.937Z</time></trkpt><trkpt lat="43.238451577600046" lon="12.966583617521371"><ele>470.0</ele><time>2026-03-28T08:25:02.937Z</time></trkpt><trkpt lat="43.23833809589232" lon="12.966528916610462"><ele>471.5</ele><time>2026-03-28T08:25:03.937Z</time></trkpt><trkpt lat="43.23822044711172" lon="12.966481381242575"><ele>473.0</ele><time>2026-03-28T08:25:04.937Z</time></trkpt><trkpt lat="43.23810078583764" lon="12.966449072283243"><ele>474.79999999999995</ele><time>2026-03-28T08:25:05.937Z</time></trkpt><trkpt lat="43.23798776314233" lon="12.96641984207075"><ele>476.59999999999997</ele><time>2026-03-28T08:25:06.937Z</time></trkpt><trkpt lat="43.237884714605286" lon="12.966401350782176"><ele>478.40000000000003</ele><time>2026-03-28T08:25:07.937Z</time></trkpt><trkpt lat="43.23777899002379" lon="12.96637741502623"><ele>480.20000000000005</ele><time>2026-03-28T08:25:08.937Z</time></trkpt><trkpt lat="43.237675647830166" lon="12.966358995267447"><ele>482.0</ele><time>2026-03-28T08:25:09.937Z</time></trkpt><trkpt lat="43.23758696817795" lon="12.966355175146012"><ele>482.0</ele><time>2026-03-28T08:25:10.937Z</time></trkpt><trkpt lat="43.23751535085836" lon="12.96635265631378"><ele>482.00000000000006</ele><time>2026-03-28T08:25:11.937Z</time></trkpt><trkpt lat="43.237413291131546" lon="12.966346539995316"><ele>482.00000000000006</ele><time>2026-03-28T08:25:13.937Z</time></trkpt><trkpt lat="43.2373436752869" lon="12.96627211268573"><ele>482.0</ele><time>2026-03-28T08:25:15.937Z</time></trkpt><trkpt lat="43.237263592377126" lon="12.966154135651804"><ele>482.0</ele><time>2026-03-28T08:25:17.937Z</time></trkpt><trkpt lat="43.237174297312556" lon="12.966051215351799"><ele>482.66666666666663</ele><time>2026-03-28T08:25:19.937Z</time></trkpt><trkpt lat="43.23712691651777" lon="12.965985323101538"><ele>483.3333333333333</ele><time>2026-03-28T08:25:20.937Z</time></trkpt><trkpt lat="43.237073749239805" lon="12.965916466184309"><ele>484.0</ele><time>2026-03-28T08:25:21.937Z</time></trkpt><trkpt lat="43.237023239567726" lon="12.965837466857478"><ele>484.66666666666663</ele><time>2026-03-28T08:25:22.937Z</time></trkpt><trkpt lat="43.23697011542725" lon="12.965753819136504"><ele>485.3333333333333</ele><time>2026-03-28T08:25:23.937Z</time></trkpt><trkpt lat="43.23691675695664" lon="12.965666548825086"><ele>486.0</ele><time>2026-03-28T08:25:24.937Z</time></trkpt><trkpt lat="43.23686689442983" lon="12.965572445306746"><ele>486.0</ele><time>2026-03-28T08:25:25.937Z</time></trkpt><trkpt lat="43.23682125986547" lon="12.96546833676616"><ele>486.0</ele><time>2026-03-28T08:25:26.937Z</time></trkpt><trkpt lat="43.236776833868866" lon="12.965360924651298"><ele>486.0</ele><time>2026-03-28T08:25:27.937Z</time></trkpt><trkpt lat="43.236735152455246" lon="12.965254036277388"><ele>486.0</ele><time>2026-03-28T08:25:28.937Z</time></trkpt><trkpt lat="43.236689897572276" lon="12.965154688259847"><ele>486.0</ele><time>2026-03-28T08:25:29.937Z</time></trkpt><trkpt lat="43.236640853020575" lon="12.965054399139426"><ele>486.0</ele><time>2026-03-28T08:25:30.937Z</time></trkpt><trkpt lat="43.23659789328728" lon="12.964944459053656"><ele>487.1666666666667</ele><time>2026-03-28T08:25:31.937Z</time></trkpt><trkpt lat="43.23654590973969" lon="12.964840225882943"><ele>488.33333333333337</ele><time>2026-03-28T08:25:32.937Z</time></trkpt><trkpt lat="43.23650326505098" lon="12.964727407663375"><ele>489.5</ele><time>2026-03-28T08:25:33.937Z</time></trkpt><trkpt lat="43.23646071747494" lon="12.964620053310258"><ele>490.6666666666667</ele><time>2026-03-28T08:25:34.937Z</time></trkpt><trkpt lat="43.23642424608277" lon="12.964510141073594"><ele>491.83333333333337</ele><time>2026-03-28T08:25:35.937Z</time></trkpt><trkpt lat="43.236380323567566" lon="12.964407832029561"><ele>493.0</ele><time>2026-03-28T08:25:36.937Z</time></trkpt><trkpt lat="43.23633619003605" lon="12.96430447714565"><ele>494.2</ele><time>2026-03-28T08:25:37.937Z</time></trkpt><trkpt lat="43.23628831389497" lon="12.964207732016853"><ele>495.4</ele><time>2026-03-28T08:25:38.937Z</time></trkpt><trkpt lat="43.23625263624698" lon="12.964120590264166"><ele>496.59999999999997</ele><time>2026-03-28T08:25:39.937Z</time></trkpt><trkpt lat="43.23617773178589" lon="12.964008385396571"><ele>497.79999999999995</ele><time>2026-03-28T08:25:41.937Z</time></trkpt><trkpt lat="43.236088119395944" lon="12.963953307917757"><ele>499.0</ele><time>2026-03-28T08:25:43.937Z</time></trkpt><trkpt lat="43.23601249707611" lon="12.964003978792762"><ele>506.0</ele><time>2026-03-28T08:25:45.937Z</time></trkpt><trkpt lat="43.23599825612525" lon="12.96372308578243"><ele>513.0</ele><time>2026-03-28T08:25:46.937Z</time></trkpt><trkpt lat="43.2358629458979" lon="12.964016238653647"><ele>513.0</ele><time>2026-03-28T08:25:47.937Z</time></trkpt><trkpt lat="43.23584205972615" lon="12.963893915403133"><ele>513.0</ele><time>2026-03-28T08:25:49.937Z</time></trkpt><trkpt lat="43.235838947592136" lon="12.963796706867731"><ele>513.0</ele><time>2026-03-28T08:25:51.937Z</time></trkpt><trkpt lat="43.23566624237301" lon="12.963664792334795"><ele>513.0</ele><time>2026-03-28T08:25:53.937Z</time></trkpt><trkpt lat="43.23559912194284" lon="12.96365499388527"><ele>513.0</ele><time>2026-03-28T08:25:54.937Z</time></trkpt><trkpt lat="43.23552879022861" lon="12.963639689358681"><ele>514.4</ele><time>2026-03-28T08:25:55.937Z</time></trkpt><trkpt lat="43.235454406484656" lon="12.963624220212855"><ele>515.8</ele><time>2026-03-28T08:25:56.937Z</time></trkpt><trkpt lat="43.23536441910706" lon="12.96352498997502"><ele>517.2</ele><time>2026-03-28T08:25:58.937Z</time></trkpt><trkpt lat="43.23526226755592" lon="12.963463547505288"><ele>518.6</ele><time>2026-03-28T08:26:00.937Z</time></trkpt><trkpt lat="43.23516590035464" lon="12.963405584237506"><ele>520.0</ele><time>2026-03-28T08:26:02.937Z</time></trkpt><trkpt lat="43.235185752555765" lon="12.96383877636875"><ele>520.0</ele><time>2026-03-28T08:26:03.937Z</time></trkpt><trkpt lat="43.2351113534985" lon="12.963955184234338"><ele>520.0</ele><time>2026-03-28T08:26:05.937Z</time></trkpt><trkpt lat="43.234854328601614" lon="12.964152727933973"><ele>520.0</ele><time>2026-03-28T08:26:06.937Z</time></trkpt><trkpt lat="43.23475733487799" lon="12.964150621889436"><ele>519.5</ele><time>2026-03-28T08:26:07.937Z</time></trkpt><trkpt lat="43.2346806041582" lon="12.964142807851124"><ele>519.0</ele><time>2026-03-28T08:26:09.937Z</time></trkpt><trkpt lat="43.23460082104949" lon="12.964133367424905"><ele>518.5</ele><time>2026-03-28T08:26:11.937Z</time></trkpt><trkpt lat="43.23450717746146" lon="12.96416414865679"><ele>518.0</ele><time>2026-03-28T08:26:14.937Z</time></trkpt><trkpt lat="43.23442827152167" lon="12.964123386237045"><ele>517.5</ele><time>2026-03-28T08:26:15.937Z</time></trkpt><trkpt lat="43.23435177892669" lon="12.964118489884875"><ele>517.0</ele><time>2026-03-28T08:26:16.937Z</time></trkpt><trkpt lat="43.2342716229086" lon="12.964118771125746"><ele>517.0</ele><time>2026-03-28T08:26:17.937Z</time></trkpt><trkpt lat="43.23419439814204" lon="12.964118327624213"><ele>517.0</ele><time>2026-03-28T08:26:18.936Z</time></trkpt><trkpt lat="43.234127673911345" lon="12.964118373606967"><ele>517.0</ele><time>2026-03-28T08:26:19.936Z</time></trkpt><trkpt lat="43.23401811134758" lon="12.96412010203724"><ele>517.0</ele><time>2026-03-28T08:26:21.936Z</time></trkpt><trkpt lat="43.23392221062328" lon="12.964139952343578"><ele>517.0</ele><time>2026-03-28T08:26:23.936Z</time></trkpt><trkpt lat="43.233854801570295" lon="12.964174658068991"><ele>517.0</ele><time>2026-03-28T08:26:25.936Z</time></trkpt><trkpt lat="43.233796695429085" lon="12.964214542450641"><ele>515.3333333333334</ele><time>2026-03-28T08:26:27.936Z</time></trkpt><trkpt lat="43.23346014518068" lon="12.96434288131526"><ele>513.6666666666666</ele><time>2026-03-28T08:26:30.936Z</time></trkpt><trkpt lat="43.2333783378615" lon="12.96432064390209"><ele>512.0</ele><time>2026-03-28T08:26:31.936Z</time></trkpt><trkpt lat="43.23326120109627" lon="12.964317187785728"><ele>512.0</ele><time>2026-03-28T08:26:32.936Z</time></trkpt><trkpt lat="43.2331868049062" lon="12.96428798212058"><ele>512.0</ele><time>2026-03-28T08:26:33.936Z</time></trkpt><trkpt lat="43.23311048728846" lon="12.964246938651613"><ele>512.0</ele><time>2026-03-28T08:26:35.936Z</time></trkpt><trkpt lat="43.232948942825026" lon="12.964291829462518"><ele>512.0</ele><time>2026-03-28T08:26:36.936Z</time></trkpt><trkpt lat="43.232858731939366" lon="12.96434677799893"><ele>512.0</ele><time>2026-03-28T08:26:43.936Z</time></trkpt><trkpt lat="43.2327374290475" lon="12.964434154000122"><ele>552.0</ele><time>2026-03-28T08:26:45.936Z</time></trkpt><trkpt lat="43.23214722299225" lon="12.964220253600898"><ele>552.0</ele><time>2026-03-28T08:26:47.936Z</time></trkpt><trkpt lat="43.23208393529099" lon="12.9642908825892"><ele>552.0</ele><time>2026-03-28T08:26:48.936Z</time></trkpt><trkpt lat="43.232018551841755" lon="12.964317614951506"><ele>552.0</ele><time>2026-03-28T08:26:49.936Z</time></trkpt><trkpt lat="43.23197160124955" lon="12.964395284139597"><ele>552.0</ele><time>2026-03-28T08:26:50.936Z</time></trkpt><trkpt lat="43.23191641838837" lon="12.964447155586347"><ele>552.0</ele><time>2026-03-28T08:26:51.936Z</time></trkpt><trkpt lat="43.23185649465348" lon="12.964480292470647"><ele>552.0</ele><time>2026-03-28T08:26:52.936Z</time></trkpt><trkpt lat="43.23177881764751" lon="12.964616862778508"><ele>552.0</ele><time>2026-03-28T08:26:54.936Z</time></trkpt><trkpt lat="43.231726866462594" lon="12.96466877459631"><ele>552.0</ele><time>2026-03-28T08:26:55.936Z</time></trkpt><trkpt lat="43.23167993336907" lon="12.964751652976465"><ele>552.0</ele><time>2026-03-28T08:26:56.936Z</time></trkpt><trkpt lat="43.2316139581431" lon="12.964780971798037"><ele>552.0</ele><time>2026-03-28T08:26:57.936Z</time></trkpt><trkpt lat="43.23153236648055" lon="12.964809870594475"><ele>552.0</ele><time>2026-03-28T08:26:58.936Z</time></trkpt><trkpt lat="43.23145905421584" lon="12.964844615118981"><ele>552.0</ele><time>2026-03-28T08:26:59.936Z</time></trkpt><trkpt lat="43.231395467704544" lon="12.964870149933367"><ele>552.0</ele><time>2026-03-28T08:27:00.936Z</time></trkpt><trkpt lat="43.231285322834175" lon="12.964954987797604"><ele>551.6</ele><time>2026-03-28T08:27:02.936Z</time></trkpt><trkpt lat="43.23121062098398" lon="12.96500088934403"><ele>551.2</ele><time>2026-03-28T08:27:03.936Z</time></trkpt><trkpt lat="43.231135225259614" lon="12.965059315626759"><ele>550.8</ele><time>2026-03-28T08:27:04.936Z</time></trkpt><trkpt lat="43.23103253107751" lon="12.965150392700666"><ele>550.4</ele><time>2026-03-28T08:27:06.936Z</time></trkpt><trkpt lat="43.23090571639362" lon="12.965221148975532"><ele>550.0</ele><time>2026-03-28T08:27:08.936Z</time></trkpt><trkpt lat="43.230851053854515" lon="12.965167179156579"><ele>550.0</ele><time>2026-03-28T08:27:09.936Z</time></trkpt><trkpt lat="43.230755926283635" lon="12.965190928596712"><ele>550.0</ele><time>2026-03-28T08:27:10.936Z</time></trkpt><trkpt lat="43.23066315806746" lon="12.96511818654065"><ele>550.0</ele><time>2026-03-28T08:27:12.936Z</time></trkpt><trkpt lat="43.2305544210921" lon="12.965101051348958"><ele>550.0</ele><time>2026-03-28T08:27:15.936Z</time></trkpt><trkpt lat="43.230497277867386" lon="12.965053106558763"><ele>550.0</ele><time>2026-03-28T08:27:17.936Z</time></trkpt><trkpt lat="43.23045077050614" lon="12.964973180281637"><ele>552.1666666666667</ele><time>2026-03-28T08:27:20.936Z</time></trkpt><trkpt lat="43.23048756724165" lon="12.9648834184851"><ele>554.3333333333334</ele><time>2026-03-28T08:27:22.936Z</time></trkpt><trkpt lat="43.23054389246452" lon="12.964842747060889"><ele>556.5</ele><time>2026-03-28T08:27:25.936Z</time></trkpt><trkpt lat="43.2306184414344" lon="12.96484163725493"><ele>558.6666666666666</ele><time>2026-03-28T08:27:29.936Z</time></trkpt><trkpt lat="43.230735956698716" lon="12.964798028946758"><ele>560.8333333333333</ele><time>2026-03-28T08:27:31.936Z</time></trkpt><trkpt lat="43.23079044128537" lon="12.964743719640392"><ele>563.0</ele><time>2026-03-28T08:27:32.936Z</time></trkpt><trkpt lat="43.23087434660975" lon="12.964699030239405"><ele>563.0</ele><time>2026-03-28T08:27:33.936Z</time></trkpt><trkpt lat="43.230961041963496" lon="12.964640989646892"><ele>563.0</ele><time>2026-03-28T08:27:34.936Z</time></trkpt><trkpt lat="43.231046812907" lon="12.964583959970597"><ele>563.0</ele><time>2026-03-28T08:27:35.936Z</time></trkpt><trkpt lat="43.23109799541957" lon="12.964498572376531"><ele>563.0</ele><time>2026-03-28T08:27:36.936Z</time></trkpt><trkpt lat="43.2311676721007" lon="12.964490487424808"><ele>563.0</ele><time>2026-03-28T08:27:37.936Z</time></trkpt><trkpt lat="43.231212820760746" lon="12.964418790956694"><ele>563.0</ele><time>2026-03-28T08:27:39.936Z</time></trkpt><trkpt lat="43.23114426836531" lon="12.964403321039718"><ele>563.0</ele><time>2026-03-28T08:27:51.936Z</time></trkpt><trkpt lat="43.23113873544798" lon="12.964302971829813"><ele>563.0</ele><time>2026-03-28T08:27:54.936Z</time></trkpt><trkpt lat="43.23115493007332" lon="12.964209318165187"><ele>563.0</ele><time>2026-03-28T08:27:58.936Z</time></trkpt><trkpt lat="43.231124349416454" lon="12.964108286329553"><ele>563.0</ele><time>2026-03-28T08:28:02.936Z</time></trkpt><trkpt lat="43.231065006697435" lon="12.96403359677529"><ele>563.0</ele><time>2026-03-28T08:28:05.936Z</time></trkpt><trkpt lat="43.23108208522672" lon="12.963911820815358"><ele>563.0</ele><time>2026-03-28T08:28:07.936Z</time></trkpt><trkpt lat="43.23097346002547" lon="12.963750694008045"><ele>563.0</ele><time>2026-03-28T08:28:14.935Z</time></trkpt><trkpt lat="43.23091563651863" lon="12.963806262735128"><ele>563.0</ele><time>2026-03-28T08:28:17Z</time></trkpt><trkpt lat="43.230889482231184" lon="12.963935527322384"><ele>563.0</ele><time>2026-03-28T08:28:20Z</time></trkpt><trkpt lat="43.230912828357575" lon="12.964020217666068"><ele>563.0</ele><time>2026-03-28T08:28:23Z</time></trkpt><trkpt lat="43.23085328023406" lon="12.964056507254291"><ele>563.0</ele><time>2026-03-28T08:28:25Z</time></trkpt><trkpt lat="43.23082993533139" lon="12.964159542437327"><ele>563.0</ele><time>2026-03-28T08:28:26Z</time></trkpt><trkpt lat="43.230832024075205" lon="12.964299845604934"><ele>563.0</ele><time>2026-03-28T08:28:27Z</time></trkpt><trkpt lat="43.23082042696016" lon="12.964420846810516"><ele>563.0</ele><time>2026-03-28T08:28:28Z</time></trkpt><trkpt lat="43.23079962350067" lon="12.964508641383123"><ele>563.0</ele><time>2026-03-28T08:28:29Z</time></trkpt><trkpt lat="43.230799229405065" lon="12.964683472187899"><ele>563.0</ele><time>2026-03-28T08:28:31Z</time></trkpt><trkpt lat="43.230808484461335" lon="12.964776307869398"><ele>563.0</ele><time>2026-03-28T08:28:33Z</time></trkpt><trkpt lat="43.23084789622717" lon="12.96487199211186"><ele>563.0</ele><time>2026-03-28T08:28:36Z</time></trkpt><trkpt lat="43.230824147013294" lon="12.965008211056505"><ele>559.75</ele><time>2026-03-28T08:28:38Z</time></trkpt><trkpt lat="43.23067976711791" lon="12.965039738966032"><ele>556.5</ele><time>2026-03-28T08:28:43Z</time></trkpt><trkpt lat="43.230561505642335" lon="12.965001872515067"><ele>553.25</ele><time>2026-03-28T08:28:44Z</time></trkpt><trkpt lat="43.23049124454326" lon="12.964950362054461"><ele>550.0</ele><time>2026-03-28T08:28:45Z</time></trkpt><trkpt lat="43.23037342596761" lon="12.964876940553209"><ele>557.6</ele><time>2026-03-28T08:28:46Z</time></trkpt><trkpt lat="43.23027971217335" lon="12.964834834963355"><ele>565.2</ele><time>2026-03-28T08:28:47Z</time></trkpt><trkpt lat="43.23017623967343" lon="12.964767744346101"><ele>572.8</ele><time>2026-03-28T08:28:48Z</time></trkpt><trkpt lat="43.23007699580586" lon="12.964695003702145"><ele>580.4</ele><time>2026-03-28T08:28:49Z</time></trkpt><trkpt lat="43.22999762883699" lon="12.964655167095831"><ele>588.0</ele><time>2026-03-28T08:28:50Z</time></trkpt><trkpt lat="43.22991422816909" lon="12.96461375995352"><ele>588.0</ele><time>2026-03-28T08:28:51Z</time></trkpt><trkpt lat="43.22981453809863" lon="12.964617312040591"><ele>588.0</ele><time>2026-03-28T08:28:52Z</time></trkpt><trkpt lat="43.229717396195355" lon="12.964718372511891"><ele>588.0</ele><time>2026-03-28T08:28:53Z</time></trkpt><trkpt lat="43.22963067230936" lon="12.96476268298567"><ele>588.0</ele><time>2026-03-28T08:28:54Z</time></trkpt><trkpt lat="43.22954023154088" lon="12.964813975068681"><ele>588.0</ele><time>2026-03-28T08:28:57Z</time></trkpt><trkpt lat="43.229523899382876" lon="12.96489783573801"><ele>587.4</ele><time>2026-03-28T08:28:59Z</time></trkpt><trkpt lat="43.2296640407548" lon="12.96491895245824"><ele>586.8</ele><time>2026-03-28T08:29:00Z</time></trkpt><trkpt lat="43.22972058290133" lon="12.965043914504406"><ele>586.2</ele><time>2026-03-28T08:29:02Z</time></trkpt><trkpt lat="43.22972149662853" lon="12.965160224818703"><ele>585.6</ele><time>2026-03-28T08:29:04Z</time></trkpt><trkpt lat="43.2296599925117" lon="12.965237639082517"><ele>585.0</ele><time>2026-03-28T08:29:06Z</time></trkpt><trkpt lat="43.22956069496293" lon="12.965517076269215"><ele>585.0</ele><time>2026-03-28T08:29:10Z</time></trkpt><trkpt lat="43.22950745086546" lon="12.965575561756866"><ele>585.0</ele><time>2026-03-28T08:29:12Z</time></trkpt><trkpt lat="43.22943073396786" lon="12.965547601502282"><ele>585.0</ele><time>2026-03-28T08:29:15Z</time></trkpt><trkpt lat="43.22936570630051" lon="12.96550097470967"><ele>585.0</ele><time>2026-03-28T08:29:18Z</time></trkpt><trkpt lat="43.229238175739276" lon="12.965484338599447"><ele>585.0</ele><time>2026-03-28T08:29:21Z</time></trkpt><trkpt lat="43.229129492189955" lon="12.96547410247114"><ele>585.0</ele><time>2026-03-28T08:29:23Z</time></trkpt><trkpt lat="43.22906335873363" lon="12.965471793917608"><ele>585.0</ele><time>2026-03-28T08:29:24Z</time></trkpt><trkpt lat="43.22898289595876" lon="12.965464014814605"><ele>585.0</ele><time>2026-03-28T08:29:26Z</time></trkpt><trkpt lat="43.2289314425137" lon="12.965526052932985"><ele>585.0</ele><time>2026-03-28T08:29:28Z</time></trkpt><trkpt lat="43.22871949974671" lon="12.965553792658241"><ele>585.0</ele><time>2026-03-28T08:29:32Z</time></trkpt><trkpt lat="43.228609081179286" lon="12.965524331477999"><ele>587.5</ele><time>2026-03-28T08:29:33Z</time></trkpt><trkpt lat="43.228529298195795" lon="12.965497188510696"><ele>590.0</ele><time>2026-03-28T08:29:34Z</time></trkpt><trkpt lat="43.22844276613987" lon="12.965468423041166"><ele>592.5</ele><time>2026-03-28T08:29:37Z</time></trkpt><trkpt lat="43.228375796520666" lon="12.965447676234977"><ele>595.0</ele><time>2026-03-28T08:29:39Z</time></trkpt><trkpt lat="43.228317983614666" lon="12.965486154943337"><ele>597.5</ele><time>2026-03-28T08:29:41Z</time></trkpt><trkpt lat="43.228251752124514" lon="12.965463388018788"><ele>600.0</ele><time>2026-03-28T08:29:43Z</time></trkpt><trkpt lat="43.22817540445227" lon="12.965314228297178"><ele>609.5</ele><time>2026-03-28T08:29:47Z</time></trkpt><trkpt lat="43.228059778716116" lon="12.965029267640292"><ele>619.0</ele><time>2026-03-28T08:29:55Z</time></trkpt><trkpt lat="43.227721019970495" lon="12.965003375531223"><ele>625.3333333333334</ele><time>2026-03-28T08:30:00Z</time></trkpt><trkpt lat="43.22763915674977" lon="12.965013888756575"><ele>631.6666666666667</ele><time>2026-03-28T08:30:01Z</time></trkpt><trkpt lat="43.22756652775345" lon="12.964998259151898"><ele>638.0</ele><time>2026-03-28T08:30:02Z</time></trkpt><trkpt lat="43.22743374028585" lon="12.964954152937874"><ele>644.3333333333334</ele><time>2026-03-28T08:30:04Z</time></trkpt><trkpt lat="43.227373772011774" lon="12.964895723574056"><ele>650.6666666666666</ele><time>2026-03-28T08:30:07Z</time></trkpt><trkpt lat="43.22730951582419" lon="12.964874917439673"><ele>657.0</ele><time>2026-03-28T08:30:10.001Z</time></trkpt><trkpt lat="43.22723952092714" lon="12.96487600600015"><ele>660.5</ele><time>2026-03-28T08:30:12.001Z</time></trkpt><trkpt lat="43.22718262178263" lon="12.964950992286948"><ele>664.0</ele><time>2026-03-28T08:30:16.001Z</time></trkpt><trkpt lat="43.22710396115235" lon="12.965011567439047"><ele>667.5</ele><time>2026-03-28T08:30:18.001Z</time></trkpt><trkpt lat="43.22704629046871" lon="12.965054182247872"><ele>671.0</ele><time>2026-03-28T08:30:20.001Z</time></trkpt><trkpt lat="43.226926243750825" lon="12.965052917367634"><ele>674.5</ele><time>2026-03-28T08:30:22.001Z</time></trkpt><trkpt lat="43.226834816968235" lon="12.965040629130513"><ele>678.0</ele><time>2026-03-28T08:30:24.001Z</time></trkpt><trkpt lat="43.22670124935199" lon="12.965057685534605"><ele>678.0</ele><time>2026-03-28T08:30:25.001Z</time></trkpt><trkpt lat="43.226624004119664" lon="12.965010635965537"><ele>678.0</ele><time>2026-03-28T08:30:28.001Z</time></trkpt><trkpt lat="43.22670244920204" lon="12.965082833536393"><ele>678.0</ele><time>2026-03-28T08:30:30.001Z</time></trkpt><trkpt lat="43.22673468609578" lon="12.965198275778839"><ele>678.0</ele><time>2026-03-28T08:30:32.001Z</time></trkpt><trkpt lat="43.22676521918921" lon="12.96543032108422"><ele>678.0</ele><time>2026-03-28T08:30:37.001Z</time></trkpt><trkpt lat="43.226739250033724" lon="12.965519516436382"><ele>669.0</ele><time>2026-03-28T08:30:39.001Z</time></trkpt><trkpt lat="43.226684067417814" lon="12.965650299928548"><ele>660.0</ele><time>2026-03-28T08:30:41.001Z</time></trkpt><trkpt lat="43.22666813456132" lon="12.965814038999147"><ele>651.0</ele><time>2026-03-28T08:30:43.001Z</time></trkpt><trkpt lat="43.22661433033629" lon="12.965918678498705"><ele>642.0</ele><time>2026-03-28T08:30:45.001Z</time></trkpt><trkpt lat="43.226583429522435" lon="12.966019253730607"><ele>633.0</ele><time>2026-03-28T08:30:48.001Z</time></trkpt><trkpt lat="43.226488122505195" lon="12.965929046653454"><ele>625.1999999999999</ele><time>2026-03-28T08:30:51.001Z</time></trkpt><trkpt lat="43.22642255874571" lon="12.965906457695176"><ele>617.4</ele><time>2026-03-28T08:30:52.001Z</time></trkpt><trkpt lat="43.22632511100788" lon="12.965914378447595"><ele>609.5999999999999</ele><time>2026-03-28T08:30:54.001Z</time></trkpt><trkpt lat="43.22619525499217" lon="12.965924168376562"><ele>601.8</ele><time>2026-03-28T08:30:55.001Z</time></trkpt><trkpt lat="43.22610518005887" lon="12.965922484923821"><ele>594.0</ele><time>2026-03-28T08:30:57.001Z</time></trkpt><trkpt lat="43.226022039676614" lon="12.965903931444798"><ele>594.0</ele><time>2026-03-28T08:30:59.001Z</time></trkpt><trkpt lat="43.225953078345" lon="12.965883058047309"><ele>594.0</ele><time>2026-03-28T08:31:01.001Z</time></trkpt><trkpt lat="43.225888954603235" lon="12.9658487268109"><ele>594.0</ele><time>2026-03-28T08:31:03.001Z</time></trkpt><trkpt lat="43.22580836676873" lon="12.965822630087871"><ele>594.0</ele><time>2026-03-28T08:31:05.001Z</time></trkpt><trkpt lat="43.22573256664077" lon="12.96571896257964"><ele>594.0</ele><time>2026-03-28T08:31:06.001Z</time></trkpt><trkpt lat="43.22566218816304" lon="12.965601164664001"><ele>594.0</ele><time>2026-03-28T08:31:08.001Z</time></trkpt><trkpt lat="43.225584291561724" lon="12.96554343770123"><ele>605.6</ele><time>2026-03-28T08:31:10.001Z</time></trkpt><trkpt lat="43.22549734549125" lon="12.965490391674653"><ele>617.2</ele><time>2026-03-28T08:31:12.001Z</time></trkpt><trkpt lat="43.225421538444564" lon="12.965423257803655"><ele>628.8000000000001</ele><time>2026-03-28T08:31:15.001Z</time></trkpt><trkpt lat="43.22535600149003" lon="12.965319755397019"><ele>640.4</ele><time>2026-03-28T08:31:17.001Z</time></trkpt><trkpt lat="43.22529004055478" lon="12.965232316664391"><ele>652.0</ele><time>2026-03-28T08:31:19.001Z</time></trkpt><trkpt lat="43.22525997624271" lon="12.965058420479268"><ele>660.0</ele><time>2026-03-28T08:31:21.001Z</time></trkpt><trkpt lat="43.22522832406426" lon="12.964945050673158"><ele>668.0</ele><time>2026-03-28T08:31:23.001Z</time></trkpt><trkpt lat="43.225199546243466" lon="12.964838424166402"><ele>676.0</ele><time>2026-03-28T08:31:25.001Z</time></trkpt><trkpt lat="43.2251837937213" lon="12.96474778449744"><ele>684.0</ele><time>2026-03-28T08:31:27.001Z</time></trkpt><trkpt lat="43.22513169669861" lon="12.964598748932234"><ele>692.0</ele><time>2026-03-28T08:31:30.001Z</time></trkpt><trkpt lat="43.22510902369492" lon="12.964477363794856"><ele>692.0</ele><time>2026-03-28T08:31:32.001Z</time></trkpt><trkpt lat="43.2249752397808" lon="12.964418068516107"><ele>692.0</ele><time>2026-03-28T08:31:33.001Z</time></trkpt><trkpt lat="43.2249244997281" lon="12.964364743583557"><ele>692.0</ele><time>2026-03-28T08:31:34.001Z</time></trkpt><trkpt lat="43.224881778756284" lon="12.964184093764672"><ele>692.0</ele><time>2026-03-28T08:31:36.001Z</time></trkpt><trkpt lat="43.2248437093851" lon="12.96408837830951"><ele>692.0</ele><time>2026-03-28T08:31:37.001Z</time></trkpt><trkpt lat="43.2247506613082" lon="12.96393321584679"><ele>700.3333333333333</ele><time>2026-03-28T08:31:39.001Z</time></trkpt><trkpt lat="43.22468244990707" lon="12.963857155832745"><ele>708.6666666666666</ele><time>2026-03-28T08:31:40.001Z</time></trkpt><trkpt lat="43.224617604032886" lon="12.963772550600874"><ele>717.0</ele><time>2026-03-28T08:31:41.001Z</time></trkpt><trkpt lat="43.22456124723006" lon="12.963701533431863"><ele>725.3333333333334</ele><time>2026-03-28T08:31:42.001Z</time></trkpt><trkpt lat="43.22451388911123" lon="12.963630577208589"><ele>733.6666666666667</ele><time>2026-03-28T08:31:43.001Z</time></trkpt><trkpt lat="43.22443307968853" lon="12.963586260155559"><ele>742.0</ele><time>2026-03-28T08:31:45.001Z</time></trkpt><trkpt lat="43.22435186075547" lon="12.963518392352649"><ele>742.0</ele><time>2026-03-28T08:31:47.001Z</time></trkpt><trkpt lat="43.22425831158482" lon="12.963549007844632"><ele>742.0</ele><time>2026-03-28T08:31:49.001Z</time></trkpt><trkpt lat="43.224202157469975" lon="12.963504901927413"><ele>742.0</ele><time>2026-03-28T08:31:53.001Z</time></trkpt><trkpt lat="43.224116534963585" lon="12.963557911302471"><ele>742.0</ele><time>2026-03-28T08:31:56.001Z</time></trkpt><trkpt lat="43.224058630461975" lon="12.963481694151286"><ele>742.0</ele><time>2026-03-28T08:32:00.001Z</time></trkpt><trkpt lat="43.22398939917123" lon="12.963411411519317"><ele>742.0</ele><time>2026-03-28T08:32:07.001Z</time></trkpt><trkpt lat="43.22394710981521" lon="12.963492952426"><ele>747.3333333333334</ele><time>2026-03-28T08:32:09.001Z</time></trkpt><trkpt lat="43.22380603447268" lon="12.96349100724714"><ele>752.6666666666666</ele><time>2026-03-28T08:32:18.001Z</time></trkpt><trkpt lat="43.22367179597778" lon="12.96351738070036"><ele>758.0</ele><time>2026-03-28T08:32:19.001Z</time></trkpt><trkpt lat="43.2233982427414" lon="12.963808044687827"><ele>758.0</ele><time>2026-03-28T08:32:20.001Z</time></trkpt><trkpt lat="43.22331172667951" lon="12.963860813140556"><ele>758.0</ele><time>2026-03-28T08:32:21.001Z</time></trkpt><trkpt lat="43.22329901620068" lon="12.96374211372671"><ele>758.0</ele><time>2026-03-28T08:32:23.001Z</time></trkpt><trkpt lat="43.22181879133465" lon="12.972952451752056"><ele>540.0</ele><time>2026-03-28T08:33:44.002Z</time></trkpt><trkpt lat="43.2185002614658" lon="12.981041796229931"><ele>540.0</ele><time>2026-03-28T08:36:46.003Z</time></trkpt><trkpt lat="43.218667485933324" lon="12.981441456579356"><ele>540.0</ele><time>2026-03-28T08:37:12Z</time></trkpt><trkpt lat="43.218575988095715" lon="12.98139730999965"><ele>540.0</ele><time>2026-03-28T08:37:14Z</time></trkpt><trkpt lat="43.21848986486194" lon="12.981372694302328"><ele>540.0</ele><time>2026-03-28T08:37:16Z</time></trkpt><trkpt lat="43.218414630344654" lon="12.981408510384801"><ele>540.0</ele><time>2026-03-28T08:37:18Z</time></trkpt><trkpt lat="43.21823560054371" lon="12.981401340097126"><ele>540.0</ele><time>2026-03-28T08:37:22Z</time></trkpt><trkpt lat="43.2181412060423" lon="12.981434905951565"><ele>540.0</ele><time>2026-03-28T08:37:24Z</time></trkpt><trkpt lat="43.21807790027848" lon="12.981454014670277"><ele>540.0</ele><time>2026-03-28T08:37:25Z</time></trkpt><trkpt lat="43.218003320455395" lon="12.981457615447445"><ele>545.6666666666666</ele><time>2026-03-28T08:37:26Z</time></trkpt><trkpt lat="43.21791428287092" lon="12.981464614119753"><ele>551.3333333333334</ele><time>2026-03-28T08:37:28Z</time></trkpt><trkpt lat="43.21784766966283" lon="12.981459421377034"><ele>557.0</ele><time>2026-03-28T08:37:29Z</time></trkpt><trkpt lat="43.217775718757" lon="12.981478530746553"><ele>562.6666666666667</ele><time>2026-03-28T08:37:30Z</time></trkpt><trkpt lat="43.21768234364236" lon="12.98146004952945"><ele>568.3333333333334</ele><time>2026-03-28T08:37:32Z</time></trkpt><trkpt lat="43.21759824822847" lon="12.981482531951045"><ele>574.0</ele><time>2026-03-28T08:37:34Z</time></trkpt><trkpt lat="43.217491453709165" lon="12.981504801343739"><ele>574.0</ele><time>2026-03-28T08:37:35Z</time></trkpt><trkpt lat="43.21742768110363" lon="12.981503642829683"><ele>574.0</ele><time>2026-03-28T08:37:36Z</time></trkpt><trkpt lat="43.21736072540249" lon="12.981490726337917"><ele>574.0</ele><time>2026-03-28T08:37:37Z</time></trkpt><trkpt lat="43.21753709772786" lon="12.981363175794284"><ele>574.0</ele><time>2026-03-28T08:37:38Z</time></trkpt><trkpt lat="43.217423563294695" lon="12.981289067120466"><ele>574.0</ele><time>2026-03-28T08:37:41Z</time></trkpt><trkpt lat="43.21732737496379" lon="12.981260047351489"><ele>574.0</ele><time>2026-03-28T08:37:43Z</time></trkpt><trkpt lat="43.21727729454431" lon="12.981204403887645"><ele>574.0</ele><time>2026-03-28T08:37:45Z</time></trkpt><trkpt lat="43.217221825239896" lon="12.981140401175558"><ele>574.0</ele><time>2026-03-28T08:37:47Z</time></trkpt><trkpt lat="43.217122366112434" lon="12.98107982974883"><ele>574.0</ele><time>2026-03-28T08:37:49Z</time></trkpt><trkpt lat="43.217030433582" lon="12.981046652352527"><ele>574.0</ele><time>2026-03-28T08:37:51Z</time></trkpt><trkpt lat="43.21694039929238" lon="12.98103024262138"><ele>575.5714285714286</ele><time>2026-03-28T08:37:53Z</time></trkpt><trkpt lat="43.21687650616241" lon="12.981052933589458"><ele>577.1428571428571</ele><time>2026-03-28T08:37:55Z</time></trkpt><trkpt lat="43.216838318441106" lon="12.98112753251683"><ele>578.7142857142858</ele><time>2026-03-28T08:37:58Z</time></trkpt><trkpt lat="43.216798449301976" lon="12.981215463208528"><ele>580.2857142857142</ele><time>2026-03-28T08:38:00Z</time></trkpt><trkpt lat="43.21675466295687" lon="12.981307894705628"><ele>581.8571428571429</ele><time>2026-03-28T08:38:02Z</time></trkpt><trkpt lat="43.21670730477349" lon="12.981377287323301"><ele>583.4285714285714</ele><time>2026-03-28T08:38:04Z</time></trkpt><trkpt lat="43.21663975973935" lon="12.981426984872288"><ele>585.0</ele><time>2026-03-28T08:38:07Z</time></trkpt><trkpt lat="43.216587046155546" lon="12.981489724867512"><ele>585.0</ele><time>2026-03-28T08:38:10Z</time></trkpt><trkpt lat="43.216498966584744" lon="12.981492361326493"><ele>585.0</ele><time>2026-03-28T08:38:12Z</time></trkpt><trkpt lat="43.21639954146329" lon="12.981474681537776"><ele>585.0</ele><time>2026-03-28T08:38:14Z</time></trkpt><trkpt lat="43.216296063057996" lon="12.981472328507202"><ele>585.0</ele><time>2026-03-28T08:38:16Z</time></trkpt><trkpt lat="43.216207254121436" lon="12.981495345994407"><ele>585.0</ele><time>2026-03-28T08:38:19Z</time></trkpt><trkpt lat="43.21612802309311" lon="12.981563325642265"><ele>583.5</ele><time>2026-03-28T08:38:21Z</time></trkpt><trkpt lat="43.21606982083097" lon="12.98160938754956"><ele>582.0</ele><time>2026-03-28T08:38:23Z</time></trkpt><trkpt lat="43.21600572358953" lon="12.981649503270065"><ele>580.5</ele><time>2026-03-28T08:38:25Z</time></trkpt><trkpt lat="43.21587938735295" lon="12.981690869463463"><ele>579.0</ele><time>2026-03-28T08:38:27Z</time></trkpt><trkpt lat="43.215585305358864" lon="12.981810889968662"><ele>571.5</ele><time>2026-03-28T08:38:29Z</time></trkpt><trkpt lat="43.21534424141449" lon="12.98188826837567"><ele>564.0</ele><time>2026-03-28T08:38:30Z</time></trkpt><trkpt lat="43.214912067253536" lon="12.981892790664249"><ele>566.25</ele><time>2026-03-28T08:38:32Z</time></trkpt><trkpt lat="43.214769608207966" lon="12.981919633610705"><ele>568.5</ele><time>2026-03-28T08:38:34Z</time></trkpt><trkpt lat="43.21468332010805" lon="12.981881991420044"><ele>570.75</ele><time>2026-03-28T08:38:35Z</time></trkpt><trkpt lat="43.214528818960225" lon="12.981900846394693"><ele>573.0</ele><time>2026-03-28T08:38:36Z</time></trkpt><trkpt lat="43.21440256884288" lon="12.981915236723143"><ele>573.0</ele><time>2026-03-28T08:38:37Z</time></trkpt><trkpt lat="43.21430599743901" lon="12.981911228257685"><ele>573.0</ele><time>2026-03-28T08:38:39Z</time></trkpt><trkpt lat="43.21071320401118" lon="12.977638321065292"><ele>588.0</ele><time>2026-03-28T08:40:16Z</time></trkpt><trkpt lat="43.2107760855449" lon="12.977590847941263"><ele>603.0</ele><time>2026-03-28T08:40:22Z</time></trkpt><trkpt lat="43.210800401247454" lon="12.977503687922484"><ele>618.0</ele><time>2026-03-28T08:40:27Z</time></trkpt><trkpt lat="43.21085824331517" lon="12.977441371655983"><ele>633.0</ele><time>2026-03-28T08:40:36Z</time></trkpt><trkpt lat="43.21075190896805" lon="12.977375292863641"><ele>648.0</ele><time>2026-03-28T08:40:40Z</time></trkpt><trkpt lat="43.21082555507888" lon="12.97732031439637"><ele>663.0</ele><time>2026-03-28T08:40:44Z</time></trkpt><trkpt lat="43.21075971839295" lon="12.977133763142511"><ele>668.8333333333334</ele><time>2026-03-28T08:40:57.001Z</time></trkpt><trkpt lat="43.210722646650595" lon="12.976960794147848"><ele>674.6666666666666</ele><time>2026-03-28T08:42:11.001Z</time></trkpt><trkpt lat="43.21073652364621" lon="12.97706422433923"><ele>680.5</ele><time>2026-03-28T08:42:22.001Z</time></trkpt><trkpt lat="43.21069874900366" lon="12.977136302529997"><ele>686.3333333333333</ele><time>2026-03-28T08:42:28.001Z</time></trkpt><trkpt lat="43.2106984700777" lon="12.977237742537048"><ele>692.1666666666666</ele><time>2026-03-28T08:42:33.001Z</time></trkpt><trkpt lat="43.21066376552226" lon="12.977157738526593"><ele>698.0</ele><time>2026-03-28T08:42:34.001Z</time></trkpt><trkpt lat="43.21059238728138" lon="12.977128301544202"><ele>697.3333333333333</ele><time>2026-03-28T08:42:37.001Z</time></trkpt><trkpt lat="43.210540032134055" lon="12.977232316766626"><ele>696.6666666666666</ele><time>2026-03-28T08:42:40.001Z</time></trkpt><trkpt lat="43.210507151234886" lon="12.977328987038646"><ele>696.0</ele><time>2026-03-28T08:42:42.001Z</time></trkpt><trkpt lat="43.21046536301741" lon="12.977416307189115"><ele>695.3333333333334</ele><time>2026-03-28T08:42:45.001Z</time></trkpt><trkpt lat="43.21040276067237" lon="12.977450835579681"><ele>694.6666666666667</ele><time>2026-03-28T08:42:48.001Z</time></trkpt><trkpt lat="43.21035268318797" lon="12.977520395352546"><ele>694.0</ele><time>2026-03-28T08:42:52.001Z</time></trkpt><trkpt lat="43.2102867424522" lon="12.977531229927536"><ele>694.0</ele><time>2026-03-28T08:42:58.001Z</time></trkpt><trkpt lat="43.21017345274459" lon="12.977517884113846"><ele>694.0</ele><time>2026-03-28T08:43:01.001Z</time></trkpt><trkpt lat="43.21017665501914" lon="12.977605986602645"><ele>694.0</ele><time>2026-03-28T08:43:08.001Z</time></trkpt><trkpt lat="43.2102242201644" lon="12.977666739278952"><ele>694.0</ele><time>2026-03-28T08:43:17.001Z</time></trkpt><trkpt lat="43.21014641600632" lon="12.977699602435083"><ele>694.0</ele><time>2026-03-28T08:43:24.001Z</time></trkpt><trkpt lat="43.210080769162616" lon="12.977731894789223"><ele>694.0</ele><time>2026-03-28T08:43:28.001Z</time></trkpt><trkpt lat="43.21001671697031" lon="12.977780258801497"><ele>694.0</ele><time>2026-03-28T08:43:34.001Z</time></trkpt><trkpt lat="43.21000919751805" lon="12.97786703040557"><ele>694.0</ele><time>2026-03-28T08:43:38.001Z</time></trkpt><trkpt lat="43.209996308733835" lon="12.9779623610543"><ele>694.0</ele><time>2026-03-28T08:43:42.001Z</time></trkpt><trkpt lat="43.20999297419506" lon="12.978055758380181"><ele>694.0</ele><time>2026-03-28T08:43:46.001Z</time></trkpt><trkpt lat="43.2099928180707" lon="12.978154905836966"><ele>694.0</ele><time>2026-03-28T08:43:52.001Z</time></trkpt><trkpt lat="43.210078003267476" lon="12.978169680665967"><ele>694.0</ele><time>2026-03-28T08:44:16Z</time></trkpt><trkpt lat="43.21008301676182" lon="12.978073584757661"><ele>694.0</ele><time>2026-03-28T08:44:19Z</time></trkpt><trkpt lat="43.21002375019559" lon="12.978042453380278"><ele>694.0</ele><time>2026-03-28T08:44:22Z</time></trkpt><trkpt lat="43.2099120493485" lon="12.978036001489146"><ele>694.0</ele><time>2026-03-28T08:44:29Z</time></trkpt><trkpt lat="43.20987954287266" lon="12.977950967284622"><ele>694.0</ele><time>2026-03-28T08:44:39Z</time></trkpt><trkpt lat="43.20988592132737" lon="12.977860059404206"><ele>694.0</ele><time>2026-03-28T08:44:41Z</time></trkpt><trkpt lat="43.209901038361735" lon="12.977703075411103"><ele>694.0</ele><time>2026-03-28T08:44:44Z</time></trkpt><trkpt lat="43.209844715455866" lon="12.977745352249276"><ele>694.0</ele><time>2026-03-28T08:45:11Z</time></trkpt><trkpt lat="43.209771588483456" lon="12.977780775219129"><ele>699.1428571428572</ele><time>2026-03-28T08:45:14Z</time></trkpt><trkpt lat="43.20973925884908" lon="12.977863354628296"><ele>704.2857142857142</ele><time>2026-03-28T08:45:17Z</time></trkpt><trkpt lat="43.20966706959326" lon="12.977919273097573"><ele>709.4285714285714</ele><time>2026-03-28T08:45:20Z</time></trkpt><trkpt lat="43.20961999796971" lon="12.97800866503053"><ele>714.5714285714287</ele><time>2026-03-28T08:45:23Z</time></trkpt><trkpt lat="43.209545800723454" lon="12.97803270226802"><ele>719.7142857142858</ele><time>2026-03-28T08:45:26Z</time></trkpt><trkpt lat="43.209491067055836" lon="12.978086619644701"><ele>724.8571428571429</ele><time>2026-03-28T08:45:34Z</time></trkpt><trkpt lat="43.20942390279261" lon="12.978045478251255"><ele>730.0</ele><time>2026-03-28T08:45:40Z</time></trkpt><trkpt lat="43.20938339036159" lon="12.977966938962073"><ele>730.0</ele><time>2026-03-28T08:45:55Z</time></trkpt><trkpt lat="43.20931807049447" lon="12.978019568336464"><ele>730.0</ele><time>2026-03-28T08:46:00.001Z</time></trkpt><trkpt lat="43.20930140738114" lon="12.97811290307837"><ele>730.0</ele><time>2026-03-28T08:46:10.001Z</time></trkpt><trkpt lat="43.209236842189746" lon="12.978133877518275"><ele>730.0</ele><time>2026-03-28T08:46:29.001Z</time></trkpt><trkpt lat="43.20917941646736" lon="12.978209677815574"><ele>730.0</ele><time>2026-03-28T08:46:33.001Z</time></trkpt><trkpt lat="43.20912045601517" lon="12.978305551215668"><ele>730.0</ele><time>2026-03-28T08:46:34.001Z</time></trkpt><trkpt lat="43.20918166778228" lon="12.97837990103772"><ele>729.0</ele><time>2026-03-28T08:47:38.001Z</time></trkpt><trkpt lat="43.20923147540729" lon="12.97845535250755"><ele>728.0</ele><time>2026-03-28T08:47:42.001Z</time></trkpt><trkpt lat="43.20928912396066" lon="12.978500353611732"><ele>727.0</ele><time>2026-03-28T08:47:47.001Z</time></trkpt><trkpt lat="43.20936823532584" lon="12.97856145599981"><ele>726.0</ele><time>2026-03-28T08:47:50.001Z</time></trkpt><trkpt lat="43.2094332384377" lon="12.978619890796814"><ele>725.0</ele><time>2026-03-28T08:47:52.001Z</time></trkpt><trkpt lat="43.209468548682366" lon="12.97873229863781"><ele>724.0</ele><time>2026-03-28T08:47:59.001Z</time></trkpt><trkpt lat="43.20944356764355" lon="12.978813240066135"><ele>724.0</ele><time>2026-03-28T08:48:04.001Z</time></trkpt><trkpt lat="43.20939859763509" lon="12.978875579280878"><ele>724.0</ele><time>2026-03-28T08:48:28.001Z</time></trkpt><trkpt lat="43.20945019396104" lon="12.978930695434508"><ele>724.0</ele><time>2026-03-28T08:48:35.001Z</time></trkpt><trkpt lat="43.209478360177506" lon="12.979027418876177"><ele>724.0</ele><time>2026-03-28T08:48:39.001Z</time></trkpt><trkpt lat="43.20952310809776" lon="12.979090880066055"><ele>724.0</ele><time>2026-03-28T08:48:42.001Z</time></trkpt><trkpt lat="43.20952556840372" lon="12.979181862649037"><ele>724.0</ele><time>2026-03-28T08:48:43.001Z</time></trkpt><trkpt lat="43.20952190112673" lon="12.979287604035294"><ele>724.0</ele><time>2026-03-28T08:48:44.001Z</time></trkpt><trkpt lat="43.2095091691221" lon="12.979408361829563"><ele>727.0</ele><time>2026-03-28T08:48:46.001Z</time></trkpt><trkpt lat="43.20955084048532" lon="12.979479851314473"><ele>730.0</ele><time>2026-03-28T08:48:51.001Z</time></trkpt><trkpt lat="43.209567128952116" lon="12.979395130064779"><ele>733.0</ele><time>2026-03-28T08:49:06.001Z</time></trkpt><trkpt lat="43.209520923321016" lon="12.979334271611085"><ele>736.0</ele><time>2026-03-28T08:49:11.001Z</time></trkpt><trkpt lat="43.209443135330964" lon="12.979372024429859"><ele>739.0</ele><time>2026-03-28T08:49:18.001Z</time></trkpt><trkpt lat="43.209398318774305" lon="12.979449551846018"><ele>742.0</ele><time>2026-03-28T08:49:24.001Z</time></trkpt><trkpt lat="43.20933714471746" lon="12.97942614918874"><ele>745.0</ele><time>2026-03-28T08:49:37.001Z</time></trkpt><trkpt lat="43.20931322471456" lon="12.979340497007597"><ele>745.0</ele><time>2026-03-28T08:49:56.002Z</time></trkpt><trkpt lat="43.20927589232536" lon="12.97919743871807"><ele>745.0</ele><time>2026-03-28T08:50:10.002Z</time></trkpt><trkpt lat="43.20921855626074" lon="12.979149274687593"><ele>745.0</ele><time>2026-03-28T08:50:17.002Z</time></trkpt><trkpt lat="43.209156459643445" lon="12.979084152653746"><ele>745.0</ele><time>2026-03-28T08:50:25.002Z</time></trkpt><trkpt lat="43.20912362803834" lon="12.979000721635948"><ele>745.0</ele><time>2026-03-28T08:50:31.002Z</time></trkpt><trkpt lat="43.209283229932524" lon="12.97905260783826"><ele>745.0</ele><time>2026-03-28T08:51:54Z</time></trkpt><trkpt lat="43.209348909588705" lon="12.979087971718878"><ele>745.0</ele><time>2026-03-28T08:52:01Z</time></trkpt><trkpt lat="43.20937364851551" lon="12.979167918102396"><ele>745.0</ele><time>2026-03-28T08:52:10Z</time></trkpt><trkpt lat="43.2094184533169" lon="12.979232720747989"><ele>745.0</ele><time>2026-03-28T08:52:17Z</time></trkpt><trkpt lat="43.20944659598256" lon="12.979331562006255"><ele>745.0</ele><time>2026-03-28T08:52:25Z</time></trkpt><trkpt lat="43.20939568244678" lon="12.97939785876662"><ele>745.0</ele><time>2026-03-28T08:52:29Z</time></trkpt><trkpt lat="43.20933191216189" lon="12.979431503527412"><ele>745.0</ele><time>2026-03-28T08:52:35Z</time></trkpt><trkpt lat="43.20926000165177" lon="12.97942693448553"><ele>745.0</ele><time>2026-03-28T08:52:43Z</time></trkpt><trkpt lat="43.2092048772505" lon="12.979360730821739"><ele>745.0</ele><time>2026-03-28T08:52:52Z</time></trkpt><trkpt lat="43.20913512251216" lon="12.97934066265238"><ele>745.0</ele><time>2026-03-28T08:52:59Z</time></trkpt><trkpt lat="43.209057596108885" lon="12.979360893038786"><ele>745.0</ele><time>2026-03-28T08:53:03Z</time></trkpt><trkpt lat="43.20898452422991" lon="12.979354191128003"><ele>745.0</ele><time>2026-03-28T08:53:07Z</time></trkpt><trkpt lat="43.208911749266576" lon="12.979389257879333"><ele>745.0</ele><time>2026-03-28T08:53:12Z</time></trkpt><trkpt lat="43.20885167746136" lon="12.979438901955273"><ele>745.0</ele><time>2026-03-28T08:53:15Z</time></trkpt><trkpt lat="43.2087930265588" lon="12.97951798967824"><ele>749.5</ele><time>2026-03-28T08:53:19Z</time></trkpt><trkpt lat="43.20871787680412" lon="12.979557379356457"><ele>754.0</ele><time>2026-03-28T08:53:23Z</time></trkpt><trkpt lat="43.20864017283415" lon="12.979609085985448"><ele>758.5</ele><time>2026-03-28T08:53:27Z</time></trkpt><trkpt lat="43.20857856480665" lon="12.97964246288552"><ele>763.0</ele><time>2026-03-28T08:53:31Z</time></trkpt><trkpt lat="43.208507521659605" lon="12.979635263942622"><ele>767.4999999999999</ele><time>2026-03-28T08:53:50Z</time></trkpt><trkpt lat="43.20850948643739" lon="12.979504775844497"><ele>772.0</ele><time>2026-03-28T08:54:19Z</time></trkpt><trkpt lat="43.20844995720176" lon="12.979566170275746"><ele>772.0000000000001</ele><time>2026-03-28T08:54:39Z</time></trkpt><trkpt lat="43.20838201574318" lon="12.979589321761097"><ele>772.0</ele><time>2026-03-28T08:54:47Z</time></trkpt><trkpt lat="43.20830337330092" lon="12.979572547295001"><ele>772.0</ele><time>2026-03-28T08:54:52Z</time></trkpt><trkpt lat="43.20822538720252" lon="12.979563716019557"><ele>772.0</ele><time>2026-03-28T08:54:56Z</time></trkpt><trkpt lat="43.208145742624396" lon="12.979531017494555"><ele>772.0</ele><time>2026-03-28T08:55:00Z</time></trkpt><trkpt lat="43.20809668425744" lon="12.979591499901257"><ele>772.0000000000001</ele><time>2026-03-28T08:55:08Z</time></trkpt><trkpt lat="43.208075729155176" lon="12.979680466535441"><ele>772.0</ele><time>2026-03-28T08:55:14Z</time></trkpt><trkpt lat="43.20811058990853" lon="12.97975342794459"><ele>772.0000000000001</ele><time>2026-03-28T08:56:08.001Z</time></trkpt><trkpt lat="43.20816602249002" lon="12.979816401434432"><ele>772.0</ele><time>2026-03-28T08:56:11.001Z</time></trkpt><trkpt lat="43.20822824289598" lon="12.979865684224093"><ele>772.0</ele><time>2026-03-28T08:56:14.001Z</time></trkpt><trkpt lat="43.208301830999915" lon="12.979911745929002"><ele>772.0</ele><time>2026-03-28T08:56:17.001Z</time></trkpt><trkpt lat="43.20835128617308" lon="12.979965429113163"><ele>772.0</ele><time>2026-03-28T08:56:20.001Z</time></trkpt><trkpt lat="43.20842192427257" lon="12.980002793622997"><ele>772.0000000000001</ele><time>2026-03-28T08:56:23.001Z</time></trkpt><trkpt lat="43.20849643308786" lon="12.980056727916375"><ele>772.0</ele><time>2026-03-28T08:56:27.001Z</time></trkpt><trkpt lat="43.208563831820165" lon="12.980077933123042"><ele>774.8571428571429</ele><time>2026-03-28T08:56:30.001Z</time></trkpt><trkpt lat="43.208637757980604" lon="12.98010950909507"><ele>777.7142857142858</ele><time>2026-03-28T08:56:33.001Z</time></trkpt><trkpt lat="43.20869696532342" lon="12.98014184475407"><ele>780.5714285714287</ele><time>2026-03-28T08:56:35.001Z</time></trkpt><trkpt lat="43.20876470758907" lon="12.980170483984061"><ele>783.4285714285714</ele><time>2026-03-28T08:56:37.001Z</time></trkpt><trkpt lat="43.208816943853904" lon="12.980226979395672"><ele>786.2857142857142</ele><time>2026-03-28T08:56:39.001Z</time></trkpt><trkpt lat="43.20886467299276" lon="12.980327549539702"><ele>789.1428571428572</ele><time>2026-03-28T08:56:42.001Z</time></trkpt><trkpt lat="43.20889394365462" lon="12.98043216623012"><ele>792.0</ele><time>2026-03-28T08:56:45.001Z</time></trkpt><trkpt lat="43.208909132065685" lon="12.980524765912909"><ele>792.0</ele><time>2026-03-28T08:56:49.001Z</time></trkpt><trkpt lat="43.2089291659244" lon="12.980612370502278"><ele>792.0</ele><time>2026-03-28T08:56:56.001Z</time></trkpt><trkpt lat="43.208941510043445" lon="12.980714302808812"><ele>792.0</ele><time>2026-03-28T08:57:05.001Z</time></trkpt><trkpt lat="43.20894773419076" lon="12.980819528719872"><ele>792.0</ele><time>2026-03-28T08:57:08.001Z</time></trkpt><trkpt lat="43.20894416450334" lon="12.980915337396803"><ele>792.0</ele><time>2026-03-28T08:57:11.001Z</time></trkpt><trkpt lat="43.20894653731732" lon="12.981020775600577"><ele>792.0</ele><time>2026-03-28T08:57:14.001Z</time></trkpt><trkpt lat="43.20891642836874" lon="12.981176222330772"><ele>790.3333333333334</ele><time>2026-03-28T08:57:17.001Z</time></trkpt><trkpt lat="43.20888458103346" lon="12.981296794733783"><ele>788.6666666666667</ele><time>2026-03-28T08:57:19.001Z</time></trkpt><trkpt lat="43.2088552723975" lon="12.981410688515304"><ele>787.0</ele><time>2026-03-28T08:57:21.001Z</time></trkpt><trkpt lat="43.20882480995374" lon="12.98152416126084"><ele>785.3333333333334</ele><time>2026-03-28T08:57:24.001Z</time></trkpt><trkpt lat="43.20878996537235" lon="12.981613655493701"><ele>783.6666666666667</ele><time>2026-03-28T08:57:27.001Z</time></trkpt><trkpt lat="43.20877056757504" lon="12.981695869874688"><ele>782.0</ele><time>2026-03-28T08:57:35.001Z</time></trkpt><trkpt lat="43.208776526463595" lon="12.981796070358536"><ele>778.6666666666667</ele><time>2026-03-28T08:57:41.001Z</time></trkpt><trkpt lat="43.208730984820974" lon="12.98188220975809"><ele>775.3333333333334</ele><time>2026-03-28T08:57:43.001Z</time></trkpt><trkpt lat="43.20868385621927" lon="12.981944063593419"><ele>772.0</ele><time>2026-03-28T08:57:45.001Z</time></trkpt><trkpt lat="43.20864287648712" lon="12.982015919818497"><ele>768.6666666666667</ele><time>2026-03-28T08:57:48.001Z</time></trkpt><trkpt lat="43.208580519382" lon="12.982096247532294"><ele>765.3333333333334</ele><time>2026-03-28T08:57:52.001Z</time></trkpt><trkpt lat="43.20851416528298" lon="12.982169081468848"><ele>762.0</ele><time>2026-03-28T08:57:55.001Z</time></trkpt><trkpt lat="43.20845111689946" lon="12.982230657926499"><ele>762.0</ele><time>2026-03-28T08:57:57.001Z</time></trkpt><trkpt lat="43.20840417610105" lon="12.982293730255872"><ele>762.0</ele><time>2026-03-28T08:57:59.001Z</time></trkpt><trkpt lat="43.20835418422658" lon="12.982363860030045"><ele>762.0</ele><time>2026-03-28T08:58:01.001Z</time></trkpt><trkpt lat="43.20829666785303" lon="12.982437403729461"><ele>762.0</ele><time>2026-03-28T08:58:03.001Z</time></trkpt><trkpt lat="43.20825267256797" lon="12.982512474782009"><ele>762.0</ele><time>2026-03-28T08:58:05.001Z</time></trkpt><trkpt lat="43.20826070192577" lon="12.982618792207525"><ele>762.0</ele><time>2026-03-28T08:58:09Z</time></trkpt><trkpt lat="43.208219438381256" lon="12.98270278192885"><ele>762.0</ele><time>2026-03-28T08:58:13Z</time></trkpt><trkpt lat="43.208228288004776" lon="12.98279444449207"><ele>760.6666666666666</ele><time>2026-03-28T08:58:16Z</time></trkpt><trkpt lat="43.20826499053173" lon="12.982869930179222"><ele>759.3333333333334</ele><time>2026-03-28T08:58:19Z</time></trkpt><trkpt lat="43.20823012147119" lon="12.982947707754791"><ele>758.0</ele><time>2026-03-28T08:58:24Z</time></trkpt><trkpt lat="43.20822735596348" lon="12.983054610727313"><ele>756.6666666666667</ele><time>2026-03-28T08:58:30Z</time></trkpt><trkpt lat="43.208265629976076" lon="12.983176659134118"><ele>755.3333333333334</ele><time>2026-03-28T08:58:32Z</time></trkpt><trkpt lat="43.208297088223375" lon="12.983295605345322"><ele>754.0</ele><time>2026-03-28T08:58:34Z</time></trkpt><trkpt lat="43.20832672665666" lon="12.983395804533156"><ele>754.0</ele><time>2026-03-28T08:58:36Z</time></trkpt><trkpt lat="43.20834654738332" lon="12.983507939165493"><ele>754.0</ele><time>2026-03-28T08:58:38Z</time></trkpt><trkpt lat="43.20836550295828" lon="12.98361871570167"><ele>754.0</ele><time>2026-03-28T08:58:40Z</time></trkpt><trkpt lat="43.20840057166719" lon="12.98370112064443"><ele>754.0</ele><time>2026-03-28T08:58:42Z</time></trkpt><trkpt lat="43.208415583218596" lon="12.98380526260667"><ele>754.0</ele><time>2026-03-28T08:58:45Z</time></trkpt><trkpt lat="43.208446440422115" lon="12.98388714137178"><ele>754.0</ele><time>2026-03-28T08:58:48Z</time></trkpt><trkpt lat="43.20846841699754" lon="12.983979524816487"><ele>754.0</ele><time>2026-03-28T08:58:51Z</time></trkpt><trkpt lat="43.20851781270035" lon="12.98409247274003"><ele>754.0</ele><time>2026-03-28T08:58:53Z</time></trkpt><trkpt lat="43.208568421713004" lon="12.984232758616589"><ele>754.0</ele><time>2026-03-28T08:58:55Z</time></trkpt><trkpt lat="43.20861443723639" lon="12.984380306236382"><ele>754.0</ele><time>2026-03-28T08:58:57Z</time></trkpt><trkpt lat="43.20864617638812" lon="12.98449574966073"><ele>754.0</ele><time>2026-03-28T08:58:59Z</time></trkpt><trkpt lat="43.20867191318983" lon="12.984587688384645"><ele>754.5</ele><time>2026-03-28T08:59:01Z</time></trkpt><trkpt lat="43.20869885234039" lon="12.984677731896554"><ele>755.0</ele><time>2026-03-28T08:59:04Z</time></trkpt><trkpt lat="43.20873377051179" lon="12.98478401212099"><ele>755.5</ele><time>2026-03-28T08:59:07Z</time></trkpt><trkpt lat="43.20875997937281" lon="12.984870216044321"><ele>756.0</ele><time>2026-03-28T08:59:09Z</time></trkpt><trkpt lat="43.208781348189355" lon="12.984987194561862"><ele>756.5</ele><time>2026-03-28T08:59:12Z</time></trkpt><trkpt lat="43.208801528701215" lon="12.985101441239049"><ele>757.0</ele><time>2026-03-28T08:59:16Z</time></trkpt><trkpt lat="43.20882857260107" lon="12.98518596176964"><ele>757.0</ele><time>2026-03-28T08:59:18Z</time></trkpt><trkpt lat="43.20884483003382" lon="12.985271847139096"><ele>757.0</ele><time>2026-03-28T08:59:20Z</time></trkpt><trkpt lat="43.20885847574901" lon="12.985390517415206"><ele>757.0</ele><time>2026-03-28T08:59:23Z</time></trkpt><trkpt lat="43.20885374023026" lon="12.985507754399332"><ele>757.0</ele><time>2026-03-28T08:59:26Z</time></trkpt><trkpt lat="43.2088549273348" lon="12.985597421258584"><ele>757.0</ele><time>2026-03-28T08:59:30Z</time></trkpt><trkpt lat="43.208815612994535" lon="12.985686458206978"><ele>757.0</ele><time>2026-03-28T08:59:34Z</time></trkpt><trkpt lat="43.208769976461326" lon="12.985775687036568"><ele>757.0</ele><time>2026-03-28T08:59:37Z</time></trkpt><trkpt lat="43.20872210734639" lon="12.98583376121546"><ele>757.0</ele><time>2026-03-28T08:59:39Z</time></trkpt><trkpt lat="43.20868229457615" lon="12.985907323718816"><ele>757.0</ele><time>2026-03-28T08:59:42Z</time></trkpt><trkpt lat="43.208620128690285" lon="12.985977154170795"><ele>757.0</ele><time>2026-03-28T08:59:45Z</time></trkpt><trkpt lat="43.20859396291784" lon="12.986068636392742"><ele>757.0</ele><time>2026-03-28T08:59:48Z</time></trkpt><trkpt lat="43.20856895220833" lon="12.9861534956999"><ele>757.0</ele><time>2026-03-28T08:59:50Z</time></trkpt><trkpt lat="43.208528724827005" lon="12.986235562383257"><ele>757.0</ele><time>2026-03-28T08:59:52Z</time></trkpt><trkpt lat="43.20847551223642" lon="12.986314967927852"><ele>754.1666666666667</ele><time>2026-03-28T08:59:54.001Z</time></trkpt><trkpt lat="43.208433671227" lon="12.98638252680467"><ele>751.3333333333334</ele><time>2026-03-28T08:59:56.001Z</time></trkpt><trkpt lat="43.20837704125912" lon="12.986472146803507"><ele>748.5</ele><time>2026-03-28T08:59:58.001Z</time></trkpt><trkpt lat="43.20832421271525" lon="12.986579138682925"><ele>745.6666666666666</ele><time>2026-03-28T09:00:00.001Z</time></trkpt><trkpt lat="43.20829089481613" lon="12.986659499111987"><ele>742.8333333333333</ele><time>2026-03-28T09:00:02.001Z</time></trkpt><trkpt lat="43.208227403013474" lon="12.98675448281277"><ele>740.0</ele><time>2026-03-28T09:00:05.001Z</time></trkpt><trkpt lat="43.208180759366826" lon="12.986839406343673"><ele>741.1666666666666</ele><time>2026-03-28T09:00:07.001Z</time></trkpt><trkpt lat="43.20813039832754" lon="12.986916135710366"><ele>742.3333333333333</ele><time>2026-03-28T09:00:09.001Z</time></trkpt><trkpt lat="43.20809411873924" lon="12.98700121296472"><ele>743.5</ele><time>2026-03-28T09:00:11.001Z</time></trkpt><trkpt lat="43.208039154997444" lon="12.98708957036097"><ele>744.6666666666666</ele><time>2026-03-28T09:00:13.001Z</time></trkpt><trkpt lat="43.20798165801998" lon="12.987171173748575"><ele>745.8333333333334</ele><time>2026-03-28T09:00:15.001Z</time></trkpt><trkpt lat="43.20793329856731" lon="12.987252016128926"><ele>747.0</ele><time>2026-03-28T09:00:17.001Z</time></trkpt><trkpt lat="43.20788566882215" lon="12.987335924857108"><ele>747.0</ele><time>2026-03-28T09:00:19.001Z</time></trkpt><trkpt lat="43.20782330199902" lon="12.987429085912312"><ele>747.0</ele><time>2026-03-28T09:00:22.001Z</time></trkpt><trkpt lat="43.20777362523103" lon="12.9874893175095"><ele>747.0</ele><time>2026-03-28T09:00:24.001Z</time></trkpt><trkpt lat="43.20770818550496" lon="12.987544214286531"><ele>747.0</ele><time>2026-03-28T09:00:26.001Z</time></trkpt><trkpt lat="43.2076326446341" lon="12.987629262379688"><ele>747.0</ele><time>2026-03-28T09:00:28.001Z</time></trkpt><trkpt lat="43.2075376708006" lon="12.98774442187781"><ele>749.6</ele><time>2026-03-28T09:00:30.001Z</time></trkpt><trkpt lat="43.20745435279511" lon="12.987838268409714"><ele>752.2</ele><time>2026-03-28T09:00:32.001Z</time></trkpt><trkpt lat="43.207372554778196" lon="12.987929372797726"><ele>754.8</ele><time>2026-03-28T09:00:34.001Z</time></trkpt><trkpt lat="43.20728813826699" lon="12.988021017339616"><ele>757.4</ele><time>2026-03-28T09:00:36.001Z</time></trkpt><trkpt lat="43.20719926446717" lon="12.988098547712335"><ele>760.0</ele><time>2026-03-28T09:00:38.001Z</time></trkpt><trkpt lat="43.20713686352071" lon="12.988150116222386"><ele>760.0</ele><time>2026-03-28T09:00:40.001Z</time></trkpt><trkpt lat="43.20707166635747" lon="12.988191693233285"><ele>760.0</ele><time>2026-03-28T09:00:42.001Z</time></trkpt><trkpt lat="43.20698494451598" lon="12.988224255260674"><ele>760.0</ele><time>2026-03-28T09:00:44.001Z</time></trkpt><trkpt lat="43.20690600181216" lon="12.988262135574104"><ele>760.0</ele><time>2026-03-28T09:00:46.001Z</time></trkpt><trkpt lat="43.206826965430196" lon="12.988299438886424"><ele>760.0</ele><time>2026-03-28T09:00:48.001Z</time></trkpt><trkpt lat="43.20674533316338" lon="12.988311067657646"><ele>760.0</ele><time>2026-03-28T09:00:51.001Z</time></trkpt><trkpt lat="43.20666132707656" lon="12.988319967386218"><ele>760.0</ele><time>2026-03-28T09:00:54.001Z</time></trkpt><trkpt lat="43.20658948562287" lon="12.988325568613904"><ele>760.0</ele><time>2026-03-28T09:00:56.001Z</time></trkpt><trkpt lat="43.206526199104275" lon="12.988300083795552"><ele>760.0</ele><time>2026-03-28T09:00:58.001Z</time></trkpt><trkpt lat="43.20643818552964" lon="12.98827219151114"><ele>760.0</ele><time>2026-03-28T09:01:00.001Z</time></trkpt><trkpt lat="43.206352428263486" lon="12.988240227046035"><ele>760.0</ele><time>2026-03-28T09:01:03.001Z</time></trkpt><trkpt lat="43.20627120586526" lon="12.9882207015268"><ele>760.0</ele><time>2026-03-28T09:01:07.001Z</time></trkpt><trkpt lat="43.2061935338309" lon="12.988182786320099"><ele>761.8333333333334</ele><time>2026-03-28T09:01:11.001Z</time></trkpt><trkpt lat="43.206126253648776" lon="12.988116350373605"><ele>763.6666666666667</ele><time>2026-03-28T09:01:16.001Z</time></trkpt><trkpt lat="43.20605558389591" lon="12.988060618003871"><ele>765.5</ele><time>2026-03-28T09:01:19.001Z</time></trkpt><trkpt lat="43.2059951650069" lon="12.987995750703327"><ele>767.3333333333334</ele><time>2026-03-28T09:01:22.001Z</time></trkpt><trkpt lat="43.20593843772022" lon="12.987955234500694"><ele>769.1666666666666</ele><time>2026-03-28T09:01:24.001Z</time></trkpt><trkpt lat="43.20586347587633" lon="12.987918405888964"><ele>771.0</ele><time>2026-03-28T09:01:26.001Z</time></trkpt><trkpt lat="43.205797940868095" lon="12.987914676158432"><ele>771.0</ele><time>2026-03-28T09:01:29.001Z</time></trkpt><trkpt lat="43.205737645125375" lon="12.987880242209158"><ele>771.0</ele><time>2026-03-28T09:01:33.001Z</time></trkpt><trkpt lat="43.20566645255726" lon="12.987885615424359"><ele>771.0</ele><time>2026-03-28T09:01:37.001Z</time></trkpt><trkpt lat="43.20559851093056" lon="12.987906087481482"><ele>771.0</ele><time>2026-03-28T09:01:42.001Z</time></trkpt><trkpt lat="43.20553315503982" lon="12.98789508953695"><ele>771.0</ele><time>2026-03-28T09:01:45.001Z</time></trkpt><trkpt lat="43.2054626037086" lon="12.987909289873022"><ele>771.0</ele><time>2026-03-28T09:01:47.001Z</time></trkpt><trkpt lat="43.20542508590606" lon="12.987822531366913"><ele>771.0</ele><time>2026-03-28T09:01:51.001Z</time></trkpt><trkpt lat="43.205350816702435" lon="12.987811337706365"><ele>769.1428571428572</ele><time>2026-03-28T09:01:54.001Z</time></trkpt><trkpt lat="43.20528458165847" lon="12.987806191215643"><ele>767.2857142857142</ele><time>2026-03-28T09:02:01.001Z</time></trkpt><trkpt lat="43.20522188416727" lon="12.987729123098188"><ele>765.4285714285714</ele><time>2026-03-28T09:02:10.001Z</time></trkpt><trkpt lat="43.205172881709125" lon="12.987672950464123"><ele>763.5714285714287</ele><time>2026-03-28T09:02:18.001Z</time></trkpt><trkpt lat="43.20517130160546" lon="12.987579574762584"><ele>761.7142857142858</ele><time>2026-03-28T09:02:34.001Z</time></trkpt><trkpt lat="43.2051132187717" lon="12.987543609510315"><ele>759.8571428571429</ele><time>2026-03-28T09:02:52.001Z</time></trkpt><trkpt lat="43.20504590999595" lon="12.987547396730905"><ele>758.0</ele><time>2026-03-28T09:03:01.001Z</time></trkpt><trkpt lat="43.20496833333927" lon="12.987524394048783"><ele>759.8571428571429</ele><time>2026-03-28T09:03:13.001Z</time></trkpt><trkpt lat="43.20497190595498" lon="12.987435347582732"><ele>761.7142857142858</ele><time>2026-03-28T09:04:12Z</time></trkpt><trkpt lat="43.20495251518692" lon="12.987335085507631"><ele>763.5714285714287</ele><time>2026-03-28T09:04:57.001Z</time></trkpt><trkpt lat="43.20490817325032" lon="12.987271948376604"><ele>765.4285714285714</ele><time>2026-03-28T09:05:00.001Z</time></trkpt><trkpt lat="43.20485544363099" lon="12.98718631446619"><ele>767.2857142857142</ele><time>2026-03-28T09:05:04.001Z</time></trkpt><trkpt lat="43.20481897145089" lon="12.987103713179502"><ele>769.1428571428572</ele><time>2026-03-28T09:05:07.001Z</time></trkpt><trkpt lat="43.20477615292192" lon="12.987024364111901"><ele>771.0</ele><time>2026-03-28T09:05:12.001Z</time></trkpt><trkpt lat="43.20470789178486" lon="12.986978615844007"><ele>771.0</ele><time>2026-03-28T09:05:17Z</time></trkpt><trkpt lat="43.20467062660294" lon="12.98690307922912"><ele>771.0</ele><time>2026-03-28T09:05:21Z</time></trkpt><trkpt lat="43.2046088759118" lon="12.986842225115629"><ele>771.0</ele><time>2026-03-28T09:05:26Z</time></trkpt><trkpt lat="43.20454278048405" lon="12.986805608369101"><ele>771.0</ele><time>2026-03-28T09:05:29Z</time></trkpt><trkpt lat="43.20446352011064" lon="12.986776309200117"><ele>771.0</ele><time>2026-03-28T09:05:32Z</time></trkpt><trkpt lat="43.20438675516069" lon="12.986765506275269"><ele>771.0</ele><time>2026-03-28T09:05:36Z</time></trkpt><trkpt lat="43.20430833923717" lon="12.98671244833149"><ele>771.0</ele><time>2026-03-28T09:05:40Z</time></trkpt><trkpt lat="43.20424103072951" lon="12.986678127638125"><ele>771.0</ele><time>2026-03-28T09:05:44Z</time></trkpt><trkpt lat="43.20418554784002" lon="12.986606484919516"><ele>771.0</ele><time>2026-03-28T09:05:49Z</time></trkpt><trkpt lat="43.20415716058593" lon="12.986508354297966"><ele>771.0</ele><time>2026-03-28T09:05:55Z</time></trkpt><trkpt lat="43.20412164527526" lon="12.986395550261479"><ele>771.0</ele><time>2026-03-28T09:05:58Z</time></trkpt><trkpt lat="43.20409857000617" lon="12.986313167695739"><ele>771.0</ele><time>2026-03-28T09:06:00Z</time></trkpt><trkpt lat="43.204080026236916" lon="12.986226339571234"><ele>771.0</ele><time>2026-03-28T09:06:02Z</time></trkpt><trkpt lat="43.20407725905693" lon="12.986127888701951"><ele>772.2857142857143</ele><time>2026-03-28T09:06:04Z</time></trkpt><trkpt lat="43.20405333912815" lon="12.986013873282186"><ele>773.5714285714286</ele><time>2026-03-28T09:06:07Z</time></trkpt><trkpt lat="43.204016694616996" lon="12.985938290121721"><ele>774.8571428571429</ele><time>2026-03-28T09:06:10Z</time></trkpt><trkpt lat="43.20397518852896" lon="12.98587289710935"><ele>776.1428571428571</ele><time>2026-03-28T09:06:12Z</time></trkpt><trkpt lat="43.203920303293366" lon="12.985811060593118"><ele>777.4285714285713</ele><time>2026-03-28T09:06:15Z</time></trkpt><trkpt lat="43.20385584936748" lon="12.985757818167698"><ele>778.7142857142857</ele><time>2026-03-28T09:06:18Z</time></trkpt><trkpt lat="43.203788366554036" lon="12.985721607948372"><ele>780.0</ele><time>2026-03-28T09:06:21Z</time></trkpt><trkpt lat="43.203708875509314" lon="12.985702261519736"><ele>782.7142857142857</ele><time>2026-03-28T09:06:24Z</time></trkpt><trkpt lat="43.20361931773897" lon="12.985700801998037"><ele>785.4285714285713</ele><time>2026-03-28T09:06:27Z</time></trkpt><trkpt lat="43.20354782736147" lon="12.985716596843409"><ele>788.1428571428571</ele><time>2026-03-28T09:06:30Z</time></trkpt><trkpt lat="43.20347752886072" lon="12.985721426190839"><ele>790.8571428571429</ele><time>2026-03-28T09:06:33Z</time></trkpt><trkpt lat="43.20341057746745" lon="12.985715335740686"><ele>793.5714285714286</ele><time>2026-03-28T09:06:36Z</time></trkpt><trkpt lat="43.20334445431364" lon="12.985735524351806"><ele>796.2857142857143</ele><time>2026-03-28T09:06:41Z</time></trkpt><trkpt lat="43.20327516551214" lon="12.985698631002839"><ele>799.0</ele><time>2026-03-28T09:06:45Z</time></trkpt><trkpt lat="43.20321073561045" lon="12.985670596688742"><ele>798.4999999999999</ele><time>2026-03-28T09:06:49Z</time></trkpt><trkpt lat="43.203128679809666" lon="12.98567276410737"><ele>798.0</ele><time>2026-03-28T09:06:52Z</time></trkpt><trkpt lat="43.20305751642802" lon="12.985658217066906"><ele>797.5</ele><time>2026-03-28T09:06:56Z</time></trkpt><trkpt lat="43.20299204150514" lon="12.985668309283136"><ele>797.0</ele><time>2026-03-28T09:07:00Z</time></trkpt><trkpt lat="43.202913503545595" lon="12.985676539129699"><ele>796.4999999999999</ele><time>2026-03-28T09:07:05Z</time></trkpt><trkpt lat="43.2028614305295" lon="12.985764385837257"><ele>796.0</ele><time>2026-03-28T09:07:30Z</time></trkpt><trkpt lat="43.20282982188231" lon="12.985860954329311"><ele>795.9999999999999</ele><time>2026-03-28T09:07:33Z</time></trkpt><trkpt lat="43.20279588605455" lon="12.985969511766864"><ele>796.0</ele><time>2026-03-28T09:07:36Z</time></trkpt><trkpt lat="43.20277341373497" lon="12.986055478973325"><ele>796.0</ele><time>2026-03-28T09:07:39Z</time></trkpt><trkpt lat="43.20273687382015" lon="12.986154661197654"><ele>796.0</ele><time>2026-03-28T09:07:42Z</time></trkpt><trkpt lat="43.20271329174521" lon="12.986243606877126"><ele>796.0</ele><time>2026-03-28T09:07:44Z</time></trkpt><trkpt lat="43.202696792620024" lon="12.986333549440358"><ele>795.9999999999999</ele><time>2026-03-28T09:07:47Z</time></trkpt><trkpt lat="43.2026605181554" lon="12.986427504217584"><ele>796.0</ele><time>2026-03-28T09:07:49Z</time></trkpt><trkpt lat="43.20262474946385" lon="12.986515931186277"><ele>795.9999999999999</ele><time>2026-03-28T09:07:51Z</time></trkpt><trkpt lat="43.20258866403493" lon="12.986603681912328"><ele>796.0</ele><time>2026-03-28T09:07:53Z</time></trkpt><trkpt lat="43.20255130489632" lon="12.98668573943098"><ele>796.0</ele><time>2026-03-28T09:07:55Z</time></trkpt><trkpt lat="43.20250602945721" lon="12.986792371502698"><ele>796.0</ele><time>2026-03-28T09:07:57Z</time></trkpt><trkpt lat="43.20246355349597" lon="12.986890606929103"><ele>795.9999999999999</ele><time>2026-03-28T09:07:59Z</time></trkpt><trkpt lat="43.202419202179115" lon="12.986995324810888"><ele>796.0</ele><time>2026-03-28T09:08:01Z</time></trkpt><trkpt lat="43.20237838821872" lon="12.987085503681467"><ele>796.4999999999999</ele><time>2026-03-28T09:08:03Z</time></trkpt><trkpt lat="43.202330727120575" lon="12.987199425985688"><ele>797.0</ele><time>2026-03-28T09:08:05Z</time></trkpt><trkpt lat="43.2022919647811" lon="12.98729476798219"><ele>797.5</ele><time>2026-03-28T09:08:07Z</time></trkpt><trkpt lat="43.20225318546831" lon="12.987394127690065"><ele>798.0</ele><time>2026-03-28T09:08:09Z</time></trkpt><trkpt lat="43.20221021799237" lon="12.987496955300147"><ele>798.4999999999999</ele><time>2026-03-28T09:08:12Z</time></trkpt><trkpt lat="43.202180623041926" lon="12.987580777465938"><ele>799.0</ele><time>2026-03-28T09:08:15Z</time></trkpt><trkpt lat="43.202138630827235" lon="12.98767947547733"><ele>793.3333333333333</ele><time>2026-03-28T09:08:19Z</time></trkpt><trkpt lat="43.20207312456603" lon="12.987762001534113"><ele>787.6666666666666</ele><time>2026-03-28T09:08:21Z</time></trkpt><trkpt lat="43.20201831443554" lon="12.987827474587057"><ele>782.0</ele><time>2026-03-28T09:08:22Z</time></trkpt><trkpt lat="43.20195051531762" lon="12.98795533895743"><ele>776.3333333333333</ele><time>2026-03-28T09:08:24Z</time></trkpt><trkpt lat="43.20190446859017" lon="12.98804725963964"><ele>770.6666666666666</ele><time>2026-03-28T09:08:26Z</time></trkpt><trkpt lat="43.20185680834311" lon="12.988140150275186"><ele>765.0</ele><time>2026-03-28T09:08:28Z</time></trkpt><trkpt lat="43.20180152759058" lon="12.988223013075682"><ele>765.0</ele><time>2026-03-28T09:08:31Z</time></trkpt><trkpt lat="43.20175262236498" lon="12.988310493253083"><ele>765.0</ele><time>2026-03-28T09:08:35Z</time></trkpt><trkpt lat="43.20169005194391" lon="12.988349336386204"><ele>765.0</ele><time>2026-03-28T09:08:38Z</time></trkpt><trkpt lat="43.20161186382044" lon="12.988366911863261"><ele>765.0</ele><time>2026-03-28T09:08:42Z</time></trkpt><trkpt lat="43.20153099142038" lon="12.988380611903361"><ele>765.0</ele><time>2026-03-28T09:08:45Z</time></trkpt><trkpt lat="43.20144574419878" lon="12.98839349412229"><ele>765.0</ele><time>2026-03-28T09:08:47Z</time></trkpt><trkpt lat="43.20135116370927" lon="12.988454946723598"><ele>759.8</ele><time>2026-03-28T09:08:49Z</time></trkpt><trkpt lat="43.20126643201362" lon="12.98852191576813"><ele>754.6</ele><time>2026-03-28T09:08:51Z</time></trkpt><trkpt lat="43.2011872130486" lon="12.988568812950339"><ele>749.4000000000001</ele><time>2026-03-28T09:08:53Z</time></trkpt><trkpt lat="43.20109544067776" lon="12.988640488625549"><ele>744.2</ele><time>2026-03-28T09:08:55Z</time></trkpt><trkpt lat="43.20099424071313" lon="12.988720974177724"><ele>739.0</ele><time>2026-03-28T09:08:57Z</time></trkpt><trkpt lat="43.20094391855719" lon="12.988773834037021"><ele>739.0</ele><time>2026-03-28T09:08:58Z</time></trkpt><trkpt lat="43.20085152047945" lon="12.98884808465132"><ele>739.0</ele><time>2026-03-28T09:09:00Z</time></trkpt><trkpt lat="43.20077176610321" lon="12.988884165962554"><ele>739.0</ele><time>2026-03-28T09:09:02Z</time></trkpt><trkpt lat="43.200697791841954" lon="12.988891130132066"><ele>739.0</ele><time>2026-03-28T09:09:04Z</time></trkpt><trkpt lat="43.20060835987213" lon="12.988935157034728"><ele>739.0</ele><time>2026-03-28T09:09:07Z</time></trkpt><trkpt lat="43.200535293918506" lon="12.98897578932081"><ele>739.0</ele><time>2026-03-28T09:09:09Z</time></trkpt><trkpt lat="43.20045855463617" lon="12.989028316560411"><ele>739.6</ele><time>2026-03-28T09:09:11Z</time></trkpt><trkpt lat="43.20039106398068" lon="12.989148845593563"><ele>740.2</ele><time>2026-03-28T09:09:13Z</time></trkpt><trkpt lat="43.20034240050149" lon="12.989244230885019"><ele>740.8000000000001</ele><time>2026-03-28T09:09:14Z</time></trkpt><trkpt lat="43.20028515922013" lon="12.98935632997102"><ele>741.4000000000001</ele><time>2026-03-28T09:09:16Z</time></trkpt><trkpt lat="43.20022512236999" lon="12.989490006132687"><ele>742.0</ele><time>2026-03-28T09:09:18Z</time></trkpt><trkpt lat="43.20016530737097" lon="12.989619902085167"><ele>742.0</ele><time>2026-03-28T09:09:19Z</time></trkpt><trkpt lat="43.20011030449662" lon="12.98974346478647"><ele>742.0</ele><time>2026-03-28T09:09:20Z</time></trkpt><trkpt lat="43.200050432355994" lon="12.989832632409954"><ele>742.0</ele><time>2026-03-28T09:09:22Z</time></trkpt><trkpt lat="43.2000074489835" lon="12.989902342569742"><ele>742.0</ele><time>2026-03-28T09:09:24Z</time></trkpt><trkpt lat="43.1999791212662" lon="12.99001224183065"><ele>742.0</ele><time>2026-03-28T09:09:26Z</time></trkpt><trkpt lat="43.19997140132914" lon="12.990105960196294"><ele>742.0</ele><time>2026-03-28T09:09:28Z</time></trkpt><trkpt lat="43.1999106999995" lon="12.990166851875454"><ele>743.5</ele><time>2026-03-28T09:09:31Z</time></trkpt><trkpt lat="43.19983804367792" lon="12.990190669390701"><ele>745.0</ele><time>2026-03-28T09:09:36Z</time></trkpt><trkpt lat="43.19977139000085" lon="12.990269205507458"><ele>746.5</ele><time>2026-03-28T09:09:40Z</time></trkpt><trkpt lat="43.1997020785473" lon="12.990365460177209"><ele>748.0</ele><time>2026-03-28T09:09:42Z</time></trkpt><trkpt lat="43.199639126773526" lon="12.990461780334499"><ele>749.5</ele><time>2026-03-28T09:09:44Z</time></trkpt><trkpt lat="43.19958585834713" lon="12.990554124639129"><ele>751.0</ele><time>2026-03-28T09:09:46Z</time></trkpt><trkpt lat="43.199555316541456" lon="12.990638784641941"><ele>751.0</ele><time>2026-03-28T09:09:48.001Z</time></trkpt><trkpt lat="43.199519362165" lon="12.990712192987207"><ele>751.0</ele><time>2026-03-28T09:09:50.001Z</time></trkpt><trkpt lat="43.19949760677244" lon="12.99082969116325"><ele>751.0</ele><time>2026-03-28T09:09:52.001Z</time></trkpt><trkpt lat="43.199469421875925" lon="12.990908059049712"><ele>751.0</ele><time>2026-03-28T09:09:53.001Z</time></trkpt><trkpt lat="43.199394221796425" lon="12.99103396227277"><ele>751.0</ele><time>2026-03-28T09:09:55.001Z</time></trkpt><trkpt lat="43.19932550739434" lon="12.991134618077957"><ele>751.0</ele><time>2026-03-28T09:09:57.001Z</time></trkpt><trkpt lat="43.199289729363464" lon="12.991208500175087"><ele>746.0</ele><time>2026-03-28T09:09:59.001Z</time></trkpt><trkpt lat="43.199242870352535" lon="12.99131163985159"><ele>741.0</ele><time>2026-03-28T09:10:01.001Z</time></trkpt><trkpt lat="43.199188923561046" lon="12.991442834228721"><ele>736.0</ele><time>2026-03-28T09:10:03.001Z</time></trkpt><trkpt lat="43.199143264885755" lon="12.991558957071685"><ele>731.0</ele><time>2026-03-28T09:10:05.001Z</time></trkpt><trkpt lat="43.19909593445086" lon="12.991693636779123"><ele>726.0</ele><time>2026-03-28T09:10:07.001Z</time></trkpt><trkpt lat="43.19905221196962" lon="12.991845500350928"><ele>727.0</ele><time>2026-03-28T09:10:09.001Z</time></trkpt><trkpt lat="43.19902194695556" lon="12.991927998782293"><ele>728.0</ele><time>2026-03-28T09:10:10.001Z</time></trkpt><trkpt lat="43.198985418488014" lon="12.99200448721856"><ele>729.0</ele><time>2026-03-28T09:10:11.001Z</time></trkpt><trkpt lat="43.19892266267868" lon="12.992133083494146"><ele>730.0</ele><time>2026-03-28T09:10:13.001Z</time></trkpt><trkpt lat="43.198857115604355" lon="12.99222406945063"><ele>731.0</ele><time>2026-03-28T09:10:15.001Z</time></trkpt><trkpt lat="43.19878680262704" lon="12.992318298073975"><ele>732.0</ele><time>2026-03-28T09:10:17.001Z</time></trkpt><trkpt lat="43.19871935611079" lon="12.99241616038968"><ele>727.1666666666666</ele><time>2026-03-28T09:10:19.001Z</time></trkpt><trkpt lat="43.198661347319195" lon="12.992522395205444"><ele>722.3333333333334</ele><time>2026-03-28T09:10:21.001Z</time></trkpt><trkpt lat="43.198606394891044" lon="12.992603870109793"><ele>717.5</ele><time>2026-03-28T09:10:24.001Z</time></trkpt><trkpt lat="43.19855809938732" lon="12.992660740400758"><ele>712.6666666666667</ele><time>2026-03-28T09:10:27.001Z</time></trkpt><trkpt lat="43.198459538021666" lon="12.992718265030955"><ele>707.8333333333334</ele><time>2026-03-28T09:10:31.001Z</time></trkpt><trkpt lat="43.198383296327535" lon="12.992772583333403"><ele>703.0</ele><time>2026-03-28T09:10:33.001Z</time></trkpt><trkpt lat="43.19832554550942" lon="12.992872003846"><ele>703.0</ele><time>2026-03-28T09:10:35.001Z</time></trkpt><trkpt lat="43.19826567186818" lon="12.992995075738353"><ele>703.0</ele><time>2026-03-28T09:10:37.001Z</time></trkpt><trkpt lat="43.19819744833063" lon="12.993106789463335"><ele>703.0</ele><time>2026-03-28T09:10:39.001Z</time></trkpt><trkpt lat="43.19814521619754" lon="12.993217267369278"><ele>703.0</ele><time>2026-03-28T09:10:41.001Z</time></trkpt><trkpt lat="43.19810616614121" lon="12.993326669747006"><ele>703.0</ele><time>2026-03-28T09:10:45.001Z</time></trkpt><trkpt lat="43.19805918260749" lon="12.993409212598841"><ele>702.8333333333334</ele><time>2026-03-28T09:10:48.001Z</time></trkpt><trkpt lat="43.19801697531288" lon="12.993480477210406"><ele>702.6666666666667</ele><time>2026-03-28T09:10:49.001Z</time></trkpt><trkpt lat="43.19794719313107" lon="12.993594318875045"><ele>702.5</ele><time>2026-03-28T09:10:51.001Z</time></trkpt><trkpt lat="43.19789664650519" lon="12.993677333868996"><ele>702.3333333333334</ele><time>2026-03-28T09:10:53.001Z</time></trkpt><trkpt lat="43.1978617319352" lon="12.99377115010881"><ele>702.1666666666666</ele><time>2026-03-28T09:11:05.001Z</time></trkpt><trkpt lat="43.197786729194064" lon="12.99381945086647"><ele>702.0</ele><time>2026-03-28T09:11:07.001Z</time></trkpt><trkpt lat="43.19769738545758" lon="12.99386866169416"><ele>702.0000000000001</ele><time>2026-03-28T09:11:09.001Z</time></trkpt><trkpt lat="43.19765100341918" lon="12.9939273766245"><ele>702.0</ele><time>2026-03-28T09:11:12.001Z</time></trkpt><trkpt lat="43.19760035165407" lon="12.993982610813338"><ele>702.0</ele><time>2026-03-28T09:11:16.001Z</time></trkpt><trkpt lat="43.19752787500717" lon="12.994027766826143"><ele>702.0</ele><time>2026-03-28T09:11:31.001Z</time></trkpt><trkpt lat="43.19748781697422" lon="12.994099186410477"><ele>702.0</ele><time>2026-03-28T09:11:33.001Z</time></trkpt><trkpt lat="43.1974251392017" lon="12.994183169111105"><ele>702.0000000000001</ele><time>2026-03-28T09:11:36.001Z</time></trkpt><trkpt lat="43.19736720662184" lon="12.994269195912798"><ele>702.0</ele><time>2026-03-28T09:11:38.001Z</time></trkpt><trkpt lat="43.19730938376385" lon="12.994397936189438"><ele>704.2</ele><time>2026-03-28T09:11:40.001Z</time></trkpt><trkpt lat="43.19724223504265" lon="12.9945401389757"><ele>706.4000000000001</ele><time>2026-03-28T09:11:42.001Z</time></trkpt><trkpt lat="43.19718941000772" lon="12.99464630013005"><ele>708.5999999999999</ele><time>2026-03-28T09:11:43.001Z</time></trkpt><trkpt lat="43.197160137127646" lon="12.99477212062392"><ele>710.8</ele><time>2026-03-28T09:11:44.001Z</time></trkpt><trkpt lat="43.19709933474477" lon="12.994862503842176"><ele>713.0</ele><time>2026-03-28T09:11:45.001Z</time></trkpt><trkpt lat="43.197060231534444" lon="12.994961670180912"><ele>709.2857142857142</ele><time>2026-03-28T09:11:46.001Z</time></trkpt><trkpt lat="43.19702296797633" lon="12.995060480676205"><ele>705.5714285714287</ele><time>2026-03-28T09:11:47.001Z</time></trkpt><trkpt lat="43.19699150812799" lon="12.995142629204734"><ele>701.8571428571429</ele><time>2026-03-28T09:11:48.001Z</time></trkpt><trkpt lat="43.19697450459029" lon="12.995230615213451"><ele>698.1428571428571</ele><time>2026-03-28T09:11:49.001Z</time></trkpt><trkpt lat="43.196936519423346" lon="12.995303858436866"><ele>694.4285714285713</ele><time>2026-03-28T09:11:50.001Z</time></trkpt><trkpt lat="43.19693775853202" lon="12.995417069634408"><ele>690.7142857142858</ele><time>2026-03-28T09:11:51.001Z</time></trkpt><trkpt lat="43.1969037794506" lon="12.995510290004985"><ele>687.0</ele><time>2026-03-28T09:11:52.001Z</time></trkpt><trkpt lat="43.19687077616048" lon="12.995595784739047"><ele>687.0</ele><time>2026-03-28T09:11:53.001Z</time></trkpt><trkpt lat="43.19679528157555" lon="12.99572285960403"><ele>687.0</ele><time>2026-03-28T09:11:55.001Z</time></trkpt><trkpt lat="43.196739112686096" lon="12.995795412519337"><ele>687.0</ele><time>2026-03-28T09:11:56.001Z</time></trkpt><trkpt lat="43.19667694166987" lon="12.995872781594375"><ele>687.0</ele><time>2026-03-28T09:11:57.001Z</time></trkpt><trkpt lat="43.19660653527498" lon="12.995953078123138"><ele>687.0</ele><time>2026-03-28T09:11:58.001Z</time></trkpt><trkpt lat="43.196537778256996" lon="12.996034202523893"><ele>690.8333333333334</ele><time>2026-03-28T09:11:59.001Z</time></trkpt><trkpt lat="43.19647817663036" lon="12.996112869841832"><ele>694.6666666666666</ele><time>2026-03-28T09:12:00.001Z</time></trkpt><trkpt lat="43.19642577474412" lon="12.996186686287073"><ele>698.5</ele><time>2026-03-28T09:12:01.001Z</time></trkpt><trkpt lat="43.1963796464519" lon="12.996269511931688"><ele>702.3333333333333</ele><time>2026-03-28T09:12:02.001Z</time></trkpt><trkpt lat="43.19633169268051" lon="12.996364548458947"><ele>706.1666666666666</ele><time>2026-03-28T09:12:03.001Z</time></trkpt><trkpt lat="43.19628258897119" lon="12.996479525632237"><ele>710.0</ele><time>2026-03-28T09:12:04.001Z</time></trkpt><trkpt lat="43.1962369692388" lon="12.99660840544619"><ele>707.2</ele><time>2026-03-28T09:12:05.001Z</time></trkpt><trkpt lat="43.19619512601635" lon="12.996747915914911"><ele>704.4</ele><time>2026-03-28T09:12:06.001Z</time></trkpt><trkpt lat="43.19615520643841" lon="12.996892960169232"><ele>701.5999999999999</ele><time>2026-03-28T09:12:07.001Z</time></trkpt><trkpt lat="43.19611152168955" lon="12.997020489564093"><ele>698.8</ele><time>2026-03-28T09:12:08.001Z</time></trkpt><trkpt lat="43.19607944955653" lon="12.997140980885407"><ele>696.0</ele><time>2026-03-28T09:12:09.001Z</time></trkpt><trkpt lat="43.19605501580757" lon="12.997250811196343"><ele>696.0</ele><time>2026-03-28T09:12:10.001Z</time></trkpt><trkpt lat="43.196034957309465" lon="12.997332809143941"><ele>696.0</ele><time>2026-03-28T09:12:11.001Z</time></trkpt><trkpt lat="43.19599985605181" lon="12.997438040303264"><ele>696.0</ele><time>2026-03-28T09:12:13.001Z</time></trkpt><trkpt lat="43.195929722716166" lon="12.997605636353573"><ele>696.0</ele><time>2026-03-28T09:12:15.001Z</time></trkpt><trkpt lat="43.195877853797974" lon="12.997709688028843"><ele>696.0</ele><time>2026-03-28T09:12:17.001Z</time></trkpt><trkpt lat="43.195857739533494" lon="12.997798539391223"><ele>696.0</ele><time>2026-03-28T09:12:19.001Z</time></trkpt><trkpt lat="43.19579298292948" lon="12.997784409266187"><ele>697.0</ele><time>2026-03-28T09:12:20.001Z</time></trkpt><trkpt lat="43.195743081033996" lon="12.997914655772846"><ele>698.0</ele><time>2026-03-28T09:12:23Z</time></trkpt><trkpt lat="43.19569986422439" lon="12.998049427147771"><ele>699.0</ele><time>2026-03-28T09:12:25Z</time></trkpt><trkpt lat="43.19565440592366" lon="12.9981848471651"><ele>700.0</ele><time>2026-03-28T09:12:27Z</time></trkpt><trkpt lat="43.19560770670887" lon="12.998307317461105"><ele>701.0</ele><time>2026-03-28T09:12:29Z</time></trkpt><trkpt lat="43.19555056939066" lon="12.998406791020845"><ele>698.7142857142858</ele><time>2026-03-28T09:12:31Z</time></trkpt><trkpt lat="43.19552716318844" lon="12.998509210957534"><ele>696.4285714285713</ele><time>2026-03-28T09:12:34Z</time></trkpt><trkpt lat="43.19549529623067" lon="12.99859329133423"><ele>694.1428571428571</ele><time>2026-03-28T09:12:48Z</time></trkpt><trkpt lat="43.195445141155375" lon="12.998650247832211"><ele>691.8571428571429</ele><time>2026-03-28T09:12:52Z</time></trkpt><trkpt lat="43.19536759434076" lon="12.998683838659533"><ele>689.5714285714287</ele><time>2026-03-28T09:13:00Z</time></trkpt><trkpt lat="43.19530707825517" lon="12.998743807277362"><ele>687.2857142857142</ele><time>2026-03-28T09:13:07Z</time></trkpt><trkpt lat="43.195264771035916" lon="12.998825564989184"><ele>685.0</ele><time>2026-03-28T09:13:18Z</time></trkpt><trkpt lat="43.19525968203093" lon="12.99894590861168"><ele>685.0</ele><time>2026-03-28T09:13:22Z</time></trkpt><trkpt lat="43.195268472693314" lon="12.999038196726463"><ele>685.0</ele><time>2026-03-28T09:13:25Z</time></trkpt><trkpt lat="43.19527294931986" lon="12.99912661894048"><ele>685.0</ele><time>2026-03-28T09:13:28Z</time></trkpt><trkpt lat="43.19528932180571" lon="12.999220354178705"><ele>685.0</ele><time>2026-03-28T09:13:30Z</time></trkpt><trkpt lat="43.19528973470106" lon="12.9993279711883"><ele>685.0</ele><time>2026-03-28T09:13:34Z</time></trkpt><trkpt lat="43.195274718990476" lon="12.999429435028148"><ele>685.0</ele><time>2026-03-28T09:13:37Z</time></trkpt><trkpt lat="43.1952742076505" lon="12.999534966956531"><ele>685.0</ele><time>2026-03-28T09:13:40Z</time></trkpt><trkpt lat="43.19525863763638" lon="12.99961978042395"><ele>683.0</ele><time>2026-03-28T09:13:43Z</time></trkpt><trkpt lat="43.19524880167895" lon="12.999718147832727"><ele>681.0</ele><time>2026-03-28T09:13:46Z</time></trkpt><trkpt lat="43.195217508576306" lon="12.999827709904423"><ele>679.0</ele><time>2026-03-28T09:13:50Z</time></trkpt><trkpt lat="43.195213953846896" lon="12.999938861904603"><ele>677.0</ele><time>2026-03-28T09:13:54Z</time></trkpt><trkpt lat="43.19518911909223" lon="13.000043607625583"><ele>675.0</ele><time>2026-03-28T09:13:57Z</time></trkpt><trkpt lat="43.19520952552849" lon="13.00013224055675"><ele>673.0</ele><time>2026-03-28T09:13:59Z</time></trkpt><trkpt lat="43.195239265540124" lon="13.00025139927427"><ele>673.0</ele><time>2026-03-28T09:14:01Z</time></trkpt><trkpt lat="43.195241618998644" lon="13.000368202795176"><ele>673.0</ele><time>2026-03-28T09:14:03Z</time></trkpt><trkpt lat="43.19522198903523" lon="13.000453916726642"><ele>673.0</ele><time>2026-03-28T09:14:05Z</time></trkpt><trkpt lat="43.195170310980345" lon="13.000535709349263"><ele>673.0</ele><time>2026-03-28T09:14:08Z</time></trkpt><trkpt lat="43.19510933512296" lon="13.000624105452562"><ele>673.0</ele><time>2026-03-28T09:14:10Z</time></trkpt><trkpt lat="43.19503437891903" lon="13.000731637810341"><ele>673.0</ele><time>2026-03-28T09:14:12.001Z</time></trkpt><trkpt lat="43.195042663652956" lon="13.00084819546946"><ele>673.0</ele><time>2026-03-28T09:14:13.001Z</time></trkpt><trkpt lat="43.19495163808748" lon="13.000966364427386"><ele>673.0</ele><time>2026-03-28T09:14:15.001Z</time></trkpt><trkpt lat="43.1948884346211" lon="13.001090273763285"><ele>673.0</ele><time>2026-03-28T09:14:17.001Z</time></trkpt><trkpt lat="43.19483268923785" lon="13.001199937961129"><ele>673.0</ele><time>2026-03-28T09:14:20.001Z</time></trkpt><trkpt lat="43.1947907625855" lon="13.001313290094771"><ele>673.0</ele><time>2026-03-28T09:14:23.001Z</time></trkpt><trkpt lat="43.194719715883146" lon="13.001380956313316"><ele>673.0</ele><time>2026-03-28T09:14:24.001Z</time></trkpt><trkpt lat="43.19471453282352" lon="13.001498056914938"><ele>673.0</ele><time>2026-03-28T09:14:26.001Z</time></trkpt><trkpt lat="43.19477619958394" lon="13.00142711160029"><ele>673.0</ele><time>2026-03-28T09:14:27.001Z</time></trkpt><trkpt lat="43.195022810275354" lon="13.001513628719353"><ele>673.0</ele><time>2026-03-28T09:14:28.001Z</time></trkpt><trkpt lat="43.19503782538154" lon="13.001598299540548"><ele>667.0</ele><time>2026-03-28T09:14:43.001Z</time></trkpt><trkpt lat="43.19500104053266" lon="13.0016810130853"><ele>661.0</ele><time>2026-03-28T09:14:52.001Z</time></trkpt><trkpt lat="43.19497794996171" lon="13.001768406995609"><ele>655.0</ele><time>2026-03-28T09:14:59.001Z</time></trkpt><trkpt lat="43.19497883850143" lon="13.00185647394756"><ele>649.0</ele><time>2026-03-28T09:15:06.001Z</time></trkpt><trkpt lat="43.19496821107726" lon="13.001954285404247"><ele>643.0</ele><time>2026-03-28T09:15:12.001Z</time></trkpt><trkpt lat="43.1949967929366" lon="13.002052842431315"><ele>637.0</ele><time>2026-03-28T09:15:16.001Z</time></trkpt><trkpt lat="43.19504744211013" lon="13.002153516969646"><ele>631.0</ele><time>2026-03-28T09:15:19.001Z</time></trkpt><trkpt lat="43.195085303201374" lon="13.002238147191637"><ele>631.0</ele><time>2026-03-28T09:15:21.001Z</time></trkpt><trkpt lat="43.19515098824896" lon="13.00230248345928"><ele>631.0</ele><time>2026-03-28T09:15:24.001Z</time></trkpt><trkpt lat="43.195211018833795" lon="13.002330388110725"><ele>631.0</ele><time>2026-03-28T09:15:26.001Z</time></trkpt><trkpt lat="43.19527675993788" lon="13.002333336634374"><ele>631.0</ele><time>2026-03-28T09:15:28.001Z</time></trkpt><trkpt lat="43.19536056543279" lon="13.00234490277519"><ele>631.0</ele><time>2026-03-28T09:15:30.001Z</time></trkpt><trkpt lat="43.19545500078157" lon="13.002355062974223"><ele>631.0</ele><time>2026-03-28T09:15:32.001Z</time></trkpt><trkpt lat="43.19549904632719" lon="13.002508551915875"><ele>629.0</ele><time>2026-03-28T09:15:33.001Z</time></trkpt><trkpt lat="43.195599292818784" lon="13.002503468281422"><ele>627.0</ele><time>2026-03-28T09:15:35.001Z</time></trkpt><trkpt lat="43.19570297009815" lon="13.00250450740637"><ele>625.0</ele><time>2026-03-28T09:15:37.001Z</time></trkpt><trkpt lat="43.19576140914403" lon="13.002538361906275"><ele>623.0</ele><time>2026-03-28T09:15:38.001Z</time></trkpt><trkpt lat="43.19581463572612" lon="13.002587902113442"><ele>621.0</ele><time>2026-03-28T09:15:39.001Z</time></trkpt><trkpt lat="43.195919243549255" lon="13.002708294668107"><ele>619.0</ele><time>2026-03-28T09:15:41.001Z</time></trkpt><trkpt lat="43.1959616659441" lon="13.002777074546666"><ele>617.0</ele><time>2026-03-28T09:15:42.001Z</time></trkpt><trkpt lat="43.19604973952648" lon="13.002877073625232"><ele>615.0</ele><time>2026-03-28T09:15:44.001Z</time></trkpt><trkpt lat="43.196098137369965" lon="13.002943410138291"><ele>613.0</ele><time>2026-03-28T09:15:45.001Z</time></trkpt><trkpt lat="43.196162594575114" lon="13.003024987307244"><ele>611.0</ele><time>2026-03-28T09:15:47.001Z</time></trkpt><trkpt lat="43.19633318332214" lon="13.003130381144722"><ele>611.0</ele><time>2026-03-28T09:15:49.001Z</time></trkpt><trkpt lat="43.196410922365104" lon="13.003118372754718"><ele>611.0</ele><time>2026-03-28T09:15:50.001Z</time></trkpt><trkpt lat="43.19653553004039" lon="13.003059347857135"><ele>611.0</ele><time>2026-03-28T09:15:51.001Z</time></trkpt><trkpt lat="43.19661615729168" lon="13.002969486343163"><ele>611.0</ele><time>2026-03-28T09:15:53.001Z</time></trkpt><trkpt lat="43.19667845909826" lon="13.002889094521072"><ele>611.0</ele><time>2026-03-28T09:15:54.001Z</time></trkpt><trkpt lat="43.19666306140564" lon="13.002653999535424"><ele>608.0</ele><time>2026-03-28T09:15:58.001Z</time></trkpt><trkpt lat="43.19672890350243" lon="13.002720403618651"><ele>605.0</ele><time>2026-03-28T09:15:59.001Z</time></trkpt><trkpt lat="43.1968402650408" lon="13.002721333677664"><ele>602.0</ele><time>2026-03-28T09:16:01.001Z</time></trkpt><trkpt lat="43.19697568286222" lon="13.002723300906297"><ele>599.0</ele><time>2026-03-28T09:16:03.001Z</time></trkpt><trkpt lat="43.197042370448216" lon="13.00275402845981"><ele>596.0</ele><time>2026-03-28T09:16:04.001Z</time></trkpt><trkpt lat="43.19709894806819" lon="13.002792162624505"><ele>596.0</ele><time>2026-03-28T09:16:05.001Z</time></trkpt><trkpt lat="43.197197880092325" lon="13.002836775581613"><ele>596.0</ele><time>2026-03-28T09:16:07.001Z</time></trkpt><trkpt lat="43.19729189695856" lon="13.002827259897884"><ele>596.0</ele><time>2026-03-28T09:16:09.001Z</time></trkpt><trkpt lat="43.197697073627786" lon="13.002810628269089"><ele>592.8</ele><time>2026-03-28T09:16:11.001Z</time></trkpt><trkpt lat="43.19781396246141" lon="13.002592030212453"><ele>589.6</ele><time>2026-03-28T09:16:13.001Z</time></trkpt><trkpt lat="43.197837872471354" lon="13.002509285425093"><ele>586.4</ele><time>2026-03-28T09:16:15.001Z</time></trkpt><trkpt lat="43.197883002603234" lon="13.002447172567964"><ele>583.2</ele><time>2026-03-28T09:16:16.001Z</time></trkpt><trkpt lat="43.197933067796136" lon="13.002390911479997"><ele>580.0</ele><time>2026-03-28T09:16:17.001Z</time></trkpt><trkpt lat="43.198038695861776" lon="13.002295198125873"><ele>580.0</ele><time>2026-03-28T09:16:19.001Z</time></trkpt><trkpt lat="43.19815124340346" lon="13.002202712710233"><ele>580.0</ele><time>2026-03-28T09:16:20.001Z</time></trkpt><trkpt lat="43.19823883474672" lon="13.0021385463923"><ele>580.0</ele><time>2026-03-28T09:16:22.001Z</time></trkpt><trkpt lat="43.19831461695211" lon="13.002270538274653"><ele>580.0</ele><time>2026-03-28T09:16:29.001Z</time></trkpt><trkpt lat="43.198443582918586" lon="13.002452398259704"><ele>576.8333333333334</ele><time>2026-03-28T09:16:30.001Z</time></trkpt><trkpt lat="43.19830298881474" lon="13.002358687875983"><ele>573.6666666666667</ele><time>2026-03-28T09:16:31.001Z</time></trkpt><trkpt lat="43.19836988077318" lon="13.002330625749437"><ele>570.5</ele><time>2026-03-28T09:16:42.001Z</time></trkpt><trkpt lat="43.198409487665394" lon="13.002401886362208"><ele>567.3333333333334</ele><time>2026-03-28T09:16:53.001Z</time></trkpt><trkpt lat="43.198425079215205" lon="13.00249034347657"><ele>564.1666666666666</ele><time>2026-03-28T09:16:59.001Z</time></trkpt><trkpt lat="43.19838759528287" lon="13.00256850437495"><ele>561.0</ele><time>2026-03-28T09:17:13.001Z</time></trkpt><trkpt lat="43.198329740687775" lon="13.002645320627039"><ele>560.4</ele><time>2026-03-28T09:17:17.001Z</time></trkpt><trkpt lat="43.19827692028532" lon="13.002733105928792"><ele>559.8</ele><time>2026-03-28T09:17:20Z</time></trkpt><trkpt lat="43.19824426448113" lon="13.002824128755744"><ele>559.1999999999999</ele><time>2026-03-28T09:17:23Z</time></trkpt><trkpt lat="43.19830098962568" lon="13.002767558755636"><ele>558.6</ele><time>2026-03-28T09:17:40Z</time></trkpt><trkpt lat="43.19841570879474" lon="13.002585512084773"><ele>558.0</ele><time>2026-03-28T09:18:01Z</time></trkpt><trkpt lat="43.19834894720131" lon="13.002701210221009"><ele>558.0</ele><time>2026-03-28T09:18:12Z</time></trkpt><trkpt lat="43.198268754610034" lon="13.002849984270073"><ele>558.0</ele><time>2026-03-28T09:18:14Z</time></trkpt><trkpt lat="43.198219922621455" lon="13.00293882591016"><ele>558.0</ele><time>2026-03-28T09:18:15Z</time></trkpt><trkpt lat="43.19817273533437" lon="13.003028320963445"><ele>558.0</ele><time>2026-03-28T09:18:16Z</time></trkpt><trkpt lat="43.19812013523663" lon="13.003123117190627"><ele>558.0</ele><time>2026-03-28T09:18:17Z</time></trkpt><trkpt lat="43.1980680015332" lon="13.003226636391751"><ele>559.8</ele><time>2026-03-28T09:18:18Z</time></trkpt><trkpt lat="43.1980004230386" lon="13.003315781756951"><ele>561.5999999999999</ele><time>2026-03-28T09:18:19Z</time></trkpt><trkpt lat="43.19795453896574" lon="13.003431939168754"><ele>563.4000000000001</ele><time>2026-03-28T09:18:20Z</time></trkpt><trkpt lat="43.1978782681763" lon="13.003536187870377"><ele>565.2</ele><time>2026-03-28T09:18:21Z</time></trkpt><trkpt lat="43.197822393599466" lon="13.003643492527209"><ele>567.0</ele><time>2026-03-28T09:18:22Z</time></trkpt><trkpt lat="43.19776878470872" lon="13.00374154398151"><ele>567.0</ele><time>2026-03-28T09:18:23Z</time></trkpt><trkpt lat="43.19770865842625" lon="13.003829313709947"><ele>567.0</ele><time>2026-03-28T09:18:24Z</time></trkpt><trkpt lat="43.19764754560393" lon="13.003896683433236"><ele>567.0</ele><time>2026-03-28T09:18:25Z</time></trkpt><trkpt lat="43.19756481999434" lon="13.003976272018804"><ele>567.0</ele><time>2026-03-28T09:18:26Z</time></trkpt><trkpt lat="43.197478144034655" lon="13.004055098658592"><ele>567.0</ele><time>2026-03-28T09:18:27Z</time></trkpt><trkpt lat="43.197379654615425" lon="13.004138317318258"><ele>567.25</ele><time>2026-03-28T09:18:28Z</time></trkpt><trkpt lat="43.19728659870857" lon="13.004233594427998"><ele>567.5</ele><time>2026-03-28T09:18:29Z</time></trkpt><trkpt lat="43.197181130991" lon="13.004298358135385"><ele>567.75</ele><time>2026-03-28T09:18:30Z</time></trkpt><trkpt lat="43.19707078961645" lon="13.004364503237861"><ele>568.0</ele><time>2026-03-28T09:18:31Z</time></trkpt><trkpt lat="43.196955694193576" lon="13.00443031619359"><ele>568.0</ele><time>2026-03-28T09:18:32Z</time></trkpt><trkpt lat="43.196848590264224" lon="13.004511299689682"><ele>568.0</ele><time>2026-03-28T09:18:33Z</time></trkpt><trkpt lat="43.19674697383742" lon="13.004605764461362"><ele>568.0</ele><time>2026-03-28T09:18:34Z</time></trkpt><trkpt lat="43.19666824755124" lon="13.004711043662278"><ele>568.0</ele><time>2026-03-28T09:18:35Z</time></trkpt><trkpt lat="43.196585488119936" lon="13.004809683316969"><ele>569.5</ele><time>2026-03-28T09:18:36Z</time></trkpt><trkpt lat="43.19649766263529" lon="13.004912615948728"><ele>571.0</ele><time>2026-03-28T09:18:37Z</time></trkpt><trkpt lat="43.196418079885106" lon="13.00502220235782"><ele>572.5</ele><time>2026-03-28T09:18:38Z</time></trkpt><trkpt lat="43.1963357423783" lon="13.0051377113153"><ele>574.0</ele><time>2026-03-28T09:18:39Z</time></trkpt><trkpt lat="43.196261141546785" lon="13.005244580201447"><ele>574.0</ele><time>2026-03-28T09:18:40Z</time></trkpt><trkpt lat="43.19618841845253" lon="13.00535317863758"><ele>574.0</ele><time>2026-03-28T09:18:41Z</time></trkpt><trkpt lat="43.196099417227856" lon="13.005446205959773"><ele>574.0</ele><time>2026-03-28T09:18:42Z</time></trkpt><trkpt lat="43.19601712917046" lon="13.005550480987443"><ele>574.0</ele><time>2026-03-28T09:18:43Z</time></trkpt><trkpt lat="43.19593240849058" lon="13.005643122079073"><ele>574.0</ele><time>2026-03-28T09:18:44Z</time></trkpt><trkpt lat="43.1958384575811" lon="13.005729632085066"><ele>574.0</ele><time>2026-03-28T09:18:45Z</time></trkpt><trkpt lat="43.19575351615779" lon="13.00580453414456"><ele>574.0</ele><time>2026-03-28T09:18:46Z</time></trkpt><trkpt lat="43.19566992857063" lon="13.005875539670864"><ele>574.0</ele><time>2026-03-28T09:18:47Z</time></trkpt><trkpt lat="43.195589288969664" lon="13.00594323947471"><ele>574.0</ele><time>2026-03-28T09:18:48Z</time></trkpt><trkpt lat="43.19551770485671" lon="13.006000448361732"><ele>574.0</ele><time>2026-03-28T09:18:49Z</time></trkpt><trkpt lat="43.19544103554774" lon="13.00604626605958"><ele>573.6</ele><time>2026-03-28T09:18:50Z</time></trkpt><trkpt lat="43.19536402482108" lon="13.006064622365011"><ele>573.2</ele><time>2026-03-28T09:18:51Z</time></trkpt><trkpt lat="43.19527525044108" lon="13.006066439042359"><ele>572.8000000000001</ele><time>2026-03-28T09:18:52Z</time></trkpt><trkpt lat="43.19516267442604" lon="13.006094598473"><ele>572.4</ele><time>2026-03-28T09:18:53Z</time></trkpt><trkpt lat="43.195060620612225" lon="13.006090240180594"><ele>572.0</ele><time>2026-03-28T09:18:54Z</time></trkpt><trkpt lat="43.19496322791934" lon="13.006073549927645"><ele>572.0</ele><time>2026-03-28T09:18:55Z</time></trkpt><trkpt lat="43.194873690690606" lon="13.00608104572239"><ele>572.0</ele><time>2026-03-28T09:18:56Z</time></trkpt><trkpt lat="43.19478757149705" lon="13.006083967455309"><ele>572.0</ele><time>2026-03-28T09:18:57Z</time></trkpt><trkpt lat="43.19469581098931" lon="13.006090370636413"><ele>572.0</ele><time>2026-03-28T09:18:58Z</time></trkpt><trkpt lat="43.19461136461624" lon="13.006079415765644"><ele>572.0</ele><time>2026-03-28T09:18:59Z</time></trkpt><trkpt lat="43.194520261409444" lon="13.006070463007083"><ele>572.0</ele><time>2026-03-28T09:19:00Z</time></trkpt><trkpt lat="43.194433149980455" lon="13.006065958762958"><ele>572.0</ele><time>2026-03-28T09:19:01Z</time></trkpt><trkpt lat="43.19434708139948" lon="13.006067636720735"><ele>572.0</ele><time>2026-03-28T09:19:02Z</time></trkpt><trkpt lat="43.19426052137564" lon="13.006077133018737"><ele>572.0</ele><time>2026-03-28T09:19:03Z</time></trkpt><trkpt lat="43.19416182344005" lon="13.006080043931478"><ele>572.0</ele><time>2026-03-28T09:19:04Z</time></trkpt><trkpt lat="43.19406088212337" lon="13.006074752188812"><ele>572.0</ele><time>2026-03-28T09:19:05Z</time></trkpt><trkpt lat="43.19396377838618" lon="13.006079178715302"><ele>573.0</ele><time>2026-03-28T09:19:06Z</time></trkpt><trkpt lat="43.19386409080957" lon="13.006077724516459"><ele>574.0</ele><time>2026-03-28T09:19:07Z</time></trkpt><trkpt lat="43.19377212924053" lon="13.00608931710743"><ele>575.0</ele><time>2026-03-28T09:19:08Z</time></trkpt><trkpt lat="43.19369877859837" lon="13.006088516026429"><ele>576.0</ele><time>2026-03-28T09:19:09Z</time></trkpt><trkpt lat="43.193589362672235" lon="13.006081136811206"><ele>577.0</ele><time>2026-03-28T09:19:10Z</time></trkpt><trkpt lat="43.19347752515838" lon="13.006109266376946"><ele>577.0</ele><time>2026-03-28T09:19:11Z</time></trkpt><trkpt lat="43.193378081098885" lon="13.006099105246154"><ele>577.0</ele><time>2026-03-28T09:19:12Z</time></trkpt><trkpt lat="43.19327500724363" lon="13.006108656942224"><ele>577.0</ele><time>2026-03-28T09:19:13Z</time></trkpt><trkpt lat="43.19315285808978" lon="13.006118150192579"><ele>577.0</ele><time>2026-03-28T09:19:14Z</time></trkpt><trkpt lat="43.19305584859072" lon="13.006121403048718"><ele>577.0</ele><time>2026-03-28T09:19:15Z</time></trkpt><trkpt lat="43.19295427107723" lon="13.006116105313637"><ele>579.4</ele><time>2026-03-28T09:19:16Z</time></trkpt><trkpt lat="43.192841129466295" lon="13.006087488009609"><ele>581.8000000000001</ele><time>2026-03-28T09:19:17Z</time></trkpt><trkpt lat="43.19273701393084" lon="13.006055255301261"><ele>584.2</ele><time>2026-03-28T09:19:18Z</time></trkpt><trkpt lat="43.19263344640402" lon="13.006025362061232"><ele>586.6</ele><time>2026-03-28T09:19:19Z</time></trkpt><trkpt lat="43.19254049624409" lon="13.006051257855498"><ele>589.0</ele><time>2026-03-28T09:19:20Z</time></trkpt><trkpt lat="43.192432735658926" lon="13.006076685239048"><ele>592.25</ele><time>2026-03-28T09:19:21Z</time></trkpt><trkpt lat="43.19231660232394" lon="13.00612400637624"><ele>595.5</ele><time>2026-03-28T09:19:22Z</time></trkpt><trkpt lat="43.19217131282579" lon="13.00620046078255"><ele>598.75</ele><time>2026-03-28T09:19:23Z</time></trkpt><trkpt lat="43.192047674363586" lon="13.00626552192442"><ele>602.0</ele><time>2026-03-28T09:19:24Z</time></trkpt><trkpt lat="43.19192164605783" lon="13.006331840675765"><ele>602.0</ele><time>2026-03-28T09:19:25Z</time></trkpt><trkpt lat="43.19180105170263" lon="13.0063933938574"><ele>602.0</ele><time>2026-03-28T09:19:26Z</time></trkpt><trkpt lat="43.19167643177942" lon="13.0064569401559"><ele>602.0</ele><time>2026-03-28T09:19:27Z</time></trkpt><trkpt lat="43.1915611735366" lon="13.006508885514574"><ele>602.0</ele><time>2026-03-28T09:19:28Z</time></trkpt><trkpt lat="43.191445556662224" lon="13.006560699299044"><ele>604.25</ele><time>2026-03-28T09:19:29Z</time></trkpt><trkpt lat="43.19132346226334" lon="13.00658354480404"><ele>606.5</ele><time>2026-03-28T09:19:30Z</time></trkpt><trkpt lat="43.19119521533237" lon="13.006616355418764"><ele>608.75</ele><time>2026-03-28T09:19:31Z</time></trkpt><trkpt lat="43.191075508205756" lon="13.006632321806043"><ele>611.0</ele><time>2026-03-28T09:19:32Z</time></trkpt><trkpt lat="43.19094174050563" lon="13.00660290559969"><ele>611.0</ele><time>2026-03-28T09:19:33Z</time></trkpt><trkpt lat="43.19080514346164" lon="13.006545677593815"><ele>611.0</ele><time>2026-03-28T09:19:34Z</time></trkpt><trkpt lat="43.1906559562452" lon="13.006510821905115"><ele>611.0</ele><time>2026-03-28T09:19:35Z</time></trkpt><trkpt lat="43.1904965967385" lon="13.006495049040494"><ele>612.0</ele><time>2026-03-28T09:19:36Z</time></trkpt><trkpt lat="43.190356431970955" lon="13.00649139542026"><ele>613.0</ele><time>2026-03-28T09:19:37Z</time></trkpt><trkpt lat="43.19023544034613" lon="13.006494212429816"><ele>614.0</ele><time>2026-03-28T09:19:38Z</time></trkpt><trkpt lat="43.19013514982504" lon="13.00648833143148"><ele>615.0</ele><time>2026-03-28T09:19:39Z</time></trkpt><trkpt lat="43.19004603852666" lon="13.006473407008604"><ele>615.0</ele><time>2026-03-28T09:19:40Z</time></trkpt><trkpt lat="43.18995290946265" lon="13.006442895063516"><ele>615.0</ele><time>2026-03-28T09:19:41Z</time></trkpt><trkpt lat="43.189860034898715" lon="13.006400431679769"><ele>615.0</ele><time>2026-03-28T09:19:42Z</time></trkpt><trkpt lat="43.189770837800914" lon="13.006351362142595"><ele>615.0</ele><time>2026-03-28T09:19:43Z</time></trkpt><trkpt lat="43.18966915818281" lon="13.006281513029366"><ele>615.0</ele><time>2026-03-28T09:19:44Z</time></trkpt><trkpt lat="43.18957548902894" lon="13.006220362512048"><ele>613.2</ele><time>2026-03-28T09:19:45Z</time></trkpt><trkpt lat="43.18947168157366" lon="13.0061953106612"><ele>611.4</ele><time>2026-03-28T09:19:46Z</time></trkpt><trkpt lat="43.18938397787872" lon="13.006170917593835"><ele>609.6</ele><time>2026-03-28T09:19:47Z</time></trkpt><trkpt lat="43.18930407709932" lon="13.006120451165605"><ele>607.8</ele><time>2026-03-28T09:19:48Z</time></trkpt><trkpt lat="43.189218731399386" lon="13.006086990069797"><ele>606.0</ele><time>2026-03-28T09:19:49Z</time></trkpt><trkpt lat="43.18914301841931" lon="13.006046567516716"><ele>606.0</ele><time>2026-03-28T09:19:50Z</time></trkpt><trkpt lat="43.18906726239597" lon="13.006021682584377"><ele>606.0</ele><time>2026-03-28T09:19:51Z</time></trkpt><trkpt lat="43.18899575443581" lon="13.005976983881702"><ele>606.0</ele><time>2026-03-28T09:19:52Z</time></trkpt><trkpt lat="43.18892703109855" lon="13.005942240682302"><ele>606.0</ele><time>2026-03-28T09:19:53Z</time></trkpt><trkpt lat="43.18885905147008" lon="13.00591137711676"><ele>606.0</ele><time>2026-03-28T09:19:54Z</time></trkpt><trkpt lat="43.18879213209693" lon="13.005883853362647"><ele>606.0</ele><time>2026-03-28T09:19:55Z</time></trkpt><trkpt lat="43.18869477362461" lon="13.005833112943805"><ele>607.75</ele><time>2026-03-28T09:19:57Z</time></trkpt><trkpt lat="43.18859014745702" lon="13.005737237490772"><ele>609.5</ele><time>2026-03-28T09:19:59Z</time></trkpt><trkpt lat="43.18850453405447" lon="13.005709124537049"><ele>611.25</ele><time>2026-03-28T09:20:00Z</time></trkpt><trkpt lat="43.18837831717831" lon="13.00561895401549"><ele>613.0</ele><time>2026-03-28T09:20:01Z</time></trkpt><trkpt lat="43.18829345303135" lon="13.005549214439265"><ele>613.0</ele><time>2026-03-28T09:20:02Z</time></trkpt><trkpt lat="43.18823610242882" lon="13.005482141529788"><ele>613.0</ele><time>2026-03-28T09:20:03Z</time></trkpt><trkpt lat="43.188173834411444" lon="13.005388033843746"><ele>613.0</ele><time>2026-03-28T09:20:04Z</time></trkpt><trkpt lat="43.18810417552651" lon="13.005295689352938"><ele>613.0</ele><time>2026-03-28T09:20:05Z</time></trkpt><trkpt lat="43.18807147120642" lon="13.005217793647162"><ele>613.0</ele><time>2026-03-28T09:20:06Z</time></trkpt><trkpt lat="43.18802181559604" lon="13.005140593057893"><ele>613.0</ele><time>2026-03-28T09:20:09Z</time></trkpt><trkpt lat="43.18805766282541" lon="13.005001102815642"><ele>617.0</ele><time>2026-03-28T09:20:13Z</time></trkpt><trkpt lat="43.18807858588297" lon="13.004520619036553"><ele>621.0</ele><time>2026-03-28T09:20:14Z</time></trkpt><trkpt lat="43.188213625439516" lon="13.004499102881761"><ele>622.6666666666666</ele><time>2026-03-28T09:20:16Z</time></trkpt><trkpt lat="43.18827699258644" lon="13.004492011855394"><ele>624.3333333333334</ele><time>2026-03-28T09:20:17Z</time></trkpt><trkpt lat="43.188344165015394" lon="13.004484494944457"><ele>626.0</ele><time>2026-03-28T09:20:18Z</time></trkpt><trkpt lat="43.18842079385472" lon="13.004475920004268"><ele>627.6666666666667</ele><time>2026-03-28T09:20:19Z</time></trkpt><trkpt lat="43.18850635329257" lon="13.004466345715112"><ele>629.3333333333334</ele><time>2026-03-28T09:20:20Z</time></trkpt><trkpt lat="43.18858569069489" lon="13.0044574672144"><ele>631.0</ele><time>2026-03-28T09:20:21Z</time></trkpt><trkpt lat="43.18871247559948" lon="13.004438380344974"><ele>631.0</ele><time>2026-03-28T09:20:23Z</time></trkpt><trkpt lat="43.188799802365885" lon="13.0044260876377"><ele>631.0</ele><time>2026-03-28T09:20:24Z</time></trkpt><trkpt lat="43.188941749768475" lon="13.004448345825491"><ele>631.0</ele><time>2026-03-28T09:20:25Z</time></trkpt><trkpt lat="43.18902339348807" lon="13.004463605754228"><ele>631.0</ele><time>2026-03-28T09:20:26Z</time></trkpt><trkpt lat="43.1891230138746" lon="13.004480884361094"><ele>631.0</ele><time>2026-03-28T09:20:27Z</time></trkpt><trkpt lat="43.189250854765575" lon="13.004522052472389"><ele>632.2</ele><time>2026-03-28T09:20:28Z</time></trkpt><trkpt lat="43.18935198912102" lon="13.004571243180632"><ele>633.4000000000001</ele><time>2026-03-28T09:20:29Z</time></trkpt><trkpt lat="43.189437476669305" lon="13.004614626427747"><ele>634.6</ele><time>2026-03-28T09:20:30Z</time></trkpt><trkpt lat="43.189516573164966" lon="13.004654766539355"><ele>635.8000000000001</ele><time>2026-03-28T09:20:31Z</time></trkpt><trkpt lat="43.18962770957932" lon="13.004687520319694"><ele>637.0</ele><time>2026-03-28T09:20:33Z</time></trkpt><trkpt lat="43.18962805674678" lon="13.004567693686193"><ele>637.0</ele><time>2026-03-28T09:20:42Z</time></trkpt><trkpt lat="43.18966219626376" lon="13.004467689892266"><ele>637.0</ele><time>2026-03-28T09:20:44Z</time></trkpt><trkpt lat="43.18962857513413" lon="13.004349587894234"><ele>637.0</ele><time>2026-03-28T09:20:46Z</time></trkpt><trkpt lat="43.1895903763915" lon="13.004255655764489"><ele>637.0</ele><time>2026-03-28T09:20:48Z</time></trkpt><trkpt lat="43.18959926973028" lon="13.004152913716656"><ele>637.0</ele><time>2026-03-28T09:20:50Z</time></trkpt><trkpt lat="43.18959550226375" lon="13.004051219323093"><ele>637.0</ele><time>2026-03-28T09:20:52Z</time></trkpt><trkpt lat="43.1895735582712" lon="13.003968163040147"><ele>640.6666666666667</ele><time>2026-03-28T09:20:54Z</time></trkpt><trkpt lat="43.18949848461518" lon="13.003907309849403"><ele>644.3333333333334</ele><time>2026-03-28T09:20:56Z</time></trkpt><trkpt lat="43.18944788529567" lon="13.00381041414402"><ele>648.0</ele><time>2026-03-28T09:20:58Z</time></trkpt><trkpt lat="43.18940102947547" lon="13.003682965345584"><ele>651.6666666666666</ele><time>2026-03-28T09:20:59Z</time></trkpt><trkpt lat="43.18936620927618" lon="13.003588251530749"><ele>655.3333333333333</ele><time>2026-03-28T09:21:00Z</time></trkpt><trkpt lat="43.18933224549675" lon="13.003495867256163"><ele>659.0</ele><time>2026-03-28T09:21:01Z</time></trkpt><trkpt lat="43.18924635359704" lon="13.003461734456904"><ele>659.0</ele><time>2026-03-28T09:21:02Z</time></trkpt><trkpt lat="43.189153659489705" lon="13.003399332115857"><ele>659.0</ele><time>2026-03-28T09:21:05Z</time></trkpt><trkpt lat="43.18906528943323" lon="13.003337314778783"><ele>659.0</ele><time>2026-03-28T09:21:07Z</time></trkpt><trkpt lat="43.188971789272074" lon="13.00327296857951"><ele>659.0</ele><time>2026-03-28T09:21:09Z</time></trkpt><trkpt lat="43.18888846052798" lon="13.003193417782898"><ele>659.0</ele><time>2026-03-28T09:21:12Z</time></trkpt><trkpt lat="43.188813196023446" lon="13.003138954589435"><ele>662.8333333333333</ele><time>2026-03-28T09:21:14Z</time></trkpt><trkpt lat="43.18874506378056" lon="13.003092407603114"><ele>666.6666666666666</ele><time>2026-03-28T09:21:17Z</time></trkpt><trkpt lat="43.1886638314651" lon="13.0030158448096"><ele>670.5</ele><time>2026-03-28T09:21:20Z</time></trkpt><trkpt lat="43.18860369200989" lon="13.002984585253401"><ele>674.3333333333334</ele><time>2026-03-28T09:21:22Z</time></trkpt><trkpt lat="43.188556279830124" lon="13.00290512193733"><ele>678.1666666666667</ele><time>2026-03-28T09:21:25Z</time></trkpt><trkpt lat="43.18852752194398" lon="13.002823362540704"><ele>682.0</ele><time>2026-03-28T09:21:27Z</time></trkpt><trkpt lat="43.18851081162966" lon="13.00270897021262"><ele>682.0</ele><time>2026-03-28T09:21:30Z</time></trkpt><trkpt lat="43.18849495851729" lon="13.002621594431963"><ele>682.0</ele><time>2026-03-28T09:21:32Z</time></trkpt><trkpt lat="43.18848959629597" lon="13.002519828468849"><ele>682.0</ele><time>2026-03-28T09:21:34Z</time></trkpt><trkpt lat="43.18848367665529" lon="13.002412176109935"><ele>682.0</ele><time>2026-03-28T09:21:36Z</time></trkpt><trkpt lat="43.1884617645222" lon="13.00230961803161"><ele>682.0</ele><time>2026-03-28T09:21:44Z</time></trkpt><trkpt lat="43.18842492456384" lon="13.00219960629663"><ele>682.0</ele><time>2026-03-28T09:21:51Z</time></trkpt><trkpt lat="43.188419003991456" lon="13.002109658574199"><ele>684.8</ele><time>2026-03-28T09:21:53Z</time></trkpt><trkpt lat="43.18841834312778" lon="13.001982561963096"><ele>687.6</ele><time>2026-03-28T09:21:57Z</time></trkpt><trkpt lat="43.188462308091125" lon="13.001835969396959"><ele>690.4</ele><time>2026-03-28T09:21:59Z</time></trkpt><trkpt lat="43.18850688871822" lon="13.001729093841359"><ele>693.1999999999999</ele><time>2026-03-28T09:22:01Z</time></trkpt><trkpt lat="43.18856486901708" lon="13.001603465840022"><ele>696.0</ele><time>2026-03-28T09:22:04Z</time></trkpt><trkpt lat="43.188535706942375" lon="13.001494049249477"><ele>698.5</ele><time>2026-03-28T09:22:07Z</time></trkpt><trkpt lat="43.18848450377317" lon="13.00141549479811"><ele>701.0</ele><time>2026-03-28T09:22:09Z</time></trkpt><trkpt lat="43.188426364763544" lon="13.001323329601755"><ele>703.5</ele><time>2026-03-28T09:22:12Z</time></trkpt><trkpt lat="43.188372406542555" lon="13.00124198093346"><ele>706.0</ele><time>2026-03-28T09:22:15Z</time></trkpt><trkpt lat="43.18830251422136" lon="13.001157722544534"><ele>708.5</ele><time>2026-03-28T09:22:19Z</time></trkpt><trkpt lat="43.18824313161076" lon="13.001092516087686"><ele>711.0</ele><time>2026-03-28T09:22:21Z</time></trkpt><trkpt lat="43.18818102491987" lon="13.001010584410832"><ele>708.8333333333334</ele><time>2026-03-28T09:22:24Z</time></trkpt><trkpt lat="43.18812179554766" lon="13.000960460490015"><ele>706.6666666666666</ele><time>2026-03-28T09:22:26Z</time></trkpt><trkpt lat="43.18806047951854" lon="13.000909599728342"><ele>704.5</ele><time>2026-03-28T09:22:28Z</time></trkpt><trkpt lat="43.18800503417245" lon="13.000856703903526"><ele>702.3333333333333</ele><time>2026-03-28T09:22:30Z</time></trkpt><trkpt lat="43.18795054697192" lon="13.000783240057073"><ele>700.1666666666666</ele><time>2026-03-28T09:22:32Z</time></trkpt><trkpt lat="43.187915929738836" lon="13.000684339915551"><ele>698.0</ele><time>2026-03-28T09:22:34Z</time></trkpt><trkpt lat="43.187864034741125" lon="13.000586636984886"><ele>706.0</ele><time>2026-03-28T09:22:36Z</time></trkpt><trkpt lat="43.18779116628459" lon="13.00048129472381"><ele>714.0</ele><time>2026-03-28T09:22:38Z</time></trkpt><trkpt lat="43.18770681425123" lon="13.000423719701406"><ele>722.0</ele><time>2026-03-28T09:22:40Z</time></trkpt><trkpt lat="43.18763303187631" lon="13.00037158465215"><ele>730.0</ele><time>2026-03-28T09:22:42Z</time></trkpt><trkpt lat="43.18754433395181" lon="13.00031916154785"><ele>738.0</ele><time>2026-03-28T09:22:44Z</time></trkpt><trkpt lat="43.18744266393152" lon="13.000282497296128"><ele>738.0</ele><time>2026-03-28T09:22:46Z</time></trkpt><trkpt lat="43.18737716992583" lon="13.000243410912546"><ele>738.0</ele><time>2026-03-28T09:22:48Z</time></trkpt><trkpt lat="43.18729980291109" lon="13.000192320772735"><ele>738.0</ele><time>2026-03-28T09:22:51Z</time></trkpt><trkpt lat="43.18724916568804" lon="13.000139338193325"><ele>738.0</ele><time>2026-03-28T09:22:53Z</time></trkpt><trkpt lat="43.187186947690876" lon="13.000072390460126"><ele>738.0</ele><time>2026-03-28T09:22:55Z</time></trkpt><trkpt lat="43.18713889720827" lon="12.999985452133135"><ele>738.0</ele><time>2026-03-28T09:22:57Z</time></trkpt><trkpt lat="43.18706939406497" lon="12.999884134119668"><ele>735.8</ele><time>2026-03-28T09:22:59Z</time></trkpt><trkpt lat="43.18701866381664" lon="12.999759894896053"><ele>733.5999999999999</ele><time>2026-03-28T09:23:02Z</time></trkpt><trkpt lat="43.18698677181408" lon="12.999621117887939"><ele>731.4000000000001</ele><time>2026-03-28T09:23:04Z</time></trkpt><trkpt lat="43.18694332645516" lon="12.999489000357338"><ele>729.2</ele><time>2026-03-28T09:23:06Z</time></trkpt><trkpt lat="43.18689016066669" lon="12.999395529833917"><ele>727.0</ele><time>2026-03-28T09:23:08Z</time></trkpt><trkpt lat="43.18683438584509" lon="12.999285776191522"><ele>733.3333333333334</ele><time>2026-03-28T09:23:10Z</time></trkpt><trkpt lat="43.18678979912" lon="12.999158981276732"><ele>739.6666666666667</ele><time>2026-03-28T09:23:12Z</time></trkpt><trkpt lat="43.18676768622337" lon="12.999067249302199"><ele>746.0</ele><time>2026-03-28T09:23:14Z</time></trkpt><trkpt lat="43.186721642849946" lon="12.998991133784576"><ele>752.3333333333334</ele><time>2026-03-28T09:23:16Z</time></trkpt><trkpt lat="43.186645895119156" lon="12.998943359770758"><ele>758.6666666666666</ele><time>2026-03-28T09:23:19Z</time></trkpt><trkpt lat="43.18657716307292" lon="12.998868569360663"><ele>765.0</ele><time>2026-03-28T09:23:22Z</time></trkpt><trkpt lat="43.18651067264709" lon="12.99881826417468"><ele>765.0</ele><time>2026-03-28T09:23:24Z</time></trkpt><trkpt lat="43.186456337402944" lon="12.998749201945209"><ele>765.0</ele><time>2026-03-28T09:23:26Z</time></trkpt><trkpt lat="43.18642358858576" lon="12.99865384736984"><ele>765.0</ele><time>2026-03-28T09:23:28Z</time></trkpt><trkpt lat="43.186370721459646" lon="12.998566257110896"><ele>765.0</ele><time>2026-03-28T09:23:31Z</time></trkpt><trkpt lat="43.18632009276923" lon="12.998503733804135"><ele>765.0</ele><time>2026-03-28T09:23:33Z</time></trkpt><trkpt lat="43.18626474241372" lon="12.99843523663299"><ele>765.0</ele><time>2026-03-28T09:23:35Z</time></trkpt><trkpt lat="43.18618764376592" lon="12.998364913003712"><ele>772.6666666666666</ele><time>2026-03-28T09:23:38Z</time></trkpt><trkpt lat="43.18610416331166" lon="12.998265376163765"><ele>780.3333333333333</ele><time>2026-03-28T09:23:41Z</time></trkpt><trkpt lat="43.18606292614393" lon="12.998198953653914"><ele>788.0</ele><time>2026-03-28T09:23:43Z</time></trkpt><trkpt lat="43.186012270769425" lon="12.998138881110933"><ele>795.6666666666666</ele><time>2026-03-28T09:23:48Z</time></trkpt><trkpt lat="43.18594615224662" lon="12.99808137416321"><ele>803.3333333333333</ele><time>2026-03-28T09:23:51Z</time></trkpt><trkpt lat="43.18588249322303" lon="12.998014046771326"><ele>811.0</ele><time>2026-03-28T09:23:54.001Z</time></trkpt><trkpt lat="43.18583840713911" lon="12.997950175917659"><ele>810.9999999999999</ele><time>2026-03-28T09:23:56.001Z</time></trkpt><trkpt lat="43.18578111665523" lon="12.99788323929206"><ele>811.0</ele><time>2026-03-28T09:23:58.001Z</time></trkpt><trkpt lat="43.18571701688577" lon="12.997807741005587"><ele>811.0</ele><time>2026-03-28T09:24:00.001Z</time></trkpt><trkpt lat="43.1856585985813" lon="12.997739586852141"><ele>811.0</ele><time>2026-03-28T09:24:02.001Z</time></trkpt><trkpt lat="43.18560032261663" lon="12.997671058847196"><ele>810.9999999999999</ele><time>2026-03-28T09:24:04.001Z</time></trkpt><trkpt lat="43.18554298374142" lon="12.997600883506022"><ele>811.0</ele><time>2026-03-28T09:24:06.001Z</time></trkpt><trkpt lat="43.18548589737453" lon="12.997525562472546"><ele>816.0</ele><time>2026-03-28T09:24:09.001Z</time></trkpt><trkpt lat="43.18545105164179" lon="12.997450321489646"><ele>821.0</ele><time>2026-03-28T09:24:12.001Z</time></trkpt><trkpt lat="43.185409649284885" lon="12.997358059011136"><ele>826.0</ele><time>2026-03-28T09:24:15.001Z</time></trkpt><trkpt lat="43.1853475703751" lon="12.997238946906172"><ele>831.0</ele><time>2026-03-28T09:24:17.001Z</time></trkpt><trkpt lat="43.185284298126916" lon="12.997200392030383"><ele>836.0</ele><time>2026-03-28T09:24:20.001Z</time></trkpt><trkpt lat="43.18514830554554" lon="12.997223161060582"><ele>836.0</ele><time>2026-03-28T09:24:22.001Z</time></trkpt><trkpt lat="43.184951906040816" lon="12.997204785792839"><ele>836.0</ele><time>2026-03-28T09:24:41.001Z</time></trkpt><trkpt lat="43.184962426202986" lon="12.997115673549294"><ele>836.0</ele><time>2026-03-28T09:24:43.001Z</time></trkpt><trkpt lat="43.18497943419438" lon="12.997026439276643"><ele>836.0</ele><time>2026-03-28T09:24:45.001Z</time></trkpt><trkpt lat="43.18501351192996" lon="12.996909070290036"><ele>836.0</ele><time>2026-03-28T09:24:48.001Z</time></trkpt><trkpt lat="43.18504759818904" lon="12.996829557202254"><ele>836.0000000000001</ele><time>2026-03-28T09:24:51.001Z</time></trkpt><trkpt lat="43.185079431557" lon="12.996742333167738"><ele>836.0</ele><time>2026-03-28T09:24:53.001Z</time></trkpt><trkpt lat="43.18513270899337" lon="12.996655850211058"><ele>836.0</ele><time>2026-03-28T09:24:56.001Z</time></trkpt><trkpt lat="43.185190181175116" lon="12.996569773575947"><ele>836.0</ele><time>2026-03-28T09:24:58.001Z</time></trkpt><trkpt lat="43.18521879206711" lon="12.996478368736106"><ele>836.0000000000001</ele><time>2026-03-28T09:25:01.001Z</time></trkpt><trkpt lat="43.18519932449409" lon="12.996371073705491"><ele>836.0</ele><time>2026-03-28T09:25:05.001Z</time></trkpt><trkpt lat="43.18518139146247" lon="12.99627888347344"><ele>838.6666666666667</ele><time>2026-03-28T09:25:09.001Z</time></trkpt><trkpt lat="43.18515826750547" lon="12.99617249338227"><ele>841.3333333333334</ele><time>2026-03-28T09:25:13.001Z</time></trkpt><trkpt lat="43.185225655856534" lon="12.996088106883658"><ele>844.0</ele><time>2026-03-28T09:25:16.001Z</time></trkpt><trkpt lat="43.18524630838633" lon="12.996001528883706"><ele>846.6666666666667</ele><time>2026-03-28T09:25:18.001Z</time></trkpt><trkpt lat="43.18522328191952" lon="12.995895757480458"><ele>849.3333333333334</ele><time>2026-03-28T09:25:24.001Z</time></trkpt><trkpt lat="43.185214687386384" lon="12.995781214952265"><ele>852.0</ele><time>2026-03-28T09:25:27.001Z</time></trkpt><trkpt lat="43.18521439364415" lon="12.995668543559557"><ele>852.0</ele><time>2026-03-28T09:25:29.001Z</time></trkpt><trkpt lat="43.18523755653286" lon="12.995572400203532"><ele>852.0</ele><time>2026-03-28T09:25:32.001Z</time></trkpt><trkpt lat="43.18515189115366" lon="12.995792458225365"><ele>852.0</ele><time>2026-03-28T09:25:33.001Z</time></trkpt><trkpt lat="43.18510189144733" lon="12.995852083644706"><ele>852.0</ele><time>2026-03-28T09:25:35.001Z</time></trkpt><trkpt lat="43.18510589264133" lon="12.99575552275275"><ele>852.0</ele><time>2026-03-28T09:25:37.001Z</time></trkpt><trkpt lat="43.185108164150435" lon="12.995668564428456"><ele>851.9999999999999</ele><time>2026-03-28T09:25:39.001Z</time></trkpt><trkpt lat="43.18510704308262" lon="12.995578239827731"><ele>852.0</ele><time>2026-03-28T09:25:41.001Z</time></trkpt><trkpt lat="43.18511318209459" lon="12.995489981022278"><ele>852.0</ele><time>2026-03-28T09:25:44.001Z</time></trkpt><trkpt lat="43.18512669161372" lon="12.995384280909084"><ele>852.0</ele><time>2026-03-28T09:25:47.001Z</time></trkpt><trkpt lat="43.18514082499932" lon="12.995299318455181"><ele>852.0</ele><time>2026-03-28T09:25:49.001Z</time></trkpt><trkpt lat="43.18514714135225" lon="12.99520349005365"><ele>851.9999999999999</ele><time>2026-03-28T09:25:51.001Z</time></trkpt><trkpt lat="43.18515339109676" lon="12.995099143356894"><ele>852.0</ele><time>2026-03-28T09:25:53.001Z</time></trkpt><trkpt lat="43.18516755546242" lon="12.994988970943743"><ele>851.4285714285713</ele><time>2026-03-28T09:25:57.001Z</time></trkpt><trkpt lat="43.18519022172823" lon="12.994880354230071"><ele>850.8571428571429</ele><time>2026-03-28T09:26:00.001Z</time></trkpt><trkpt lat="43.18516358864802" lon="12.994794909211649"><ele>850.2857142857142</ele><time>2026-03-28T09:26:04.001Z</time></trkpt><trkpt lat="43.18515102565549" lon="12.99470822773435"><ele>849.7142857142857</ele><time>2026-03-28T09:26:16.001Z</time></trkpt><trkpt lat="43.1850838064246" lon="12.994684078594586"><ele>849.1428571428571</ele><time>2026-03-28T09:26:25.001Z</time></trkpt><trkpt lat="43.185043675440944" lon="12.994597667188296"><ele>848.5714285714286</ele><time>2026-03-28T09:26:29.001Z</time></trkpt><trkpt lat="43.185020548560026" lon="12.994497288160435"><ele>848.0</ele><time>2026-03-28T09:26:36Z</time></trkpt><trkpt lat="43.18499629092637" lon="12.994414298826861"><ele>848.0</ele><time>2026-03-28T09:26:42Z</time></trkpt><trkpt lat="43.184966419931044" lon="12.994333203937106"><ele>848.0</ele><time>2026-03-28T09:26:49Z</time></trkpt><trkpt lat="43.18490767258105" lon="12.99429358039021"><ele>848.0</ele><time>2026-03-28T09:27:00Z</time></trkpt><trkpt lat="43.18484358525812" lon="12.994278322914031"><ele>848.0</ele><time>2026-03-28T09:27:06Z</time></trkpt><trkpt lat="43.1848398888983" lon="12.994167674173159"><ele>848.0</ele><time>2026-03-28T09:27:12Z</time></trkpt><trkpt lat="43.18482868201128" lon="12.994082147755066"><ele>848.0</ele><time>2026-03-28T09:27:14Z</time></trkpt><trkpt lat="43.18482168780438" lon="12.9939856571588"><ele>848.0</ele><time>2026-03-28T09:27:16Z</time></trkpt><trkpt lat="43.184798174069634" lon="12.993879520874644"><ele>837.5000000000001</ele><time>2026-03-28T09:27:18Z</time></trkpt><trkpt lat="43.18478665565353" lon="12.993788715569323"><ele>827.0</ele><time>2026-03-28T09:27:20Z</time></trkpt><trkpt lat="43.18477514289404" lon="12.993685091441831"><ele>816.5</ele><time>2026-03-28T09:27:23Z</time></trkpt><trkpt lat="43.18472028058697" lon="12.993603219054881"><ele>806.0</ele><time>2026-03-28T09:27:27Z</time></trkpt><trkpt lat="43.18462974211054" lon="12.993612975060303"><ele>795.5000000000001</ele><time>2026-03-28T09:27:31Z</time></trkpt><trkpt lat="43.18456404200892" lon="12.993610142181772"><ele>785.0</ele><time>2026-03-28T09:27:34Z</time></trkpt><trkpt lat="43.184492935789905" lon="12.993545949981552"><ele>785.0000000000001</ele><time>2026-03-28T09:27:37Z</time></trkpt><trkpt lat="43.1844782928103" lon="12.993438283234962"><ele>785.0</ele><time>2026-03-28T09:27:40Z</time></trkpt><trkpt lat="43.18448565779238" lon="12.993326916287392"><ele>785.0</ele><time>2026-03-28T09:27:44Z</time></trkpt><trkpt lat="43.18450046616517" lon="12.993207800767497"><ele>785.0</ele><time>2026-03-28T09:27:47Z</time></trkpt><trkpt lat="43.184506006753175" lon="12.99310418628084"><ele>785.0000000000001</ele><time>2026-03-28T09:27:50Z</time></trkpt><trkpt lat="43.18453000468891" lon="12.993005535296069"><ele>785.0</ele><time>2026-03-28T09:27:53Z</time></trkpt><trkpt lat="43.184552031903046" lon="12.992918445200745"><ele>786.1666666666667</ele><time>2026-03-28T09:27:56Z</time></trkpt><trkpt lat="43.18458494835787" lon="12.99280961489384"><ele>787.3333333333334</ele><time>2026-03-28T09:27:59Z</time></trkpt><trkpt lat="43.18460980958518" lon="12.992724086900814"><ele>788.5</ele><time>2026-03-28T09:28:01Z</time></trkpt><trkpt lat="43.18464116098918" lon="12.9926353678299"><ele>789.6666666666667</ele><time>2026-03-28T09:28:03Z</time></trkpt><trkpt lat="43.18467807633705" lon="12.992565397746239"><ele>790.8333333333334</ele><time>2026-03-28T09:28:05Z</time></trkpt><trkpt lat="43.18471402220019" lon="12.992477903126263"><ele>792.0</ele><time>2026-03-28T09:28:07Z</time></trkpt><trkpt lat="43.184754595740806" lon="12.992366190285631"><ele>792.0</ele><time>2026-03-28T09:28:10Z</time></trkpt><trkpt lat="43.184765878998796" lon="12.992272742133958"><ele>792.0</ele><time>2026-03-28T09:28:12Z</time></trkpt><trkpt lat="43.18478927399388" lon="12.992147657934627"><ele>792.0</ele><time>2026-03-28T09:28:14Z</time></trkpt><trkpt lat="43.184819017570376" lon="12.992050900283457"><ele>792.0</ele><time>2026-03-28T09:28:16.001Z</time></trkpt><trkpt lat="43.1848647480918" lon="12.991959480296453"><ele>792.0</ele><time>2026-03-28T09:28:18.001Z</time></trkpt><trkpt lat="43.18492316085247" lon="12.991845988141044"><ele>792.0</ele><time>2026-03-28T09:28:20.001Z</time></trkpt><trkpt lat="43.18498533726586" lon="12.991754908799402"><ele>794.2</ele><time>2026-03-28T09:28:22.001Z</time></trkpt><trkpt lat="43.185047674997776" lon="12.99165014336184"><ele>796.4000000000001</ele><time>2026-03-28T09:28:24.001Z</time></trkpt><trkpt lat="43.18510621858938" lon="12.991535588118126"><ele>798.5999999999999</ele><time>2026-03-28T09:28:26.001Z</time></trkpt><trkpt lat="43.18516760732921" lon="12.991411973852625"><ele>800.8</ele><time>2026-03-28T09:28:28.001Z</time></trkpt><trkpt lat="43.18522627218478" lon="12.991278578493615"><ele>803.0</ele><time>2026-03-28T09:28:30.001Z</time></trkpt><trkpt lat="43.185291425978285" lon="12.99116862110447"><ele>803.0000000000001</ele><time>2026-03-28T09:28:32.001Z</time></trkpt><trkpt lat="43.18536881916656" lon="12.991058902316183"><ele>803.0</ele><time>2026-03-28T09:28:34.001Z</time></trkpt><trkpt lat="43.18540809135457" lon="12.99095344499303"><ele>803.0</ele><time>2026-03-28T09:28:37.001Z</time></trkpt><trkpt lat="43.18544241495463" lon="12.990868840240386"><ele>803.0</ele><time>2026-03-28T09:28:39.001Z</time></trkpt><trkpt lat="43.18550685475886" lon="12.990804397356749"><ele>803.0000000000001</ele><time>2026-03-28T09:28:43.001Z</time></trkpt><trkpt lat="43.18554913545211" lon="12.990732726899981"><ele>803.0</ele><time>2026-03-28T09:28:46.001Z</time></trkpt><trkpt lat="43.18560459534683" lon="12.99064778105129"><ele>804.7142857142857</ele><time>2026-03-28T09:28:49.001Z</time></trkpt><trkpt lat="43.18565380984622" lon="12.990566822262556"><ele>806.4285714285714</ele><time>2026-03-28T09:28:52.001Z</time></trkpt><trkpt lat="43.18570364109279" lon="12.990494250197424"><ele>808.1428571428571</ele><time>2026-03-28T09:28:55.001Z</time></trkpt><trkpt lat="43.18574635215142" lon="12.990404606353772"><ele>809.8571428571429</ele><time>2026-03-28T09:28:58.001Z</time></trkpt><trkpt lat="43.18578881728775" lon="12.990340210829626"><ele>811.5714285714286</ele><time>2026-03-28T09:29:00.001Z</time></trkpt><trkpt lat="43.1858241952747" lon="12.990265697170342"><ele>813.2857142857142</ele><time>2026-03-28T09:29:02.001Z</time></trkpt><trkpt lat="43.1858737433372" lon="12.990159834939695"><ele>815.0</ele><time>2026-03-28T09:29:05.001Z</time></trkpt><trkpt lat="43.18591157727414" lon="12.990076337304044"><ele>809.3333333333334</ele><time>2026-03-28T09:29:07.001Z</time></trkpt><trkpt lat="43.18595176669576" lon="12.989991099036315"><ele>803.6666666666667</ele><time>2026-03-28T09:29:09.001Z</time></trkpt><trkpt lat="43.18599311984404" lon="12.989886594483778"><ele>798.0</ele><time>2026-03-28T09:29:11.001Z</time></trkpt><trkpt lat="43.18604149442227" lon="12.989807874733481"><ele>792.3333333333333</ele><time>2026-03-28T09:29:14.001Z</time></trkpt><trkpt lat="43.18608890852514" lon="12.989748858332868"><ele>786.6666666666666</ele><time>2026-03-28T09:29:17.001Z</time></trkpt><trkpt lat="43.186138879347205" lon="12.989658283255777"><ele>781.0</ele><time>2026-03-28T09:29:20.001Z</time></trkpt><trkpt lat="43.18621513397057" lon="12.989618216891097"><ele>780.9999999999999</ele><time>2026-03-28T09:29:22.001Z</time></trkpt><trkpt lat="43.18621224422128" lon="12.989502923861636"><ele>781.0</ele><time>2026-03-28T09:29:36.001Z</time></trkpt><trkpt lat="43.186216617785995" lon="12.989399233929412"><ele>781.0</ele><time>2026-03-28T09:29:39.001Z</time></trkpt><trkpt lat="43.186204364526404" lon="12.989291913741296"><ele>781.0</ele><time>2026-03-28T09:29:42.001Z</time></trkpt><trkpt lat="43.186232589007766" lon="12.989195978235202"><ele>780.9999999999999</ele><time>2026-03-28T09:29:45.001Z</time></trkpt><trkpt lat="43.18619471754297" lon="12.98908976214788"><ele>781.0</ele><time>2026-03-28T09:29:47.001Z</time></trkpt><trkpt lat="43.186187195048156" lon="12.988997527445367"><ele>780.6666666666666</ele><time>2026-03-28T09:29:50.001Z</time></trkpt><trkpt lat="43.18613754632952" lon="12.98893918597698"><ele>780.3333333333333</ele><time>2026-03-28T09:29:52.001Z</time></trkpt><trkpt lat="43.18607194171054" lon="12.98885141883663"><ele>780.0</ele><time>2026-03-28T09:29:56.001Z</time></trkpt><trkpt lat="43.18601309767852" lon="12.988767854153224"><ele>779.6666666666667</ele><time>2026-03-28T09:29:58.001Z</time></trkpt><trkpt lat="43.185958040793054" lon="12.988692748941991"><ele>779.3333333333334</ele><time>2026-03-28T09:30:00.001Z</time></trkpt><trkpt lat="43.185886410852405" lon="12.988617210865812"><ele>779.0</ele><time>2026-03-28T09:30:03.001Z</time></trkpt><trkpt lat="43.185933183125556" lon="12.988550796954609"><ele>779.0000000000001</ele><time>2026-03-28T09:30:12.001Z</time></trkpt><trkpt lat="43.18599599494" lon="12.988518569317517"><ele>779.0</ele><time>2026-03-28T09:30:17.001Z</time></trkpt><trkpt lat="43.18605470930909" lon="12.9884438877581"><ele>779.0</ele><time>2026-03-28T09:30:22.001Z</time></trkpt><trkpt lat="43.186118134289714" lon="12.988380305093086"><ele>779.0</ele><time>2026-03-28T09:30:25.001Z</time></trkpt><trkpt lat="43.1861699087585" lon="12.98831924776499"><ele>779.0</ele><time>2026-03-28T09:30:29.001Z</time></trkpt><trkpt lat="43.1862196493118" lon="12.988264025759634"><ele>779.0000000000001</ele><time>2026-03-28T09:30:32.001Z</time></trkpt><trkpt lat="43.1862772397141" lon="12.988207521223286"><ele>779.0</ele><time>2026-03-28T09:30:36.001Z</time></trkpt><trkpt lat="43.186330869316365" lon="12.988137613199049"><ele>774.25</ele><time>2026-03-28T09:30:40.001Z</time></trkpt><trkpt lat="43.186372313174964" lon="12.98804710671417"><ele>769.5</ele><time>2026-03-28T09:30:45.001Z</time></trkpt><trkpt lat="43.18640178481346" lon="12.987948082983385"><ele>764.75</ele><time>2026-03-28T09:30:51Z</time></trkpt><trkpt lat="43.18644306718648" lon="12.987876992990898"><ele>760.0</ele><time>2026-03-28T09:30:53Z</time></trkpt><trkpt lat="43.18534389807271" lon="12.985269487015199"><ele>760.0</ele><time>2026-03-28T09:30:55.001Z</time></trkpt><trkpt lat="43.185386721176116" lon="12.985110221201271"><ele>760.0</ele><time>2026-03-28T09:30:58Z</time></trkpt><trkpt lat="43.185481585768656" lon="12.985065852732832"><ele>760.0</ele><time>2026-03-28T09:31:15Z</time></trkpt><trkpt lat="43.18545008954266" lon="12.984988608122562"><ele>760.0</ele><time>2026-03-28T09:31:22Z</time></trkpt><trkpt lat="43.18548738753003" lon="12.98490297544755"><ele>760.0</ele><time>2026-03-28T09:31:28Z</time></trkpt><trkpt lat="43.18552599852743" lon="12.984829268135279"><ele>760.0</ele><time>2026-03-28T09:31:33Z</time></trkpt><trkpt lat="43.18555887176919" lon="12.98474945299014"><ele>762.6666666666667</ele><time>2026-03-28T09:31:36Z</time></trkpt><trkpt lat="43.185595174324924" lon="12.98466902656313"><ele>765.3333333333334</ele><time>2026-03-28T09:31:40Z</time></trkpt><trkpt lat="43.18564398738587" lon="12.984579338514452"><ele>768.0</ele><time>2026-03-28T09:31:45Z</time></trkpt><trkpt lat="43.185686054781584" lon="12.98450039956704"><ele>770.6666666666667</ele><time>2026-03-28T09:31:47Z</time></trkpt><trkpt lat="43.18573656043631" lon="12.984438778949011"><ele>773.3333333333334</ele><time>2026-03-28T09:31:49Z</time></trkpt><trkpt lat="43.18579666956249" lon="12.98438077402533"><ele>776.0</ele><time>2026-03-28T09:31:51Z</time></trkpt><trkpt lat="43.185877134307866" lon="12.984317473258887"><ele>784.1999999999999</ele><time>2026-03-28T09:31:54Z</time></trkpt><trkpt lat="43.18594063033261" lon="12.984307782557833"><ele>792.4</ele><time>2026-03-28T09:31:56Z</time></trkpt><trkpt lat="43.1859997772375" lon="12.984195932948662"><ele>800.6</ele><time>2026-03-28T09:31:58Z</time></trkpt><trkpt lat="43.18603299513736" lon="12.984099169622658"><ele>808.8</ele><time>2026-03-28T09:31:59Z</time></trkpt><trkpt lat="43.18609841266206" lon="12.98406614643622"><ele>817.0</ele><time>2026-03-28T09:32:01Z</time></trkpt><trkpt lat="43.1861198077282" lon="12.983876528219326"><ele>817.0</ele><time>2026-03-28T09:32:02Z</time></trkpt><trkpt lat="43.18618602812056" lon="12.98380410325696"><ele>817.0</ele><time>2026-03-28T09:32:04Z</time></trkpt><trkpt lat="43.18624098354263" lon="12.983729570406132"><ele>817.0</ele><time>2026-03-28T09:32:07Z</time></trkpt><trkpt lat="43.18625467468672" lon="12.983629400136026"><ele>817.0</ele><time>2026-03-28T09:32:08Z</time></trkpt><trkpt lat="43.18628680166251" lon="12.983475409742557"><ele>817.0</ele><time>2026-03-28T09:32:12Z</time></trkpt><trkpt lat="43.186310598686" lon="12.983323860859883"><ele>813.2</ele><time>2026-03-28T09:32:15Z</time></trkpt><trkpt lat="43.186324153357226" lon="12.983150960490274"><ele>809.4000000000001</ele><time>2026-03-28T09:32:16Z</time></trkpt><trkpt lat="43.18635180743046" lon="12.98306696656486"><ele>805.5999999999999</ele><time>2026-03-28T09:32:18Z</time></trkpt><trkpt lat="43.18638526826247" lon="12.982977912789314"><ele>801.8</ele><time>2026-03-28T09:32:20Z</time></trkpt><trkpt lat="43.18640605878748" lon="12.982877272949466"><ele>798.0</ele><time>2026-03-28T09:32:22Z</time></trkpt><trkpt lat="43.18642525587484" lon="12.982727725455042"><ele>798.0</ele><time>2026-03-28T09:32:24Z</time></trkpt><trkpt lat="43.18644905074872" lon="12.982622214751855"><ele>798.0</ele><time>2026-03-28T09:32:26Z</time></trkpt><trkpt lat="43.1864666041127" lon="12.982517963969025"><ele>798.0</ele><time>2026-03-28T09:32:29Z</time></trkpt><trkpt lat="43.18649044081478" lon="12.982388100049231"><ele>798.0</ele><time>2026-03-28T09:32:33Z</time></trkpt><trkpt lat="43.18653150357761" lon="12.982290313904086"><ele>798.0</ele><time>2026-03-28T09:32:36Z</time></trkpt><trkpt lat="43.18657297699804" lon="12.982117204865343"><ele>799.3333333333334</ele><time>2026-03-28T09:32:38Z</time></trkpt><trkpt lat="43.18656486926186" lon="12.982020890393194"><ele>800.6666666666667</ele><time>2026-03-28T09:32:40Z</time></trkpt><trkpt lat="43.18650265910253" lon="12.981984505629867"><ele>802.0</ele><time>2026-03-28T09:32:42Z</time></trkpt><trkpt lat="43.1866387269059" lon="12.981903880136537"><ele>803.3333333333334</ele><time>2026-03-28T09:33:10.001Z</time></trkpt><trkpt lat="43.18670022042571" lon="12.981807960298699"><ele>804.6666666666667</ele><time>2026-03-28T09:33:12.001Z</time></trkpt><trkpt lat="43.18675135904175" lon="12.98175566533701"><ele>806.0</ele><time>2026-03-28T09:33:13.001Z</time></trkpt><trkpt lat="43.186821809566496" lon="12.981631823126978"><ele>803.0</ele><time>2026-03-28T09:33:15.001Z</time></trkpt><trkpt lat="43.18688212791087" lon="12.981607084973737"><ele>800.0</ele><time>2026-03-28T09:33:16.001Z</time></trkpt><trkpt lat="43.186956495118416" lon="12.981567176168289"><ele>797.0</ele><time>2026-03-28T09:33:18.001Z</time></trkpt><trkpt lat="43.18705146803743" lon="12.981512722750422"><ele>794.0</ele><time>2026-03-28T09:33:23.001Z</time></trkpt><trkpt lat="43.18711597049581" lon="12.98148624942134"><ele>791.0</ele><time>2026-03-28T09:33:25.001Z</time></trkpt><trkpt lat="43.18715600677571" lon="12.981406080661246"><ele>788.0</ele><time>2026-03-28T09:33:27.001Z</time></trkpt><trkpt lat="43.18720317317734" lon="12.981345780503109"><ele>785.0</ele><time>2026-03-28T09:33:31.001Z</time></trkpt><trkpt lat="43.18724954793307" lon="12.98123179252675"><ele>785.0</ele><time>2026-03-28T09:33:33.001Z</time></trkpt><trkpt lat="43.18730997241373" lon="12.9810777410893"><ele>785.0</ele><time>2026-03-28T09:33:36.001Z</time></trkpt><trkpt lat="43.187361817850636" lon="12.98098944088954"><ele>785.0</ele><time>2026-03-28T09:33:38Z</time></trkpt><trkpt lat="43.18740445091434" lon="12.980886695015998"><ele>785.0</ele><time>2026-03-28T09:33:39Z</time></trkpt><trkpt lat="43.1874582264281" lon="12.980779585818931"><ele>785.0</ele><time>2026-03-28T09:33:41Z</time></trkpt><trkpt lat="43.18749924426291" lon="12.980691346369243"><ele>784.3333333333334</ele><time>2026-03-28T09:33:42Z</time></trkpt><trkpt lat="43.18754788521351" lon="12.980615938566228"><ele>783.6666666666667</ele><time>2026-03-28T09:33:43Z</time></trkpt><trkpt lat="43.18760680430061" lon="12.980534016000712"><ele>783.0</ele><time>2026-03-28T09:33:44Z</time></trkpt><trkpt lat="43.18766930175158" lon="12.980449724863602"><ele>782.3333333333333</ele><time>2026-03-28T09:33:45Z</time></trkpt><trkpt lat="43.18772565843018" lon="12.98037089189361"><ele>781.6666666666666</ele><time>2026-03-28T09:33:46Z</time></trkpt><trkpt lat="43.187765624377626" lon="12.980266199069323"><ele>781.0</ele><time>2026-03-28T09:33:47Z</time></trkpt><trkpt lat="43.18784081179265" lon="12.980092023195647"><ele>781.1999999999999</ele><time>2026-03-28T09:33:48Z</time></trkpt><trkpt lat="43.187912846699064" lon="12.979959587570777"><ele>781.4</ele><time>2026-03-28T09:33:49Z</time></trkpt><trkpt lat="43.18798157816006" lon="12.979870162721065"><ele>781.6</ele><time>2026-03-28T09:33:50Z</time></trkpt><trkpt lat="43.18805145043201" lon="12.979785412607585"><ele>781.8</ele><time>2026-03-28T09:33:51Z</time></trkpt><trkpt lat="43.18812859475907" lon="12.97969848757903"><ele>782.0</ele><time>2026-03-28T09:33:52Z</time></trkpt><trkpt lat="43.18818959178142" lon="12.979603461996886"><ele>782.0</ele><time>2026-03-28T09:33:54Z</time></trkpt><trkpt lat="43.188428101996394" lon="12.979534236089934"><ele>782.0</ele><time>2026-03-28T09:34:09Z</time></trkpt><trkpt lat="43.18850072180244" lon="12.979384310098032"><ele>782.0</ele><time>2026-03-28T09:34:10Z</time></trkpt><trkpt lat="43.188564722755935" lon="12.979309347993048"><ele>776.4000000000001</ele><time>2026-03-28T09:34:12Z</time></trkpt><trkpt lat="43.18866019571407" lon="12.979172304014638"><ele>770.8000000000001</ele><time>2026-03-28T09:34:14Z</time></trkpt><trkpt lat="43.18871253409909" lon="12.979099013209156"><ele>765.2</ele><time>2026-03-28T09:34:15Z</time></trkpt><trkpt lat="43.18877693363106" lon="12.979022416885675"><ele>759.6</ele><time>2026-03-28T09:34:16Z</time></trkpt><trkpt lat="43.18883774876939" lon="12.978970006255128"><ele>754.0</ele><time>2026-03-28T09:34:26Z</time></trkpt><trkpt lat="43.18891836315785" lon="12.97894619043658"><ele>754.0</ele><time>2026-03-28T09:34:28Z</time></trkpt><trkpt lat="43.189003068415005" lon="12.978879994510926"><ele>754.0</ele><time>2026-03-28T09:34:30Z</time></trkpt><trkpt lat="43.18911759165918" lon="12.978704013562488"><ele>754.0</ele><time>2026-03-28T09:34:31Z</time></trkpt><trkpt lat="43.18922278755164" lon="12.978574079247556"><ele>754.0</ele><time>2026-03-28T09:34:32Z</time></trkpt><trkpt lat="43.18926419590458" lon="12.978508389266953"><ele>755.4000000000001</ele><time>2026-03-28T09:34:33Z</time></trkpt><trkpt lat="43.18934043369366" lon="12.978410791162563"><ele>756.8</ele><time>2026-03-28T09:34:35Z</time></trkpt><trkpt lat="43.189431363755006" lon="12.978296492863487"><ele>758.2</ele><time>2026-03-28T09:34:37Z</time></trkpt><trkpt lat="43.18947415073057" lon="12.97823102533729"><ele>759.5999999999999</ele><time>2026-03-28T09:34:38Z</time></trkpt><trkpt lat="43.18950183118649" lon="12.978120123960672"><ele>761.0</ele><time>2026-03-28T09:34:40Z</time></trkpt><trkpt lat="43.18955688950467" lon="12.978042642824132"><ele>761.0</ele><time>2026-03-28T09:34:42Z</time></trkpt><trkpt lat="43.1896824880129" lon="12.977943839696117"><ele>761.0</ele><time>2026-03-28T09:34:44Z</time></trkpt><trkpt lat="43.18975544475085" lon="12.97787427877867"><ele>761.0</ele><time>2026-03-28T09:34:45Z</time></trkpt><trkpt lat="43.18981999594637" lon="12.977811298163429"><ele>761.0</ele><time>2026-03-28T09:34:48Z</time></trkpt><trkpt lat="43.189896414371006" lon="12.977763259077996"><ele>761.0</ele><time>2026-03-28T09:34:50Z</time></trkpt><trkpt lat="43.1899538900134" lon="12.977708442215672"><ele>761.25</ele><time>2026-03-28T09:34:54Z</time></trkpt><trkpt lat="43.19011075726268" lon="12.977661555825165"><ele>761.5</ele><time>2026-03-28T09:34:57Z</time></trkpt><trkpt lat="43.19018832425514" lon="12.977614514878674"><ele>761.75</ele><time>2026-03-28T09:35:00Z</time></trkpt><trkpt lat="43.19027156432571" lon="12.977564568528203"><ele>762.0</ele><time>2026-03-28T09:35:01Z</time></trkpt><trkpt lat="43.1903780980891" lon="12.97746872230575"><ele>762.0</ele><time>2026-03-28T09:35:03Z</time></trkpt><trkpt lat="43.19042926037199" lon="12.977402391528415"><ele>762.0</ele><time>2026-03-28T09:35:05Z</time></trkpt><trkpt lat="43.190505382279895" lon="12.97735425985754"><ele>762.0</ele><time>2026-03-28T09:35:07Z</time></trkpt><trkpt lat="43.19058445794481" lon="12.977295777872262"><ele>762.0</ele><time>2026-03-28T09:35:08Z</time></trkpt><trkpt lat="43.19064310675909" lon="12.977238740365573"><ele>762.0</ele><time>2026-03-28T09:35:09Z</time></trkpt><trkpt lat="43.190709051578786" lon="12.977183850794967"><ele>762.0</ele><time>2026-03-28T09:35:10Z</time></trkpt><trkpt lat="43.19076679992576" lon="12.977117638725458"><ele>770.0</ele><time>2026-03-28T09:35:11Z</time></trkpt><trkpt lat="43.190854781803424" lon="12.977056332110232"><ele>778.0</ele><time>2026-03-28T09:35:13Z</time></trkpt><trkpt lat="43.1909496851593" lon="12.976978193952963"><ele>786.0</ele><time>2026-03-28T09:35:15Z</time></trkpt><trkpt lat="43.191034039755635" lon="12.97688128422637"><ele>794.0</ele><time>2026-03-28T09:35:19Z</time></trkpt><trkpt lat="43.191109279297514" lon="12.976829789915096"><ele>802.0</ele><time>2026-03-28T09:35:25Z</time></trkpt><trkpt lat="43.191146941722614" lon="12.976759026383625"><ele>795.6666666666666</ele><time>2026-03-28T09:35:28Z</time></trkpt><trkpt lat="43.191164227104714" lon="12.976672066126175"><ele>789.3333333333333</ele><time>2026-03-28T09:35:33Z</time></trkpt><trkpt lat="43.19122402638139" lon="12.976573036166108"><ele>783.0</ele><time>2026-03-28T09:35:38Z</time></trkpt><trkpt lat="43.191279975815895" lon="12.976513885886568"><ele>776.6666666666666</ele><time>2026-03-28T09:35:44Z</time></trkpt><trkpt lat="43.1913353090776" lon="12.976470400143947"><ele>770.3333333333333</ele><time>2026-03-28T09:35:46Z</time></trkpt><trkpt lat="43.1914081900065" lon="12.976407892308746"><ele>764.0</ele><time>2026-03-28T09:35:49Z</time></trkpt><trkpt lat="43.19147181117534" lon="12.97632565659598"><ele>774.25</ele><time>2026-03-28T09:35:52Z</time></trkpt><trkpt lat="43.19152750695819" lon="12.97626378677128"><ele>784.5</ele><time>2026-03-28T09:35:54Z</time></trkpt><trkpt lat="43.19158036610391" lon="12.976198813855204"><ele>794.75</ele><time>2026-03-28T09:35:57Z</time></trkpt><trkpt lat="43.19162498505" lon="12.976137817576902"><ele>805.0</ele><time>2026-03-28T09:36:00Z</time></trkpt><trkpt lat="43.19188308702284" lon="12.976121574058043"><ele>804.9999999999999</ele><time>2026-03-28T09:37:05Z</time></trkpt><trkpt lat="43.191897993047945" lon="12.976219816122576"><ele>805.0</ele><time>2026-03-28T09:37:32.001Z</time></trkpt><trkpt lat="43.19185030100316" lon="12.976288310922124"><ele>805.0</ele><time>2026-03-28T09:37:47.001Z</time></trkpt><trkpt lat="43.191752817044595" lon="12.976308405192684"><ele>805.0</ele><time>2026-03-28T09:38:12.001Z</time></trkpt><trkpt lat="43.191780122136784" lon="12.976229884420478"><ele>804.9999999999999</ele><time>2026-03-28T09:38:36.001Z</time></trkpt><trkpt lat="43.191818520713106" lon="12.976106278027451"><ele>805.0</ele><time>2026-03-28T09:38:46.001Z</time></trkpt><trkpt lat="43.19186450365168" lon="12.976020253559968"><ele>804.9999999999999</ele><time>2026-03-28T09:38:49.001Z</time></trkpt><trkpt lat="43.19192406785727" lon="12.975919893452325"><ele>805.0</ele><time>2026-03-28T09:38:52.001Z</time></trkpt><trkpt lat="43.19198021352387" lon="12.975829618955979"><ele>805.0</ele><time>2026-03-28T09:38:55.001Z</time></trkpt><trkpt lat="43.19202753763561" lon="12.975760568328262"><ele>805.0</ele><time>2026-03-28T09:38:58.001Z</time></trkpt><trkpt lat="43.19207844770669" lon="12.975672710197065"><ele>804.9999999999999</ele><time>2026-03-28T09:39:01.001Z</time></trkpt><trkpt lat="43.192121302643095" lon="12.975598870102683"><ele>805.0</ele><time>2026-03-28T09:39:03.001Z</time></trkpt><trkpt lat="43.19216360391876" lon="12.97551734845027"><ele>805.6666666666666</ele><time>2026-03-28T09:39:06.001Z</time></trkpt><trkpt lat="43.19220666156863" lon="12.975417375364813"><ele>806.3333333333333</ele><time>2026-03-28T09:39:09.001Z</time></trkpt><trkpt lat="43.1922437567369" lon="12.975334501495272"><ele>807.0</ele><time>2026-03-28T09:39:12.001Z</time></trkpt><trkpt lat="43.192293117260824" lon="12.975239208260241"><ele>807.6666666666667</ele><time>2026-03-28T09:39:15.001Z</time></trkpt><trkpt lat="43.19234204474095" lon="12.97514963334728"><ele>808.3333333333334</ele><time>2026-03-28T09:39:18.001Z</time></trkpt><trkpt lat="43.192378288261324" lon="12.975073051897583"><ele>809.0</ele><time>2026-03-28T09:39:22.001Z</time></trkpt><trkpt lat="43.19242236254598" lon="12.974985342163771"><ele>809.0</ele><time>2026-03-28T09:39:27.001Z</time></trkpt><trkpt lat="43.19248941807562" lon="12.974932545449187"><ele>809.0</ele><time>2026-03-28T09:39:44.001Z</time></trkpt><trkpt lat="43.19254450239421" lon="12.97484974120558"><ele>809.0</ele><time>2026-03-28T09:39:49.001Z</time></trkpt><trkpt lat="43.19257801368371" lon="12.97476367800321"><ele>809.0</ele><time>2026-03-28T09:39:52.001Z</time></trkpt><trkpt lat="43.19261716563479" lon="12.974687579384975"><ele>809.0</ele><time>2026-03-28T09:39:55.001Z</time></trkpt><trkpt lat="43.19266756409236" lon="12.974620881094294"><ele>809.0</ele><time>2026-03-28T09:40:00.001Z</time></trkpt><trkpt lat="43.19269197530819" lon="12.97453886278745"><ele>809.0</ele><time>2026-03-28T09:40:05.001Z</time></trkpt><trkpt lat="43.192735437049095" lon="12.974445127180896"><ele>809.0</ele><time>2026-03-28T09:40:28.001Z</time></trkpt><trkpt lat="43.19278291724228" lon="12.974366720749078"><ele>809.0</ele><time>2026-03-28T09:40:31.001Z</time></trkpt><trkpt lat="43.19282375262282" lon="12.97426981472452"><ele>809.0</ele><time>2026-03-28T09:40:35.001Z</time></trkpt><trkpt lat="43.19287271122321" lon="12.97417292047395"><ele>809.0</ele><time>2026-03-28T09:40:39.001Z</time></trkpt><trkpt lat="43.19292663359725" lon="12.974111578317103"><ele>809.0</ele><time>2026-03-28T09:40:42.001Z</time></trkpt><trkpt lat="43.1929616708099" lon="12.974036914570142"><ele>809.0</ele><time>2026-03-28T09:40:45Z</time></trkpt><trkpt lat="43.19292721435509" lon="12.973950413361194"><ele>809.0</ele><time>2026-03-28T09:41:24Z</time></trkpt><trkpt lat="43.19296031520926" lon="12.973870741102466"><ele>806.1666666666667</ele><time>2026-03-28T09:41:38Z</time></trkpt><trkpt lat="43.1930213206548" lon="12.973797343943913"><ele>803.3333333333334</ele><time>2026-03-28T09:41:41Z</time></trkpt><trkpt lat="43.19306777801092" lon="12.9737121987372"><ele>800.5</ele><time>2026-03-28T09:41:44Z</time></trkpt><trkpt lat="43.193127077408285" lon="12.973647044417127"><ele>797.6666666666667</ele><time>2026-03-28T09:41:47Z</time></trkpt><trkpt lat="43.19319358775922" lon="12.973569422355476"><ele>794.8333333333334</ele><time>2026-03-28T09:41:50Z</time></trkpt><trkpt lat="43.193248384575284" lon="12.973523387100482"><ele>792.0</ele><time>2026-03-28T09:41:53Z</time></trkpt><trkpt lat="43.19331262481704" lon="12.973441691843712"><ele>795.2857142857143</ele><time>2026-03-28T09:41:57Z</time></trkpt><trkpt lat="43.193374693191295" lon="12.973366066892584"><ele>798.5714285714286</ele><time>2026-03-28T09:42:00Z</time></trkpt><trkpt lat="43.19341764656889" lon="12.973299774946842"><ele>801.8571428571429</ele><time>2026-03-28T09:42:02Z</time></trkpt><trkpt lat="43.193470098443896" lon="12.973232531145305"><ele>805.1428571428571</ele><time>2026-03-28T09:42:17.001Z</time></trkpt><trkpt lat="43.193504398027805" lon="12.973133505354081"><ele>808.4285714285713</ele><time>2026-03-28T09:42:34.001Z</time></trkpt><trkpt lat="43.19356574888611" lon="12.973078438318344"><ele>811.7142857142857</ele><time>2026-03-28T09:42:41.001Z</time></trkpt><trkpt lat="43.19362138491709" lon="12.97300892406663"><ele>815.0</ele><time>2026-03-28T09:42:45.001Z</time></trkpt><trkpt lat="43.19365918068191" lon="12.972938607585522"><ele>815.0</ele><time>2026-03-28T09:42:47.001Z</time></trkpt><trkpt lat="43.19369398606889" lon="12.972862322668039"><ele>815.0</ele><time>2026-03-28T09:42:49.001Z</time></trkpt><trkpt lat="43.19373867961378" lon="12.972800346905107"><ele>815.0</ele><time>2026-03-28T09:42:53.001Z</time></trkpt><trkpt lat="43.19379517438469" lon="12.97270212707803"><ele>815.0</ele><time>2026-03-28T09:42:57.001Z</time></trkpt><trkpt lat="43.19384994103132" lon="12.972653026484451"><ele>815.0</ele><time>2026-03-28T09:43:04.001Z</time></trkpt><trkpt lat="43.19386185501999" lon="12.97256023990677"><ele>815.0</ele><time>2026-03-28T09:43:33.001Z</time></trkpt><trkpt lat="43.1938522417668" lon="12.972443677724417"><ele>815.0</ele><time>2026-03-28T09:43:38.001Z</time></trkpt><trkpt lat="43.193873474848246" lon="12.972334455628875"><ele>815.0000000000001</ele><time>2026-03-28T09:43:40.001Z</time></trkpt><trkpt lat="43.19392343990939" lon="12.972221550387832"><ele>815.0</ele><time>2026-03-28T09:43:43.001Z</time></trkpt><trkpt lat="43.19398070555164" lon="12.972154396315995"><ele>815.0</ele><time>2026-03-28T09:43:46.001Z</time></trkpt><trkpt lat="43.19400287325446" lon="12.972244955237715"><ele>815.0</ele><time>2026-03-28T09:43:55.001Z</time></trkpt><trkpt lat="43.193968716413465" lon="12.972332336678845"><ele>815.0000000000001</ele><time>2026-03-28T09:44:05.001Z</time></trkpt><trkpt lat="43.193985742115444" lon="12.972458475174225"><ele>815.0</ele><time>2026-03-28T09:44:08.001Z</time></trkpt><trkpt lat="43.193991698530475" lon="12.972547401670365"><ele>815.0</ele><time>2026-03-28T09:44:10.001Z</time></trkpt><trkpt lat="43.19398355097049" lon="12.972646767283342"><ele>815.0</ele><time>2026-03-28T09:44:15.001Z</time></trkpt><trkpt lat="43.19397591660522" lon="12.972741863888528"><ele>815.0</ele><time>2026-03-28T09:44:28.001Z</time></trkpt><trkpt lat="43.19397692177107" lon="12.972850611635247"><ele>815.0</ele><time>2026-03-28T09:44:31.001Z</time></trkpt><trkpt lat="43.193979359422066" lon="12.972953662055204"><ele>815.0</ele><time>2026-03-28T09:44:34.001Z</time></trkpt><trkpt lat="43.1939966997856" lon="12.97286133277224"><ele>815.0</ele><time>2026-03-28T09:44:58Z</time></trkpt><trkpt lat="43.19398407229468" lon="12.972772346131642"><ele>815.0</ele><time>2026-03-28T09:45:10Z</time></trkpt><trkpt lat="43.193973289388374" lon="12.972685453043118"><ele>815.0</ele><time>2026-03-28T09:45:37Z</time></trkpt><trkpt lat="43.1939255250165" lon="12.972622535498537"><ele>815.0</ele><time>2026-03-28T09:46:20.001Z</time></trkpt><trkpt lat="43.1939388307877" lon="12.972525904170379"><ele>815.0</ele><time>2026-03-28T09:46:32.001Z</time></trkpt><trkpt lat="43.193933232153" lon="12.972430228247351"><ele>815.0</ele><time>2026-03-28T09:46:35.001Z</time></trkpt><trkpt lat="43.1939097255859" lon="12.972514500068634"><ele>815.0</ele><time>2026-03-28T09:47:06.001Z</time></trkpt><trkpt lat="43.193890129753186" lon="12.972604510652028"><ele>815.0</ele><time>2026-03-28T09:47:14.001Z</time></trkpt><trkpt lat="43.19391726465936" lon="12.972520169631654"><ele>815.0</ele><time>2026-03-28T09:50:25Z</time></trkpt><trkpt lat="43.193963350998345" lon="12.97242264335291"><ele>813.4285714285714</ele><time>2026-03-28T09:50:33Z</time></trkpt><trkpt lat="43.193998210542816" lon="12.97234924303505"><ele>811.8571428571429</ele><time>2026-03-28T09:50:37Z</time></trkpt><trkpt lat="43.19404055906428" lon="12.972285266375236"><ele>810.2857142857142</ele><time>2026-03-28T09:50:45.001Z</time></trkpt><trkpt lat="43.194096251988206" lon="12.972227292868872"><ele>808.7142857142858</ele><time>2026-03-28T09:51:07.001Z</time></trkpt><trkpt lat="43.19414151100053" lon="12.972148229708768"><ele>807.1428571428572</ele><time>2026-03-28T09:51:12.001Z</time></trkpt><trkpt lat="43.1941814145837" lon="12.972073072203841"><ele>805.5714285714286</ele><time>2026-03-28T09:51:17.001Z</time></trkpt><trkpt lat="43.19421401018298" lon="12.971985222386209"><ele>804.0</ele><time>2026-03-28T09:51:23.001Z</time></trkpt><trkpt lat="43.194264397225446" lon="12.971914234649907"><ele>810.1666666666666</ele><time>2026-03-28T09:51:28.001Z</time></trkpt><trkpt lat="43.19430409559603" lon="12.971844002803236"><ele>816.3333333333333</ele><time>2026-03-28T09:51:32.001Z</time></trkpt><trkpt lat="43.19434123917815" lon="12.971767349098839"><ele>822.5</ele><time>2026-03-28T09:51:37.001Z</time></trkpt><trkpt lat="43.19421408652697" lon="12.971701544203338"><ele>828.6666666666666</ele><time>2026-03-28T09:55:42Z</time></trkpt><trkpt lat="43.19414912184044" lon="12.971757031595152"><ele>834.8333333333333</ele><time>2026-03-28T09:56:44.001Z</time></trkpt><trkpt lat="43.19408283232922" lon="12.9718103405983"><ele>841.0</ele><time>2026-03-28T09:56:48.001Z</time></trkpt><trkpt lat="43.19402770810524" lon="12.971889456384437"><ele>834.8333333333333</ele><time>2026-03-28T09:56:54.001Z</time></trkpt><trkpt lat="43.19400233508533" lon="12.971976486909961"><ele>828.6666666666666</ele><time>2026-03-28T09:56:59.001Z</time></trkpt><trkpt lat="43.1939531091104" lon="12.972035782098175"><ele>822.5</ele><time>2026-03-28T09:57:02.001Z</time></trkpt><trkpt lat="43.19391084962202" lon="12.972112314546708"><ele>816.3333333333333</ele><time>2026-03-28T09:57:05.001Z</time></trkpt><trkpt lat="43.19384846272953" lon="12.972175838014984"><ele>810.1666666666666</ele><time>2026-03-28T09:57:10.001Z</time></trkpt><trkpt lat="43.19378074195757" lon="12.972208085179009"><ele>804.0</ele><time>2026-03-28T09:57:17.001Z</time></trkpt><trkpt lat="43.19367329597896" lon="12.97233383519151"><ele>804.0</ele><time>2026-03-28T09:57:36.001Z</time></trkpt><trkpt lat="43.19363973901786" lon="12.972413492651686"><ele>804.0</ele><time>2026-03-28T09:57:49.001Z</time></trkpt><trkpt lat="43.1935954949434" lon="12.97248953804925"><ele>804.0</ele><time>2026-03-28T09:57:57.001Z</time></trkpt><trkpt lat="43.193539822583446" lon="12.972560314536192"><ele>804.0</ele><time>2026-03-28T09:58:01Z</time></trkpt><trkpt lat="43.19348065881723" lon="12.972631089135197"><ele>804.0</ele><time>2026-03-28T09:58:04Z</time></trkpt><trkpt lat="43.19341342445334" lon="12.972698258433274"><ele>804.0</ele><time>2026-03-28T09:58:07Z</time></trkpt><trkpt lat="43.19335765109868" lon="12.972753134050427"><ele>804.0</ele><time>2026-03-28T09:58:10Z</time></trkpt><trkpt lat="43.19330424205447" lon="12.972835537675635"><ele>805.5714285714286</ele><time>2026-03-28T09:58:15Z</time></trkpt><trkpt lat="43.19324629387713" lon="12.972883409601312"><ele>807.1428571428572</ele><time>2026-03-28T09:58:19Z</time></trkpt><trkpt lat="43.1931801575296" lon="12.972924127154183"><ele>808.7142857142858</ele><time>2026-03-28T09:58:22Z</time></trkpt><trkpt lat="43.193093274028634" lon="12.972945080680942"><ele>810.2857142857142</ele><time>2026-03-28T09:58:25Z</time></trkpt><trkpt lat="43.19302327854794" lon="12.972985877832992"><ele>811.8571428571429</ele><time>2026-03-28T09:58:29Z</time></trkpt><trkpt lat="43.192957922156495" lon="12.972968852228297"><ele>813.4285714285714</ele><time>2026-03-28T09:58:41Z</time></trkpt><trkpt lat="43.19289599073826" lon="12.972945276628478"><ele>815.0</ele><time>2026-03-28T09:59:00Z</time></trkpt><trkpt lat="43.1928269856281" lon="12.97293869455202"><ele>811.7142857142857</ele><time>2026-03-28T09:59:15Z</time></trkpt><trkpt lat="43.19274580007756" lon="12.97295824812508"><ele>808.4285714285713</ele><time>2026-03-28T09:59:20Z</time></trkpt><trkpt lat="43.19268672248047" lon="12.972998943038387"><ele>805.1428571428571</ele><time>2026-03-28T09:59:24Z</time></trkpt><trkpt lat="43.19263620553023" lon="12.973076134411594"><ele>801.8571428571429</ele><time>2026-03-28T09:59:29Z</time></trkpt><trkpt lat="43.192591879453346" lon="12.97315025301513"><ele>798.5714285714286</ele><time>2026-03-28T09:59:33Z</time></trkpt><trkpt lat="43.19254885448901" lon="12.973220326182355"><ele>795.2857142857143</ele><time>2026-03-28T09:59:36Z</time></trkpt><trkpt lat="43.19253238575689" lon="12.973311008766963"><ele>792.0</ele><time>2026-03-28T09:59:40Z</time></trkpt><trkpt lat="43.192497391387185" lon="12.973388644971187"><ele>792.0</ele><time>2026-03-28T09:59:52Z</time></trkpt><trkpt lat="43.192430780171065" lon="12.973376941907105"><ele>792.0</ele><time>2026-03-28T10:00:24Z</time></trkpt><trkpt lat="43.192345392144844" lon="12.973392701510585"><ele>792.0</ele><time>2026-03-28T10:01:04.001Z</time></trkpt><trkpt lat="43.1922847173291" lon="12.973437920681862"><ele>792.0</ele><time>2026-03-28T10:01:08.001Z</time></trkpt><trkpt lat="43.19222332154541" lon="12.973497484184477"><ele>792.0</ele><time>2026-03-28T10:01:13.001Z</time></trkpt><trkpt lat="43.19217841791439" lon="12.973577194114"><ele>792.0</ele><time>2026-03-28T10:01:18.001Z</time></trkpt><trkpt lat="43.19213202655736" lon="12.97363806689517"><ele>792.0</ele><time>2026-03-28T10:01:24.001Z</time></trkpt><trkpt lat="43.19208280211548" lon="12.973709288432294"><ele>785.4285714285714</ele><time>2026-03-28T10:01:36.001Z</time></trkpt><trkpt lat="43.19202803332146" lon="12.97375382904939"><ele>778.8571428571428</ele><time>2026-03-28T10:01:51.001Z</time></trkpt><trkpt lat="43.19196853116224" lon="12.973803723554223"><ele>772.2857142857142</ele><time>2026-03-28T10:02:05Z</time></trkpt><trkpt lat="43.19192287360993" lon="12.973719936968122"><ele>765.7142857142858</ele><time>2026-03-28T10:02:10Z</time></trkpt><trkpt lat="43.19191885998669" lon="12.973618832104727"><ele>759.1428571428571</ele><time>2026-03-28T10:02:12Z</time></trkpt><trkpt lat="43.19193176302889" lon="12.973506240808886"><ele>752.5714285714286</ele><time>2026-03-28T10:02:15Z</time></trkpt><trkpt lat="43.19186965027171" lon="12.973549044344933"><ele>746.0</ele><time>2026-03-28T10:02:43Z</time></trkpt><trkpt lat="43.191798568425824" lon="12.973558512250479"><ele>746.0</ele><time>2026-03-28T10:02:49Z</time></trkpt><trkpt lat="43.191728883292896" lon="12.973617145727461"><ele>746.0</ele><time>2026-03-28T10:02:53Z</time></trkpt><trkpt lat="43.19167577190439" lon="12.973682348661665"><ele>746.0</ele><time>2026-03-28T10:02:56Z</time></trkpt><trkpt lat="43.191628776730695" lon="12.97374002483935"><ele>746.0</ele><time>2026-03-28T10:03:00Z</time></trkpt><trkpt lat="43.19158810724697" lon="12.973806328945766"><ele>746.0</ele><time>2026-03-28T10:03:03Z</time></trkpt><trkpt lat="43.19154111009682" lon="12.973881646758986"><ele>746.0</ele><time>2026-03-28T10:03:07Z</time></trkpt><trkpt lat="43.19148919674299" lon="12.97395988506228"><ele>746.0</ele><time>2026-03-28T10:03:13Z</time></trkpt><trkpt lat="43.191455972670774" lon="12.974045510803444"><ele>742.3333333333333</ele><time>2026-03-28T10:03:17Z</time></trkpt><trkpt lat="43.19143357101932" lon="12.974151657591463"><ele>738.6666666666666</ele><time>2026-03-28T10:03:22Z</time></trkpt><trkpt lat="43.19140727682245" lon="12.974240609964154"><ele>735.0</ele><time>2026-03-28T10:03:27Z</time></trkpt><trkpt lat="43.19135770698028" lon="12.974299675771888"><ele>731.3333333333334</ele><time>2026-03-28T10:03:31Z</time></trkpt><trkpt lat="43.191313910520684" lon="12.974366541090712"><ele>727.6666666666667</ele><time>2026-03-28T10:03:35Z</time></trkpt><trkpt lat="43.19126572864797" lon="12.974426670994363"><ele>724.0</ele><time>2026-03-28T10:03:47Z</time></trkpt><trkpt lat="43.19114742806889" lon="12.97432756189008"><ele>724.0</ele><time>2026-03-28T10:04:14Z</time></trkpt><trkpt lat="43.19109371177562" lon="12.974267813415091"><ele>724.0</ele><time>2026-03-28T10:07:12.001Z</time></trkpt><trkpt lat="43.191050520387705" lon="12.97433983539921"><ele>724.0</ele><time>2026-03-28T10:07:24.001Z</time></trkpt><trkpt lat="43.19100702634508" lon="12.97441167503686"><ele>724.0</ele><time>2026-03-28T10:07:33.001Z</time></trkpt><trkpt lat="43.19097547506562" lon="12.974494902853456"><ele>724.0</ele><time>2026-03-28T10:07:38.001Z</time></trkpt><trkpt lat="43.19090648598958" lon="12.974526513276544"><ele>724.0</ele><time>2026-03-28T10:07:45.001Z</time></trkpt><trkpt lat="43.19083579927119" lon="12.974505639856858"><ele>724.0</ele><time>2026-03-28T10:07:50.001Z</time></trkpt><trkpt lat="43.190762931324464" lon="12.97450767372377"><ele>724.0</ele><time>2026-03-28T10:07:54.001Z</time></trkpt><trkpt lat="43.190698575706065" lon="12.97453296273673"><ele>724.0</ele><time>2026-03-28T10:07:58.001Z</time></trkpt><trkpt lat="43.19063944363906" lon="12.974567579427216"><ele>724.0</ele><time>2026-03-28T10:08:02.001Z</time></trkpt><trkpt lat="43.19057977148036" lon="12.974619725564098"><ele>724.0</ele><time>2026-03-28T10:08:07.001Z</time></trkpt><trkpt lat="43.19050978130003" lon="12.974661278346218"><ele>724.0</ele><time>2026-03-28T10:08:11.001Z</time></trkpt><trkpt lat="43.190444398647685" lon="12.974684584784677"><ele>724.0</ele><time>2026-03-28T10:08:15.001Z</time></trkpt><trkpt lat="43.19037727621741" lon="12.974672189161915"><ele>724.0</ele><time>2026-03-28T10:08:17.001Z</time></trkpt><trkpt lat="43.190310869293256" lon="12.974670140024626"><ele>719.5714285714286</ele><time>2026-03-28T10:08:19.001Z</time></trkpt><trkpt lat="43.19022041060763" lon="12.974640505544365"><ele>715.1428571428571</ele><time>2026-03-28T10:08:21.001Z</time></trkpt><trkpt lat="43.190159090251704" lon="12.974601030893625"><ele>710.7142857142858</ele><time>2026-03-28T10:08:23.001Z</time></trkpt><trkpt lat="43.190083497770864" lon="12.974580533561955"><ele>706.2857142857142</ele><time>2026-03-28T10:08:25.001Z</time></trkpt><trkpt lat="43.19001653434161" lon="12.974575442397203"><ele>701.8571428571429</ele><time>2026-03-28T10:08:27.001Z</time></trkpt><trkpt lat="43.18994286027333" lon="12.974580872500976"><ele>697.4285714285714</ele><time>2026-03-28T10:08:30.001Z</time></trkpt><trkpt lat="43.18988590655715" lon="12.974529345317157"><ele>693.0</ele><time>2026-03-28T10:08:47.001Z</time></trkpt><trkpt lat="43.189860597516535" lon="12.974621278356404"><ele>688.5714285714286</ele><time>2026-03-28T10:08:52.001Z</time></trkpt><trkpt lat="43.18980522774485" lon="12.974711202405564"><ele>684.1428571428571</ele><time>2026-03-28T10:08:59.001Z</time></trkpt><trkpt lat="43.18972325921126" lon="12.974752488337026"><ele>679.7142857142858</ele><time>2026-03-28T10:09:03.001Z</time></trkpt><trkpt lat="43.18967371473921" lon="12.974808213171222"><ele>675.2857142857142</ele><time>2026-03-28T10:09:09Z</time></trkpt><trkpt lat="43.18960985561984" lon="12.974799036411733"><ele>670.8571428571429</ele><time>2026-03-28T10:09:15Z</time></trkpt><trkpt lat="43.18954387408106" lon="12.974792048633507"><ele>666.4285714285714</ele><time>2026-03-28T10:09:18Z</time></trkpt><trkpt lat="43.18948679969026" lon="12.97484097408851"><ele>662.0</ele><time>2026-03-28T10:09:22Z</time></trkpt><trkpt lat="43.189405606436395" lon="12.974867736395192"><ele>662.0</ele><time>2026-03-28T10:09:25Z</time></trkpt><trkpt lat="43.189318273230235" lon="12.974877071053887"><ele>662.0</ele><time>2026-03-28T10:09:29Z</time></trkpt><trkpt lat="43.189252470001726" lon="12.97485004569455"><ele>662.0</ele><time>2026-03-28T10:09:32Z</time></trkpt><trkpt lat="43.189159330208675" lon="12.974862453084958"><ele>662.0</ele><time>2026-03-28T10:09:35Z</time></trkpt><trkpt lat="43.189074082631855" lon="12.974886293561402"><ele>662.0</ele><time>2026-03-28T10:09:38Z</time></trkpt><trkpt lat="43.18900864669486" lon="12.97488892282131"><ele>662.0</ele><time>2026-03-28T10:09:41Z</time></trkpt><trkpt lat="43.18891981340851" lon="12.974890201203614"><ele>657.0</ele><time>2026-03-28T10:09:44Z</time></trkpt><trkpt lat="43.188846230794894" lon="12.97488807696605"><ele>652.0</ele><time>2026-03-28T10:09:47Z</time></trkpt><trkpt lat="43.188756932762416" lon="12.97487934907184"><ele>647.0</ele><time>2026-03-28T10:09:50Z</time></trkpt><trkpt lat="43.1886416191063" lon="12.974873743748635"><ele>642.0</ele><time>2026-03-28T10:09:52Z</time></trkpt><trkpt lat="43.188549916079324" lon="12.974869930424147"><ele>637.0</ele><time>2026-03-28T10:09:54Z</time></trkpt><trkpt lat="43.18846527332816" lon="12.97487238463657"><ele>637.0</ele><time>2026-03-28T10:09:57Z</time></trkpt><trkpt lat="43.188386323883535" lon="12.97485847499254"><ele>637.0</ele><time>2026-03-28T10:10:01Z</time></trkpt><trkpt lat="43.18831232098894" lon="12.974894958470301"><ele>637.0</ele><time>2026-03-28T10:10:04Z</time></trkpt><trkpt lat="43.18824906117781" lon="12.974894545633903"><ele>637.0</ele><time>2026-03-28T10:10:07Z</time></trkpt><trkpt lat="43.18818415146963" lon="12.974932731827199"><ele>637.0</ele><time>2026-03-28T10:10:10Z</time></trkpt><trkpt lat="43.18811982038286" lon="12.974964517860755"><ele>637.0</ele><time>2026-03-28T10:10:13Z</time></trkpt><trkpt lat="43.1880374027073" lon="12.97498962749164"><ele>637.0</ele><time>2026-03-28T10:10:17Z</time></trkpt><trkpt lat="43.18796702937958" lon="12.97500103148799"><ele>634.4285714285714</ele><time>2026-03-28T10:10:20Z</time></trkpt><trkpt lat="43.1879139391222" lon="12.975050050271845"><ele>631.8571428571429</ele><time>2026-03-28T10:10:23.001Z</time></trkpt><trkpt lat="43.18782606712154" lon="12.97507983287473"><ele>629.2857142857142</ele><time>2026-03-28T10:10:27.001Z</time></trkpt><trkpt lat="43.18776641119649" lon="12.975120433050852"><ele>626.7142857142858</ele><time>2026-03-28T10:10:30.001Z</time></trkpt><trkpt lat="43.187716296251686" lon="12.975178799137916"><ele>624.1428571428571</ele><time>2026-03-28T10:10:35.001Z</time></trkpt><trkpt lat="43.18768473691377" lon="12.975276139131239"><ele>621.5714285714286</ele><time>2026-03-28T10:10:46.001Z</time></trkpt><trkpt lat="43.1876784424974" lon="12.975369518553164"><ele>619.0</ele><time>2026-03-28T10:10:50.001Z</time></trkpt><trkpt lat="43.1876538714983" lon="12.975450309310625"><ele>619.0</ele><time>2026-03-28T10:10:53.001Z</time></trkpt><trkpt lat="43.187652595347494" lon="12.975547602405776"><ele>619.0</ele><time>2026-03-28T10:10:57.001Z</time></trkpt><trkpt lat="43.18764667263821" lon="12.975643726301119"><ele>619.0</ele><time>2026-03-28T10:11:01.001Z</time></trkpt><trkpt lat="43.187641471961655" lon="12.975748779734078"><ele>619.0</ele><time>2026-03-28T10:11:05.001Z</time></trkpt><trkpt lat="43.18761254154032" lon="12.97585529299892"><ele>619.0</ele><time>2026-03-28T10:11:09Z</time></trkpt><trkpt lat="43.187581694163214" lon="12.97596188959502"><ele>619.0</ele><time>2026-03-28T10:11:12Z</time></trkpt><trkpt lat="43.187527422722454" lon="12.976074855377178"><ele>617.3333333333334</ele><time>2026-03-28T10:11:14Z</time></trkpt><trkpt lat="43.187504166916995" lon="12.976187438238277"><ele>615.6666666666667</ele><time>2026-03-28T10:11:17Z</time></trkpt><trkpt lat="43.18747868901981" lon="12.976273471354654"><ele>614.0</ele><time>2026-03-28T10:11:19Z</time></trkpt><trkpt lat="43.187447556524226" lon="12.976354910079968"><ele>612.3333333333334</ele><time>2026-03-28T10:11:21Z</time></trkpt><trkpt lat="43.18740133480402" lon="12.976452528443708"><ele>610.6666666666666</ele><time>2026-03-28T10:11:24Z</time></trkpt><trkpt lat="43.18732565632731" lon="12.97651805346838"><ele>609.0</ele><time>2026-03-28T10:11:27Z</time></trkpt><trkpt lat="43.18727119404533" lon="12.976576350071134"><ele>609.0</ele><time>2026-03-28T10:11:29Z</time></trkpt><trkpt lat="43.1872316947112" lon="12.97665454809733"><ele>609.0</ele><time>2026-03-28T10:11:31Z</time></trkpt><trkpt lat="43.187175961912914" lon="12.97671360138813"><ele>609.0</ele><time>2026-03-28T10:11:34Z</time></trkpt><trkpt lat="43.187113819957155" lon="12.97674498874077"><ele>609.0</ele><time>2026-03-28T10:11:37Z</time></trkpt><trkpt lat="43.18704265851956" lon="12.976802570836195"><ele>609.0</ele><time>2026-03-28T10:11:40Z</time></trkpt><trkpt lat="43.186956315657355" lon="12.976885651748347"><ele>609.0</ele><time>2026-03-28T10:11:42Z</time></trkpt><trkpt lat="43.18689245323627" lon="12.976983676132093"><ele>609.1666666666666</ele><time>2026-03-28T10:11:44Z</time></trkpt><trkpt lat="43.18679291307379" lon="12.977034126784964"><ele>609.3333333333334</ele><time>2026-03-28T10:11:46Z</time></trkpt><trkpt lat="43.18671536283107" lon="12.977083503437859"><ele>609.5</ele><time>2026-03-28T10:11:48Z</time></trkpt><trkpt lat="43.18664189304882" lon="12.977069835729944"><ele>609.6666666666667</ele><time>2026-03-28T10:11:50Z</time></trkpt><trkpt lat="43.18657536083448" lon="12.977077494678996"><ele>609.8333333333334</ele><time>2026-03-28T10:11:52Z</time></trkpt><trkpt lat="43.18649052644099" lon="12.977077423777489"><ele>610.0</ele><time>2026-03-28T10:11:54Z</time></trkpt><trkpt lat="43.18642312516363" lon="12.977108748456091"><ele>610.0</ele><time>2026-03-28T10:11:57Z</time></trkpt><trkpt lat="43.18634966314478" lon="12.977113736624581"><ele>610.0</ele><time>2026-03-28T10:11:59Z</time></trkpt><trkpt lat="43.18601094704106" lon="12.977022964808812"><ele>610.0</ele><time>2026-03-28T10:12:00Z</time></trkpt><trkpt lat="43.18566709694502" lon="12.976981042918995"><ele>600.6666666666667</ele><time>2026-03-28T10:12:02Z</time></trkpt><trkpt lat="43.185463176097365" lon="12.976955421561282"><ele>591.3333333333334</ele><time>2026-03-28T10:12:03Z</time></trkpt><trkpt lat="43.185294637492206" lon="12.976942330618348"><ele>582.0</ele><time>2026-03-28T10:12:04Z</time></trkpt><trkpt lat="43.18510888240142" lon="12.976931925011442"><ele>582.0</ele><time>2026-03-28T10:12:06Z</time></trkpt><trkpt lat="43.18498340361027" lon="12.976916474742636"><ele>582.0</ele><time>2026-03-28T10:12:07Z</time></trkpt><trkpt lat="43.184881960671895" lon="12.976947346092894"><ele>582.0</ele><time>2026-03-28T10:12:09Z</time></trkpt><trkpt lat="43.18475530526065" lon="12.976975053649515"><ele>582.0</ele><time>2026-03-28T10:12:11Z</time></trkpt><trkpt lat="43.184678287364214" lon="12.976972797009147"><ele>582.0</ele><time>2026-03-28T10:12:12Z</time></trkpt><trkpt lat="43.18461168970667" lon="12.976965810777866"><ele>579.4</ele><time>2026-03-28T10:12:13Z</time></trkpt><trkpt lat="43.18454784820406" lon="12.976954765959471"><ele>576.8000000000001</ele><time>2026-03-28T10:12:14Z</time></trkpt><trkpt lat="43.184480655449995" lon="12.97693485521682"><ele>574.2</ele><time>2026-03-28T10:12:15Z</time></trkpt><trkpt lat="43.184344674557025" lon="12.976889442129142"><ele>571.6</ele><time>2026-03-28T10:12:17Z</time></trkpt><trkpt lat="43.184228403725605" lon="12.976877228944163"><ele>569.0</ele><time>2026-03-28T10:12:19Z</time></trkpt><trkpt lat="43.184105943527676" lon="12.97684731900365"><ele>567.4</ele><time>2026-03-28T10:12:21Z</time></trkpt><trkpt lat="43.18399414627047" lon="12.976837242375973"><ele>565.8</ele><time>2026-03-28T10:12:23Z</time></trkpt><trkpt lat="43.183917633608424" lon="12.976839652300159"><ele>564.2</ele><time>2026-03-28T10:12:24Z</time></trkpt><trkpt lat="43.183831632600935" lon="12.976847143806356"><ele>562.6</ele><time>2026-03-28T10:12:26Z</time></trkpt><trkpt lat="43.183727263807576" lon="12.976863181813743"><ele>561.0</ele><time>2026-03-28T10:12:28Z</time></trkpt><trkpt lat="43.18356464223926" lon="12.976761213572074"><ele>561.0</ele><time>2026-03-28T10:12:30Z</time></trkpt><trkpt lat="43.183478059049186" lon="12.976706131927791"><ele>561.0</ele><time>2026-03-28T10:12:32Z</time></trkpt><trkpt lat="43.18339525365794" lon="12.976650912096256"><ele>561.0</ele><time>2026-03-28T10:12:33Z</time></trkpt><trkpt lat="43.18333446385548" lon="12.976610554239969"><ele>561.0</ele><time>2026-03-28T10:12:34Z</time></trkpt><trkpt lat="43.18326887827273" lon="12.97657178908804"><ele>561.0</ele><time>2026-03-28T10:12:35Z</time></trkpt><trkpt lat="43.183177247626105" lon="12.976515287478747"><ele>561.0</ele><time>2026-03-28T10:12:37Z</time></trkpt><trkpt lat="43.18308998710407" lon="12.976448589832104"><ele>552.4</ele><time>2026-03-28T10:12:39Z</time></trkpt><trkpt lat="43.182995682849835" lon="12.976368755697019"><ele>543.8</ele><time>2026-03-28T10:12:41Z</time></trkpt><trkpt lat="43.182886745368435" lon="12.976296349286832"><ele>535.1999999999999</ele><time>2026-03-28T10:12:43Z</time></trkpt><trkpt lat="43.18281885294962" lon="12.976267373235814"><ele>526.6</ele><time>2026-03-28T10:12:44Z</time></trkpt><trkpt lat="43.18275794655031" lon="12.976149942677006"><ele>518.0</ele><time>2026-03-28T10:12:46Z</time></trkpt><trkpt lat="43.18268090003383" lon="12.976083676477252"><ele>518.0</ele><time>2026-03-28T10:12:48Z</time></trkpt><trkpt lat="43.18264474555195" lon="12.97600597615024"><ele>518.0</ele><time>2026-03-28T10:12:52Z</time></trkpt><trkpt lat="43.182576878775166" lon="12.975889834425079"><ele>518.0</ele><time>2026-03-28T10:12:53Z</time></trkpt><trkpt lat="43.182548674470844" lon="12.975754206740898"><ele>518.0</ele><time>2026-03-28T10:12:55Z</time></trkpt><trkpt lat="43.1825081975463" lon="12.975626270671839"><ele>518.0</ele><time>2026-03-28T10:12:57Z</time></trkpt><trkpt lat="43.18246594902154" lon="12.975484210392006"><ele>511.3333333333333</ele><time>2026-03-28T10:12:59Z</time></trkpt><trkpt lat="43.18244356866179" lon="12.975387892603736"><ele>504.66666666666663</ele><time>2026-03-28T10:13:00Z</time></trkpt><trkpt lat="43.182416855785476" lon="12.975294156641981"><ele>498.0</ele><time>2026-03-28T10:13:01Z</time></trkpt><trkpt lat="43.18239430591951" lon="12.975188098111705"><ele>491.33333333333337</ele><time>2026-03-28T10:13:02Z</time></trkpt><trkpt lat="43.18236365191439" lon="12.97505642974574"><ele>484.6666666666667</ele><time>2026-03-28T10:13:03Z</time></trkpt><trkpt lat="43.182298546031014" lon="12.97493587409297"><ele>478.0</ele><time>2026-03-28T10:13:04Z</time></trkpt><trkpt lat="43.18225018704101" lon="12.974818839526954"><ele>474.1666666666667</ele><time>2026-03-28T10:13:05Z</time></trkpt><trkpt lat="43.182235047250465" lon="12.974717562103915"><ele>470.33333333333337</ele><time>2026-03-28T10:13:06Z</time></trkpt><trkpt lat="43.18220881691125" lon="12.974613015461532"><ele>466.5</ele><time>2026-03-28T10:13:07Z</time></trkpt><trkpt lat="43.182180590957046" lon="12.974504814972047"><ele>462.66666666666663</ele><time>2026-03-28T10:13:08Z</time></trkpt><trkpt lat="43.1821579241378" lon="12.974397305079592"><ele>458.8333333333333</ele><time>2026-03-28T10:13:09Z</time></trkpt><trkpt lat="43.18213279184009" lon="12.974290264458325"><ele>455.0</ele><time>2026-03-28T10:13:10Z</time></trkpt><trkpt lat="43.18210440185708" lon="12.974185273095644"><ele>453.8</ele><time>2026-03-28T10:13:11Z</time></trkpt><trkpt lat="43.18203619089893" lon="12.974082754227659"><ele>452.6</ele><time>2026-03-28T10:13:12Z</time></trkpt><trkpt lat="43.18194601560088" lon="12.973969142103602"><ele>451.4</ele><time>2026-03-28T10:13:14Z</time></trkpt><trkpt lat="43.1818536341886" lon="12.973863159436105"><ele>450.2</ele><time>2026-03-28T10:13:16Z</time></trkpt><trkpt lat="43.18180693311386" lon="12.973802875522468"><ele>449.0</ele><time>2026-03-28T10:13:19Z</time></trkpt><trkpt lat="43.18174636347117" lon="12.97377027482032"><ele>448.99999999999994</ele><time>2026-03-28T10:13:48Z</time></trkpt><trkpt lat="43.18171540166041" lon="12.973692605863578"><ele>449.0</ele><time>2026-03-28T10:14:03Z</time></trkpt><trkpt lat="43.181674514540624" lon="12.973600370847395"><ele>449.0</ele><time>2026-03-28T10:14:12Z</time></trkpt><trkpt lat="43.18168552737705" lon="12.97348859975837"><ele>449.0</ele><time>2026-03-28T10:14:14Z</time></trkpt><trkpt lat="43.18171593712679" lon="12.973361354213191"><ele>448.99999999999994</ele><time>2026-03-28T10:14:16Z</time></trkpt><trkpt lat="43.18171231220583" lon="12.973210315892924"><ele>449.0</ele><time>2026-03-28T10:14:18Z</time></trkpt><trkpt lat="43.18170823294234" lon="12.973119087395416"><ele>448.8333333333333</ele><time>2026-03-28T10:14:19Z</time></trkpt><trkpt lat="43.18170523847402" lon="12.973012277470106"><ele>448.66666666666663</ele><time>2026-03-28T10:14:20Z</time></trkpt><trkpt lat="43.18170084292511" lon="12.972904169273356"><ele>448.5</ele><time>2026-03-28T10:14:21Z</time></trkpt><trkpt lat="43.181701946432405" lon="12.972809121210917"><ele>448.33333333333337</ele><time>2026-03-28T10:14:22Z</time></trkpt><trkpt lat="43.18171323967407" lon="12.972702874229071"><ele>448.1666666666667</ele><time>2026-03-28T10:14:23Z</time></trkpt><trkpt lat="43.18171738127544" lon="12.972588472175916"><ele>448.0</ele><time>2026-03-28T10:14:24Z</time></trkpt><trkpt lat="43.181719904814" lon="12.972456984914489"><ele>449.4</ele><time>2026-03-28T10:14:25Z</time></trkpt><trkpt lat="43.18172279622721" lon="12.972327275482385"><ele>450.79999999999995</ele><time>2026-03-28T10:14:26Z</time></trkpt><trkpt lat="43.18171692558042" lon="12.972184507730393"><ele>452.2</ele><time>2026-03-28T10:14:27Z</time></trkpt><trkpt lat="43.181707047593925" lon="12.972053101567296"><ele>453.6</ele><time>2026-03-28T10:14:28Z</time></trkpt><trkpt lat="43.1816967658924" lon="12.971923569026014"><ele>455.0</ele><time>2026-03-28T10:14:29Z</time></trkpt><trkpt lat="43.18168309001155" lon="12.971801361505829"><ele>455.6</ele><time>2026-03-28T10:14:30Z</time></trkpt><trkpt lat="43.18167112251986" lon="12.971683411002529"><ele>456.2</ele><time>2026-03-28T10:14:31Z</time></trkpt><trkpt lat="43.18166249156485" lon="12.971559747197452"><ele>456.79999999999995</ele><time>2026-03-28T10:14:32Z</time></trkpt><trkpt lat="43.18165241816289" lon="12.97141569580746"><ele>457.4</ele><time>2026-03-28T10:14:33Z</time></trkpt><trkpt lat="43.181643233460896" lon="12.971262332528864"><ele>458.0</ele><time>2026-03-28T10:14:34Z</time></trkpt><trkpt lat="43.18163627279713" lon="12.971105680020187"><ele>458.0</ele><time>2026-03-28T10:14:35Z</time></trkpt><trkpt lat="43.18162067076639" lon="12.970900834293627"><ele>458.0</ele><time>2026-03-28T10:14:36Z</time></trkpt><trkpt lat="43.18162006886331" lon="12.970732404476149"><ele>458.0</ele><time>2026-03-28T10:14:37Z</time></trkpt><trkpt lat="43.181608453515395" lon="12.970527946415931"><ele>458.0</ele><time>2026-03-28T10:14:38Z</time></trkpt><trkpt lat="43.1815933301085" lon="12.970321289177164"><ele>457.5</ele><time>2026-03-28T10:14:39Z</time></trkpt><trkpt lat="43.181583398424614" lon="12.970153580427837"><ele>457.0</ele><time>2026-03-28T10:14:40Z</time></trkpt><trkpt lat="43.18159199179633" lon="12.969983341675402"><ele>456.5</ele><time>2026-03-28T10:14:41Z</time></trkpt><trkpt lat="43.18158700873392" lon="12.969843253975737"><ele>456.0</ele><time>2026-03-28T10:14:42Z</time></trkpt><trkpt lat="43.18158398825353" lon="12.96969423161902"><ele>456.0</ele><time>2026-03-28T10:14:43Z</time></trkpt><trkpt lat="43.181583660235866" lon="12.96955110905047"><ele>456.0</ele><time>2026-03-28T10:14:44Z</time></trkpt><trkpt lat="43.181585169947475" lon="12.96939583546649"><ele>456.0</ele><time>2026-03-28T10:14:45Z</time></trkpt><trkpt lat="43.18158742667355" lon="12.969244338511631"><ele>456.0</ele><time>2026-03-28T10:14:46Z</time></trkpt><trkpt lat="43.18159155937992" lon="12.969095365767139"><ele>456.0</ele><time>2026-03-28T10:14:47Z</time></trkpt><trkpt lat="43.18159609145775" lon="12.968943586517943"><ele>456.25</ele><time>2026-03-28T10:14:48Z</time></trkpt><trkpt lat="43.181602468499484" lon="12.968797236318167"><ele>456.5</ele><time>2026-03-28T10:14:49Z</time></trkpt><trkpt lat="43.18161127665084" lon="12.96864282648583"><ele>456.75</ele><time>2026-03-28T10:14:50Z</time></trkpt><trkpt lat="43.18162638451317" lon="12.96845669306902"><ele>457.0</ele><time>2026-03-28T10:14:51Z</time></trkpt><trkpt lat="43.18164692016868" lon="12.968273358240593"><ele>456.0</ele><time>2026-03-28T10:14:52Z</time></trkpt><trkpt lat="43.181670549495024" lon="12.968090680941467"><ele>455.0</ele><time>2026-03-28T10:14:53Z</time></trkpt><trkpt lat="43.181696341897535" lon="12.967892054901593"><ele>454.0</ele><time>2026-03-28T10:14:54Z</time></trkpt><trkpt lat="43.18172336192667" lon="12.967705637657573"><ele>453.0</ele><time>2026-03-28T10:14:55Z</time></trkpt><trkpt lat="43.18175368396795" lon="12.967499567598246"><ele>452.5</ele><time>2026-03-28T10:14:56Z</time></trkpt><trkpt lat="43.181783506097844" lon="12.96729830613965"><ele>452.0</ele><time>2026-03-28T10:14:57Z</time></trkpt><trkpt lat="43.18181503173465" lon="12.967099669354432"><ele>451.5</ele><time>2026-03-28T10:14:58Z</time></trkpt><trkpt lat="43.18184642372091" lon="12.966917115338244"><ele>451.0</ele><time>2026-03-28T10:14:59Z</time></trkpt><trkpt lat="43.18187966574525" lon="12.966751913713246"><ele>450.5</ele><time>2026-03-28T10:15:00Z</time></trkpt><trkpt lat="43.181912189938174" lon="12.966597516744375"><ele>450.0</ele><time>2026-03-28T10:15:01Z</time></trkpt><trkpt lat="43.18195367493091" lon="12.966405982785565"><ele>449.5</ele><time>2026-03-28T10:15:02Z</time></trkpt><trkpt lat="43.181996208932766" lon="12.966212403453158"><ele>449.0</ele><time>2026-03-28T10:15:03Z</time></trkpt><trkpt lat="43.182037733909695" lon="12.966022578477908"><ele>447.75</ele><time>2026-03-28T10:15:04Z</time></trkpt><trkpt lat="43.182083077881494" lon="12.965804912238378"><ele>446.5</ele><time>2026-03-28T10:15:05Z</time></trkpt><trkpt lat="43.18212734741891" lon="12.9655798174409"><ele>445.25</ele><time>2026-03-28T10:15:06Z</time></trkpt><trkpt lat="43.1821417866387" lon="12.96549117542077"><ele>444.0</ele><time>2026-03-28T10:15:07Z</time></trkpt><trkpt lat="43.18215554316973" lon="12.965397448051"><ele>444.0</ele><time>2026-03-28T10:15:08Z</time></trkpt><trkpt lat="43.18217351284477" lon="12.965249974660342"><ele>444.0</ele><time>2026-03-28T10:15:09Z</time></trkpt><trkpt lat="43.1821849527846" lon="12.965142766811464"><ele>444.0</ele><time>2026-03-28T10:15:10Z</time></trkpt><trkpt lat="43.18219483870563" lon="12.965042540163532"><ele>444.0</ele><time>2026-03-28T10:15:11Z</time></trkpt><trkpt lat="43.18220507089681" lon="12.964928764763926"><ele>444.0</ele><time>2026-03-28T10:15:12Z</time></trkpt><trkpt lat="43.182214886122104" lon="12.964819625762177"><ele>444.0</ele><time>2026-03-28T10:15:13Z</time></trkpt><trkpt lat="43.182229256701184" lon="12.96465703621947"><ele>444.25</ele><time>2026-03-28T10:15:14Z</time></trkpt><trkpt lat="43.182241526232836" lon="12.964507060537745"><ele>444.5</ele><time>2026-03-28T10:15:15Z</time></trkpt><trkpt lat="43.18225303270527" lon="12.964366411910923"><ele>444.75</ele><time>2026-03-28T10:15:17Z</time></trkpt><trkpt lat="43.182267977162" lon="12.964183739489243"><ele>445.0</ele><time>2026-03-28T10:15:19Z</time></trkpt><trkpt lat="43.18228900650815" lon="12.963824988482507"><ele>444.6666666666667</ele><time>2026-03-28T10:15:20Z</time></trkpt><trkpt lat="43.18229098937796" lon="12.963712049927132"><ele>444.33333333333337</ele><time>2026-03-28T10:15:21Z</time></trkpt><trkpt lat="43.18228817342984" lon="12.963282746608888"><ele>444.0</ele><time>2026-03-28T10:15:24Z</time></trkpt><trkpt lat="43.18228638056705" lon="12.963195639998652"><ele>444.0</ele><time>2026-03-28T10:15:25Z</time></trkpt><trkpt lat="43.182284565911786" lon="12.963107473300678"><ele>444.0</ele><time>2026-03-28T10:15:26Z</time></trkpt><trkpt lat="43.18228261280033" lon="12.963012579406804"><ele>444.0</ele><time>2026-03-28T10:15:27Z</time></trkpt><trkpt lat="43.18228415902241" lon="12.962798945017472"><ele>444.0</ele><time>2026-03-28T10:15:29Z</time></trkpt><trkpt lat="43.18228807492312" lon="12.962673984546694"><ele>444.0</ele><time>2026-03-28T10:15:30Z</time></trkpt><trkpt lat="43.18229527946562" lon="12.962539417828465"><ele>444.0</ele><time>2026-03-28T10:15:31Z</time></trkpt><trkpt lat="43.1823151711314" lon="12.962337339233859"><ele>444.0</ele><time>2026-03-28T10:15:32Z</time></trkpt><trkpt lat="43.182340210038525" lon="12.962147506056594"><ele>444.0</ele><time>2026-03-28T10:15:33Z</time></trkpt><trkpt lat="43.18234823382407" lon="12.962048279456981"><ele>444.0</ele><time>2026-03-28T10:15:34Z</time></trkpt><trkpt lat="43.18238190664161" lon="12.961921846882149"><ele>446.25</ele><time>2026-03-28T10:15:35Z</time></trkpt><trkpt lat="43.18241307121111" lon="12.961787940235729"><ele>448.5</ele><time>2026-03-28T10:15:36Z</time></trkpt><trkpt lat="43.182469863530386" lon="12.961525086389033"><ele>450.75</ele><time>2026-03-28T10:15:38Z</time></trkpt><trkpt lat="43.18251565697496" lon="12.961418804799449"><ele>453.0</ele><time>2026-03-28T10:15:39Z</time></trkpt><trkpt lat="43.18255178994752" lon="12.961312232717116"><ele>453.0</ele><time>2026-03-28T10:15:40Z</time></trkpt><trkpt lat="43.18259099659181" lon="12.961205839963789"><ele>453.0</ele><time>2026-03-28T10:15:41Z</time></trkpt><trkpt lat="43.18264199366961" lon="12.961078575485597"><ele>453.0</ele><time>2026-03-28T10:15:42Z</time></trkpt><trkpt lat="43.182729915848924" lon="12.96087456987968"><ele>453.0</ele><time>2026-03-28T10:15:44Z</time></trkpt><trkpt lat="43.18279175424037" lon="12.960734804143458"><ele>451.79999999999995</ele><time>2026-03-28T10:15:45Z</time></trkpt><trkpt lat="43.18284548916808" lon="12.960613581536442"><ele>450.59999999999997</ele><time>2026-03-28T10:15:47Z</time></trkpt><trkpt lat="43.18289069147638" lon="12.960511608080212"><ele>449.40000000000003</ele><time>2026-03-28T10:15:48Z</time></trkpt><trkpt lat="43.18293825382975" lon="12.960406405087513"><ele>448.20000000000005</ele><time>2026-03-28T10:15:49Z</time></trkpt><trkpt lat="43.18300781568023" lon="12.960253210483287"><ele>447.0</ele><time>2026-03-28T10:15:51Z</time></trkpt><trkpt lat="43.183072198175" lon="12.960110715708183"><ele>447.0</ele><time>2026-03-28T10:15:53Z</time></trkpt><trkpt lat="43.18311539010258" lon="12.960014813181127"><ele>447.00000000000006</ele><time>2026-03-28T10:15:55.001Z</time></trkpt><trkpt lat="43.18314917265941" lon="12.959939802054173"><ele>447.00000000000006</ele><time>2026-03-28T10:15:56.001Z</time></trkpt><trkpt lat="43.18319804608025" lon="12.959831665036445"><ele>447.0</ele><time>2026-03-28T10:15:58.001Z</time></trkpt><trkpt lat="43.183261377558644" lon="12.959692038502942"><ele>447.0</ele><time>2026-03-28T10:16:00.001Z</time></trkpt><trkpt lat="43.183322975581426" lon="12.959556763968928"><ele>447.6</ele><time>2026-03-28T10:16:02.001Z</time></trkpt><trkpt lat="43.183389288373704" lon="12.959410854365187"><ele>448.20000000000005</ele><time>2026-03-28T10:16:04.001Z</time></trkpt><trkpt lat="43.183433709889336" lon="12.959295385826627"><ele>448.8</ele><time>2026-03-28T10:16:05.001Z</time></trkpt><trkpt lat="43.18348956533201" lon="12.959202011649865"><ele>449.4</ele><time>2026-03-28T10:16:06.001Z</time></trkpt><trkpt lat="43.18354176695666" lon="12.959108929158996"><ele>450.0</ele><time>2026-03-28T10:16:07.001Z</time></trkpt><trkpt lat="43.18360500647022" lon="12.95901203605017"><ele>450.0</ele><time>2026-03-28T10:16:08.001Z</time></trkpt><trkpt lat="43.18366306184375" lon="12.958928407383913"><ele>450.0</ele><time>2026-03-28T10:16:09.001Z</time></trkpt><trkpt lat="43.183725355413266" lon="12.958806978027747"><ele>450.0</ele><time>2026-03-28T10:16:10.001Z</time></trkpt><trkpt lat="43.183780727289474" lon="12.95869961613867"><ele>450.0</ele><time>2026-03-28T10:16:11.001Z</time></trkpt><trkpt lat="43.18381947726235" lon="12.958602727192657"><ele>450.0</ele><time>2026-03-28T10:16:12.001Z</time></trkpt><trkpt lat="43.183866048628886" lon="12.958491420863307"><ele>450.0</ele><time>2026-03-28T10:16:13Z</time></trkpt><trkpt lat="43.183899768623085" lon="12.958398021713302"><ele>450.0</ele><time>2026-03-28T10:16:14Z</time></trkpt><trkpt lat="43.1839336557106" lon="12.958301287302062"><ele>450.0</ele><time>2026-03-28T10:16:15Z</time></trkpt><trkpt lat="43.1839637226664" lon="12.958199148364208"><ele>450.0</ele><time>2026-03-28T10:16:16Z</time></trkpt><trkpt lat="43.1839806904384" lon="12.958070528729893"><ele>450.0</ele><time>2026-03-28T10:16:17Z</time></trkpt><trkpt lat="43.184019122874744" lon="12.957952784533592"><ele>450.0</ele><time>2026-03-28T10:16:18Z</time></trkpt><trkpt lat="43.1840516357896" lon="12.957829662941007"><ele>449.8333333333333</ele><time>2026-03-28T10:16:19Z</time></trkpt><trkpt lat="43.18407928797984" lon="12.957712641820924"><ele>449.66666666666663</ele><time>2026-03-28T10:16:20Z</time></trkpt><trkpt lat="43.184098313283705" lon="12.957616707242895"><ele>449.5</ele><time>2026-03-28T10:16:21Z</time></trkpt><trkpt lat="43.18411536953013" lon="12.957516808321484"><ele>449.3333333333333</ele><time>2026-03-28T10:16:22Z</time></trkpt><trkpt lat="43.18413262829343" lon="12.95740363020288"><ele>449.16666666666663</ele><time>2026-03-28T10:16:23Z</time></trkpt><trkpt lat="43.184164892765175" lon="12.95728452183772"><ele>449.0</ele><time>2026-03-28T10:16:24Z</time></trkpt><trkpt lat="43.18415549901567" lon="12.957189077059216"><ele>449.0</ele><time>2026-03-28T10:16:25Z</time></trkpt><trkpt lat="43.184163234333035" lon="12.957054265959808"><ele>449.0</ele><time>2026-03-28T10:16:26Z</time></trkpt><trkpt lat="43.184178539236036" lon="12.956903010948427"><ele>449.0</ele><time>2026-03-28T10:16:27Z</time></trkpt><trkpt lat="43.18418029093098" lon="12.956758527213573"><ele>449.0</ele><time>2026-03-28T10:16:28Z</time></trkpt><trkpt lat="43.18417674993943" lon="12.956600737713927"><ele>449.0</ele><time>2026-03-28T10:16:29Z</time></trkpt><trkpt lat="43.18416967904858" lon="12.95644331162821"><ele>449.0</ele><time>2026-03-28T10:16:30Z</time></trkpt><trkpt lat="43.18415818246297" lon="12.956276442506867"><ele>449.0</ele><time>2026-03-28T10:16:31Z</time></trkpt><trkpt lat="43.18414472502595" lon="12.956120756756102"><ele>449.0</ele><time>2026-03-28T10:16:32Z</time></trkpt><trkpt lat="43.1841333914598" lon="12.956013465310086"><ele>449.0</ele><time>2026-03-28T10:16:33Z</time></trkpt><trkpt lat="43.184116723606515" lon="12.95589807804139"><ele>449.0</ele><time>2026-03-28T10:16:34Z</time></trkpt><trkpt lat="43.184096990591" lon="12.955777499153314"><ele>446.66666666666663</ele><time>2026-03-28T10:16:35Z</time></trkpt><trkpt lat="43.184077413160125" lon="12.955674180834547"><ele>444.33333333333337</ele><time>2026-03-28T10:16:36Z</time></trkpt><trkpt lat="43.184027376126615" lon="12.95557764098673"><ele>442.0</ele><time>2026-03-28T10:16:37Z</time></trkpt><trkpt lat="43.18356298047546" lon="12.955306570053018"><ele>442.00000000000006</ele><time>2026-03-28T10:16:39Z</time></trkpt><trkpt lat="43.18347215805305" lon="12.955360974443881"><ele>442.0</ele><time>2026-03-28T10:16:40Z</time></trkpt><trkpt lat="43.18340419882581" lon="12.955403796580713"><ele>442.0</ele><time>2026-03-28T10:16:41Z</time></trkpt><trkpt lat="43.183315529852564" lon="12.955463038911356"><ele>442.0</ele><time>2026-03-28T10:16:42Z</time></trkpt><trkpt lat="43.18324631633621" lon="12.95550961521488"><ele>442.00000000000006</ele><time>2026-03-28T10:16:43Z</time></trkpt><trkpt lat="43.183166901227274" lon="12.955564899636936"><ele>442.0</ele><time>2026-03-28T10:16:44Z</time></trkpt><trkpt lat="43.18310215267658" lon="12.955610807922051"><ele>442.20000000000005</ele><time>2026-03-28T10:16:45Z</time></trkpt><trkpt lat="43.1829791993126" lon="12.955698907407662"><ele>442.40000000000003</ele><time>2026-03-28T10:16:46Z</time></trkpt><trkpt lat="43.182894108621554" lon="12.955783913956573"><ele>442.59999999999997</ele><time>2026-03-28T10:16:48Z</time></trkpt><trkpt lat="43.18281718277697" lon="12.955814996827206"><ele>442.79999999999995</ele><time>2026-03-28T10:16:50Z</time></trkpt><trkpt lat="43.18271773513504" lon="12.955883398703746"><ele>443.0</ele><time>2026-03-28T10:16:52Z</time></trkpt><trkpt lat="43.18265010861757" lon="12.95592268132327"><ele>443.0</ele><time>2026-03-28T10:16:53Z</time></trkpt><trkpt lat="43.18256965672888" lon="12.955969044728938"><ele>442.99999999999994</ele><time>2026-03-28T10:16:55Z</time></trkpt><trkpt lat="43.18248911128862" lon="12.95597252997375"><ele>442.99999999999994</ele><time>2026-03-28T10:16:57Z</time></trkpt><trkpt lat="43.182389955105364" lon="12.955960918891774"><ele>443.0</ele><time>2026-03-28T10:16:59Z</time></trkpt><trkpt lat="43.18232735143573" lon="12.955950575508336"><ele>443.0</ele><time>2026-03-28T10:17:00Z</time></trkpt><trkpt lat="43.18220159279313" lon="12.955946125453735"><ele>444.16666666666663</ele><time>2026-03-28T10:17:02Z</time></trkpt><trkpt lat="43.18212788704742" lon="12.95593356388769"><ele>445.3333333333333</ele><time>2026-03-28T10:17:03Z</time></trkpt><trkpt lat="43.1819984412974" lon="12.955916283452238"><ele>446.5</ele><time>2026-03-28T10:17:05Z</time></trkpt><trkpt lat="43.181935404153016" lon="12.955885178572753"><ele>447.66666666666663</ele><time>2026-03-28T10:17:06Z</time></trkpt><trkpt lat="43.18186087040012" lon="12.955875286252256"><ele>448.8333333333333</ele><time>2026-03-28T10:17:07Z</time></trkpt><trkpt lat="43.181781471601504" lon="12.955848851233554"><ele>450.0</ele><time>2026-03-28T10:17:08Z</time></trkpt><trkpt lat="43.181702788587316" lon="12.955679947509635"><ele>450.4</ele><time>2026-03-28T10:17:09Z</time></trkpt><trkpt lat="43.181619119943484" lon="12.955573287878547"><ele>450.8</ele><time>2026-03-28T10:17:10Z</time></trkpt><trkpt lat="43.18152410553779" lon="12.955469879118867"><ele>451.20000000000005</ele><time>2026-03-28T10:17:11Z</time></trkpt><trkpt lat="43.181442815095316" lon="12.955390284265507"><ele>451.6</ele><time>2026-03-28T10:17:12Z</time></trkpt><trkpt lat="43.18136358842369" lon="12.955328107426435"><ele>452.0</ele><time>2026-03-28T10:17:13Z</time></trkpt><trkpt lat="43.181273010900945" lon="12.955270904336771"><ele>452.20000000000005</ele><time>2026-03-28T10:17:14Z</time></trkpt><trkpt lat="43.18119212706164" lon="12.955231564770315"><ele>452.40000000000003</ele><time>2026-03-28T10:17:15Z</time></trkpt><trkpt lat="43.181142131652926" lon="12.955178055050627"><ele>452.59999999999997</ele><time>2026-03-28T10:17:16Z</time></trkpt><trkpt lat="43.18104717615914" lon="12.955126704539746"><ele>452.79999999999995</ele><time>2026-03-28T10:17:17Z</time></trkpt><trkpt lat="43.18094842684587" lon="12.955078184325266"><ele>453.0</ele><time>2026-03-28T10:17:18Z</time></trkpt><trkpt lat="43.180855641499534" lon="12.955031993364871"><ele>453.0</ele><time>2026-03-28T10:17:19Z</time></trkpt><trkpt lat="43.18075833370992" lon="12.954981446157255"><ele>452.99999999999994</ele><time>2026-03-28T10:17:20Z</time></trkpt><trkpt lat="43.18067248368097" lon="12.95493082065582"><ele>452.99999999999994</ele><time>2026-03-28T10:17:21Z</time></trkpt><trkpt lat="43.18059640367025" lon="12.954869064117613"><ele>453.0</ele><time>2026-03-28T10:17:22Z</time></trkpt><trkpt lat="43.18050328769912" lon="12.954806962787757"><ele>453.0</ele><time>2026-03-28T10:17:23Z</time></trkpt><trkpt lat="43.180396793537746" lon="12.954719388132245"><ele>457.0</ele><time>2026-03-28T10:17:24Z</time></trkpt><trkpt lat="43.18031375673537" lon="12.954655011372946"><ele>460.99999999999994</ele><time>2026-03-28T10:17:25Z</time></trkpt><trkpt lat="43.180244238317954" lon="12.95460082028418"><ele>464.99999999999994</ele><time>2026-03-28T10:17:26Z</time></trkpt><trkpt lat="43.180180029601964" lon="12.954509428896005"><ele>469.0</ele><time>2026-03-28T10:17:28Z</time></trkpt><trkpt lat="43.180114388766924" lon="12.954438362644726"><ele>473.0</ele><time>2026-03-28T10:17:30Z</time></trkpt><trkpt lat="43.180009150141636" lon="12.954307655283248"><ele>472.99999999999994</ele><time>2026-03-28T10:17:32Z</time></trkpt><trkpt lat="43.17995602925402" lon="12.954237159736444"><ele>473.0</ele><time>2026-03-28T10:17:33Z</time></trkpt><trkpt lat="43.17991315523117" lon="12.954149872581239"><ele>473.0</ele><time>2026-03-28T10:17:34Z</time></trkpt><trkpt lat="43.179862084926626" lon="12.954057677981996"><ele>473.0</ele><time>2026-03-28T10:17:35Z</time></trkpt><trkpt lat="43.17980324035718" lon="12.953964304324652"><ele>472.99999999999994</ele><time>2026-03-28T10:17:36Z</time></trkpt><trkpt lat="43.17974725904282" lon="12.953873931564976"><ele>473.0</ele><time>2026-03-28T10:17:37Z</time></trkpt><trkpt lat="43.17970611050308" lon="12.95376899659857"><ele>471.66666666666663</ele><time>2026-03-28T10:17:38Z</time></trkpt><trkpt lat="43.17966394449996" lon="12.953695424676019"><ele>470.3333333333333</ele><time>2026-03-28T10:17:39Z</time></trkpt><trkpt lat="43.179610886287456" lon="12.953634254221186"><ele>469.0</ele><time>2026-03-28T10:17:40Z</time></trkpt><trkpt lat="43.179572227112814" lon="12.953535394745275"><ele>467.66666666666663</ele><time>2026-03-28T10:17:41Z</time></trkpt><trkpt lat="43.179515583868394" lon="12.953433110493798"><ele>466.3333333333333</ele><time>2026-03-28T10:17:42Z</time></trkpt><trkpt lat="43.17946387266882" lon="12.953339275240527"><ele>465.0</ele><time>2026-03-28T10:17:43Z</time></trkpt><trkpt lat="43.17942178428245" lon="12.953258815934383"><ele>465.0</ele><time>2026-03-28T10:17:44Z</time></trkpt><trkpt lat="43.17938614434698" lon="12.953187103176287"><ele>465.0</ele><time>2026-03-28T10:17:45Z</time></trkpt><trkpt lat="43.17934532917051" lon="12.953102181306242"><ele>465.0</ele><time>2026-03-28T10:17:46Z</time></trkpt><trkpt lat="43.1793091123051" lon="12.953020387796691"><ele>465.0</ele><time>2026-03-28T10:17:47Z</time></trkpt><trkpt lat="43.17923796256007" lon="12.952851577366792"><ele>465.0</ele><time>2026-03-28T10:17:49Z</time></trkpt><trkpt lat="43.1792012293059" lon="12.952742634991504"><ele>465.0</ele><time>2026-03-28T10:17:51Z</time></trkpt><trkpt lat="43.17915969063061" lon="12.952623660860802"><ele>462.2</ele><time>2026-03-28T10:17:53Z</time></trkpt><trkpt lat="43.17912054890742" lon="12.95250085086928"><ele>459.4</ele><time>2026-03-28T10:17:55Z</time></trkpt><trkpt lat="43.17908263346104" lon="12.95237964943356"><ele>456.6</ele><time>2026-03-28T10:17:57Z</time></trkpt><trkpt lat="43.179038569910155" lon="12.952238986144756"><ele>453.8</ele><time>2026-03-28T10:17:59Z</time></trkpt><trkpt lat="43.17897679830362" lon="12.952121124949768"><ele>451.0</ele><time>2026-03-28T10:18:01Z</time></trkpt><trkpt lat="43.17890457668767" lon="12.951916061731213"><ele>453.0</ele><time>2026-03-28T10:18:02Z</time></trkpt><trkpt lat="43.178718508956145" lon="12.951624524063853"><ele>455.0</ele><time>2026-03-28T10:18:03Z</time></trkpt><trkpt lat="43.17857585342027" lon="12.951503293481386"><ele>455.0</ele><time>2026-03-28T10:18:04Z</time></trkpt><trkpt lat="43.178335646718985" lon="12.95141558306761"><ele>455.0</ele><time>2026-03-28T10:18:05Z</time></trkpt><trkpt lat="43.178234355387964" lon="12.951412882688063"><ele>455.0</ele><time>2026-03-28T10:18:06Z</time></trkpt><trkpt lat="43.17815512149339" lon="12.951412086595615"><ele>455.0</ele><time>2026-03-28T10:18:07Z</time></trkpt><trkpt lat="43.17809192017989" lon="12.951411451588788"><ele>456.0</ele><time>2026-03-28T10:18:08Z</time></trkpt><trkpt lat="43.17799761275768" lon="12.951458681696565"><ele>457.0</ele><time>2026-03-28T10:18:09Z</time></trkpt><trkpt lat="43.17792679766723" lon="12.951510366284198"><ele>458.0</ele><time>2026-03-28T10:18:10Z</time></trkpt><trkpt lat="43.177862406087065" lon="12.951564163807069"><ele>459.0</ele><time>2026-03-28T10:18:11Z</time></trkpt><trkpt lat="43.17764582363974" lon="12.951737286939858"><ele>470.33333333333337</ele><time>2026-03-28T10:18:12Z</time></trkpt><trkpt lat="43.17755453116375" lon="12.95186609167659"><ele>481.6666666666667</ele><time>2026-03-28T10:18:14Z</time></trkpt><trkpt lat="43.17750065492832" lon="12.95194462702015"><ele>493.0</ele><time>2026-03-28T10:18:15Z</time></trkpt><trkpt lat="43.17757342858044" lon="12.952577278163504"><ele>499.83333333333337</ele><time>2026-03-28T10:18:16Z</time></trkpt><trkpt lat="43.17751045303742" lon="12.952622889335927"><ele>506.6666666666667</ele><time>2026-03-28T10:18:17Z</time></trkpt><trkpt lat="43.177448744089205" lon="12.952679642141527"><ele>513.5</ele><time>2026-03-28T10:18:18Z</time></trkpt><trkpt lat="43.17738640599011" lon="12.952732333969204"><ele>520.3333333333334</ele><time>2026-03-28T10:18:19Z</time></trkpt><trkpt lat="43.17732503559356" lon="12.952779015216262"><ele>527.1666666666666</ele><time>2026-03-28T10:18:20Z</time></trkpt><trkpt lat="43.17721794268947" lon="12.952857671314643"><ele>534.0</ele><time>2026-03-28T10:18:22Z</time></trkpt><trkpt lat="43.17715255183005" lon="12.95290359694631"><ele>534.0</ele><time>2026-03-28T10:18:23Z</time></trkpt><trkpt lat="43.17705575797275" lon="12.952984345670313"><ele>534.0</ele><time>2026-03-28T10:18:25Z</time></trkpt><trkpt lat="43.176946017108975" lon="12.953063042455623"><ele>534.0</ele><time>2026-03-28T10:18:27Z</time></trkpt><trkpt lat="43.17689086571792" lon="12.953105814386863"><ele>534.0</ele><time>2026-03-28T10:18:28Z</time></trkpt><trkpt lat="43.17682709594322" lon="12.953161354259048"><ele>534.0</ele><time>2026-03-28T10:18:29Z</time></trkpt><trkpt lat="43.17675788437433" lon="12.953208541868948"><ele>534.0</ele><time>2026-03-28T10:18:30Z</time></trkpt><trkpt lat="43.17669242269559" lon="12.95324115236894"><ele>534.0</ele><time>2026-03-28T10:18:31Z</time></trkpt><trkpt lat="43.176616652623935" lon="12.953281989919716"><ele>534.0</ele><time>2026-03-28T10:18:32Z</time></trkpt><trkpt lat="43.17655087265112" lon="12.953307637166304"><ele>534.0</ele><time>2026-03-28T10:18:33Z</time></trkpt><trkpt lat="43.176485321647576" lon="12.953338229396037"><ele>534.0</ele><time>2026-03-28T10:18:34Z</time></trkpt><trkpt lat="43.17641832156823" lon="12.953368354686463"><ele>534.0</ele><time>2026-03-28T10:18:35Z</time></trkpt><trkpt lat="43.17630018141734" lon="12.95343177690808"><ele>538.5714285714287</ele><time>2026-03-28T10:18:37Z</time></trkpt><trkpt lat="43.17623962030584" lon="12.953471182952864"><ele>543.1428571428571</ele><time>2026-03-28T10:18:38Z</time></trkpt><trkpt lat="43.17618374448024" lon="12.95352401874811"><ele>547.7142857142858</ele><time>2026-03-28T10:18:39Z</time></trkpt><trkpt lat="43.176128529191345" lon="12.95356865326161"><ele>552.2857142857143</ele><time>2026-03-28T10:18:40Z</time></trkpt><trkpt lat="43.17607022475947" lon="12.953616961845887"><ele>556.8571428571429</ele><time>2026-03-28T10:18:41Z</time></trkpt><trkpt lat="43.1759996408556" lon="12.953670509231484"><ele>561.4285714285714</ele><time>2026-03-28T10:18:42Z</time></trkpt><trkpt lat="43.17592102972915" lon="12.95371771218438"><ele>566.0</ele><time>2026-03-28T10:18:43Z</time></trkpt><trkpt lat="43.175833189315945" lon="12.953762639673505"><ele>566.0</ele><time>2026-03-28T10:18:44Z</time></trkpt><trkpt lat="43.175762453252496" lon="12.953808980247171"><ele>566.0</ele><time>2026-03-28T10:18:45Z</time></trkpt><trkpt lat="43.17569353506321" lon="12.953845043350896"><ele>566.0</ele><time>2026-03-28T10:18:46Z</time></trkpt><trkpt lat="43.17562510254455" lon="12.953881879459408"><ele>566.0</ele><time>2026-03-28T10:18:47Z</time></trkpt><trkpt lat="43.17555389186336" lon="12.95392541049005"><ele>566.0</ele><time>2026-03-28T10:18:48Z</time></trkpt><trkpt lat="43.17549050415799" lon="12.95395470497742"><ele>566.0</ele><time>2026-03-28T10:18:49Z</time></trkpt><trkpt lat="43.1754331863187" lon="12.954001465143996"><ele>566.0</ele><time>2026-03-28T10:18:50Z</time></trkpt><trkpt lat="43.17536387135032" lon="12.954060837591413"><ele>564.8</ele><time>2026-03-28T10:18:51Z</time></trkpt><trkpt lat="43.17530624480477" lon="12.954141295458255"><ele>563.6</ele><time>2026-03-28T10:18:52Z</time></trkpt><trkpt lat="43.175249442170745" lon="12.954203734651752"><ele>562.4</ele><time>2026-03-28T10:18:53Z</time></trkpt><trkpt lat="43.175137216313985" lon="12.954274536860563"><ele>561.2</ele><time>2026-03-28T10:18:55Z</time></trkpt><trkpt lat="43.17505262592268" lon="12.95425740287614"><ele>560.0</ele><time>2026-03-28T10:18:57Z</time></trkpt><trkpt lat="43.1749337586881" lon="12.954187948562465"><ele>560.0</ele><time>2026-03-28T10:18:59Z</time></trkpt><trkpt lat="43.17486613907509" lon="12.954164170552882"><ele>560.0</ele><time>2026-03-28T10:19:00Z</time></trkpt><trkpt lat="43.174802370223155" lon="12.954159693679895"><ele>560.0</ele><time>2026-03-28T10:19:01Z</time></trkpt><trkpt lat="43.17468829242266" lon="12.954170720095474"><ele>560.0</ele><time>2026-03-28T10:19:03Z</time></trkpt><trkpt lat="43.174584493205316" lon="12.95420909099668"><ele>560.0</ele><time>2026-03-28T10:19:05Z</time></trkpt><trkpt lat="43.17448667051596" lon="12.954209788388463"><ele>560.5714285714286</ele><time>2026-03-28T10:19:07Z</time></trkpt><trkpt lat="43.17441283684284" lon="12.954179884365027"><ele>561.1428571428571</ele><time>2026-03-28T10:19:08Z</time></trkpt><trkpt lat="43.17432899347403" lon="12.95415357732618"><ele>561.7142857142858</ele><time>2026-03-28T10:19:09Z</time></trkpt><trkpt lat="43.17426367018252" lon="12.954120054944436"><ele>562.2857142857142</ele><time>2026-03-28T10:19:10Z</time></trkpt><trkpt lat="43.174198881830065" lon="12.954095050512585"><ele>562.8571428571429</ele><time>2026-03-28T10:19:11Z</time></trkpt><trkpt lat="43.17413070904086" lon="12.95408690590494"><ele>563.4285714285714</ele><time>2026-03-28T10:19:12Z</time></trkpt><trkpt lat="43.17405539227689" lon="12.954110950437034"><ele>564.0</ele><time>2026-03-28T10:19:13Z</time></trkpt><trkpt lat="43.17396745691869" lon="12.954146666465038"><ele>566.6</ele><time>2026-03-28T10:19:15Z</time></trkpt><trkpt lat="43.173857941848475" lon="12.954178015472408"><ele>569.2</ele><time>2026-03-28T10:19:17Z</time></trkpt><trkpt lat="43.17374101578658" lon="12.954204108766154"><ele>571.8000000000001</ele><time>2026-03-28T10:19:19Z</time></trkpt><trkpt lat="43.173661250638766" lon="12.954221838950275"><ele>574.4</ele><time>2026-03-28T10:19:20Z</time></trkpt><trkpt lat="43.17358110560527" lon="12.95421537441566"><ele>577.0</ele><time>2026-03-28T10:19:21Z</time></trkpt><trkpt lat="43.17350075125383" lon="12.954222294863913"><ele>577.0</ele><time>2026-03-28T10:19:22Z</time></trkpt><trkpt lat="43.173423956513396" lon="12.954217403297646"><ele>577.0</ele><time>2026-03-28T10:19:23Z</time></trkpt><trkpt lat="43.173353951751864" lon="12.954203171572878"><ele>577.0</ele><time>2026-03-28T10:19:24Z</time></trkpt><trkpt lat="43.17327840207932" lon="12.954186527718464"><ele>577.0</ele><time>2026-03-28T10:19:25Z</time></trkpt><trkpt lat="43.173215522247524" lon="12.954168378644715"><ele>577.0</ele><time>2026-03-28T10:19:27Z</time></trkpt><trkpt lat="43.173179625458936" lon="12.954064801816521"><ele>577.0</ele><time>2026-03-28T10:19:30Z</time></trkpt><trkpt lat="43.17315217754183" lon="12.953954481279748"><ele>577.0</ele><time>2026-03-28T10:19:32Z</time></trkpt><trkpt lat="43.173153993682696" lon="12.953860597315751"><ele>577.0</ele><time>2026-03-28T10:19:35Z</time></trkpt><trkpt lat="43.173192996820305" lon="12.953755873325711"><ele>577.0</ele><time>2026-03-28T10:19:37Z</time></trkpt><trkpt lat="43.17325122893481" lon="12.953648035958713"><ele>577.0</ele><time>2026-03-28T10:19:39Z</time></trkpt><trkpt lat="43.17328382139661" lon="12.953567183039722"><ele>577.0</ele><time>2026-03-28T10:19:40Z</time></trkpt><trkpt lat="43.17331259997075" lon="12.953442308201183"><ele>577.0</ele><time>2026-03-28T10:19:45Z</time></trkpt><trkpt lat="43.1733721218868" lon="12.953351600872203"><ele>572.6666666666667</ele><time>2026-03-28T10:19:48Z</time></trkpt><trkpt lat="43.17337223342167" lon="12.953238950411587"><ele>568.3333333333334</ele><time>2026-03-28T10:19:49Z</time></trkpt><trkpt lat="43.173401924647195" lon="12.953074749543648"><ele>564.0</ele><time>2026-03-28T10:19:51Z</time></trkpt><trkpt lat="43.17341668654186" lon="12.952983539540964"><ele>559.6666666666666</ele><time>2026-03-28T10:19:52Z</time></trkpt><trkpt lat="43.17344446847586" lon="12.952900161172014"><ele>555.3333333333333</ele><time>2026-03-28T10:19:53Z</time></trkpt><trkpt lat="43.17347649610302" lon="12.95281637004665"><ele>551.0</ele><time>2026-03-28T10:19:54Z</time></trkpt><trkpt lat="43.173502498318285" lon="12.952725075413301"><ele>551.0</ele><time>2026-03-28T10:19:55Z</time></trkpt><trkpt lat="43.173544955507204" lon="12.952580775772878"><ele>551.0</ele><time>2026-03-28T10:19:57Z</time></trkpt><trkpt lat="43.17359146160968" lon="12.952465317198316"><ele>551.0</ele><time>2026-03-28T10:19:59Z</time></trkpt><trkpt lat="43.17359586667373" lon="12.952331536891762"><ele>551.0</ele><time>2026-03-28T10:20:01Z</time></trkpt><trkpt lat="43.17359518717187" lon="12.952244881250664"><ele>551.0</ele><time>2026-03-28T10:20:03Z</time></trkpt><trkpt lat="43.17363009337744" lon="12.952166695191695"><ele>551.0</ele><time>2026-03-28T10:20:08Z</time></trkpt><trkpt lat="43.17366719923842" lon="12.952062293416253"><ele>551.0</ele><time>2026-03-28T10:20:11Z</time></trkpt><trkpt lat="43.173696872722644" lon="12.95195222296191"><ele>551.0</ele><time>2026-03-28T10:20:15Z</time></trkpt><trkpt lat="43.17370105434898" lon="12.951848547507312"><ele>551.0</ele><time>2026-03-28T10:20:17Z</time></trkpt><trkpt lat="43.173705163171256" lon="12.951720380358308"><ele>551.0</ele><time>2026-03-28T10:20:19Z</time></trkpt><trkpt lat="43.17369094480229" lon="12.95161870600228"><ele>551.0</ele><time>2026-03-28T10:20:22Z</time></trkpt><trkpt lat="43.17368886652644" lon="12.951502131860488"><ele>551.0</ele><time>2026-03-28T10:20:34Z</time></trkpt><trkpt lat="43.17360141834312" lon="12.951463008381877"><ele>553.8</ele><time>2026-03-28T10:20:36Z</time></trkpt><trkpt lat="43.17350823861573" lon="12.951467492960365"><ele>556.6</ele><time>2026-03-28T10:20:39Z</time></trkpt><trkpt lat="43.173437591942005" lon="12.951479715113862"><ele>559.4</ele><time>2026-03-28T10:20:41Z</time></trkpt><trkpt lat="43.17334177523964" lon="12.95148400980759"><ele>562.2</ele><time>2026-03-28T10:20:43Z</time></trkpt><trkpt lat="43.173248262364226" lon="12.951456530197776"><ele>565.0</ele><time>2026-03-28T10:20:45Z</time></trkpt><trkpt lat="43.17313512665725" lon="12.951446079811582"><ele>567.0</ele><time>2026-03-28T10:20:50Z</time></trkpt><trkpt lat="43.17306054818622" lon="12.95154959452697"><ele>569.0</ele><time>2026-03-28T10:20:52Z</time></trkpt><trkpt lat="43.17303243593927" lon="12.951661592251973"><ele>571.0</ele><time>2026-03-28T10:20:54Z</time></trkpt><trkpt lat="43.17302440034437" lon="12.951757237705639"><ele>573.0</ele><time>2026-03-28T10:21:01.001Z</time></trkpt><trkpt lat="43.172993603774714" lon="12.951859965644203"><ele>575.0</ele><time>2026-03-28T10:21:06.001Z</time></trkpt><trkpt lat="43.17292755963066" lon="12.951918887139211"><ele>577.0</ele><time>2026-03-28T10:21:08.001Z</time></trkpt><trkpt lat="43.17283858633153" lon="12.951935081240727"><ele>577.0</ele><time>2026-03-28T10:21:10.001Z</time></trkpt><trkpt lat="43.17275823829687" lon="12.951957450574698"><ele>577.0</ele><time>2026-03-28T10:21:11.001Z</time></trkpt><trkpt lat="43.17265304942637" lon="12.951955909627419"><ele>577.0</ele><time>2026-03-28T10:21:13.001Z</time></trkpt><trkpt lat="43.17255731369469" lon="12.951946823312"><ele>577.0</ele><time>2026-03-28T10:21:15.001Z</time></trkpt><trkpt lat="43.17248269195837" lon="12.951938700598273"><ele>577.0</ele><time>2026-03-28T10:21:16.001Z</time></trkpt><trkpt lat="43.172412425406336" lon="12.951979274960188"><ele>577.0</ele><time>2026-03-28T10:21:17.001Z</time></trkpt><trkpt lat="43.172340917001655" lon="12.952006679860173"><ele>584.2</ele><time>2026-03-28T10:21:18.001Z</time></trkpt><trkpt lat="43.17227106688627" lon="12.95203287227346"><ele>591.4000000000001</ele><time>2026-03-28T10:21:19.001Z</time></trkpt><trkpt lat="43.17215313200374" lon="12.952060603276527"><ele>598.5999999999999</ele><time>2026-03-28T10:21:20.001Z</time></trkpt><trkpt lat="43.17201740515769" lon="12.952108542058362"><ele>605.8</ele><time>2026-03-28T10:21:21.001Z</time></trkpt><trkpt lat="43.17190796999533" lon="12.952155278503144"><ele>613.0</ele><time>2026-03-28T10:21:22.001Z</time></trkpt><trkpt lat="43.17181235548597" lon="12.952189318593039"><ele>613.0</ele><time>2026-03-28T10:21:23.001Z</time></trkpt><trkpt lat="43.17171392251696" lon="12.952267084492474"><ele>613.0</ele><time>2026-03-28T10:21:24.001Z</time></trkpt><trkpt lat="43.171617987663424" lon="12.952347909742034"><ele>613.0</ele><time>2026-03-28T10:21:25.001Z</time></trkpt><trkpt lat="43.171506493643086" lon="12.952394182589904"><ele>613.0</ele><time>2026-03-28T10:21:26.001Z</time></trkpt><trkpt lat="43.171386108554216" lon="12.95238337817092"><ele>617.6</ele><time>2026-03-28T10:21:27.001Z</time></trkpt><trkpt lat="43.171299494100836" lon="12.95242347506016"><ele>622.1999999999999</ele><time>2026-03-28T10:21:28.001Z</time></trkpt><trkpt lat="43.17119624514978" lon="12.952483081642907"><ele>626.8</ele><time>2026-03-28T10:21:29.001Z</time></trkpt><trkpt lat="43.17109610269204" lon="12.95254603812094"><ele>631.4</ele><time>2026-03-28T10:21:30.001Z</time></trkpt><trkpt lat="43.17096770508716" lon="12.952583984059633"><ele>636.0</ele><time>2026-03-28T10:21:31.001Z</time></trkpt><trkpt lat="43.17083112918483" lon="12.952635514401484"><ele>636.0</ele><time>2026-03-28T10:21:32.001Z</time></trkpt><trkpt lat="43.17072114235388" lon="12.952761490240956"><ele>636.0</ele><time>2026-03-28T10:21:33.001Z</time></trkpt><trkpt lat="43.17062326925552" lon="12.952831183284644"><ele>636.0</ele><time>2026-03-28T10:21:34.001Z</time></trkpt><trkpt lat="43.170514914557614" lon="12.952932639473122"><ele>636.0</ele><time>2026-03-28T10:21:35.001Z</time></trkpt><trkpt lat="43.170417400882535" lon="12.953016404610393"><ele>644.0</ele><time>2026-03-28T10:21:36.001Z</time></trkpt><trkpt lat="43.170337116321434" lon="12.952964807729746"><ele>652.0</ele><time>2026-03-28T10:21:38.001Z</time></trkpt><trkpt lat="43.170227259231304" lon="12.952938772622357"><ele>660.0</ele><time>2026-03-28T10:21:40.001Z</time></trkpt><trkpt lat="43.17014379609375" lon="12.952984722938856"><ele>668.0</ele><time>2026-03-28T10:21:42.001Z</time></trkpt><trkpt lat="43.17003549019539" lon="12.952968243776501"><ele>676.0</ele><time>2026-03-28T10:21:44.001Z</time></trkpt><trkpt lat="43.16997723411716" lon="12.95293005684226"><ele>676.0</ele><time>2026-03-28T10:21:45.001Z</time></trkpt><trkpt lat="43.16991242290065" lon="12.952837501025265"><ele>676.0</ele><time>2026-03-28T10:21:47.001Z</time></trkpt><trkpt lat="43.169829020543105" lon="12.952782335897705"><ele>676.0</ele><time>2026-03-28T10:21:50.001Z</time></trkpt><trkpt lat="43.169721041568614" lon="12.952780803614194"><ele>676.0</ele><time>2026-03-28T10:21:52.001Z</time></trkpt><trkpt lat="43.17000505174262" lon="12.948998877970656"><ele>667.5</ele><time>2026-03-28T10:21:54Z</time></trkpt><trkpt lat="43.16991554023654" lon="12.949012779159299"><ele>659.0</ele><time>2026-03-28T10:21:57.001Z</time></trkpt><trkpt lat="43.169832169276916" lon="12.949010305635936"><ele>650.5</ele><time>2026-03-28T10:22:00.001Z</time></trkpt><trkpt lat="43.16977051395024" lon="12.949039734621335"><ele>642.0</ele><time>2026-03-28T10:22:02.001Z</time></trkpt><trkpt lat="43.16970428229298" lon="12.949041170241598"><ele>633.5</ele><time>2026-03-28T10:22:05.001Z</time></trkpt><trkpt lat="43.16963726478087" lon="12.948999297204557"><ele>625.0</ele><time>2026-03-28T10:22:08.001Z</time></trkpt><trkpt lat="43.169562281718946" lon="12.948976303992056"><ele>625.0</ele><time>2026-03-28T10:22:10.001Z</time></trkpt><trkpt lat="43.16949164076274" lon="12.949001201955001"><ele>625.0</ele><time>2026-03-28T10:22:12.001Z</time></trkpt><trkpt lat="43.16941216586589" lon="12.949052190220748"><ele>625.0</ele><time>2026-03-28T10:22:14.001Z</time></trkpt><trkpt lat="43.16936370135949" lon="12.949143384076214"><ele>625.0</ele><time>2026-03-28T10:22:16.001Z</time></trkpt><trkpt lat="43.169275040414995" lon="12.949175455673753"><ele>625.0</ele><time>2026-03-28T10:22:18.001Z</time></trkpt><trkpt lat="43.16919971426843" lon="12.949199451622412"><ele>625.0</ele><time>2026-03-28T10:22:20.001Z</time></trkpt><trkpt lat="43.16912928150798" lon="12.949217516474198"><ele>630.3333333333334</ele><time>2026-03-28T10:22:22.001Z</time></trkpt><trkpt lat="43.16905570744417" lon="12.949240215165268"><ele>635.6666666666667</ele><time>2026-03-28T10:22:24.001Z</time></trkpt><trkpt lat="43.16898227750381" lon="12.949283138071888"><ele>641.0</ele><time>2026-03-28T10:22:26.001Z</time></trkpt><trkpt lat="43.168917791245676" lon="12.949365667191076"><ele>646.3333333333334</ele><time>2026-03-28T10:22:29.001Z</time></trkpt><trkpt lat="43.168875132875016" lon="12.949431512649758"><ele>651.6666666666666</ele><time>2026-03-28T10:22:35.001Z</time></trkpt><trkpt lat="43.1687881405672" lon="12.949410370152773"><ele>657.0</ele><time>2026-03-28T10:22:43.001Z</time></trkpt><trkpt lat="43.168709747211885" lon="12.949434189247574"><ele>661.2</ele><time>2026-03-28T10:22:46.001Z</time></trkpt><trkpt lat="43.168630330828925" lon="12.949458196409255"><ele>665.4000000000001</ele><time>2026-03-28T10:22:48.001Z</time></trkpt><trkpt lat="43.168521541058674" lon="12.94948633136639"><ele>669.5999999999999</ele><time>2026-03-28T10:22:50.001Z</time></trkpt><trkpt lat="43.16845338960604" lon="12.949544535318967"><ele>673.8</ele><time>2026-03-28T10:22:52.001Z</time></trkpt><trkpt lat="43.168389004624224" lon="12.949610737655373"><ele>678.0</ele><time>2026-03-28T10:22:54.001Z</time></trkpt><trkpt lat="43.16828858890212" lon="12.949600402766578"><ele>684.8333333333334</ele><time>2026-03-28T10:22:56.001Z</time></trkpt><trkpt lat="43.168182180777805" lon="12.94961826854356"><ele>691.6666666666666</ele><time>2026-03-28T10:22:58.001Z</time></trkpt><trkpt lat="43.168074770143896" lon="12.949655200215147"><ele>698.5</ele><time>2026-03-28T10:23:00.001Z</time></trkpt><trkpt lat="43.16801038465494" lon="12.94967735790789"><ele>705.3333333333333</ele><time>2026-03-28T10:23:01.001Z</time></trkpt><trkpt lat="43.16793697125271" lon="12.94969930170405"><ele>712.1666666666666</ele><time>2026-03-28T10:23:02.001Z</time></trkpt><trkpt lat="43.167868527970455" lon="12.949706867140845"><ele>719.0</ele><time>2026-03-28T10:23:03.001Z</time></trkpt><trkpt lat="43.167804218236384" lon="12.949721838570635"><ele>719.0</ele><time>2026-03-28T10:23:04.001Z</time></trkpt><trkpt lat="43.1677260710668" lon="12.94970384835095"><ele>719.0</ele><time>2026-03-28T10:23:05.001Z</time></trkpt><trkpt lat="43.167629516708026" lon="12.949684088474836"><ele>719.0</ele><time>2026-03-28T10:23:07.001Z</time></trkpt><trkpt lat="43.16753625230923" lon="12.94967658750691"><ele>719.0</ele><time>2026-03-28T10:23:09.001Z</time></trkpt><trkpt lat="43.16749286361724" lon="12.949611350441295"><ele>719.0</ele><time>2026-03-28T10:23:13.001Z</time></trkpt><trkpt lat="43.1673882960138" lon="12.949581595302076"><ele>719.0</ele><time>2026-03-28T10:23:21Z</time></trkpt><trkpt lat="43.1673181348671" lon="12.949580050007553"><ele>721.2</ele><time>2026-03-28T10:23:24Z</time></trkpt><trkpt lat="43.16727583064149" lon="12.949493735382768"><ele>723.4000000000001</ele><time>2026-03-28T10:23:26Z</time></trkpt><trkpt lat="43.16723634569769" lon="12.94939305224286"><ele>725.6</ele><time>2026-03-28T10:23:28Z</time></trkpt><trkpt lat="43.16720021009952" lon="12.949291725637826"><ele>727.8</ele><time>2026-03-28T10:23:30Z</time></trkpt><trkpt lat="43.167183764828984" lon="12.949149737487671"><ele>730.0</ele><time>2026-03-28T10:23:32Z</time></trkpt><trkpt lat="43.16716355715857" lon="12.949004453603585"><ele>730.0</ele><time>2026-03-28T10:23:34Z</time></trkpt><trkpt lat="43.16717294363782" lon="12.948881901461005"><ele>730.0</ele><time>2026-03-28T10:23:36Z</time></trkpt><trkpt lat="43.16721060533044" lon="12.948811777140516"><ele>730.0</ele><time>2026-03-28T10:23:42Z</time></trkpt><trkpt lat="43.167200456756454" lon="12.948707686770856"><ele>730.0</ele><time>2026-03-28T10:23:50Z</time></trkpt><trkpt lat="43.16719757842243" lon="12.9486174858676"><ele>730.0</ele><time>2026-03-28T10:23:53Z</time></trkpt><trkpt lat="43.167162895541296" lon="12.948476821660412"><ele>730.0</ele><time>2026-03-28T10:24:00Z</time></trkpt><trkpt lat="43.16716030819515" lon="12.94856768129806"><ele>730.0</ele><time>2026-03-28T10:24:04Z</time></trkpt><trkpt lat="43.167214202393176" lon="12.948720486494725"><ele>730.0</ele><time>2026-03-28T10:24:06.001Z</time></trkpt><trkpt lat="43.16724371968628" lon="12.948843256535103"><ele>730.0</ele><time>2026-03-28T10:24:08.001Z</time></trkpt><trkpt lat="43.1672794247397" lon="12.948948084393987"><ele>730.0</ele><time>2026-03-28T10:24:10.001Z</time></trkpt><trkpt lat="43.16731236624511" lon="12.949043910374831"><ele>730.0</ele><time>2026-03-28T10:24:14.001Z</time></trkpt><trkpt lat="43.16732824320944" lon="12.949135942477863"><ele>730.0</ele><time>2026-03-28T10:24:23.001Z</time></trkpt><trkpt lat="43.16740173906612" lon="12.949254686666434"><ele>727.8</ele><time>2026-03-28T10:24:26.001Z</time></trkpt><trkpt lat="43.16747504116449" lon="12.949365094246748"><ele>725.6</ele><time>2026-03-28T10:24:28.001Z</time></trkpt><trkpt lat="43.167556255284424" lon="12.949466975104732"><ele>723.4000000000001</ele><time>2026-03-28T10:24:30Z</time></trkpt><trkpt lat="43.167648021051015" lon="12.949552644723743"><ele>721.2</ele><time>2026-03-28T10:24:32Z</time></trkpt><trkpt lat="43.16771300118346" lon="12.94963222416802"><ele>719.0</ele><time>2026-03-28T10:24:34Z</time></trkpt><trkpt lat="43.16777930748785" lon="12.949720316944209"><ele>719.0</ele><time>2026-03-28T10:24:37Z</time></trkpt><trkpt lat="43.167842580491005" lon="12.949803012338586"><ele>719.0</ele><time>2026-03-28T10:24:39Z</time></trkpt><trkpt lat="43.16792600256913" lon="12.949898791864575"><ele>719.0</ele><time>2026-03-28T10:24:41Z</time></trkpt><trkpt lat="43.16797972481957" lon="12.949947740179097"><ele>719.0</ele><time>2026-03-28T10:24:42Z</time></trkpt><trkpt lat="43.168070183655516" lon="12.950048827886638"><ele>719.0</ele><time>2026-03-28T10:24:44Z</time></trkpt><trkpt lat="43.168139234076556" lon="12.950122732721635"><ele>716.6666666666666</ele><time>2026-03-28T10:24:46Z</time></trkpt><trkpt lat="43.1682022157823" lon="12.95023359097592"><ele>714.3333333333333</ele><time>2026-03-28T10:24:48Z</time></trkpt><trkpt lat="43.1682393468034" lon="12.950306833722763"><ele>712.0</ele><time>2026-03-28T10:24:49Z</time></trkpt><trkpt lat="43.16828614993841" lon="12.950372211973463"><ele>709.6666666666666</ele><time>2026-03-28T10:24:50Z</time></trkpt><trkpt lat="43.168329118320486" lon="12.950435455354391"><ele>707.3333333333334</ele><time>2026-03-28T10:24:51Z</time></trkpt><trkpt lat="43.168342734010885" lon="12.950577632992339"><ele>705.0</ele><time>2026-03-28T10:24:53Z</time></trkpt><trkpt lat="43.16832526322882" lon="12.9507267682296"><ele>708.0</ele><time>2026-03-28T10:24:55Z</time></trkpt><trkpt lat="43.168288241523044" lon="12.950882073041237"><ele>711.0</ele><time>2026-03-28T10:24:57Z</time></trkpt><trkpt lat="43.16823795558363" lon="12.951012945729891"><ele>714.0</ele><time>2026-03-28T10:24:59Z</time></trkpt><trkpt lat="43.168184416215176" lon="12.951138594469574"><ele>717.0</ele><time>2026-03-28T10:25:01Z</time></trkpt><trkpt lat="43.16814795015076" lon="12.95122012979847"><ele>720.0</ele><time>2026-03-28T10:25:02Z</time></trkpt><trkpt lat="43.16809764836393" lon="12.951358734241127"><ele>728.0</ele><time>2026-03-28T10:25:04Z</time></trkpt><trkpt lat="43.16804919888416" lon="12.95150058641941"><ele>736.0</ele><time>2026-03-28T10:25:06Z</time></trkpt><trkpt lat="43.16800374696166" lon="12.951620279436872"><ele>744.0</ele><time>2026-03-28T10:25:08Z</time></trkpt><trkpt lat="43.16798396705651" lon="12.951723954760888"><ele>752.0</ele><time>2026-03-28T10:25:10Z</time></trkpt><trkpt lat="43.1679672726985" lon="12.951809708005426"><ele>760.0</ele><time>2026-03-28T10:25:13Z</time></trkpt><trkpt lat="43.167949534861236" lon="12.951893823972275"><ele>768.0</ele><time>2026-03-28T10:25:18Z</time></trkpt><trkpt lat="43.16791835310081" lon="12.951970503321645"><ele>767.9999999999999</ele><time>2026-03-28T10:25:24Z</time></trkpt><trkpt lat="43.167935991075595" lon="12.951878689473695"><ele>768.0</ele><time>2026-03-28T10:26:06Z</time></trkpt><trkpt lat="43.167959079961975" lon="12.951779067387237"><ele>768.0</ele><time>2026-03-28T10:26:09Z</time></trkpt><trkpt lat="43.16798762925485" lon="12.951680552273547"><ele>768.0</ele><time>2026-03-28T10:26:12Z</time></trkpt><trkpt lat="43.16800762972687" lon="12.951595774648428"><ele>768.0</ele><time>2026-03-28T10:26:14Z</time></trkpt><trkpt lat="43.16802162929878" lon="12.951496513551284"><ele>767.9999999999999</ele><time>2026-03-28T10:26:17Z</time></trkpt><trkpt lat="43.16802650560718" lon="12.951385647238684"><ele>768.0</ele><time>2026-03-28T10:26:20Z</time></trkpt><trkpt lat="43.16807389786756" lon="12.951296977909573"><ele>768.0</ele><time>2026-03-28T10:26:24Z</time></trkpt><trkpt lat="43.16809703754008" lon="12.951197105495046"><ele>768.0</ele><time>2026-03-28T10:26:27Z</time></trkpt><trkpt lat="43.16812372266769" lon="12.951107261965527"><ele>768.0</ele><time>2026-03-28T10:26:29Z</time></trkpt><trkpt lat="43.1681698033876" lon="12.951022173810253"><ele>768.0</ele><time>2026-03-28T10:26:31Z</time></trkpt><trkpt lat="43.16819201865905" lon="12.950937930261631"><ele>768.0</ele><time>2026-03-28T10:26:33Z</time></trkpt><trkpt lat="43.16811868149227" lon="12.950874354995975"><ele>768.0</ele><time>2026-03-28T10:26:36Z</time></trkpt><trkpt lat="43.16805945436988" lon="12.95080317607571"><ele>765.1666666666666</ele><time>2026-03-28T10:26:38Z</time></trkpt><trkpt lat="43.16800667548476" lon="12.950746490729175"><ele>762.3333333333334</ele><time>2026-03-28T10:26:40Z</time></trkpt><trkpt lat="43.16791997050923" lon="12.950703884813674"><ele>759.5</ele><time>2026-03-28T10:26:43Z</time></trkpt><trkpt lat="43.167828799357565" lon="12.95066293954077"><ele>756.6666666666667</ele><time>2026-03-28T10:26:46Z</time></trkpt><trkpt lat="43.16776062671559" lon="12.950640923719366"><ele>753.8333333333334</ele><time>2026-03-28T10:26:48Z</time></trkpt><trkpt lat="43.167710969866455" lon="12.95056676134517"><ele>751.0</ele><time>2026-03-28T10:26:52Z</time></trkpt><trkpt lat="43.16763836648921" lon="12.950504200115375"><ele>751.0</ele><time>2026-03-28T10:26:55Z</time></trkpt><trkpt lat="43.167561917335505" lon="12.950472437879204"><ele>751.0</ele><time>2026-03-28T10:26:57Z</time></trkpt><trkpt lat="43.16748903887" lon="12.950371822528613"><ele>751.0</ele><time>2026-03-28T10:26:59Z</time></trkpt><trkpt lat="43.16739994714865" lon="12.950268020653402"><ele>751.0</ele><time>2026-03-28T10:27:01Z</time></trkpt><trkpt lat="43.16735078400445" lon="12.950200934829077"><ele>751.0</ele><time>2026-03-28T10:27:03Z</time></trkpt><trkpt lat="43.16731107271529" lon="12.950133897105205"><ele>751.0</ele><time>2026-03-28T10:27:04Z</time></trkpt><trkpt lat="43.16722675603025" lon="12.950015596870669"><ele>753.5999999999999</ele><time>2026-03-28T10:27:06Z</time></trkpt><trkpt lat="43.167183771568794" lon="12.949952240602054"><ele>756.2</ele><time>2026-03-28T10:27:07Z</time></trkpt><trkpt lat="43.16714195525588" lon="12.949787186297641"><ele>758.8</ele><time>2026-03-28T10:27:09Z</time></trkpt><trkpt lat="43.16711099540605" lon="12.949665326470493"><ele>761.4000000000001</ele><time>2026-03-28T10:27:11Z</time></trkpt><trkpt lat="43.167049258193174" lon="12.949539690870782"><ele>764.0</ele><time>2026-03-28T10:27:13Z</time></trkpt><trkpt lat="43.16702481472155" lon="12.949382200937698"><ele>764.0</ele><time>2026-03-28T10:27:15Z</time></trkpt><trkpt lat="43.167036164082184" lon="12.94923463861641"><ele>764.0</ele><time>2026-03-28T10:27:17Z</time></trkpt><trkpt lat="43.16704332277978" lon="12.949148481749406"><ele>764.0</ele><time>2026-03-28T10:27:18Z</time></trkpt><trkpt lat="43.16702189586555" lon="12.948968711467272"><ele>764.0</ele><time>2026-03-28T10:27:20Z</time></trkpt><trkpt lat="43.1670332219515" lon="12.948825532621273"><ele>764.0</ele><time>2026-03-28T10:27:21Z</time></trkpt><trkpt lat="43.16704194172874" lon="12.948689843675552"><ele>757.2</ele><time>2026-03-28T10:27:22Z</time></trkpt><trkpt lat="43.16704617351443" lon="12.948580159108838"><ele>750.4000000000001</ele><time>2026-03-28T10:27:23Z</time></trkpt><trkpt lat="43.16703221483282" lon="12.948419617167454"><ele>743.6</ele><time>2026-03-28T10:27:25Z</time></trkpt><trkpt lat="43.167051822686986" lon="12.94829728285305"><ele>736.8</ele><time>2026-03-28T10:27:26Z</time></trkpt><trkpt lat="43.16704946457419" lon="12.948161553204143"><ele>730.0</ele><time>2026-03-28T10:27:28Z</time></trkpt><trkpt lat="43.16707458779763" lon="12.948055849536917"><ele>729.0</ele><time>2026-03-28T10:27:29Z</time></trkpt><trkpt lat="43.1670531386976" lon="12.947930364133112"><ele>728.0</ele><time>2026-03-28T10:27:31Z</time></trkpt><trkpt lat="43.16705038931696" lon="12.947794355950702"><ele>727.0</ele><time>2026-03-28T10:27:32Z</time></trkpt><trkpt lat="43.1670086459775" lon="12.947653980939485"><ele>726.0</ele><time>2026-03-28T10:27:34Z</time></trkpt><trkpt lat="43.16698685503069" lon="12.947551547417326"><ele>725.0</ele><time>2026-03-28T10:27:35Z</time></trkpt><trkpt lat="43.16696089940951" lon="12.947461974063273"><ele>725.0</ele><time>2026-03-28T10:27:36Z</time></trkpt><trkpt lat="43.166939836180475" lon="12.94737403338509"><ele>725.0</ele><time>2026-03-28T10:27:37Z</time></trkpt><trkpt lat="43.16688752701361" lon="12.947225789865694"><ele>725.0</ele><time>2026-03-28T10:27:39Z</time></trkpt><trkpt lat="43.16685679115809" lon="12.947096795366027"><ele>725.0</ele><time>2026-03-28T10:27:41Z</time></trkpt><trkpt lat="43.1668483587606" lon="12.946952000738301"><ele>725.0</ele><time>2026-03-28T10:27:43Z</time></trkpt><trkpt lat="43.16682390483774" lon="12.946823602578466"><ele>725.0</ele><time>2026-03-28T10:27:44Z</time></trkpt><trkpt lat="43.16680906438114" lon="12.946714339636438"><ele>725.0</ele><time>2026-03-28T10:27:45Z</time></trkpt><trkpt lat="43.16681322498092" lon="12.94662736241593"><ele>725.0</ele><time>2026-03-28T10:27:46Z</time></trkpt><trkpt lat="43.166849186854485" lon="12.946547192466758"><ele>725.0</ele><time>2026-03-28T10:27:48Z</time></trkpt><trkpt lat="43.16688206396242" lon="12.946425534488904"><ele>725.0</ele><time>2026-03-28T10:27:49Z</time></trkpt><trkpt lat="43.16689480878842" lon="12.94627856438157"><ele>725.0</ele><time>2026-03-28T10:27:51Z</time></trkpt><trkpt lat="43.166848808141495" lon="12.946189980037687"><ele>730.0</ele><time>2026-03-28T10:27:53Z</time></trkpt><trkpt lat="43.1667676999144" lon="12.946135211166316"><ele>735.0</ele><time>2026-03-28T10:27:55Z</time></trkpt><trkpt lat="43.166711074537496" lon="12.946036952960261"><ele>740.0</ele><time>2026-03-28T10:27:57Z</time></trkpt><trkpt lat="43.16664607535746" lon="12.94604160393938"><ele>745.0</ele><time>2026-03-28T10:28:01Z</time></trkpt><trkpt lat="43.16668480292017" lon="12.945942171507896"><ele>750.0</ele><time>2026-03-28T10:28:03Z</time></trkpt><trkpt lat="43.166706469828455" lon="12.945802005628323"><ele>755.0</ele><time>2026-03-28T10:28:12Z</time></trkpt><trkpt lat="43.166739521397254" lon="12.945714910748666"><ele>761.0</ele><time>2026-03-28T10:28:26Z</time></trkpt><trkpt lat="43.166797675856145" lon="12.945674281812675"><ele>767.0</ele><time>2026-03-28T10:28:33Z</time></trkpt><trkpt lat="43.16690990899698" lon="12.945540599180973"><ele>773.0</ele><time>2026-03-28T10:28:39Z</time></trkpt><trkpt lat="43.16712923453461" lon="12.945548528280668"><ele>779.0</ele><time>2026-03-28T10:29:02.001Z</time></trkpt><trkpt lat="43.16721321677628" lon="12.945597446190694"><ele>779.0</ele><time>2026-03-28T10:29:04.001Z</time></trkpt><trkpt lat="43.16732041154757" lon="12.945641178469922"><ele>779.0</ele><time>2026-03-28T10:29:06.001Z</time></trkpt><trkpt lat="43.167599491956395" lon="12.945649398064521"><ele>779.0</ele><time>2026-03-28T10:29:12.001Z</time></trkpt><trkpt lat="43.167667478270765" lon="12.945656997277771"><ele>769.8000000000001</ele><time>2026-03-28T10:29:13.001Z</time></trkpt><trkpt lat="43.16777602581927" lon="12.945667257701317"><ele>760.6</ele><time>2026-03-28T10:29:15.001Z</time></trkpt><trkpt lat="43.16786628552138" lon="12.945653314700992"><ele>751.4</ele><time>2026-03-28T10:29:17.001Z</time></trkpt><trkpt lat="43.16793821685089" lon="12.94560843713543"><ele>742.2</ele><time>2026-03-28T10:29:19.001Z</time></trkpt><trkpt lat="43.16802122553322" lon="12.94553663509126"><ele>733.0</ele><time>2026-03-28T10:29:20.001Z</time></trkpt><trkpt lat="43.16813196922786" lon="12.945486063784719"><ele>733.0</ele><time>2026-03-28T10:29:22.001Z</time></trkpt><trkpt lat="43.168192721975245" lon="12.945436459959272"><ele>733.0</ele><time>2026-03-28T10:29:23.001Z</time></trkpt><trkpt lat="43.16826244666732" lon="12.945377193628259"><ele>733.0</ele><time>2026-03-28T10:29:25.001Z</time></trkpt><trkpt lat="43.16834747712954" lon="12.945326262221133"><ele>733.0</ele><time>2026-03-28T10:29:27.001Z</time></trkpt><trkpt lat="43.16842178973455" lon="12.945293787050893"><ele>733.0</ele><time>2026-03-28T10:29:29.001Z</time></trkpt><trkpt lat="43.168501680682844" lon="12.945285668548607"><ele>733.0</ele><time>2026-03-28T10:29:31.001Z</time></trkpt><trkpt lat="43.16859414185114" lon="12.945257279134628"><ele>710.5</ele><time>2026-03-28T10:29:33.001Z</time></trkpt><trkpt lat="43.16871113508647" lon="12.945277057634746"><ele>688.0</ele><time>2026-03-28T10:29:35.001Z</time></trkpt><trkpt lat="43.16912646393293" lon="12.945285903417934"><ele>680.5999999999999</ele><time>2026-03-28T10:29:44.001Z</time></trkpt><trkpt lat="43.16919229601741" lon="12.945304477226188"><ele>673.1999999999999</ele><time>2026-03-28T10:29:45.001Z</time></trkpt><trkpt lat="43.16933067589209" lon="12.945254201868725"><ele>665.8</ele><time>2026-03-28T10:29:48.001Z</time></trkpt><trkpt lat="43.169401766307786" lon="12.945195401239703"><ele>658.4</ele><time>2026-03-28T10:29:50.001Z</time></trkpt><trkpt lat="43.16948720578105" lon="12.94509634897044"><ele>651.0</ele><time>2026-03-28T10:29:52.001Z</time></trkpt><trkpt lat="43.16956713039491" lon="12.945053538148466"><ele>650.4</ele><time>2026-03-28T10:29:54.001Z</time></trkpt><trkpt lat="43.16963477614615" lon="12.944983801712358"><ele>649.8</ele><time>2026-03-28T10:29:57.001Z</time></trkpt><trkpt lat="43.16970924604329" lon="12.944911646408169"><ele>649.1999999999999</ele><time>2026-03-28T10:29:58.001Z</time></trkpt><trkpt lat="43.169805507447904" lon="12.94479909964984"><ele>648.5999999999999</ele><time>2026-03-28T10:30:00.001Z</time></trkpt><trkpt lat="43.16987499277934" lon="12.944691539875897"><ele>648.0</ele><time>2026-03-28T10:30:02.001Z</time></trkpt><trkpt lat="43.169946427320156" lon="12.944650659178201"><ele>648.0</ele><time>2026-03-28T10:30:04.001Z</time></trkpt><trkpt lat="43.1700353514069" lon="12.944632900058727"><ele>648.0</ele><time>2026-03-28T10:30:06.001Z</time></trkpt><trkpt lat="43.17010071704376" lon="12.944627537339535"><ele>648.0</ele><time>2026-03-28T10:30:08.001Z</time></trkpt><trkpt lat="43.17016544298712" lon="12.94462535053576"><ele>648.0</ele><time>2026-03-28T10:30:11.001Z</time></trkpt><trkpt lat="43.170229063369405" lon="12.944502611521935"><ele>648.0</ele><time>2026-03-28T10:30:13.001Z</time></trkpt><trkpt lat="43.17032754155869" lon="12.944450583481142"><ele>648.0</ele><time>2026-03-28T10:30:15.001Z</time></trkpt><trkpt lat="43.17039232369569" lon="12.94437821728073"><ele>648.0</ele><time>2026-03-28T10:30:19.001Z</time></trkpt><trkpt lat="43.17049326200546" lon="12.944309861776885"><ele>648.0</ele><time>2026-03-28T10:30:21.001Z</time></trkpt><trkpt lat="43.17055684125636" lon="12.94428616966391"><ele>648.0</ele><time>2026-03-28T10:30:25Z</time></trkpt><trkpt lat="43.17079787530312" lon="12.944274891242575"><ele>648.0</ele><time>2026-03-28T10:30:34Z</time></trkpt><trkpt lat="43.17086393421208" lon="12.944241748407341"><ele>644.0</ele><time>2026-03-28T10:30:38Z</time></trkpt><trkpt lat="43.170933546413515" lon="12.944219840915565"><ele>640.0</ele><time>2026-03-28T10:30:42Z</time></trkpt><trkpt lat="43.17101359334176" lon="12.944166283228556"><ele>636.0</ele><time>2026-03-28T10:30:44Z</time></trkpt><trkpt lat="43.17110321118882" lon="12.944128726181873"><ele>632.0</ele><time>2026-03-28T10:30:47Z</time></trkpt><trkpt lat="43.17117670659211" lon="12.944110781814624"><ele>628.0</ele><time>2026-03-28T10:30:49Z</time></trkpt><trkpt lat="43.17127452175135" lon="12.944070397905518"><ele>624.0</ele><time>2026-03-28T10:30:52Z</time></trkpt><trkpt lat="43.17158609789794" lon="12.94404621994474"><ele>611.3333333333334</ele><time>2026-03-28T10:30:59Z</time></trkpt><trkpt lat="43.17167821496622" lon="12.943993111322875"><ele>598.6666666666667</ele><time>2026-03-28T10:31:01Z</time></trkpt><trkpt lat="43.171777701540634" lon="12.943984108382384"><ele>586.0</ele><time>2026-03-28T10:31:03Z</time></trkpt><trkpt lat="43.17210851382887" lon="12.943977168771362"><ele>586.0</ele><time>2026-03-28T10:31:13Z</time></trkpt><trkpt lat="43.17219076239411" lon="12.94394340602092"><ele>586.0</ele><time>2026-03-28T10:31:15Z</time></trkpt><trkpt lat="43.172257401188595" lon="12.94394756320607"><ele>586.0</ele><time>2026-03-28T10:31:18Z</time></trkpt><trkpt lat="43.172682170028395" lon="12.943952918365191"><ele>585.7142857142857</ele><time>2026-03-28T10:31:41Z</time></trkpt><trkpt lat="43.172733905761184" lon="12.944009289068978"><ele>585.4285714285714</ele><time>2026-03-28T10:31:43Z</time></trkpt><trkpt lat="43.17280923451942" lon="12.944060303320029"><ele>585.1428571428571</ele><time>2026-03-28T10:31:45Z</time></trkpt><trkpt lat="43.17279941962971" lon="12.94414647096128"><ele>584.8571428571429</ele><time>2026-03-28T10:31:51Z</time></trkpt><trkpt lat="43.17272797591141" lon="12.944172667239428"><ele>584.5714285714286</ele><time>2026-03-28T10:31:58Z</time></trkpt><trkpt lat="43.17267681782169" lon="12.944230255792087"><ele>584.2857142857142</ele><time>2026-03-28T10:32:00Z</time></trkpt><trkpt lat="43.17274793735128" lon="12.944187097048783"><ele>584.0</ele><time>2026-03-28T10:32:06Z</time></trkpt><trkpt lat="43.172825715492884" lon="12.94413872862963"><ele>584.0</ele><time>2026-03-28T10:32:08Z</time></trkpt><trkpt lat="43.17289277635549" lon="12.944079188201979"><ele>584.0</ele><time>2026-03-28T10:32:10Z</time></trkpt><trkpt lat="43.172918384080575" lon="12.943993788661139"><ele>584.0</ele><time>2026-03-28T10:32:12Z</time></trkpt><trkpt lat="43.172971241859756" lon="12.943943621902747"><ele>584.0</ele><time>2026-03-28T10:32:14Z</time></trkpt><trkpt lat="43.17303944988029" lon="12.943867906454193"><ele>584.0</ele><time>2026-03-28T10:32:17Z</time></trkpt><trkpt lat="43.173096172750014" lon="12.943817139656808"><ele>584.0</ele><time>2026-03-28T10:32:19Z</time></trkpt><trkpt lat="43.17317728410531" lon="12.943770568640312"><ele>527.0</ele><time>2026-03-28T10:32:22Z</time></trkpt><trkpt lat="43.17782030839085" lon="12.943655296626737"><ele>527.0</ele><time>2026-03-28T10:32:29Z</time></trkpt><trkpt lat="43.177820881165445" lon="12.943559960198943"><ele>527.0</ele><time>2026-03-28T10:32:39Z</time></trkpt><trkpt lat="43.17775592965421" lon="12.943542264638063"><ele>527.0</ele><time>2026-03-28T10:32:43Z</time></trkpt><trkpt lat="43.17768978546238" lon="12.943520815300692"><ele>527.0</ele><time>2026-03-28T10:32:45Z</time></trkpt><trkpt lat="43.17759273522943" lon="12.943523067211999"><ele>527.0</ele><time>2026-03-28T10:32:47Z</time></trkpt><trkpt lat="43.177477219123496" lon="12.943542388703841"><ele>527.0</ele><time>2026-03-28T10:32:49Z</time></trkpt><trkpt lat="43.17741547579978" lon="12.943561642832838"><ele>529.0</ele><time>2026-03-28T10:32:50Z</time></trkpt><trkpt lat="43.17729959325632" lon="12.943611288773678"><ele>531.0</ele><time>2026-03-28T10:32:52Z</time></trkpt><trkpt lat="43.17720797973372" lon="12.943478146354158"><ele>533.0</ele><time>2026-03-28T10:32:53Z</time></trkpt><trkpt lat="43.17711251837058" lon="12.943508782123011"><ele>535.0</ele><time>2026-03-28T10:32:55Z</time></trkpt><trkpt lat="43.17704316006413" lon="12.94351044625673"><ele>537.0</ele><time>2026-03-28T10:32:57Z</time></trkpt><trkpt lat="43.17696165335018" lon="12.943489400886813"><ele>537.0</ele><time>2026-03-28T10:33:00Z</time></trkpt><trkpt lat="43.1768989927188" lon="12.943471960567187"><ele>537.0</ele><time>2026-03-28T10:33:01Z</time></trkpt><trkpt lat="43.17678293792346" lon="12.94344266517041"><ele>537.0</ele><time>2026-03-28T10:33:03Z</time></trkpt><trkpt lat="43.17665152604723" lon="12.9434174182125"><ele>537.0</ele><time>2026-03-28T10:33:05Z</time></trkpt><trkpt lat="43.1765777025318" lon="12.94340414018567"><ele>537.0</ele><time>2026-03-28T10:33:06Z</time></trkpt><trkpt lat="43.176463680688364" lon="12.943350017267509"><ele>534.3333333333334</ele><time>2026-03-28T10:33:08Z</time></trkpt><trkpt lat="43.17638065082388" lon="12.94330850588184"><ele>531.6666666666666</ele><time>2026-03-28T10:33:09.001Z</time></trkpt><trkpt lat="43.17629645343609" lon="12.943283958669154"><ele>529.0</ele><time>2026-03-28T10:33:10.001Z</time></trkpt><trkpt lat="43.1762271860935" lon="12.943263959884806"><ele>526.3333333333333</ele><time>2026-03-28T10:33:11.001Z</time></trkpt><trkpt lat="43.1761597420493" lon="12.943241023944136"><ele>523.6666666666666</ele><time>2026-03-28T10:33:12.001Z</time></trkpt><trkpt lat="43.176095543395604" lon="12.943219191742722"><ele>521.0</ele><time>2026-03-28T10:33:13.001Z</time></trkpt><trkpt lat="43.17602264903033" lon="12.94319440232065"><ele>521.0</ele><time>2026-03-28T10:33:14.001Z</time></trkpt><trkpt lat="43.175947459498566" lon="12.943170284698649"><ele>521.0</ele><time>2026-03-28T10:33:15.001Z</time></trkpt><trkpt lat="43.175860794571314" lon="12.943145148178168"><ele>521.0</ele><time>2026-03-28T10:33:16.001Z</time></trkpt><trkpt lat="43.17579213866775" lon="12.94313120077851"><ele>521.0</ele><time>2026-03-28T10:33:17.001Z</time></trkpt><trkpt lat="43.17571182272072" lon="12.943119480382634"><ele>521.0</ele><time>2026-03-28T10:33:18.001Z</time></trkpt><trkpt lat="43.175645074739336" lon="12.943110883454574"><ele>521.0</ele><time>2026-03-28T10:33:19.001Z</time></trkpt><trkpt lat="43.175569078223056" lon="12.943093996795323"><ele>522.8333333333333</ele><time>2026-03-28T10:33:20.001Z</time></trkpt><trkpt lat="43.175484800005954" lon="12.943065106499983"><ele>524.6666666666666</ele><time>2026-03-28T10:33:21.001Z</time></trkpt><trkpt lat="43.17540567740485" lon="12.942981699486655"><ele>526.5</ele><time>2026-03-28T10:33:22.001Z</time></trkpt><trkpt lat="43.17533597206908" lon="12.942972265964015"><ele>528.3333333333334</ele><time>2026-03-28T10:33:23.001Z</time></trkpt><trkpt lat="43.17525755012426" lon="12.942951390370249"><ele>530.1666666666667</ele><time>2026-03-28T10:33:24.001Z</time></trkpt><trkpt lat="43.17517568269311" lon="12.942924880448878"><ele>532.0</ele><time>2026-03-28T10:33:25.001Z</time></trkpt><trkpt lat="43.17504520462406" lon="12.942876532058833"><ele>532.0</ele><time>2026-03-28T10:33:26.001Z</time></trkpt><trkpt lat="43.174965383467374" lon="12.942842140037829"><ele>532.0</ele><time>2026-03-28T10:33:27.001Z</time></trkpt><trkpt lat="43.17487671892189" lon="12.942819052820049"><ele>532.0</ele><time>2026-03-28T10:33:28.001Z</time></trkpt><trkpt lat="43.17479126202781" lon="12.942775737160668"><ele>532.0</ele><time>2026-03-28T10:33:29.001Z</time></trkpt><trkpt lat="43.17471565166221" lon="12.94271473641773"><ele>532.0</ele><time>2026-03-28T10:33:30.001Z</time></trkpt><trkpt lat="43.17464252689473" lon="12.94267071520042"><ele>532.0</ele><time>2026-03-28T10:33:31.001Z</time></trkpt><trkpt lat="43.174569389035796" lon="12.942621999330603"><ele>531.1428571428571</ele><time>2026-03-28T10:33:32.001Z</time></trkpt><trkpt lat="43.17449699906399" lon="12.942569041818409"><ele>530.2857142857142</ele><time>2026-03-28T10:33:33.001Z</time></trkpt><trkpt lat="43.174430381250374" lon="12.942517280783136"><ele>529.4285714285714</ele><time>2026-03-28T10:33:34.001Z</time></trkpt><trkpt lat="43.174372472343265" lon="12.942468830321872"><ele>528.5714285714286</ele><time>2026-03-28T10:33:35.001Z</time></trkpt><trkpt lat="43.17430856339732" lon="12.942414059550789"><ele>527.7142857142857</ele><time>2026-03-28T10:33:36.001Z</time></trkpt><trkpt lat="43.174256576167714" lon="12.942358882308435"><ele>526.8571428571429</ele><time>2026-03-28T10:33:37.001Z</time></trkpt><trkpt lat="43.17420537047994" lon="12.942287311459985"><ele>526.0</ele><time>2026-03-28T10:33:38.001Z</time></trkpt><trkpt lat="43.17415366971403" lon="12.942194805005487"><ele>526.0</ele><time>2026-03-28T10:33:39.001Z</time></trkpt><trkpt lat="43.1741106610479" lon="12.942101476861463"><ele>526.0</ele><time>2026-03-28T10:33:40.001Z</time></trkpt><trkpt lat="43.174067917505674" lon="12.942008724016887"><ele>526.0</ele><time>2026-03-28T10:33:41.001Z</time></trkpt><trkpt lat="43.1740292897754" lon="12.94192788587681"><ele>526.0</ele><time>2026-03-28T10:33:42.001Z</time></trkpt><trkpt lat="43.17398664060858" lon="12.941839497486823"><ele>526.0</ele><time>2026-03-28T10:33:43.001Z</time></trkpt><trkpt lat="43.17393536952172" lon="12.941745250517561"><ele>526.0</ele><time>2026-03-28T10:33:44.001Z</time></trkpt><trkpt lat="43.17386020081252" lon="12.941659843414367"><ele>527.8333333333334</ele><time>2026-03-28T10:33:46.001Z</time></trkpt><trkpt lat="43.173786031388204" lon="12.941624596516807"><ele>529.6666666666667</ele><time>2026-03-28T10:33:48.001Z</time></trkpt><trkpt lat="43.17373340576498" lon="12.941677285051131"><ele>531.5</ele><time>2026-03-28T10:33:51.001Z</time></trkpt><trkpt lat="43.17365950693192" lon="12.941683513544703"><ele>533.3333333333334</ele><time>2026-03-28T10:34:03.001Z</time></trkpt><trkpt lat="43.17362271333314" lon="12.941810786971027"><ele>535.1666666666666</ele><time>2026-03-28T10:34:06.001Z</time></trkpt><trkpt lat="43.1736310985347" lon="12.941986797583224"><ele>537.0</ele><time>2026-03-28T10:34:08.001Z</time></trkpt><trkpt lat="43.173638199151384" lon="12.942077950923464"><ele>539.0</ele><time>2026-03-28T10:34:09.001Z</time></trkpt><trkpt lat="43.173644934007655" lon="12.942168298427388"><ele>541.0</ele><time>2026-03-28T10:34:10.001Z</time></trkpt><trkpt lat="43.17351737922471" lon="12.942331992812813"><ele>543.0</ele><time>2026-03-28T10:34:11.001Z</time></trkpt><trkpt lat="43.17354488976195" lon="12.94242354174084"><ele>545.0</ele><time>2026-03-28T10:34:12.001Z</time></trkpt><trkpt lat="43.17358514097592" lon="12.942527043510507"><ele>547.0</ele><time>2026-03-28T10:34:13.001Z</time></trkpt><trkpt lat="43.17364746111657" lon="12.942632204379374"><ele>550.0</ele><time>2026-03-28T10:34:14.001Z</time></trkpt><trkpt lat="43.17369595780205" lon="12.9427010581857"><ele>553.0</ele><time>2026-03-28T10:34:15.001Z</time></trkpt><trkpt lat="43.173751903633466" lon="12.942777547775195"><ele>556.0</ele><time>2026-03-28T10:34:16.001Z</time></trkpt><trkpt lat="43.17383136713786" lon="12.94290041103468"><ele>559.0</ele><time>2026-03-28T10:34:18.001Z</time></trkpt><trkpt lat="43.173689827953" lon="12.942923870838428"><ele>562.0</ele><time>2026-03-28T10:34:26.001Z</time></trkpt><trkpt lat="43.173621869491825" lon="12.942839849570834"><ele>562.0</ele><time>2026-03-28T10:34:27.001Z</time></trkpt><trkpt lat="43.17355953398398" lon="12.942769423608567"><ele>562.0</ele><time>2026-03-28T10:34:28.001Z</time></trkpt><trkpt lat="43.17348601916981" lon="12.942687546465596"><ele>562.0</ele><time>2026-03-28T10:34:29.001Z</time></trkpt><trkpt lat="43.17339825384212" lon="12.942625395307248"><ele>562.0</ele><time>2026-03-28T10:34:30.001Z</time></trkpt><trkpt lat="43.17330882930571" lon="12.942569325037017"><ele>562.0</ele><time>2026-03-28T10:34:31.001Z</time></trkpt><trkpt lat="43.17322635988966" lon="12.942509801796612"><ele>560.8333333333334</ele><time>2026-03-28T10:34:32.001Z</time></trkpt><trkpt lat="43.173152989384526" lon="12.942454216004744"><ele>559.6666666666667</ele><time>2026-03-28T10:34:33.001Z</time></trkpt><trkpt lat="43.17308827426259" lon="12.942402079495226"><ele>558.5</ele><time>2026-03-28T10:34:34.001Z</time></trkpt><trkpt lat="43.1730143800659" lon="12.942354017727128"><ele>557.3333333333334</ele><time>2026-03-28T10:34:35.001Z</time></trkpt><trkpt lat="43.17293948481624" lon="12.94234122515248"><ele>556.1666666666666</ele><time>2026-03-28T10:34:36.001Z</time></trkpt><trkpt lat="43.17286344690997" lon="12.942346955995918"><ele>555.0</ele><time>2026-03-28T10:34:37.001Z</time></trkpt><trkpt lat="43.172799246713815" lon="12.942369723966564"><ele>555.0</ele><time>2026-03-28T10:34:38.001Z</time></trkpt><trkpt lat="43.17273053929129" lon="12.942399476219821"><ele>555.0</ele><time>2026-03-28T10:34:39.001Z</time></trkpt><trkpt lat="43.17263315634512" lon="12.942458673967533"><ele>555.0</ele><time>2026-03-28T10:34:40.001Z</time></trkpt><trkpt lat="43.17255460715518" lon="12.942519324319859"><ele>555.0</ele><time>2026-03-28T10:34:41.001Z</time></trkpt><trkpt lat="43.17248768776346" lon="12.942571660770433"><ele>555.0</ele><time>2026-03-28T10:34:42.001Z</time></trkpt><trkpt lat="43.17242303429649" lon="12.942621313540387"><ele>555.0</ele><time>2026-03-28T10:34:43.001Z</time></trkpt><trkpt lat="43.17236275307547" lon="12.94266680056671"><ele>556.6666666666666</ele><time>2026-03-28T10:34:44.001Z</time></trkpt><trkpt lat="43.172300342235744" lon="12.942730191579498"><ele>558.3333333333334</ele><time>2026-03-28T10:34:45.001Z</time></trkpt><trkpt lat="43.17222873066071" lon="12.942790044451158"><ele>560.0</ele><time>2026-03-28T10:34:46.001Z</time></trkpt><trkpt lat="43.17216014850543" lon="12.942842351118756"><ele>561.6666666666667</ele><time>2026-03-28T10:34:47.001Z</time></trkpt><trkpt lat="43.17209495879685" lon="12.942891143595753"><ele>563.3333333333334</ele><time>2026-03-28T10:34:48.001Z</time></trkpt><trkpt lat="43.17202846695864" lon="12.942942298259574"><ele>565.0</ele><time>2026-03-28T10:34:49.001Z</time></trkpt><trkpt lat="43.17195171708107" lon="12.94297605892726"><ele>565.0</ele><time>2026-03-28T10:34:50.001Z</time></trkpt><trkpt lat="43.17188602578031" lon="12.943015405631543"><ele>565.0</ele><time>2026-03-28T10:34:51.001Z</time></trkpt><trkpt lat="43.17182315815489" lon="12.943042612319411"><ele>565.0</ele><time>2026-03-28T10:34:52.001Z</time></trkpt><trkpt lat="43.17171549893802" lon="12.943035308985491"><ele>565.0</ele><time>2026-03-28T10:34:54.001Z</time></trkpt><trkpt lat="43.171640166620406" lon="12.942956038123356"><ele>565.0</ele><time>2026-03-28T10:34:56.001Z</time></trkpt><trkpt lat="43.17157369735199" lon="12.942854763309498"><ele>565.0</ele><time>2026-03-28T10:34:58.001Z</time></trkpt><trkpt lat="43.171499762094214" lon="12.9427139360342"><ele>569.1666666666667</ele><time>2026-03-28T10:35:00.001Z</time></trkpt><trkpt lat="43.17143133382133" lon="12.942574957783293"><ele>573.3333333333334</ele><time>2026-03-28T10:35:02.001Z</time></trkpt><trkpt lat="43.17139550231389" lon="12.942478281881737"><ele>577.5</ele><time>2026-03-28T10:35:03.001Z</time></trkpt><trkpt lat="43.171364660343365" lon="12.942398625758326"><ele>581.6666666666666</ele><time>2026-03-28T10:35:04.001Z</time></trkpt><trkpt lat="43.17133548320256" lon="12.942314369407029"><ele>585.8333333333333</ele><time>2026-03-28T10:35:05.001Z</time></trkpt><trkpt lat="43.17131468080485" lon="12.942211021602535"><ele>590.0</ele><time>2026-03-28T10:35:06.001Z</time></trkpt><trkpt lat="43.1712684780966" lon="12.942124904125938"><ele>590.0</ele><time>2026-03-28T10:35:07.001Z</time></trkpt><trkpt lat="43.17125488276593" lon="12.942014832021611"><ele>590.0</ele><time>2026-03-28T10:35:08.001Z</time></trkpt><trkpt lat="43.17122704818687" lon="12.94190914615241"><ele>590.0</ele><time>2026-03-28T10:35:09.001Z</time></trkpt><trkpt lat="43.171196809024146" lon="12.941804339676006"><ele>590.0</ele><time>2026-03-28T10:35:10.001Z</time></trkpt><trkpt lat="43.17117242351111" lon="12.941707610164007"><ele>590.0</ele><time>2026-03-28T10:35:11.001Z</time></trkpt><trkpt lat="43.17116271698635" lon="12.941608407620476"><ele>590.0</ele><time>2026-03-28T10:35:12.001Z</time></trkpt><trkpt lat="43.171136070523495" lon="12.941517837312254"><ele>589.5</ele><time>2026-03-28T10:35:13.001Z</time></trkpt><trkpt lat="43.17111134810362" lon="12.9414185505295"><ele>589.0</ele><time>2026-03-28T10:35:14.001Z</time></trkpt><trkpt lat="43.171086272069395" lon="12.941327564529141"><ele>588.5</ele><time>2026-03-28T10:35:15.001Z</time></trkpt><trkpt lat="43.17107939964911" lon="12.941233640140222"><ele>588.0</ele><time>2026-03-28T10:35:16.001Z</time></trkpt><trkpt lat="43.17104377399882" lon="12.941085850378201"><ele>587.5</ele><time>2026-03-28T10:35:18.001Z</time></trkpt><trkpt lat="43.17100804772396" lon="12.94094948317992"><ele>587.0</ele><time>2026-03-28T10:35:20.001Z</time></trkpt><trkpt lat="43.170980818471236" lon="12.940845549087406"><ele>586.6666666666666</ele><time>2026-03-28T10:35:22.001Z</time></trkpt><trkpt lat="43.170938865702" lon="12.940758698115035"><ele>586.3333333333333</ele><time>2026-03-28T10:35:25.001Z</time></trkpt><trkpt lat="43.170915058717135" lon="12.940671648840736"><ele>586.0</ele><time>2026-03-28T10:35:31.001Z</time></trkpt><trkpt lat="43.170972518583646" lon="12.94048462788888"><ele>585.6666666666666</ele><time>2026-03-28T10:36:06.001Z</time></trkpt><trkpt lat="43.171030741883676" lon="12.940423456596092"><ele>585.3333333333334</ele><time>2026-03-28T10:36:08.001Z</time></trkpt><trkpt lat="43.17105824060859" lon="12.940335645375642"><ele>585.0</ele><time>2026-03-28T10:36:16.001Z</time></trkpt><trkpt lat="43.17103795356441" lon="12.940238219568258"><ele>585.0</ele><time>2026-03-28T10:36:18.001Z</time></trkpt><trkpt lat="43.17100467683416" lon="12.940143914029703"><ele>585.0</ele><time>2026-03-28T10:36:20.001Z</time></trkpt><trkpt lat="43.17095124587596" lon="12.940022976330374"><ele>585.0</ele><time>2026-03-28T10:36:22.001Z</time></trkpt><trkpt lat="43.17088420128136" lon="12.93989278067337"><ele>585.0</ele><time>2026-03-28T10:36:24.001Z</time></trkpt><trkpt lat="43.170852611335015" lon="12.939726481878667"><ele>585.0</ele><time>2026-03-28T10:36:26.001Z</time></trkpt><trkpt lat="43.17082944970216" lon="12.939644765848282"><ele>586.5714285714286</ele><time>2026-03-28T10:36:27.001Z</time></trkpt><trkpt lat="43.17080168477346" lon="12.939550852284492"><ele>588.1428571428571</ele><time>2026-03-28T10:36:28.001Z</time></trkpt><trkpt lat="43.17077050215681" lon="12.939457373931516"><ele>589.7142857142857</ele><time>2026-03-28T10:36:29.001Z</time></trkpt><trkpt lat="43.170737897626296" lon="12.939362994059978"><ele>591.2857142857142</ele><time>2026-03-28T10:36:30.001Z</time></trkpt><trkpt lat="43.17070571840847" lon="12.93927212412384"><ele>592.8571428571428</ele><time>2026-03-28T10:36:31.001Z</time></trkpt><trkpt lat="43.17067804418545" lon="12.93918782328267"><ele>594.4285714285714</ele><time>2026-03-28T10:36:32.001Z</time></trkpt><trkpt lat="43.17065734135608" lon="12.93910594243909"><ele>596.0</ele><time>2026-03-28T10:36:33.001Z</time></trkpt><trkpt lat="43.17062243733556" lon="12.939032412491239"><ele>600.6666666666666</ele><time>2026-03-28T10:36:34.001Z</time></trkpt><trkpt lat="43.170570887599624" lon="12.93888309681304"><ele>605.3333333333333</ele><time>2026-03-28T10:36:36.001Z</time></trkpt><trkpt lat="43.170571176806874" lon="12.938754877934581"><ele>610.0</ele><time>2026-03-28T10:36:38.001Z</time></trkpt><trkpt lat="43.17060368838157" lon="12.938677243668765"><ele>614.6666666666666</ele><time>2026-03-28T10:36:40.001Z</time></trkpt><trkpt lat="43.17056284212812" lon="12.938601834652793"><ele>619.3333333333334</ele><time>2026-03-28T10:36:49.001Z</time></trkpt><trkpt lat="43.17059050442255" lon="12.938522022067595"><ele>624.0</ele><time>2026-03-28T10:37:09.001Z</time></trkpt><trkpt lat="43.17056922161135" lon="12.938433109917739"><ele>626.6666666666666</ele><time>2026-03-28T10:37:14.001Z</time></trkpt><trkpt lat="43.17055147636392" lon="12.938337777817138"><ele>629.3333333333334</ele><time>2026-03-28T10:37:21.002Z</time></trkpt><trkpt lat="43.170620121800305" lon="12.938291082098482"><ele>632.0</ele><time>2026-03-28T10:37:23.002Z</time></trkpt><trkpt lat="43.1706838346783" lon="12.93826882357897"><ele>634.6666666666667</ele><time>2026-03-28T10:37:25.002Z</time></trkpt><trkpt lat="43.17072742574181" lon="12.938194148342342"><ele>637.3333333333334</ele><time>2026-03-28T10:37:27.002Z</time></trkpt><trkpt lat="43.170808917398546" lon="12.938136796794426"><ele>640.0</ele><time>2026-03-28T10:37:29.002Z</time></trkpt><trkpt lat="43.170854289119795" lon="12.938042293032188"><ele>640.0</ele><time>2026-03-28T10:37:31Z</time></trkpt><trkpt lat="43.17085591621348" lon="12.937954841010713"><ele>640.0</ele><time>2026-03-28T10:37:33Z</time></trkpt><trkpt lat="43.17085132967356" lon="12.93786849396586"><ele>640.0</ele><time>2026-03-28T10:37:35Z</time></trkpt><trkpt lat="43.17085040721531" lon="12.937755932021757"><ele>640.0</ele><time>2026-03-28T10:37:37Z</time></trkpt><trkpt lat="43.17084422921102" lon="12.937651688027781"><ele>640.0</ele><time>2026-03-28T10:37:39Z</time></trkpt><trkpt lat="43.17083164750075" lon="12.937526408226548"><ele>640.0</ele><time>2026-03-28T10:37:41Z</time></trkpt><trkpt lat="43.170831229480726" lon="12.937435755764005"><ele>640.0</ele><time>2026-03-28T10:37:43Z</time></trkpt><trkpt lat="43.17083140272728" lon="12.93734717518952"><ele>644.0</ele><time>2026-03-28T10:37:45Z</time></trkpt><trkpt lat="43.17083084909872" lon="12.937225186049204"><ele>648.0</ele><time>2026-03-28T10:37:48Z</time></trkpt><trkpt lat="43.17079198378069" lon="12.937141410334378"><ele>652.0</ele><time>2026-03-28T10:37:50Z</time></trkpt><trkpt lat="43.17080871491235" lon="12.937039499631465"><ele>656.0</ele><time>2026-03-28T10:37:59Z</time></trkpt><trkpt lat="43.170844647759395" lon="12.936952151608752"><ele>660.0</ele><time>2026-03-28T10:38:02.001Z</time></trkpt><trkpt lat="43.17083001068613" lon="12.936864565257007"><ele>664.0</ele><time>2026-03-28T10:38:05.001Z</time></trkpt><trkpt lat="43.17088916180529" lon="12.936793409349562"><ele>667.6</ele><time>2026-03-28T10:38:11.001Z</time></trkpt><trkpt lat="43.170945508991586" lon="12.936667130778075"><ele>671.2</ele><time>2026-03-28T10:38:14.001Z</time></trkpt><trkpt lat="43.171022438792505" lon="12.936540987534032"><ele>674.8000000000001</ele><time>2026-03-28T10:38:16.001Z</time></trkpt><trkpt lat="43.171073071715846" lon="12.936393698688669"><ele>678.4000000000001</ele><time>2026-03-28T10:38:18.001Z</time></trkpt><trkpt lat="43.171118294512716" lon="12.93627953780796"><ele>682.0</ele><time>2026-03-28T10:38:20.001Z</time></trkpt><trkpt lat="43.17117900288605" lon="12.936161464742938"><ele>682.0</ele><time>2026-03-28T10:38:22.001Z</time></trkpt><trkpt lat="43.17122965116123" lon="12.936072380248225"><ele>682.0</ele><time>2026-03-28T10:38:24Z</time></trkpt><trkpt lat="43.17126793074049" lon="12.93596777685762"><ele>682.0</ele><time>2026-03-28T10:38:26Z</time></trkpt><trkpt lat="43.17129573810626" lon="12.93588183235574"><ele>682.0</ele><time>2026-03-28T10:38:47Z</time></trkpt><trkpt lat="43.17133668844494" lon="12.93578225752217"><ele>682.0</ele><time>2026-03-28T10:38:51Z</time></trkpt><trkpt lat="43.17143683436334" lon="12.935721308524071"><ele>682.0</ele><time>2026-03-28T10:39:09Z</time></trkpt><trkpt lat="43.171538762412936" lon="12.93566159433301"><ele>689.3333333333334</ele><time>2026-03-28T10:39:13Z</time></trkpt><trkpt lat="43.171607906647736" lon="12.935627285726053"><ele>696.6666666666666</ele><time>2026-03-28T10:39:17Z</time></trkpt><trkpt lat="43.17172887268234" lon="12.935517435634914"><ele>704.0</ele><time>2026-03-28T10:39:22Z</time></trkpt><trkpt lat="43.17204057746658" lon="12.935109826968745"><ele>704.0</ele><time>2026-03-28T10:39:29Z</time></trkpt><trkpt lat="43.172119489169916" lon="12.935111132027497"><ele>704.0</ele><time>2026-03-28T10:39:31Z</time></trkpt><trkpt lat="43.17205197453537" lon="12.935093951407254"><ele>704.0</ele><time>2026-03-28T10:39:33Z</time></trkpt><trkpt lat="43.17196354647825" lon="12.935137778699616"><ele>704.0</ele><time>2026-03-28T10:39:36Z</time></trkpt><trkpt lat="43.17188665487258" lon="12.935197672067122"><ele>704.0</ele><time>2026-03-28T10:39:38Z</time></trkpt><trkpt lat="43.17187775766832" lon="12.935287259720265"><ele>704.0</ele><time>2026-03-28T10:39:44Z</time></trkpt><trkpt lat="43.171833472226815" lon="12.935381399858676"><ele>704.0</ele><time>2026-03-28T10:40:13Z</time></trkpt><trkpt lat="43.17176732382806" lon="12.935400886030568"><ele>704.0</ele><time>2026-03-28T10:40:22Z</time></trkpt><trkpt lat="43.17163823677846" lon="12.93511817939019"><ele>704.0</ele><time>2026-03-28T10:40:28Z</time></trkpt><trkpt lat="43.17158264459983" lon="12.934969446280178"><ele>704.0</ele><time>2026-03-28T10:40:37Z</time></trkpt><trkpt lat="43.17151892150314" lon="12.934866269665338"><ele>703.8571428571429</ele><time>2026-03-28T10:40:40Z</time></trkpt><trkpt lat="43.17146750655853" lon="12.934804823871707"><ele>703.7142857142857</ele><time>2026-03-28T10:40:45Z</time></trkpt><trkpt lat="43.171426103644805" lon="12.93472848956772"><ele>703.5714285714286</ele><time>2026-03-28T10:40:49Z</time></trkpt><trkpt lat="43.1713777016632" lon="12.934791013121817"><ele>703.4285714285714</ele><time>2026-03-28T10:41:03Z</time></trkpt><trkpt lat="43.17136605275818" lon="12.93488195002002"><ele>703.2857142857143</ele><time>2026-03-28T10:41:08Z</time></trkpt><trkpt lat="43.17133493568138" lon="12.934960716188199"><ele>703.1428571428571</ele><time>2026-03-28T10:41:36Z</time></trkpt><trkpt lat="43.171294107119984" lon="12.935041129116138"><ele>703.0</ele><time>2026-03-28T10:41:44.001Z</time></trkpt><trkpt lat="43.17126764666204" lon="12.93514196545124"><ele>703.0</ele><time>2026-03-28T10:41:47.001Z</time></trkpt><trkpt lat="43.171233535915334" lon="12.935243034944241"><ele>703.0</ele><time>2026-03-28T10:41:49.001Z</time></trkpt><trkpt lat="43.17121680510424" lon="12.935331294132004"><ele>703.0</ele><time>2026-03-28T10:41:51.001Z</time></trkpt><trkpt lat="43.17123035438912" lon="12.935420744170408"><ele>703.0</ele><time>2026-03-28T10:41:54.001Z</time></trkpt><trkpt lat="43.17123833589187" lon="12.935510154962467"><ele>703.0</ele><time>2026-03-28T10:41:57.001Z</time></trkpt><trkpt lat="43.17121625876289" lon="12.935599314968439"><ele>703.0</ele><time>2026-03-28T10:41:59.001Z</time></trkpt><trkpt lat="43.171170672784505" lon="12.935659560638769"><ele>703.0</ele><time>2026-03-28T10:42:01.001Z</time></trkpt><trkpt lat="43.17112170587834" lon="12.935748292122712"><ele>703.0</ele><time>2026-03-28T10:42:03.001Z</time></trkpt><trkpt lat="43.171145080684724" lon="12.935842888752116"><ele>703.0</ele><time>2026-03-28T10:42:06.001Z</time></trkpt><trkpt lat="43.17116765807987" lon="12.935964500954748"><ele>703.0</ele><time>2026-03-28T10:42:08.001Z</time></trkpt><trkpt lat="43.17120516898919" lon="12.936069599790494"><ele>703.0</ele><time>2026-03-28T10:42:10.001Z</time></trkpt><trkpt lat="43.17126677791955" lon="12.936161350637192"><ele>703.0</ele><time>2026-03-28T10:42:13.001Z</time></trkpt><trkpt lat="43.17130031998806" lon="12.936253476576688"><ele>703.0</ele><time>2026-03-28T10:42:16.001Z</time></trkpt><trkpt lat="43.17131668520594" lon="12.93634853059918"><ele>698.8</ele><time>2026-03-28T10:42:18.001Z</time></trkpt><trkpt lat="43.1713429097102" lon="12.936456114034867"><ele>694.5999999999999</ele><time>2026-03-28T10:42:20.001Z</time></trkpt><trkpt lat="43.171348340956214" lon="12.936565254771702"><ele>690.4000000000001</ele><time>2026-03-28T10:42:23.001Z</time></trkpt><trkpt lat="43.17134517079577" lon="12.936686047292147"><ele>686.2</ele><time>2026-03-28T10:42:25.001Z</time></trkpt><trkpt lat="43.17133165682156" lon="12.936805216046265"><ele>682.0</ele><time>2026-03-28T10:42:27.001Z</time></trkpt><trkpt lat="43.17132733892731" lon="12.937006844468641"><ele>678.4000000000001</ele><time>2026-03-28T10:42:29.001Z</time></trkpt><trkpt lat="43.171345249788814" lon="12.937100080342095"><ele>674.8000000000001</ele><time>2026-03-28T10:42:30.001Z</time></trkpt><trkpt lat="43.171363319745076" lon="12.937216126536851"><ele>671.2</ele><time>2026-03-28T10:42:32.001Z</time></trkpt><trkpt lat="43.17133984219438" lon="12.9373301860889"><ele>667.6</ele><time>2026-03-28T10:42:34.001Z</time></trkpt><trkpt lat="43.17129933786039" lon="12.937437998341867"><ele>664.0</ele><time>2026-03-28T10:42:37.001Z</time></trkpt><trkpt lat="43.17121319437658" lon="12.93772016375356"><ele>660.0</ele><time>2026-03-28T10:42:39.001Z</time></trkpt><trkpt lat="43.171193561887776" lon="12.937844130710173"><ele>656.0</ele><time>2026-03-28T10:42:41.001Z</time></trkpt><trkpt lat="43.171184681923386" lon="12.93796127603269"><ele>652.0</ele><time>2026-03-28T10:42:43.001Z</time></trkpt><trkpt lat="43.17114960611222" lon="12.938042584334744"><ele>648.0</ele><time>2026-03-28T10:42:52.001Z</time></trkpt><trkpt lat="43.171106208858106" lon="12.938139744313336"><ele>644.0</ele><time>2026-03-28T10:42:56.001Z</time></trkpt><trkpt lat="43.17105349044641" lon="12.938234723819285"><ele>640.0</ele><time>2026-03-28T10:42:59.001Z</time></trkpt><trkpt lat="43.17103789344095" lon="12.938334153637392"><ele>637.7142857142857</ele><time>2026-03-28T10:43:03.001Z</time></trkpt><trkpt lat="43.17099355304172" lon="12.93839616230903"><ele>635.4285714285714</ele><time>2026-03-28T10:43:10.001Z</time></trkpt><trkpt lat="43.1709660474532" lon="12.93848228410535"><ele>633.1428571428571</ele><time>2026-03-28T10:43:17.001Z</time></trkpt><trkpt lat="43.17089294788898" lon="12.938480650127692"><ele>630.8571428571429</ele><time>2026-03-28T10:43:24.001Z</time></trkpt><trkpt lat="43.17082150144444" lon="12.93849135430539"><ele>628.5714285714286</ele><time>2026-03-28T10:43:33.001Z</time></trkpt><trkpt lat="43.17073793278566" lon="12.93849778540926"><ele>626.2857142857143</ele><time>2026-03-28T10:43:37.001Z</time></trkpt><trkpt lat="43.17066770942196" lon="12.938505719969832"><ele>624.0</ele><time>2026-03-28T10:43:39.001Z</time></trkpt><trkpt lat="43.1705858757462" lon="12.93851681873455"><ele>624.0</ele><time>2026-03-28T10:43:41.001Z</time></trkpt><trkpt lat="43.17051229795984" lon="12.938508381083688"><ele>624.0</ele><time>2026-03-28T10:43:43.001Z</time></trkpt><trkpt lat="43.17042781810045" lon="12.938497247704468"><ele>624.0</ele><time>2026-03-28T10:43:45.001Z</time></trkpt><trkpt lat="43.170336673497616" lon="12.93846923691471"><ele>624.0</ele><time>2026-03-28T10:43:47.001Z</time></trkpt><trkpt lat="43.17023791069703" lon="12.938439541675194"><ele>624.0</ele><time>2026-03-28T10:43:49.001Z</time></trkpt><trkpt lat="43.170137876327644" lon="12.938416343725287"><ele>624.0</ele><time>2026-03-28T10:43:51.001Z</time></trkpt><trkpt lat="43.170070331743574" lon="12.938401395200387"><ele>624.0</ele><time>2026-03-28T10:43:53.001Z</time></trkpt><trkpt lat="43.16998096304289" lon="12.93837148138977"><ele>624.0</ele><time>2026-03-28T10:43:55.001Z</time></trkpt><trkpt lat="43.169889254944884" lon="12.938341831323905"><ele>624.0</ele><time>2026-03-28T10:43:57.001Z</time></trkpt><trkpt lat="43.16978404728915" lon="12.938306139181044"><ele>624.0</ele><time>2026-03-28T10:43:59.001Z</time></trkpt><trkpt lat="43.16972139251798" lon="12.938287574022548"><ele>624.0</ele><time>2026-03-28T10:44:00.001Z</time></trkpt><trkpt lat="43.169651361069995" lon="12.938265519154541"><ele>633.8</ele><time>2026-03-28T10:44:01.001Z</time></trkpt><trkpt lat="43.16958276072864" lon="12.938242694798246"><ele>643.5999999999999</ele><time>2026-03-28T10:44:02.001Z</time></trkpt><trkpt lat="43.169468112432334" lon="12.93819906520559"><ele>653.4</ele><time>2026-03-28T10:44:04.001Z</time></trkpt><trkpt lat="43.169359873431766" lon="12.93814537924775"><ele>663.1999999999999</ele><time>2026-03-28T10:44:05.001Z</time></trkpt><trkpt lat="43.169292153350554" lon="12.938112448717433"><ele>673.0</ele><time>2026-03-28T10:44:06.001Z</time></trkpt><trkpt lat="43.16919584405815" lon="12.938077358817589"><ele>673.0</ele><time>2026-03-28T10:44:08.001Z</time></trkpt><trkpt lat="43.16910681627394" lon="12.93804189579229"><ele>673.0</ele><time>2026-03-28T10:44:10.001Z</time></trkpt><trkpt lat="43.1689893904729" lon="12.937977047769879"><ele>673.0</ele><time>2026-03-28T10:44:12.001Z</time></trkpt><trkpt lat="43.16890064565879" lon="12.937932219100164"><ele>673.0</ele><time>2026-03-28T10:44:14.001Z</time></trkpt><trkpt lat="43.16882119659726" lon="12.93790003215202"><ele>673.0</ele><time>2026-03-28T10:44:16.001Z</time></trkpt><trkpt lat="43.168753819478454" lon="12.937887322096376"><ele>675.6666666666667</ele><time>2026-03-28T10:44:18.001Z</time></trkpt><trkpt lat="43.16867915031661" lon="12.937883254355729"><ele>678.3333333333334</ele><time>2026-03-28T10:44:20.001Z</time></trkpt><trkpt lat="43.168593686387815" lon="12.937874150963355"><ele>681.0</ele><time>2026-03-28T10:44:22.001Z</time></trkpt><trkpt lat="43.16849911477912" lon="12.937865167849482"><ele>683.6666666666666</ele><time>2026-03-28T10:44:24.001Z</time></trkpt><trkpt lat="43.168433450408465" lon="12.937850352709514"><ele>686.3333333333333</ele><time>2026-03-28T10:44:25.001Z</time></trkpt><trkpt lat="43.16837031159977" lon="12.937838285530011"><ele>689.0</ele><time>2026-03-28T10:44:26.001Z</time></trkpt><trkpt lat="43.16829317903105" lon="12.937818569510185"><ele>689.0</ele><time>2026-03-28T10:44:27.001Z</time></trkpt><trkpt lat="43.16822317908566" lon="12.93780195847342"><ele>689.0</ele><time>2026-03-28T10:44:28.001Z</time></trkpt><trkpt lat="43.168156813882014" lon="12.937788120551367"><ele>689.0</ele><time>2026-03-28T10:44:29.001Z</time></trkpt><trkpt lat="43.16804195011795" lon="12.937766448472098"><ele>689.0</ele><time>2026-03-28T10:44:31.001Z</time></trkpt><trkpt lat="43.16795053960891" lon="12.937754726692425"><ele>689.0</ele><time>2026-03-28T10:44:33.001Z</time></trkpt><trkpt lat="43.16787576860304" lon="12.937744578911563"><ele>689.0</ele><time>2026-03-28T10:44:35.001Z</time></trkpt><trkpt lat="43.16780236526603" lon="12.937736686821458"><ele>692.1666666666666</ele><time>2026-03-28T10:44:38Z</time></trkpt><trkpt lat="43.167737206315856" lon="12.937715263256278"><ele>695.3333333333333</ele><time>2026-03-28T10:44:50Z</time></trkpt><trkpt lat="43.16765664261792" lon="12.937705879075656"><ele>698.5</ele><time>2026-03-28T10:44:55Z</time></trkpt><trkpt lat="43.167579482100294" lon="12.937693220909114"><ele>701.6666666666666</ele><time>2026-03-28T10:44:59Z</time></trkpt><trkpt lat="43.16749838033652" lon="12.937679185743272"><ele>704.8333333333334</ele><time>2026-03-28T10:45:02Z</time></trkpt><trkpt lat="43.16742952279423" lon="12.937662107678765"><ele>708.0</ele><time>2026-03-28T10:45:04Z</time></trkpt><trkpt lat="43.16735555463325" lon="12.937623125053705"><ele>711.8333333333334</ele><time>2026-03-28T10:45:08Z</time></trkpt><trkpt lat="43.16729328313111" lon="12.937586949582272"><ele>715.6666666666666</ele><time>2026-03-28T10:45:12Z</time></trkpt><trkpt lat="43.16722905992531" lon="12.937550072513988"><ele>719.5</ele><time>2026-03-28T10:45:15Z</time></trkpt><trkpt lat="43.16715043421556" lon="12.93751739816528"><ele>723.3333333333333</ele><time>2026-03-28T10:45:18Z</time></trkpt><trkpt lat="43.16708900201618" lon="12.937488060588423"><ele>727.1666666666666</ele><time>2026-03-28T10:45:23Z</time></trkpt><trkpt lat="43.1670684631749" lon="12.937398764515862"><ele>731.0</ele><time>2026-03-28T10:45:29Z</time></trkpt><trkpt lat="43.16715462836107" lon="12.937325253467316"><ele>732.2857142857142</ele><time>2026-03-28T10:46:25Z</time></trkpt><trkpt lat="43.16722591331881" lon="12.937371014898714"><ele>733.5714285714286</ele><time>2026-03-28T10:46:31Z</time></trkpt><trkpt lat="43.16729328480075" lon="12.937404654768011"><ele>734.8571428571429</ele><time>2026-03-28T10:46:35Z</time></trkpt><trkpt lat="43.16736796752388" lon="12.937436555420586"><ele>736.1428571428571</ele><time>2026-03-28T10:46:39Z</time></trkpt><trkpt lat="43.16744174671284" lon="12.93743852648661"><ele>737.4285714285714</ele><time>2026-03-28T10:46:43Z</time></trkpt><trkpt lat="43.167509110216194" lon="12.937447258990966"><ele>738.7142857142857</ele><time>2026-03-28T10:46:47Z</time></trkpt><trkpt lat="43.16758109824558" lon="12.937451390875445"><ele>740.0</ele><time>2026-03-28T10:46:50Z</time></trkpt><trkpt lat="43.16764569213101" lon="12.937475863139275"><ele>740.0</ele><time>2026-03-28T10:46:53Z</time></trkpt><trkpt lat="43.1677117633509" lon="12.937504893926398"><ele>740.0</ele><time>2026-03-28T10:46:56Z</time></trkpt><trkpt lat="43.167773105784455" lon="12.937525322471023"><ele>740.0</ele><time>2026-03-28T10:46:59.001Z</time></trkpt><trkpt lat="43.16784853606946" lon="12.937573636777945"><ele>740.0</ele><time>2026-03-28T10:47:03.001Z</time></trkpt><trkpt lat="43.168031679411115" lon="12.937571628874917"><ele>740.0</ele><time>2026-03-28T10:47:08.001Z</time></trkpt><trkpt lat="43.16810017639728" lon="12.937589718442588"><ele>734.6666666666666</ele><time>2026-03-28T10:47:10.001Z</time></trkpt><trkpt lat="43.16816561011715" lon="12.937622005249317"><ele>729.3333333333333</ele><time>2026-03-28T10:47:12.001Z</time></trkpt><trkpt lat="43.1682449156381" lon="12.937645669984578"><ele>724.0</ele><time>2026-03-28T10:47:14.001Z</time></trkpt><trkpt lat="43.16831833148572" lon="12.937662153742966"><ele>718.6666666666666</ele><time>2026-03-28T10:47:16.001Z</time></trkpt><trkpt lat="43.1683940091929" lon="12.93769341491659"><ele>713.3333333333334</ele><time>2026-03-28T10:47:19.001Z</time></trkpt><trkpt lat="43.168472854095995" lon="12.937726559560407"><ele>708.0</ele><time>2026-03-28T10:47:22.001Z</time></trkpt><trkpt lat="43.16854481453194" lon="12.93777494712449"><ele>704.8333333333334</ele><time>2026-03-28T10:47:25.001Z</time></trkpt><trkpt lat="43.16861148343806" lon="12.937814656793359"><ele>701.6666666666666</ele><time>2026-03-28T10:47:27.001Z</time></trkpt><trkpt lat="43.16868784448955" lon="12.9378435218247"><ele>698.5</ele><time>2026-03-28T10:47:30.001Z</time></trkpt><trkpt lat="43.16875720208866" lon="12.937844004899178"><ele>695.3333333333333</ele><time>2026-03-28T10:47:34.001Z</time></trkpt><trkpt lat="43.16883391809433" lon="12.937850226073637"><ele>692.1666666666666</ele><time>2026-03-28T10:47:36.001Z</time></trkpt><trkpt lat="43.16892266991384" lon="12.937841995532462"><ele>689.0</ele><time>2026-03-28T10:47:38.001Z</time></trkpt><trkpt lat="43.169040925456585" lon="12.937829556742368"><ele>686.3333333333333</ele><time>2026-03-28T10:47:40.001Z</time></trkpt><trkpt lat="43.16911155758164" lon="12.93780972282034"><ele>683.6666666666666</ele><time>2026-03-28T10:47:42.001Z</time></trkpt><trkpt lat="43.1691808290571" lon="12.93778502310916"><ele>681.0</ele><time>2026-03-28T10:47:44.001Z</time></trkpt><trkpt lat="43.16926812126783" lon="12.937781348658957"><ele>678.3333333333334</ele><time>2026-03-28T10:47:49.001Z</time></trkpt><trkpt lat="43.169357520636716" lon="12.937811456262404"><ele>675.6666666666667</ele><time>2026-03-28T10:47:52.001Z</time></trkpt><trkpt lat="43.169431741377096" lon="12.937821366184496"><ele>673.0</ele><time>2026-03-28T10:47:54.001Z</time></trkpt><trkpt lat="43.169499172936284" lon="12.93783234017553"><ele>673.0</ele><time>2026-03-28T10:47:56.001Z</time></trkpt><trkpt lat="43.16967993157008" lon="12.937879019000153"><ele>673.0</ele><time>2026-03-28T10:48:03.001Z</time></trkpt><trkpt lat="43.169731630585595" lon="12.937953286511855"><ele>673.0</ele><time>2026-03-28T10:48:04.001Z</time></trkpt><trkpt lat="43.16977040484476" lon="12.938025076357862"><ele>673.0</ele><time>2026-03-28T10:48:06.001Z</time></trkpt><trkpt lat="43.16970395623476" lon="12.93808500223975"><ele>673.0</ele><time>2026-03-28T10:48:18.001Z</time></trkpt><trkpt lat="43.16977259740821" lon="12.938203546225974"><ele>673.0</ele><time>2026-03-28T10:48:26.001Z</time></trkpt><trkpt lat="43.16980285434079" lon="12.9382916116009"><ele>673.0</ele><time>2026-03-28T10:48:30.001Z</time></trkpt><trkpt lat="43.16986138162556" lon="12.938344480702721"><ele>673.0</ele><time>2026-03-28T10:48:39.001Z</time></trkpt><trkpt lat="43.16990122243058" lon="12.938413436565712"><ele>673.0</ele><time>2026-03-28T10:48:51.001Z</time></trkpt><trkpt lat="43.17002330195326" lon="12.93847750679495"><ele>673.0</ele><time>2026-03-28T10:49:41.001Z</time></trkpt><trkpt lat="43.17009624970971" lon="12.938488863943876"><ele>673.0</ele><time>2026-03-28T10:49:44.001Z</time></trkpt><trkpt lat="43.1701870949849" lon="12.938558966175124"><ele>664.8333333333334</ele><time>2026-03-28T10:49:47.001Z</time></trkpt><trkpt lat="43.1702629925377" lon="12.938617771662809"><ele>656.6666666666667</ele><time>2026-03-28T10:49:49.001Z</time></trkpt><trkpt lat="43.170329230153804" lon="12.938661588030048"><ele>648.5</ele><time>2026-03-28T10:49:51.001Z</time></trkpt><trkpt lat="43.17039241608691" lon="12.9387027667693"><ele>640.3333333333334</ele><time>2026-03-28T10:49:53.001Z</time></trkpt><trkpt lat="43.170469213850005" lon="12.938674721228539"><ele>632.1666666666666</ele><time>2026-03-28T10:49:56.001Z</time></trkpt><trkpt lat="43.17054765821153" lon="12.93865362945494"><ele>624.0</ele><time>2026-03-28T10:49:59.001Z</time></trkpt><trkpt lat="43.170624054492556" lon="12.938655237323298"><ele>623.0</ele><time>2026-03-28T10:50:01.001Z</time></trkpt><trkpt lat="43.17071484971662" lon="12.938681090673454"><ele>622.0</ele><time>2026-03-28T10:50:03.001Z</time></trkpt><trkpt lat="43.17080002511549" lon="12.93868824090255"><ele>621.0</ele><time>2026-03-28T10:50:05.001Z</time></trkpt><trkpt lat="43.17086947011636" lon="12.938660538701333"><ele>620.0</ele><time>2026-03-28T10:50:07.001Z</time></trkpt><trkpt lat="43.17095014202072" lon="12.938643820063591"><ele>619.0</ele><time>2026-03-28T10:50:10.001Z</time></trkpt><trkpt lat="43.17102295055102" lon="12.938625817727702"><ele>618.0</ele><time>2026-03-28T10:50:14.001Z</time></trkpt><trkpt lat="43.17113951846876" lon="12.938583481358101"><ele>618.0</ele><time>2026-03-28T10:50:20.001Z</time></trkpt><trkpt lat="43.17122181176292" lon="12.938546054932555"><ele>618.0</ele><time>2026-03-28T10:50:22.001Z</time></trkpt><trkpt lat="43.1713708044106" lon="12.938522044034062"><ele>618.0</ele><time>2026-03-28T10:50:26.001Z</time></trkpt><trkpt lat="43.17145366651788" lon="12.938515492015423"><ele>618.0</ele><time>2026-03-28T10:50:28.001Z</time></trkpt><trkpt lat="43.17154472384608" lon="12.938480636198245"><ele>618.0</ele><time>2026-03-28T10:50:32.001Z</time></trkpt><trkpt lat="43.17160946128839" lon="12.938459491876797"><ele>615.0</ele><time>2026-03-28T10:50:35.001Z</time></trkpt><trkpt lat="43.171808586210894" lon="12.938407484915443"><ele>612.0</ele><time>2026-03-28T10:50:58.002Z</time></trkpt><trkpt lat="43.17187611847876" lon="12.938316778677933"><ele>609.0</ele><time>2026-03-28T10:51:02.002Z</time></trkpt><trkpt lat="43.171959820560716" lon="12.938256385456054"><ele>606.0</ele><time>2026-03-28T10:51:04.002Z</time></trkpt><trkpt lat="43.17203350772527" lon="12.93822806101984"><ele>609.4</ele><time>2026-03-28T10:51:05.002Z</time></trkpt><trkpt lat="43.17209688716812" lon="12.93820408980169"><ele>612.8</ele><time>2026-03-28T10:51:06.002Z</time></trkpt><trkpt lat="43.172204533092504" lon="12.938128865755235"><ele>616.1999999999999</ele><time>2026-03-28T10:51:08.002Z</time></trkpt><trkpt lat="43.17230645959051" lon="12.938056743805694"><ele>619.6</ele><time>2026-03-28T10:51:10.002Z</time></trkpt><trkpt lat="43.17239458663252" lon="12.938023074370829"><ele>623.0</ele><time>2026-03-28T10:51:12.002Z</time></trkpt><trkpt lat="43.172498941461136" lon="12.938001463029138"><ele>623.0</ele><time>2026-03-28T10:51:14.002Z</time></trkpt><trkpt lat="43.17260868512858" lon="12.93796751062548"><ele>623.0</ele><time>2026-03-28T10:51:16.002Z</time></trkpt><trkpt lat="43.172670035122366" lon="12.937934478276073"><ele>623.0</ele><time>2026-03-28T10:51:17.002Z</time></trkpt><trkpt lat="43.17273903352959" lon="12.937909422272266"><ele>623.0</ele><time>2026-03-28T10:51:18.002Z</time></trkpt><trkpt lat="43.172809566211384" lon="12.937865305984449"><ele>623.0</ele><time>2026-03-28T10:51:19.002Z</time></trkpt><trkpt lat="43.17286121069386" lon="12.937813815364581"><ele>623.0</ele><time>2026-03-28T10:51:20.002Z</time></trkpt><trkpt lat="43.172946548222235" lon="12.93774013870641"><ele>623.0</ele><time>2026-03-28T10:51:22.002Z</time></trkpt><trkpt lat="43.173052760683035" lon="12.937830583853916"><ele>623.0</ele><time>2026-03-28T10:51:26.002Z</time></trkpt><trkpt lat="43.17311020805023" lon="12.937879207774351"><ele>623.0</ele><time>2026-03-28T10:51:27.002Z</time></trkpt><trkpt lat="43.17320899390034" lon="12.937938363574672"><ele>623.0</ele><time>2026-03-28T10:51:29.002Z</time></trkpt><trkpt lat="43.17346548619974" lon="12.937884412686556"><ele>617.6666666666666</ele><time>2026-03-28T10:51:42.002Z</time></trkpt><trkpt lat="43.17367918820961" lon="12.937870557942666"><ele>612.3333333333334</ele><time>2026-03-28T10:51:59Z</time></trkpt><trkpt lat="43.17374359126536" lon="12.937915901675742"><ele>607.0</ele><time>2026-03-28T10:52:06.001Z</time></trkpt><trkpt lat="43.17404596338457" lon="12.937927430346301"><ele>605.0</ele><time>2026-03-28T10:52:18.001Z</time></trkpt><trkpt lat="43.17411388081976" lon="12.937899592610458"><ele>603.0</ele><time>2026-03-28T10:52:21.001Z</time></trkpt><trkpt lat="43.17418561077458" lon="12.937907139267471"><ele>601.0</ele><time>2026-03-28T10:52:25Z</time></trkpt><trkpt lat="43.17427514484484" lon="12.937967312654267"><ele>599.0</ele><time>2026-03-28T10:52:28Z</time></trkpt><trkpt lat="43.174360360674555" lon="12.937995339467324"><ele>597.0</ele><time>2026-03-28T10:52:31Z</time></trkpt><trkpt lat="43.17450872157243" lon="12.93799778418849"><ele>597.0</ele><time>2026-03-28T10:52:40Z</time></trkpt><trkpt lat="43.174578817445244" lon="12.937964440860513"><ele>597.0</ele><time>2026-03-28T10:52:43Z</time></trkpt><trkpt lat="43.17464957712571" lon="12.937931172914602"><ele>597.0</ele><time>2026-03-28T10:52:46Z</time></trkpt><trkpt lat="43.174715048351345" lon="12.937903810960135"><ele>597.0</ele><time>2026-03-28T10:52:49Z</time></trkpt><trkpt lat="43.175011468326645" lon="12.937891949165154"><ele>597.0</ele><time>2026-03-28T10:53:06Z</time></trkpt><trkpt lat="43.175290167314344" lon="12.937879734792483"><ele>597.0</ele><time>2026-03-28T10:53:57Z</time></trkpt><trkpt lat="43.17535585850492" lon="12.937870692914236"><ele>597.0</ele><time>2026-03-28T10:54:01Z</time></trkpt><trkpt lat="43.17542848083355" lon="12.93784506987301"><ele>597.0</ele><time>2026-03-28T10:54:04Z</time></trkpt><trkpt lat="43.17549030649633" lon="12.937787517181526"><ele>597.0000000000001</ele><time>2026-03-28T10:54:07Z</time></trkpt><trkpt lat="43.175566471561645" lon="12.9377449585771"><ele>597.0</ele><time>2026-03-28T10:54:11Z</time></trkpt><trkpt lat="43.17561856592485" lon="12.937686089716964"><ele>597.0</ele><time>2026-03-28T10:54:16Z</time></trkpt><trkpt lat="43.175671770371785" lon="12.937599992729679"><ele>597.0</ele><time>2026-03-28T10:54:19Z</time></trkpt><trkpt lat="43.175693390879786" lon="12.937515972920053"><ele>597.0</ele><time>2026-03-28T10:54:22Z</time></trkpt><trkpt lat="43.175754450833125" lon="12.937494870964326"><ele>597.0000000000001</ele><time>2026-03-28T10:54:30Z</time></trkpt><trkpt lat="43.175755509437515" lon="12.937394894637453"><ele>597.0</ele><time>2026-03-28T10:54:46Z</time></trkpt><trkpt lat="43.175679617418915" lon="12.937414744676822"><ele>597.0</ele><time>2026-03-28T10:54:49Z</time></trkpt><trkpt lat="43.175615954663854" lon="12.937424327635696"><ele>597.0</ele><time>2026-03-28T10:54:51Z</time></trkpt><trkpt lat="43.17553341706206" lon="12.937456467630238"><ele>597.0</ele><time>2026-03-28T10:54:53Z</time></trkpt><trkpt lat="43.17544920760461" lon="12.937493960375706"><ele>597.0</ele><time>2026-03-28T10:54:55Z</time></trkpt><trkpt lat="43.17535305977756" lon="12.937555167518218"><ele>597.0</ele><time>2026-03-28T10:54:57Z</time></trkpt><trkpt lat="43.17524656316176" lon="12.937614972883223"><ele>597.0000000000001</ele><time>2026-03-28T10:54:59Z</time></trkpt><trkpt lat="43.175183234780434" lon="12.937642329281575"><ele>597.0</ele><time>2026-03-28T10:55:01Z</time></trkpt><trkpt lat="43.17512094106877" lon="12.937655413365313"><ele>597.0</ele><time>2026-03-28T10:55:06Z</time></trkpt><trkpt lat="43.175129759844104" lon="12.937564600097735"><ele>597.0</ele><time>2026-03-28T10:55:41Z</time></trkpt><trkpt lat="43.17512406541158" lon="12.937475964223433"><ele>597.0</ele><time>2026-03-28T10:55:53.001Z</time></trkpt><trkpt lat="43.17510386656117" lon="12.937389019559918"><ele>597.0000000000001</ele><time>2026-03-28T10:56:26.001Z</time></trkpt><trkpt lat="43.175132474032736" lon="12.937295824029295"><ele>597.0</ele><time>2026-03-28T10:56:34.001Z</time></trkpt><trkpt lat="43.175195397869714" lon="12.937257454208268"><ele>597.0</ele><time>2026-03-28T10:56:43.001Z</time></trkpt><trkpt lat="43.17524842814452" lon="12.937308634612954"><ele>597.0</ele><time>2026-03-28T10:57:41.001Z</time></trkpt><trkpt lat="43.17526540541361" lon="12.937399523409658"><ele>597.0</ele><time>2026-03-28T10:57:45.001Z</time></trkpt><trkpt lat="43.17528017101124" lon="12.93749596007433"><ele>597.0</ele><time>2026-03-28T10:57:50.001Z</time></trkpt><trkpt lat="43.17529965429309" lon="12.937582791388992"><ele>597.0</ele><time>2026-03-28T10:58:00.001Z</time></trkpt><trkpt lat="43.175377863143794" lon="12.937634631510996"><ele>597.0</ele><time>2026-03-28T10:58:06.001Z</time></trkpt><trkpt lat="43.175499674357894" lon="12.937632894815065"><ele>597.0</ele><time>2026-03-28T10:58:10.001Z</time></trkpt><trkpt lat="43.17559455817517" lon="12.937600696233865"><ele>597.0</ele><time>2026-03-28T10:58:13.001Z</time></trkpt><trkpt lat="43.1756613387442" lon="12.937589376220538"><ele>597.0</ele><time>2026-03-28T10:58:15.001Z</time></trkpt><trkpt lat="43.175723972610115" lon="12.937577785226278"><ele>597.0</ele><time>2026-03-28T10:58:17.001Z</time></trkpt><trkpt lat="43.175797870022414" lon="12.937545340194905"><ele>597.0</ele><time>2026-03-28T10:58:20.001Z</time></trkpt><trkpt lat="43.17587083401017" lon="12.93751695468374"><ele>597.0</ele><time>2026-03-28T10:58:22.001Z</time></trkpt><trkpt lat="43.17594323636723" lon="12.937490747163162"><ele>600.1666666666666</ele><time>2026-03-28T10:58:24.001Z</time></trkpt><trkpt lat="43.17600967264236" lon="12.937460969300556"><ele>603.3333333333334</ele><time>2026-03-28T10:58:26.001Z</time></trkpt><trkpt lat="43.17608387723717" lon="12.937448864658203"><ele>606.5</ele><time>2026-03-28T10:58:29.001Z</time></trkpt><trkpt lat="43.17616615491409" lon="12.937473945454121"><ele>609.6666666666667</ele><time>2026-03-28T10:58:37.001Z</time></trkpt><trkpt lat="43.176232817949135" lon="12.937489046862384"><ele>612.8333333333334</ele><time>2026-03-28T10:58:55Z</time></trkpt><trkpt lat="43.176346070162744" lon="12.937497553028766"><ele>616.0</ele><time>2026-03-28T10:59:58Z</time></trkpt><trkpt lat="43.17643354385761" lon="12.937475532199631"><ele>616.0</ele><time>2026-03-28T11:00:34Z</time></trkpt><trkpt lat="43.176492224262105" lon="12.937433843260683"><ele>616.0</ele><time>2026-03-28T11:00:36Z</time></trkpt><trkpt lat="43.17654157943249" lon="12.937376494020974"><ele>616.0</ele><time>2026-03-28T11:00:38Z</time></trkpt><trkpt lat="43.17661466122714" lon="12.9373430623069"><ele>616.0</ele><time>2026-03-28T11:00:40Z</time></trkpt><trkpt lat="43.17668592920709" lon="12.937313535850045"><ele>616.0</ele><time>2026-03-28T11:00:42Z</time></trkpt><trkpt lat="43.17677237163725" lon="12.937285834799193"><ele>616.0</ele><time>2026-03-28T11:00:44Z</time></trkpt><trkpt lat="43.17686996855217" lon="12.937263136436256"><ele>612.0</ele><time>2026-03-28T11:00:46Z</time></trkpt><trkpt lat="43.176980001865296" lon="12.937235545226574"><ele>608.0</ele><time>2026-03-28T11:00:48.001Z</time></trkpt><trkpt lat="43.17708619682776" lon="12.937211377982953"><ele>604.0</ele><time>2026-03-28T11:00:50.001Z</time></trkpt><trkpt lat="43.17717431687634" lon="12.937190139588651"><ele>600.0</ele><time>2026-03-28T11:00:52.001Z</time></trkpt><trkpt lat="43.17727439164006" lon="12.937184338290201"><ele>596.0</ele><time>2026-03-28T11:00:54.001Z</time></trkpt><trkpt lat="43.177384406067425" lon="12.937170567179933"><ele>592.4</ele><time>2026-03-28T11:00:56.001Z</time></trkpt><trkpt lat="43.177491247166" lon="12.937148452387008"><ele>588.8</ele><time>2026-03-28T11:00:58.001Z</time></trkpt><trkpt lat="43.177604864385486" lon="12.93711788704021"><ele>585.1999999999999</ele><time>2026-03-28T11:01:00.001Z</time></trkpt><trkpt lat="43.17768711628662" lon="12.937101883010257"><ele>581.6</ele><time>2026-03-28T11:01:01.001Z</time></trkpt><trkpt lat="43.17778262328938" lon="12.937081958566605"><ele>578.0</ele><time>2026-03-28T11:01:02.001Z</time></trkpt><trkpt lat="43.17785814957788" lon="12.937066146997124"><ele>578.0</ele><time>2026-03-28T11:01:03.001Z</time></trkpt><trkpt lat="43.17797971471032" lon="12.937066517380796"><ele>578.0</ele><time>2026-03-28T11:01:04.001Z</time></trkpt><trkpt lat="43.17807717273889" lon="12.937056915433192"><ele>578.0</ele><time>2026-03-28T11:01:05.001Z</time></trkpt><trkpt lat="43.178168833434825" lon="12.93704681475625"><ele>578.0</ele><time>2026-03-28T11:01:06.001Z</time></trkpt><trkpt lat="43.17825700819876" lon="12.937027458080165"><ele>578.0</ele><time>2026-03-28T11:01:07.001Z</time></trkpt><trkpt lat="43.178342158839705" lon="12.937007495788832"><ele>575.3333333333333</ele><time>2026-03-28T11:01:08.001Z</time></trkpt><trkpt lat="43.178421021598204" lon="12.936983799092776"><ele>572.6666666666666</ele><time>2026-03-28T11:01:09.001Z</time></trkpt><trkpt lat="43.1784961263465" lon="12.936962391294841"><ele>570.0</ele><time>2026-03-28T11:01:10.001Z</time></trkpt><trkpt lat="43.17857854304008" lon="12.936946284106986"><ele>567.3333333333334</ele><time>2026-03-28T11:01:11.001Z</time></trkpt><trkpt lat="43.178660962480755" lon="12.936935370337734"><ele>564.6666666666667</ele><time>2026-03-28T11:01:12.001Z</time></trkpt><trkpt lat="43.17874218533235" lon="12.936918289359564"><ele>562.0</ele><time>2026-03-28T11:01:13.001Z</time></trkpt><trkpt lat="43.17881878030967" lon="12.936909013103483"><ele>562.0</ele><time>2026-03-28T11:01:14.001Z</time></trkpt><trkpt lat="43.17890163329787" lon="12.936896219029922"><ele>562.0</ele><time>2026-03-28T11:01:15.001Z</time></trkpt><trkpt lat="43.1789784762728" lon="12.936875536392948"><ele>562.0</ele><time>2026-03-28T11:01:16.001Z</time></trkpt><trkpt lat="43.17904424862644" lon="12.936853806219835"><ele>562.0</ele><time>2026-03-28T11:01:17.001Z</time></trkpt><trkpt lat="43.179111335010376" lon="12.936830673635097"><ele>562.0</ele><time>2026-03-28T11:01:18.001Z</time></trkpt><trkpt lat="43.179183180020665" lon="12.936807075998114"><ele>562.0</ele><time>2026-03-28T11:01:19.001Z</time></trkpt><trkpt lat="43.1792911438123" lon="12.936758437161568"><ele>558.5</ele><time>2026-03-28T11:01:21.001Z</time></trkpt><trkpt lat="43.17941343137769" lon="12.936694393442478"><ele>555.0</ele><time>2026-03-28T11:01:23.001Z</time></trkpt><trkpt lat="43.179519258351206" lon="12.936635473256214"><ele>551.5</ele><time>2026-03-28T11:01:25.001Z</time></trkpt><trkpt lat="43.179621184088546" lon="12.936573700498386"><ele>548.0</ele><time>2026-03-28T11:01:27.001Z</time></trkpt><trkpt lat="43.179711837784424" lon="12.936482598042925"><ele>548.0</ele><time>2026-03-28T11:01:29.001Z</time></trkpt><trkpt lat="43.179772441636224" lon="12.93642571144199"><ele>548.0</ele><time>2026-03-28T11:01:31.001Z</time></trkpt><trkpt lat="43.17984046348722" lon="12.936388696906844"><ele>548.0</ele><time>2026-03-28T11:01:33.001Z</time></trkpt><trkpt lat="43.17991089973011" lon="12.936325374564904"><ele>548.0</ele><time>2026-03-28T11:01:36.001Z</time></trkpt><trkpt lat="43.179960353250316" lon="12.936259728718246"><ele>548.0</ele><time>2026-03-28T11:01:38.001Z</time></trkpt><trkpt lat="43.180030957571155" lon="12.936206042673975"><ele>548.0</ele><time>2026-03-28T11:01:41.001Z</time></trkpt><trkpt lat="43.18010182063782" lon="12.936148031714383"><ele>546.5</ele><time>2026-03-28T11:01:44.001Z</time></trkpt><trkpt lat="43.180174187542676" lon="12.936095513263743"><ele>545.0</ele><time>2026-03-28T11:01:47.001Z</time></trkpt><trkpt lat="43.180234895790264" lon="12.936068459370347"><ele>543.5</ele><time>2026-03-28T11:01:49.001Z</time></trkpt><trkpt lat="43.18029024196634" lon="12.936017982420863"><ele>542.0</ele><time>2026-03-28T11:01:52.001Z</time></trkpt><trkpt lat="43.180349779631925" lon="12.93595662624623"><ele>540.5</ele><time>2026-03-28T11:01:54.001Z</time></trkpt><trkpt lat="43.18043196124183" lon="12.93591072248193"><ele>539.0</ele><time>2026-03-28T11:01:56.001Z</time></trkpt><trkpt lat="43.180522771565784" lon="12.935869838166873"><ele>535.0</ele><time>2026-03-28T11:01:58.001Z</time></trkpt><trkpt lat="43.18060670053378" lon="12.935849646916573"><ele>531.0</ele><time>2026-03-28T11:02:00.001Z</time></trkpt><trkpt lat="43.18070846164677" lon="12.935782696191431"><ele>527.0</ele><time>2026-03-28T11:02:02.001Z</time></trkpt><trkpt lat="43.18081203277254" lon="12.935724136197944"><ele>523.0</ele><time>2026-03-28T11:02:04.001Z</time></trkpt><trkpt lat="43.18093559875245" lon="12.935677303942487"><ele>519.0</ele><time>2026-03-28T11:02:06.001Z</time></trkpt><trkpt lat="43.1810604676613" lon="12.935632368781665"><ele>518.1666666666666</ele><time>2026-03-28T11:02:08.001Z</time></trkpt><trkpt lat="43.1811322463769" lon="12.935584515293991"><ele>517.3333333333334</ele><time>2026-03-28T11:02:09.001Z</time></trkpt><trkpt lat="43.181190680139686" lon="12.93554337861699"><ele>516.5</ele><time>2026-03-28T11:02:10.001Z</time></trkpt><trkpt lat="43.18125248494866" lon="12.935510453281571"><ele>515.6666666666667</ele><time>2026-03-28T11:02:11.001Z</time></trkpt><trkpt lat="43.18137998360842" lon="12.935464380187174"><ele>514.8333333333334</ele><time>2026-03-28T11:02:13.001Z</time></trkpt><trkpt lat="43.181472801962705" lon="12.935404889633247"><ele>514.0</ele><time>2026-03-28T11:02:15.001Z</time></trkpt><trkpt lat="43.181534441555314" lon="12.935378186849116"><ele>509.0</ele><time>2026-03-28T11:02:16.001Z</time></trkpt><trkpt lat="43.181641597882894" lon="12.935332353723044"><ele>504.0</ele><time>2026-03-28T11:02:18.001Z</time></trkpt><trkpt lat="43.18170440028404" lon="12.935306313273228"><ele>499.0</ele><time>2026-03-28T11:02:19.001Z</time></trkpt><trkpt lat="43.18182316310725" lon="12.935264587548323"><ele>494.0</ele><time>2026-03-28T11:02:21.001Z</time></trkpt><trkpt lat="43.18192268545975" lon="12.935231998352238"><ele>489.0</ele><time>2026-03-28T11:02:23.001Z</time></trkpt><trkpt lat="43.18202348971692" lon="12.935192630619099"><ele>489.0</ele><time>2026-03-28T11:02:25.001Z</time></trkpt><trkpt lat="43.1821289704842" lon="12.935136582872657"><ele>489.0</ele><time>2026-03-28T11:02:27.001Z</time></trkpt><trkpt lat="43.18222176168762" lon="12.93510025739787"><ele>489.0</ele><time>2026-03-28T11:02:29.001Z</time></trkpt><trkpt lat="43.182301808486656" lon="12.935056944393974"><ele>489.0</ele><time>2026-03-28T11:02:31.001Z</time></trkpt><trkpt lat="43.18237886608254" lon="12.935018539722666"><ele>489.0</ele><time>2026-03-28T11:02:34.001Z</time></trkpt><trkpt lat="43.1824537356242" lon="12.934995676583402"><ele>486.1666666666667</ele><time>2026-03-28T11:02:36.001Z</time></trkpt><trkpt lat="43.18254276374519" lon="12.934960084607612"><ele>483.33333333333337</ele><time>2026-03-28T11:02:38.001Z</time></trkpt><trkpt lat="43.18266334047441" lon="12.934870883154087"><ele>480.5</ele><time>2026-03-28T11:02:40.001Z</time></trkpt><trkpt lat="43.18272999512045" lon="12.93480221048763"><ele>477.6666666666667</ele><time>2026-03-28T11:02:41.001Z</time></trkpt><trkpt lat="43.182772983210725" lon="12.934736329681957"><ele>474.83333333333337</ele><time>2026-03-28T11:02:42.001Z</time></trkpt><trkpt lat="43.182818235045275" lon="12.934665567698454"><ele>472.0</ele><time>2026-03-28T11:02:43.001Z</time></trkpt><trkpt lat="43.18288503856636" lon="12.93456292561738"><ele>472.00000000000006</ele><time>2026-03-28T11:02:45.001Z</time></trkpt><trkpt lat="43.18293783075718" lon="12.934483234640192"><ele>472.0</ele><time>2026-03-28T11:02:48.001Z</time></trkpt><trkpt lat="43.18301815068064" lon="12.934459769935991"><ele>472.0</ele><time>2026-03-28T11:03:03.001Z</time></trkpt><trkpt lat="43.182958107830075" lon="12.934395556618233"><ele>472.0</ele><time>2026-03-28T11:03:05.001Z</time></trkpt><trkpt lat="43.18299111380251" lon="12.934316798287895"><ele>472.00000000000006</ele><time>2026-03-28T11:03:12.001Z</time></trkpt><trkpt lat="43.18307602208427" lon="12.934265322238856"><ele>472.0</ele><time>2026-03-28T11:03:15.001Z</time></trkpt><trkpt lat="43.18320728495785" lon="12.934234358448991"><ele>468.83333333333337</ele><time>2026-03-28T11:03:18.001Z</time></trkpt><trkpt lat="43.18326071145796" lon="12.934187826718858"><ele>465.6666666666667</ele><time>2026-03-28T11:03:19.001Z</time></trkpt><trkpt lat="43.183311527424046" lon="12.934132723800975"><ele>462.5</ele><time>2026-03-28T11:03:20.001Z</time></trkpt><trkpt lat="43.18337605623715" lon="12.934077817173328"><ele>459.33333333333337</ele><time>2026-03-28T11:03:21.001Z</time></trkpt><trkpt lat="43.18345660758502" lon="12.934025399315368"><ele>456.1666666666667</ele><time>2026-03-28T11:03:22.001Z</time></trkpt><trkpt lat="43.183538635536316" lon="12.933985221149346"><ele>453.0</ele><time>2026-03-28T11:03:23.001Z</time></trkpt><trkpt lat="43.18363109834848" lon="12.933950464746482"><ele>453.0</ele><time>2026-03-28T11:03:24.001Z</time></trkpt><trkpt lat="43.18371883427221" lon="12.933925704191335"><ele>452.99999999999994</ele><time>2026-03-28T11:03:25.001Z</time></trkpt><trkpt lat="43.183814396041996" lon="12.93391300724988"><ele>452.99999999999994</ele><time>2026-03-28T11:03:26.001Z</time></trkpt><trkpt lat="43.18390977307593" lon="12.933865260512038"><ele>453.0</ele><time>2026-03-28T11:03:27.001Z</time></trkpt><trkpt lat="43.18401018809172" lon="12.933842203095015"><ele>453.0</ele><time>2026-03-28T11:03:28.001Z</time></trkpt><trkpt lat="43.18409986871708" lon="12.933822173756193"><ele>452.6666666666667</ele><time>2026-03-28T11:03:29.001Z</time></trkpt><trkpt lat="43.18418092878386" lon="12.933804570864025"><ele>452.33333333333337</ele><time>2026-03-28T11:03:30.001Z</time></trkpt><trkpt lat="43.18426425678167" lon="12.933802077137903"><ele>452.0</ele><time>2026-03-28T11:03:31.001Z</time></trkpt><trkpt lat="43.18433201907771" lon="12.93379719788568"><ele>451.6666666666667</ele><time>2026-03-28T11:03:32.001Z</time></trkpt><trkpt lat="43.18445335314641" lon="12.93381333651227"><ele>451.33333333333337</ele><time>2026-03-28T11:03:34.001Z</time></trkpt><trkpt lat="43.18451941183272" lon="12.933815659507152"><ele>451.0</ele><time>2026-03-28T11:03:35.001Z</time></trkpt><trkpt lat="43.18462535854421" lon="12.933817366342058"><ele>451.0</ele><time>2026-03-28T11:03:36.001Z</time></trkpt><trkpt lat="43.18471247189482" lon="12.93379206333388"><ele>451.0</ele><time>2026-03-28T11:03:37.001Z</time></trkpt><trkpt lat="43.18474378978637" lon="12.933951152567415"><ele>451.0</ele><time>2026-03-28T11:03:39.001Z</time></trkpt><trkpt lat="43.18472788603696" lon="12.934056052099965"><ele>451.0</ele><time>2026-03-28T11:03:40.001Z</time></trkpt><trkpt lat="43.18471300524731" lon="12.934184485905773"><ele>451.0</ele><time>2026-03-28T11:03:41.001Z</time></trkpt><trkpt lat="43.184703881622205" lon="12.93431606278123"><ele>451.20000000000005</ele><time>2026-03-28T11:03:42.001Z</time></trkpt><trkpt lat="43.18469753123664" lon="12.934456300866847"><ele>451.40000000000003</ele><time>2026-03-28T11:03:43.001Z</time></trkpt><trkpt lat="43.18473862636152" lon="12.934613364403255"><ele>451.6</ele><time>2026-03-28T11:03:44.001Z</time></trkpt><trkpt lat="43.184736167497874" lon="12.934751743744354"><ele>451.8</ele><time>2026-03-28T11:03:45.001Z</time></trkpt><trkpt lat="43.18471357000804" lon="12.934906138222484"><ele>452.0</ele><time>2026-03-28T11:03:46.001Z</time></trkpt><trkpt lat="43.18470382032368" lon="12.935066222208992"><ele>452.0</ele><time>2026-03-28T11:03:47.001Z</time></trkpt><trkpt lat="43.18469400602904" lon="12.935227367064364"><ele>452.00000000000006</ele><time>2026-03-28T11:03:48.001Z</time></trkpt><trkpt lat="43.184684818097864" lon="12.935378227416727"><ele>452.00000000000006</ele><time>2026-03-28T11:03:49.001Z</time></trkpt><trkpt lat="43.18467716640401" lon="12.935527566886552"><ele>452.0</ele><time>2026-03-28T11:03:50.001Z</time></trkpt><trkpt lat="43.184670121693365" lon="12.935673922953173"><ele>452.0</ele><time>2026-03-28T11:03:51.001Z</time></trkpt><trkpt lat="43.18466346877385" lon="12.935812140271269"><ele>451.8</ele><time>2026-03-28T11:03:52.001Z</time></trkpt><trkpt lat="43.18467607208082" lon="12.935952579064084"><ele>451.6</ele><time>2026-03-28T11:03:53.001Z</time></trkpt><trkpt lat="43.18466827723359" lon="12.936088139852338"><ele>451.40000000000003</ele><time>2026-03-28T11:03:54.001Z</time></trkpt><trkpt lat="43.18465965851531" lon="12.9362270006871"><ele>451.20000000000005</ele><time>2026-03-28T11:03:55.001Z</time></trkpt><trkpt lat="43.18465208130638" lon="12.936352268933526"><ele>451.0</ele><time>2026-03-28T11:03:56.001Z</time></trkpt><trkpt lat="43.18464445668759" lon="12.93646670109256"><ele>451.0</ele><time>2026-03-28T11:03:57.001Z</time></trkpt><trkpt lat="43.18463338000101" lon="12.93659843676895"><ele>451.0</ele><time>2026-03-28T11:03:58.001Z</time></trkpt><trkpt lat="43.1846264703118" lon="12.936730718433422"><ele>451.0</ele><time>2026-03-28T11:03:59.001Z</time></trkpt><trkpt lat="43.18461864428485" lon="12.936878260436211"><ele>451.0</ele><time>2026-03-28T11:04:00.001Z</time></trkpt><trkpt lat="43.18461407365641" lon="12.937026246376316"><ele>451.0</ele><time>2026-03-28T11:04:01.001Z</time></trkpt><trkpt lat="43.18462236828159" lon="12.937183363363552"><ele>450.6</ele><time>2026-03-28T11:04:02.001Z</time></trkpt><trkpt lat="43.18460558304503" lon="12.937341409897162"><ele>450.20000000000005</ele><time>2026-03-28T11:04:03.001Z</time></trkpt><trkpt lat="43.18460456893119" lon="12.937505679469375"><ele>449.79999999999995</ele><time>2026-03-28T11:04:04.001Z</time></trkpt><trkpt lat="43.184607243822256" lon="12.937646299508241"><ele>449.4</ele><time>2026-03-28T11:04:05.001Z</time></trkpt><trkpt lat="43.18462601595405" lon="12.937795016088863"><ele>449.0</ele><time>2026-03-28T11:04:06.001Z</time></trkpt><trkpt lat="43.18463034350219" lon="12.937955249367702"><ele>448.79999999999995</ele><time>2026-03-28T11:04:07.001Z</time></trkpt><trkpt lat="43.18463335072838" lon="12.938113710038404"><ele>448.59999999999997</ele><time>2026-03-28T11:04:08.001Z</time></trkpt><trkpt lat="43.18464072441877" lon="12.938268571341228"><ele>448.4</ele><time>2026-03-28T11:04:09.001Z</time></trkpt><trkpt lat="43.184629309111266" lon="12.938414246964287"><ele>448.2</ele><time>2026-03-28T11:04:10.001Z</time></trkpt><trkpt lat="43.184632302527" lon="12.938564073790443"><ele>448.0</ele><time>2026-03-28T11:04:11.001Z</time></trkpt><trkpt lat="43.184634298467266" lon="12.938703700680984"><ele>448.0</ele><time>2026-03-28T11:04:12.001Z</time></trkpt><trkpt lat="43.184636126307794" lon="12.938840326863792"><ele>447.99999999999994</ele><time>2026-03-28T11:04:13.001Z</time></trkpt><trkpt lat="43.184638040367034" lon="12.93898339766516"><ele>447.99999999999994</ele><time>2026-03-28T11:04:14.001Z</time></trkpt><trkpt lat="43.18463803614966" lon="12.93913491460302"><ele>448.0</ele><time>2026-03-28T11:04:15.001Z</time></trkpt><trkpt lat="43.18464721010987" lon="12.939285569157219"><ele>448.0</ele><time>2026-03-28T11:04:16.001Z</time></trkpt><trkpt lat="43.18463909364165" lon="12.939437596289556"><ele>448.25</ele><time>2026-03-28T11:04:17.001Z</time></trkpt><trkpt lat="43.18462702732656" lon="12.939587739568346"><ele>448.5</ele><time>2026-03-28T11:04:18.001Z</time></trkpt><trkpt lat="43.18461801580461" lon="12.939747579572346"><ele>448.75</ele><time>2026-03-28T11:04:19.001Z</time></trkpt><trkpt lat="43.18460909508332" lon="12.939910298327774"><ele>449.0</ele><time>2026-03-28T11:04:20.001Z</time></trkpt><trkpt lat="43.18459705753529" lon="12.940077895092662"><ele>449.25</ele><time>2026-03-28T11:04:21.001Z</time></trkpt><trkpt lat="43.18458531887248" lon="12.940245874968014"><ele>449.5</ele><time>2026-03-28T11:04:22.001Z</time></trkpt><trkpt lat="43.18457322049662" lon="12.940428664475316"><ele>449.75</ele><time>2026-03-28T11:04:23.001Z</time></trkpt><trkpt lat="43.1845599849207" lon="12.94059567750298"><ele>450.0</ele><time>2026-03-28T11:04:24.001Z</time></trkpt><trkpt lat="43.184543092354225" lon="12.94076642249231"><ele>449.6</ele><time>2026-03-28T11:04:25.001Z</time></trkpt><trkpt lat="43.18452880244657" lon="12.940914460096993"><ele>449.2</ele><time>2026-03-28T11:04:26.001Z</time></trkpt><trkpt lat="43.18451676522805" lon="12.941050482616362"><ele>448.79999999999995</ele><time>2026-03-28T11:04:27.001Z</time></trkpt><trkpt lat="43.18450641061293" lon="12.941190777776129"><ele>448.4</ele><time>2026-03-28T11:04:28.001Z</time></trkpt><trkpt lat="43.18449653368636" lon="12.9413268002268"><ele>448.0</ele><time>2026-03-28T11:04:29.001Z</time></trkpt><trkpt lat="43.18448749912698" lon="12.94143641849693"><ele>448.00000000000006</ele><time>2026-03-28T11:04:30.001Z</time></trkpt><trkpt lat="43.184472501161274" lon="12.941522202985551"><ele>448.0</ele><time>2026-03-28T11:04:31.002Z</time></trkpt><trkpt lat="43.18439278500864" lon="12.941548549362501"><ele>448.0</ele><time>2026-03-28T11:04:33.002Z</time></trkpt><trkpt lat="43.18431282869114" lon="12.941512903808169"><ele>448.0</ele><time>2026-03-28T11:04:34.002Z</time></trkpt><trkpt lat="43.18422747876737" lon="12.941470441670205"><ele>448.00000000000006</ele><time>2026-03-28T11:04:35.002Z</time></trkpt><trkpt lat="43.18414090797919" lon="12.941447080747036"><ele>448.0</ele><time>2026-03-28T11:04:36.002Z</time></trkpt><trkpt lat="43.184045397112534" lon="12.941397241776876"><ele>448.2</ele><time>2026-03-28T11:04:37.002Z</time></trkpt><trkpt lat="43.18395556789622" lon="12.941334037936288"><ele>448.4</ele><time>2026-03-28T11:04:38.002Z</time></trkpt><trkpt lat="43.1838630541452" lon="12.941289796756141"><ele>448.59999999999997</ele><time>2026-03-28T11:04:39.002Z</time></trkpt><trkpt lat="43.18377785247158" lon="12.941244433106451"><ele>448.79999999999995</ele><time>2026-03-28T11:04:40.002Z</time></trkpt><trkpt lat="43.18368722170957" lon="12.941202724340606"><ele>449.0</ele><time>2026-03-28T11:04:41.002Z</time></trkpt><trkpt lat="43.18360799091694" lon="12.941161736096285"><ele>449.0</ele><time>2026-03-28T11:04:42.002Z</time></trkpt><trkpt lat="43.18353636490253" lon="12.94112387996487"><ele>449.0</ele><time>2026-03-28T11:04:43.002Z</time></trkpt><trkpt lat="43.18346024432405" lon="12.94109016130576"><ele>449.0</ele><time>2026-03-28T11:04:44.002Z</time></trkpt><trkpt lat="43.18338627896796" lon="12.9410375963153"><ele>449.0</ele><time>2026-03-28T11:04:45.002Z</time></trkpt><trkpt lat="43.183276119115895" lon="12.941067647018151"><ele>449.0</ele><time>2026-03-28T11:04:46.002Z</time></trkpt><trkpt lat="43.18317861262314" lon="12.941094884107558"><ele>449.2</ele><time>2026-03-28T11:04:47.002Z</time></trkpt><trkpt lat="43.18308104365497" lon="12.941144593756661"><ele>449.4</ele><time>2026-03-28T11:04:48.002Z</time></trkpt><trkpt lat="43.1829807615441" lon="12.941199844024228"><ele>449.6</ele><time>2026-03-28T11:04:49.002Z</time></trkpt><trkpt lat="43.182886240391284" lon="12.941260683011823"><ele>449.8</ele><time>2026-03-28T11:04:50.002Z</time></trkpt><trkpt lat="43.18279304374345" lon="12.94132156362487"><ele>450.0</ele><time>2026-03-28T11:04:51.002Z</time></trkpt><trkpt lat="43.182707536364376" lon="12.941391282860293"><ele>450.0</ele><time>2026-03-28T11:04:52.002Z</time></trkpt><trkpt lat="43.18262189338764" lon="12.941462316473302"><ele>450.0</ele><time>2026-03-28T11:04:53.002Z</time></trkpt><trkpt lat="43.182535354429845" lon="12.941528574510603"><ele>450.0</ele><time>2026-03-28T11:04:54.002Z</time></trkpt><trkpt lat="43.18244047819086" lon="12.94159728228029"><ele>450.0</ele><time>2026-03-28T11:04:55.002Z</time></trkpt><trkpt lat="43.18235237456691" lon="12.941666479024663"><ele>450.0</ele><time>2026-03-28T11:04:56.002Z</time></trkpt><trkpt lat="43.182264346652666" lon="12.941744784688602"><ele>450.4</ele><time>2026-03-28T11:04:57.002Z</time></trkpt><trkpt lat="43.18218078687461" lon="12.941839118297063"><ele>450.8</ele><time>2026-03-28T11:04:58.002Z</time></trkpt><trkpt lat="43.18210402300306" lon="12.941949516207709"><ele>451.20000000000005</ele><time>2026-03-28T11:04:59.002Z</time></trkpt><trkpt lat="43.18202661045801" lon="12.942060631888"><ele>451.6</ele><time>2026-03-28T11:05:00.002Z</time></trkpt><trkpt lat="43.18194998064479" lon="12.94216764563707"><ele>452.0</ele><time>2026-03-28T11:05:01.002Z</time></trkpt><trkpt lat="43.18187642107426" lon="12.942282088936567"><ele>452.0</ele><time>2026-03-28T11:05:02.002Z</time></trkpt><trkpt lat="43.18180080114829" lon="12.942380593841735"><ele>452.00000000000006</ele><time>2026-03-28T11:05:03.002Z</time></trkpt><trkpt lat="43.18171975765298" lon="12.942481027797635"><ele>452.00000000000006</ele><time>2026-03-28T11:05:04.002Z</time></trkpt><trkpt lat="43.18164150353273" lon="12.942583750211407"><ele>452.0</ele><time>2026-03-28T11:05:05.002Z</time></trkpt><trkpt lat="43.18155138632715" lon="12.942663323091203"><ele>452.0</ele><time>2026-03-28T11:05:06.002Z</time></trkpt><trkpt lat="43.18146933975684" lon="12.942762125059375"><ele>453.20000000000005</ele><time>2026-03-28T11:05:07.002Z</time></trkpt><trkpt lat="43.18138793743393" lon="12.942866835957789"><ele>454.40000000000003</ele><time>2026-03-28T11:05:08.002Z</time></trkpt><trkpt lat="43.181306494747325" lon="12.942974186797622"><ele>455.59999999999997</ele><time>2026-03-28T11:05:09.002Z</time></trkpt><trkpt lat="43.18123238770034" lon="12.943087259202425"><ele>456.79999999999995</ele><time>2026-03-28T11:05:10.002Z</time></trkpt><trkpt lat="43.18116064852452" lon="12.943201131319734"><ele>458.0</ele><time>2026-03-28T11:05:11.002Z</time></trkpt><trkpt lat="43.181085409763405" lon="12.94331389776015"><ele>456.0</ele><time>2026-03-28T11:05:12.002Z</time></trkpt><trkpt lat="43.181010758098815" lon="12.94342826076528"><ele>453.99999999999994</ele><time>2026-03-28T11:05:13.002Z</time></trkpt><trkpt lat="43.18093703244937" lon="12.943543185958509"><ele>451.99999999999994</ele><time>2026-03-28T11:05:14.002Z</time></trkpt><trkpt lat="43.180866567296356" lon="12.943653624739204"><ele>450.0</ele><time>2026-03-28T11:05:15.002Z</time></trkpt><trkpt lat="43.18079383992138" lon="12.94376803020009"><ele>448.0</ele><time>2026-03-28T11:05:16.002Z</time></trkpt><trkpt lat="43.18072040184893" lon="12.94388594617381"><ele>448.25</ele><time>2026-03-28T11:05:17.002Z</time></trkpt><trkpt lat="43.180646409524655" lon="12.944007711451363"><ele>448.5</ele><time>2026-03-28T11:05:18.002Z</time></trkpt><trkpt lat="43.18056743828123" lon="12.944124077234639"><ele>448.75</ele><time>2026-03-28T11:05:19.002Z</time></trkpt><trkpt lat="43.18047975497136" lon="12.944245449805951"><ele>449.0</ele><time>2026-03-28T11:05:20.002Z</time></trkpt><trkpt lat="43.18039581142652" lon="12.944377830932899"><ele>449.0</ele><time>2026-03-28T11:05:21.002Z</time></trkpt><trkpt lat="43.18029952778537" lon="12.944489169471272"><ele>449.0</ele><time>2026-03-28T11:05:22.002Z</time></trkpt><trkpt lat="43.180203119072814" lon="12.944592782701681"><ele>449.0</ele><time>2026-03-28T11:05:23.002Z</time></trkpt><trkpt lat="43.18013726759963" lon="12.944740918347149"><ele>449.0</ele><time>2026-03-28T11:05:24.002Z</time></trkpt><trkpt lat="43.180061348581575" lon="12.944846457862758"><ele>449.0</ele><time>2026-03-28T11:05:25.002Z</time></trkpt><trkpt lat="43.1799941326838" lon="12.944973577524777"><ele>449.0</ele><time>2026-03-28T11:05:26.002Z</time></trkpt><trkpt lat="43.17993825040534" lon="12.945113157243064"><ele>449.0</ele><time>2026-03-28T11:05:27.002Z</time></trkpt><trkpt lat="43.17985544733409" lon="12.945228831193916"><ele>449.0</ele><time>2026-03-28T11:05:28.002Z</time></trkpt><trkpt lat="43.17978197853925" lon="12.945348565791557"><ele>450.5</ele><time>2026-03-28T11:05:29.002Z</time></trkpt><trkpt lat="43.17970817635585" lon="12.945478252535947"><ele>452.0</ele><time>2026-03-28T11:05:30.002Z</time></trkpt><trkpt lat="43.17962300991851" lon="12.945586596206551"><ele>453.5</ele><time>2026-03-28T11:05:31.002Z</time></trkpt><trkpt lat="43.17953886862079" lon="12.94569266419141"><ele>455.0</ele><time>2026-03-28T11:05:32.002Z</time></trkpt><trkpt lat="43.179447889019414" lon="12.945794379437627"><ele>453.5</ele><time>2026-03-28T11:05:33.002Z</time></trkpt><trkpt lat="43.1793638964587" lon="12.945918178221326"><ele>452.0</ele><time>2026-03-28T11:05:34.002Z</time></trkpt><trkpt lat="43.17929360731307" lon="12.946056081760759"><ele>450.5</ele><time>2026-03-28T11:05:35.002Z</time></trkpt><trkpt lat="43.179230014489654" lon="12.946221528531062"><ele>449.0</ele><time>2026-03-28T11:05:36.002Z</time></trkpt><trkpt lat="43.179204408489085" lon="12.946397217282286"><ele>449.0</ele><time>2026-03-28T11:05:37.002Z</time></trkpt><trkpt lat="43.17920025681021" lon="12.946573917540519"><ele>449.0</ele><time>2026-03-28T11:05:38.002Z</time></trkpt><trkpt lat="43.17919277690705" lon="12.946738806192977"><ele>449.0</ele><time>2026-03-28T11:05:39.002Z</time></trkpt><trkpt lat="43.17917273058615" lon="12.946911931209895"><ele>449.0</ele><time>2026-03-28T11:05:40.002Z</time></trkpt><trkpt lat="43.17914939145414" lon="12.947088669394718"><ele>447.5</ele><time>2026-03-28T11:05:41.002Z</time></trkpt><trkpt lat="43.179120589073904" lon="12.947270583553644"><ele>446.0</ele><time>2026-03-28T11:05:42.002Z</time></trkpt><trkpt lat="43.17909588725123" lon="12.947446436719408"><ele>444.5</ele><time>2026-03-28T11:05:43.002Z</time></trkpt><trkpt lat="43.1790133845035" lon="12.947586481810848"><ele>443.0</ele><time>2026-03-28T11:05:44.002Z</time></trkpt><trkpt lat="43.178925843813104" lon="12.947728947330509"><ele>447.75</ele><time>2026-03-28T11:05:45.002Z</time></trkpt><trkpt lat="43.17883520031929" lon="12.947869301782642"><ele>452.5</ele><time>2026-03-28T11:05:46.002Z</time></trkpt><trkpt lat="43.17874960717705" lon="12.948003417464577"><ele>457.25</ele><time>2026-03-28T11:05:47.002Z</time></trkpt><trkpt lat="43.17866870349849" lon="12.948139466974109"><ele>462.0</ele><time>2026-03-28T11:05:48.002Z</time></trkpt><trkpt lat="43.17859859201771" lon="12.948261177071064"><ele>460.0</ele><time>2026-03-28T11:05:49.002Z</time></trkpt><trkpt lat="43.17853017862664" lon="12.948376789091494"><ele>458.00000000000006</ele><time>2026-03-28T11:05:50.002Z</time></trkpt><trkpt lat="43.17846237757037" lon="12.948491366632654"><ele>456.00000000000006</ele><time>2026-03-28T11:05:51.002Z</time></trkpt><trkpt lat="43.178399996587025" lon="12.94859695749482"><ele>454.0</ele><time>2026-03-28T11:05:52.002Z</time></trkpt><trkpt lat="43.17834049492802" lon="12.948698629308058"><ele>452.0</ele><time>2026-03-28T11:05:53.002Z</time></trkpt><trkpt lat="43.17827705988885" lon="12.948807384142025"><ele>452.0</ele><time>2026-03-28T11:05:54.002Z</time></trkpt><trkpt lat="43.178210642367794" lon="12.94892361187965"><ele>452.00000000000006</ele><time>2026-03-28T11:05:55.001Z</time></trkpt><trkpt lat="43.17814483368277" lon="12.949037724172962"><ele>452.00000000000006</ele><time>2026-03-28T11:05:56.001Z</time></trkpt><trkpt lat="43.17807790187966" lon="12.94913216805177"><ele>452.0</ele><time>2026-03-28T11:05:57.001Z</time></trkpt><trkpt lat="43.17800761496997" lon="12.949203847280188"><ele>452.0</ele><time>2026-03-28T11:05:58.001Z</time></trkpt><trkpt lat="43.177939591781616" lon="12.949249435733224"><ele>450.6</ele><time>2026-03-28T11:05:59.001Z</time></trkpt><trkpt lat="43.177873763391084" lon="12.94926726758564"><ele>449.20000000000005</ele><time>2026-03-28T11:06:00.001Z</time></trkpt><trkpt lat="43.1777787719233" lon="12.949257478372648"><ele>447.8</ele><time>2026-03-28T11:06:02.001Z</time></trkpt><trkpt lat="43.17767992487483" lon="12.949244500447897"><ele>446.4</ele><time>2026-03-28T11:06:03.001Z</time></trkpt><trkpt lat="43.17755068976832" lon="12.949230587812632"><ele>445.0</ele><time>2026-03-28T11:06:04.001Z</time></trkpt><trkpt lat="43.177424274843645" lon="12.94921352082307"><ele>447.5</ele><time>2026-03-28T11:06:05.001Z</time></trkpt><trkpt lat="43.17729894244899" lon="12.949166857337751"><ele>450.0</ele><time>2026-03-28T11:06:06.001Z</time></trkpt><trkpt lat="43.17715585684395" lon="12.949153386229517"><ele>452.5</ele><time>2026-03-28T11:06:07.001Z</time></trkpt><trkpt lat="43.177019988265336" lon="12.949090647857764"><ele>455.0</ele><time>2026-03-28T11:06:08.001Z</time></trkpt><trkpt lat="43.1768798952694" lon="12.94907702384584"><ele>455.0</ele><time>2026-03-28T11:06:09.001Z</time></trkpt><trkpt lat="43.17675630144846" lon="12.94904786148747"><ele>455.0</ele><time>2026-03-28T11:06:10.001Z</time></trkpt><trkpt lat="43.17664216604552" lon="12.949035930962694"><ele>455.0</ele><time>2026-03-28T11:06:11.001Z</time></trkpt><trkpt lat="43.17653296626369" lon="12.949040626919475"><ele>455.0</ele><time>2026-03-28T11:06:12.001Z</time></trkpt><trkpt lat="43.17644764438918" lon="12.948986841215607"><ele>455.0</ele><time>2026-03-28T11:06:13.001Z</time></trkpt><trkpt lat="43.1763559052955" lon="12.948932943722028"><ele>455.2</ele><time>2026-03-28T11:06:15.001Z</time></trkpt><trkpt lat="43.17628844822237" lon="12.948923747656117"><ele>455.4</ele><time>2026-03-28T11:06:17.001Z</time></trkpt><trkpt lat="43.17621420747172" lon="12.949199255574737"><ele>455.6</ele><time>2026-03-28T11:06:18.001Z</time></trkpt><trkpt lat="43.176216049051455" lon="12.949304158181539"><ele>455.8</ele><time>2026-03-28T11:06:19.001Z</time></trkpt><trkpt lat="43.17625290288216" lon="12.949399398027"><ele>456.0</ele><time>2026-03-28T11:06:20.001Z</time></trkpt><trkpt lat="43.176347583950445" lon="12.949545673728124"><ele>455.5</ele><time>2026-03-28T11:06:21.001Z</time></trkpt><trkpt lat="43.17650388183759" lon="12.949659881707321"><ele>455.0</ele><time>2026-03-28T11:06:22Z</time></trkpt><trkpt lat="43.17655731562169" lon="12.949801741671758"><ele>454.5</ele><time>2026-03-28T11:06:23Z</time></trkpt><trkpt lat="43.17663690170878" lon="12.949951003113696"><ele>454.0</ele><time>2026-03-28T11:06:24Z</time></trkpt><trkpt lat="43.17672919662458" lon="12.95006323475016"><ele>454.0</ele><time>2026-03-28T11:06:25Z</time></trkpt><trkpt lat="43.17680977229638" lon="12.950191214918773"><ele>454.0</ele><time>2026-03-28T11:06:26Z</time></trkpt><trkpt lat="43.176871126818796" lon="12.95031238935522"><ele>454.0</ele><time>2026-03-28T11:06:27Z</time></trkpt><trkpt lat="43.17696479963244" lon="12.950434215711017"><ele>454.0</ele><time>2026-03-28T11:06:28Z</time></trkpt><trkpt lat="43.17706448115699" lon="12.950523296442713"><ele>454.0</ele><time>2026-03-28T11:06:29Z</time></trkpt><trkpt lat="43.177160198766465" lon="12.95060894678528"><ele>454.0</ele><time>2026-03-28T11:06:30Z</time></trkpt><trkpt lat="43.177248304026755" lon="12.950699328601607"><ele>454.0</ele><time>2026-03-28T11:06:31Z</time></trkpt><trkpt lat="43.177325794654045" lon="12.950800698518238"><ele>454.0</ele><time>2026-03-28T11:06:32Z</time></trkpt><trkpt lat="43.1774020752761" lon="12.950900025115063"><ele>454.0</ele><time>2026-03-28T11:06:33Z</time></trkpt><trkpt lat="43.17745771985229" lon="12.951013271558026"><ele>454.83333333333337</ele><time>2026-03-28T11:06:34Z</time></trkpt><trkpt lat="43.17750734121557" lon="12.95111088672389"><ele>455.6666666666667</ele><time>2026-03-28T11:06:35Z</time></trkpt><trkpt lat="43.17756403758805" lon="12.951196975830607"><ele>456.5</ele><time>2026-03-28T11:06:36Z</time></trkpt><trkpt lat="43.17762796150892" lon="12.951287555855448"><ele>457.33333333333337</ele><time>2026-03-28T11:06:37Z</time></trkpt><trkpt lat="43.17768327553267" lon="12.95135972070936"><ele>458.1666666666667</ele><time>2026-03-28T11:06:38Z</time></trkpt><trkpt lat="43.17775344737584" lon="12.95143971144085"><ele>459.0</ele><time>2026-03-28T11:06:39Z</time></trkpt><trkpt lat="43.177827670821145" lon="12.951466513544338"><ele>459.0</ele><time>2026-03-28T11:06:40Z</time></trkpt><trkpt lat="43.177966089523665" lon="12.951483056910302"><ele>459.0</ele><time>2026-03-28T11:06:42Z</time></trkpt><trkpt lat="43.17804529090031" lon="12.951479241378"><ele>459.0</ele><time>2026-03-28T11:06:43Z</time></trkpt><trkpt lat="43.178154069638666" lon="12.95148033432113"><ele>459.0</ele><time>2026-03-28T11:06:44Z</time></trkpt><trkpt lat="43.17826557091602" lon="12.951481454633988"><ele>459.0</ele><time>2026-03-28T11:06:45Z</time></trkpt><trkpt lat="43.17837032987284" lon="12.951486109923716"><ele>458.2</ele><time>2026-03-28T11:06:46Z</time></trkpt><trkpt lat="43.1784758885842" lon="12.9515081754964"><ele>457.4</ele><time>2026-03-28T11:06:47Z</time></trkpt><trkpt lat="43.17857044242884" lon="12.951564845922837"><ele>456.6</ele><time>2026-03-28T11:06:48Z</time></trkpt><trkpt lat="43.17866785355593" lon="12.95159640163721"><ele>455.8</ele><time>2026-03-28T11:06:49Z</time></trkpt><trkpt lat="43.178766170307604" lon="12.951648803462687"><ele>455.0</ele><time>2026-03-28T11:06:50Z</time></trkpt><trkpt lat="43.17883213061607" lon="12.951754325465043"><ele>454.2</ele><time>2026-03-28T11:06:51Z</time></trkpt><trkpt lat="43.17887221474817" lon="12.951840724295742"><ele>453.4</ele><time>2026-03-28T11:06:52Z</time></trkpt><trkpt lat="43.178905020218345" lon="12.951915784615531"><ele>452.6</ele><time>2026-03-28T11:06:53Z</time></trkpt><trkpt lat="43.17895945293469" lon="12.952098729735287"><ele>451.8</ele><time>2026-03-28T11:06:55Z</time></trkpt><trkpt lat="43.17899279622768" lon="12.9522129008426"><ele>451.0</ele><time>2026-03-28T11:06:56Z</time></trkpt><trkpt lat="43.17902991507335" lon="12.952347860187203"><ele>451.0</ele><time>2026-03-28T11:06:57Z</time></trkpt><trkpt lat="43.179066331694564" lon="12.952470385322908"><ele>451.0</ele><time>2026-03-28T11:06:58Z</time></trkpt><trkpt lat="43.17911917282933" lon="12.952587961080667"><ele>451.0</ele><time>2026-03-28T11:06:59Z</time></trkpt><trkpt lat="43.17916584017895" lon="12.952708187630071"><ele>451.0</ele><time>2026-03-28T11:07:00Z</time></trkpt><trkpt lat="43.17920856360742" lon="12.952872997450426"><ele>451.0</ele><time>2026-03-28T11:07:01Z</time></trkpt><trkpt lat="43.17925586797745" lon="12.952985960656168"><ele>453.8</ele><time>2026-03-28T11:07:02Z</time></trkpt><trkpt lat="43.1793010460215" lon="12.953089533687631"><ele>456.6</ele><time>2026-03-28T11:07:03Z</time></trkpt><trkpt lat="43.17935350888496" lon="12.953202097281377"><ele>459.4</ele><time>2026-03-28T11:07:04Z</time></trkpt><trkpt lat="43.17940651732116" lon="12.953307772980844"><ele>462.2</ele><time>2026-03-28T11:07:05Z</time></trkpt><trkpt lat="43.17946901926549" lon="12.95339284511718"><ele>465.0</ele><time>2026-03-28T11:07:06Z</time></trkpt><trkpt lat="43.17953238733301" lon="12.953503921141827"><ele>462.6</ele><time>2026-03-28T11:07:07Z</time></trkpt><trkpt lat="43.1795881705362" lon="12.953637017700752"><ele>460.2</ele><time>2026-03-28T11:07:08Z</time></trkpt><trkpt lat="43.17965675892151" lon="12.953756691798795"><ele>457.79999999999995</ele><time>2026-03-28T11:07:09Z</time></trkpt><trkpt lat="43.179722818411086" lon="12.953871953416337"><ele>455.4</ele><time>2026-03-28T11:07:10Z</time></trkpt><trkpt lat="43.17979463145359" lon="12.954000254330712"><ele>453.0</ele><time>2026-03-28T11:07:11Z</time></trkpt><trkpt lat="43.17986867039159" lon="12.954113187728042"><ele>457.0</ele><time>2026-03-28T11:07:12Z</time></trkpt><trkpt lat="43.17993459637265" lon="12.95423894180451"><ele>460.99999999999994</ele><time>2026-03-28T11:07:13Z</time></trkpt><trkpt lat="43.18000486985352" lon="12.95435496722448"><ele>464.99999999999994</ele><time>2026-03-28T11:07:14Z</time></trkpt><trkpt lat="43.18008048368387" lon="12.954471361307096"><ele>469.0</ele><time>2026-03-28T11:07:15Z</time></trkpt><trkpt lat="43.18016331366445" lon="12.954574770781374"><ele>473.0</ele><time>2026-03-28T11:07:16Z</time></trkpt><trkpt lat="43.18024304127809" lon="12.954663136143896"><ele>472.99999999999994</ele><time>2026-03-28T11:07:17Z</time></trkpt><trkpt lat="43.180309232120884" lon="12.95473475198702"><ele>473.0</ele><time>2026-03-28T11:07:18Z</time></trkpt><trkpt lat="43.1803831212958" lon="12.954781682784967"><ele>473.0</ele><time>2026-03-28T11:07:19Z</time></trkpt><trkpt lat="43.18045097047129" lon="12.954838954542977"><ele>473.0</ele><time>2026-03-28T11:07:20Z</time></trkpt><trkpt lat="43.18051853820661" lon="12.9548926972877"><ele>472.99999999999994</ele><time>2026-03-28T11:07:21Z</time></trkpt><trkpt lat="43.180599538981575" lon="12.954944676222349"><ele>473.0</ele><time>2026-03-28T11:07:22Z</time></trkpt><trkpt lat="43.18067391730441" lon="12.955003994670488"><ele>474.59999999999997</ele><time>2026-03-28T11:07:23Z</time></trkpt><trkpt lat="43.18075157360754" lon="12.955061317158469"><ele>476.19999999999993</ele><time>2026-03-28T11:07:24Z</time></trkpt><trkpt lat="43.18083549921864" lon="12.955094554666989"><ele>477.8</ele><time>2026-03-28T11:07:25Z</time></trkpt><trkpt lat="43.18092233629169" lon="12.955137902068417"><ele>479.4</ele><time>2026-03-28T11:07:26Z</time></trkpt><trkpt lat="43.181019838401866" lon="12.955179697428516"><ele>481.0</ele><time>2026-03-28T11:07:27Z</time></trkpt><trkpt lat="43.18111249575743" lon="12.955211038826523"><ele>481.0</ele><time>2026-03-28T11:07:28Z</time></trkpt><trkpt lat="43.18119674656535" lon="12.955249498711977"><ele>481.0</ele><time>2026-03-28T11:07:29Z</time></trkpt><trkpt lat="43.18131722151982" lon="12.955328131186347"><ele>481.0</ele><time>2026-03-28T11:07:31Z</time></trkpt><trkpt lat="43.1814061387033" lon="12.955426637266031"><ele>481.0</ele><time>2026-03-28T11:07:33Z</time></trkpt><trkpt lat="43.181490886867294" lon="12.95552582957429"><ele>481.0</ele><time>2026-03-28T11:07:35Z</time></trkpt><trkpt lat="43.18156603950098" lon="12.955622451652602"><ele>473.75</ele><time>2026-03-28T11:07:37Z</time></trkpt><trkpt lat="43.18162091058351" lon="12.955696890349977"><ele>466.5</ele><time>2026-03-28T11:07:39Z</time></trkpt><trkpt lat="43.181828517115704" lon="12.95591957738472"><ele>459.25</ele><time>2026-03-28T11:07:41Z</time></trkpt><trkpt lat="43.181900513598144" lon="12.955925561425529"><ele>452.0</ele><time>2026-03-28T11:07:43Z</time></trkpt><trkpt lat="43.18211251793258" lon="12.955959118166675"><ele>451.3333333333333</ele><time>2026-03-28T11:07:53Z</time></trkpt><trkpt lat="43.182182214047955" lon="12.955970832867761"><ele>450.66666666666663</ele><time>2026-03-28T11:07:54Z</time></trkpt><trkpt lat="43.182451046787214" lon="12.956047484797413"><ele>450.0</ele><time>2026-03-28T11:07:55Z</time></trkpt><trkpt lat="43.182576004422835" lon="12.956008551593502"><ele>449.2</ele><time>2026-03-28T11:07:56Z</time></trkpt><trkpt lat="43.18267457579479" lon="12.955958654340165"><ele>448.4</ele><time>2026-03-28T11:07:57Z</time></trkpt><trkpt lat="43.18277148303802" lon="12.955897788687484"><ele>447.6</ele><time>2026-03-28T11:07:58Z</time></trkpt><trkpt lat="43.182877132710836" lon="12.955823425705699"><ele>446.8</ele><time>2026-03-28T11:07:59Z</time></trkpt><trkpt lat="43.18298161708894" lon="12.955748559682709"><ele>446.0</ele><time>2026-03-28T11:08:00Z</time></trkpt><trkpt lat="43.18308378027991" lon="12.955675356885356"><ele>446.0</ele><time>2026-03-28T11:08:01Z</time></trkpt><trkpt lat="43.18316935480136" lon="12.95561430617866"><ele>446.0</ele><time>2026-03-28T11:08:02Z</time></trkpt><trkpt lat="43.183277039366224" lon="12.95553966737125"><ele>446.0</ele><time>2026-03-28T11:08:03Z</time></trkpt><trkpt lat="43.1833813610485" lon="12.955469465509141"><ele>446.0</ele><time>2026-03-28T11:08:04Z</time></trkpt><trkpt lat="43.18347986375076" lon="12.95540623205732"><ele>446.0</ele><time>2026-03-28T11:08:05Z</time></trkpt><trkpt lat="43.18357646092449" lon="12.955348187720952"><ele>445.3333333333333</ele><time>2026-03-28T11:08:06Z</time></trkpt><trkpt lat="43.18366127276133" lon="12.955279061236771"><ele>444.66666666666663</ele><time>2026-03-28T11:08:07Z</time></trkpt><trkpt lat="43.18374043613676" lon="12.955264186124946"><ele>444.0</ele><time>2026-03-28T11:08:08Z</time></trkpt><trkpt lat="43.183797588959976" lon="12.955220889145817"><ele>443.33333333333337</ele><time>2026-03-28T11:08:09Z</time></trkpt><trkpt lat="43.18386461648468" lon="12.95524842095059"><ele>442.6666666666667</ele><time>2026-03-28T11:08:10Z</time></trkpt><trkpt lat="43.183924257440694" lon="12.955310243520106"><ele>442.0</ele><time>2026-03-28T11:08:11Z</time></trkpt><trkpt lat="43.18395714709487" lon="12.955407078424185"><ele>442.0</ele><time>2026-03-28T11:08:12Z</time></trkpt><trkpt lat="43.18399249641533" lon="12.95550650308864"><ele>442.00000000000006</ele><time>2026-03-28T11:08:13Z</time></trkpt><trkpt lat="43.18402732579667" lon="12.955621450276935"><ele>442.00000000000006</ele><time>2026-03-28T11:08:14Z</time></trkpt><trkpt lat="43.184057956663366" lon="12.95575408756163"><ele>442.0</ele><time>2026-03-28T11:08:15Z</time></trkpt><trkpt lat="43.18408145295423" lon="12.955888898920682"><ele>442.0</ele><time>2026-03-28T11:08:16Z</time></trkpt><trkpt lat="43.18410112670669" lon="12.956028914341045"><ele>442.20000000000005</ele><time>2026-03-28T11:08:17Z</time></trkpt><trkpt lat="43.184110227524734" lon="12.95616957546719"><ele>442.40000000000003</ele><time>2026-03-28T11:08:18Z</time></trkpt><trkpt lat="43.18412663825108" lon="12.956307481522058"><ele>442.59999999999997</ele><time>2026-03-28T11:08:19Z</time></trkpt><trkpt lat="43.18413933412012" lon="12.956447660677162"><ele>442.79999999999995</ele><time>2026-03-28T11:08:20Z</time></trkpt><trkpt lat="43.18415416903444" lon="12.956579200627546"><ele>443.0</ele><time>2026-03-28T11:08:21Z</time></trkpt><trkpt lat="43.184146671553755" lon="12.956713684153783"><ele>443.0</ele><time>2026-03-28T11:08:22Z</time></trkpt><trkpt lat="43.18414766655326" lon="12.956846107694782"><ele>442.99999999999994</ele><time>2026-03-28T11:08:23Z</time></trkpt><trkpt lat="43.184141818149676" lon="12.956973955330396"><ele>442.99999999999994</ele><time>2026-03-28T11:08:24Z</time></trkpt><trkpt lat="43.18413369428151" lon="12.957102443655245"><ele>443.0</ele><time>2026-03-28T11:08:25Z</time></trkpt><trkpt lat="43.1841205083602" lon="12.95723468104315"><ele>443.0</ele><time>2026-03-28T11:08:26Z</time></trkpt><trkpt lat="43.18410392839034" lon="12.957364826966247"><ele>443.0</ele><time>2026-03-28T11:08:27Z</time></trkpt><trkpt lat="43.18408462549897" lon="12.957496043175855"><ele>442.99999999999994</ele><time>2026-03-28T11:08:28Z</time></trkpt><trkpt lat="43.18407595974828" lon="12.957631617452602"><ele>442.99999999999994</ele><time>2026-03-28T11:08:29Z</time></trkpt><trkpt lat="43.184040480287386" lon="12.95777031319498"><ele>443.0</ele><time>2026-03-28T11:08:30Z</time></trkpt><trkpt lat="43.18399701256837" lon="12.957906004196113"><ele>443.0</ele><time>2026-03-28T11:08:31Z</time></trkpt><trkpt lat="43.18396654299332" lon="12.958050760170511"><ele>443.0</ele><time>2026-03-28T11:08:32Z</time></trkpt><trkpt lat="43.1839096866408" lon="12.958194191170577"><ele>443.0</ele><time>2026-03-28T11:08:33Z</time></trkpt><trkpt lat="43.18384273148223" lon="12.958342278757133"><ele>443.0</ele><time>2026-03-28T11:08:34Z</time></trkpt><trkpt lat="43.183779036895" lon="12.958487423606726"><ele>443.0</ele><time>2026-03-28T11:08:35Z</time></trkpt><trkpt lat="43.18371802823723" lon="12.958628052510978"><ele>444.75</ele><time>2026-03-28T11:08:36Z</time></trkpt><trkpt lat="43.18365916485807" lon="12.958770100268644"><ele>446.5</ele><time>2026-03-28T11:08:37Z</time></trkpt><trkpt lat="43.18358465018784" lon="12.958899888641144"><ele>448.25</ele><time>2026-03-28T11:08:38Z</time></trkpt><trkpt lat="43.183518724199175" lon="12.959043205067688"><ele>450.0</ele><time>2026-03-28T11:08:39Z</time></trkpt><trkpt lat="43.18344982641918" lon="12.959191661424324"><ele>453.0</ele><time>2026-03-28T11:08:40Z</time></trkpt><trkpt lat="43.18338209265872" lon="12.959340335089422"><ele>456.0</ele><time>2026-03-28T11:08:41Z</time></trkpt><trkpt lat="43.18331228017791" lon="12.959493745437534"><ele>459.0</ele><time>2026-03-28T11:08:42Z</time></trkpt><trkpt lat="43.18324153551136" lon="12.959649515717482"><ele>462.0</ele><time>2026-03-28T11:08:43Z</time></trkpt><trkpt lat="43.18320442918592" lon="12.959829432882804"><ele>458.25</ele><time>2026-03-28T11:08:44Z</time></trkpt><trkpt lat="43.183141377535264" lon="12.959983599583387"><ele>454.5</ele><time>2026-03-28T11:08:45Z</time></trkpt><trkpt lat="43.18306758689533" lon="12.960149039151322"><ele>450.75</ele><time>2026-03-28T11:08:46Z</time></trkpt><trkpt lat="43.18299570661475" lon="12.960314385457082"><ele>447.0</ele><time>2026-03-28T11:08:47Z</time></trkpt><trkpt lat="43.18288334640782" lon="12.960441014221733"><ele>447.0</ele><time>2026-03-28T11:08:48Z</time></trkpt><trkpt lat="43.18281281536384" lon="12.960599455836018"><ele>447.0</ele><time>2026-03-28T11:08:49Z</time></trkpt><trkpt lat="43.18274398946588" lon="12.960754722650432"><ele>447.0</ele><time>2026-03-28T11:08:50Z</time></trkpt><trkpt lat="43.18267764602879" lon="12.96090616212859"><ele>447.0</ele><time>2026-03-28T11:08:51Z</time></trkpt><trkpt lat="43.18266689432239" lon="12.961104460671898"><ele>448.5</ele><time>2026-03-28T11:08:52Z</time></trkpt><trkpt lat="43.182609685888785" lon="12.961265213190442"><ele>450.0</ele><time>2026-03-28T11:08:53Z</time></trkpt><trkpt lat="43.182560131554766" lon="12.961425602282981"><ele>451.5</ele><time>2026-03-28T11:08:54Z</time></trkpt><trkpt lat="43.182512640363456" lon="12.961587753901483"><ele>453.0</ele><time>2026-03-28T11:08:55Z</time></trkpt><trkpt lat="43.18247009098015" lon="12.961755811264904"><ele>453.25</ele><time>2026-03-28T11:08:56Z</time></trkpt><trkpt lat="43.182434086298656" lon="12.961944217696686"><ele>453.5</ele><time>2026-03-28T11:08:57Z</time></trkpt><trkpt lat="43.182398463286695" lon="12.962115407238462"><ele>453.75</ele><time>2026-03-28T11:08:58Z</time></trkpt><trkpt lat="43.18228921411856" lon="12.962263017304167"><ele>454.0</ele><time>2026-03-28T11:08:59Z</time></trkpt><trkpt lat="43.18226985812041" lon="12.962449578657155"><ele>451.5</ele><time>2026-03-28T11:09:00Z</time></trkpt><trkpt lat="43.18225542423681" lon="12.962654817805978"><ele>449.0</ele><time>2026-03-28T11:09:01Z</time></trkpt><trkpt lat="43.18225037094712" lon="12.962833505696649"><ele>446.5</ele><time>2026-03-28T11:09:02Z</time></trkpt><trkpt lat="43.18224928101643" lon="12.963003808907997"><ele>444.0</ele><time>2026-03-28T11:09:03Z</time></trkpt><trkpt lat="43.182252478536334" lon="12.963167132772995"><ele>444.0</ele><time>2026-03-28T11:09:04Z</time></trkpt><trkpt lat="43.18225615935045" lon="12.963349394364045"><ele>444.0</ele><time>2026-03-28T11:09:05Z</time></trkpt><trkpt lat="43.18227328223981" lon="12.963533825351108"><ele>444.0</ele><time>2026-03-28T11:09:06Z</time></trkpt><trkpt lat="43.18227369699903" lon="12.96372892616747"><ele>444.0</ele><time>2026-03-28T11:09:07Z</time></trkpt><trkpt lat="43.18226051452184" lon="12.963913809361078"><ele>444.25</ele><time>2026-03-28T11:09:08Z</time></trkpt><trkpt lat="43.182247223831034" lon="12.964104783317953"><ele>444.5</ele><time>2026-03-28T11:09:09Z</time></trkpt><trkpt lat="43.18223411576263" lon="12.964305885571392"><ele>444.75</ele><time>2026-03-28T11:09:10Z</time></trkpt><trkpt lat="43.18222256756974" lon="12.964509977318436"><ele>445.0</ele><time>2026-03-28T11:09:11Z</time></trkpt><trkpt lat="43.18219232458588" lon="12.96469741149006"><ele>445.0</ele><time>2026-03-28T11:09:12Z</time></trkpt><trkpt lat="43.18217479562206" lon="12.964892322291652"><ele>445.0</ele><time>2026-03-28T11:09:13Z</time></trkpt><trkpt lat="43.18215796305877" lon="12.965079489620393"><ele>445.0</ele><time>2026-03-28T11:09:14Z</time></trkpt><trkpt lat="43.182139700260066" lon="12.965251457965499"><ele>445.0</ele><time>2026-03-28T11:09:15Z</time></trkpt><trkpt lat="43.18213092348734" lon="12.96543259124572"><ele>444.75</ele><time>2026-03-28T11:09:16Z</time></trkpt><trkpt lat="43.18208815120621" lon="12.965610951786344"><ele>444.5</ele><time>2026-03-28T11:09:17Z</time></trkpt><trkpt lat="43.18205748893476" lon="12.965792228386785"><ele>444.25</ele><time>2026-03-28T11:09:18Z</time></trkpt><trkpt lat="43.18202236794229" lon="12.965976791235688"><ele>444.0</ele><time>2026-03-28T11:09:19Z</time></trkpt><trkpt lat="43.18198483505487" lon="12.966157917315357"><ele>445.25</ele><time>2026-03-28T11:09:20Z</time></trkpt><trkpt lat="43.181943602567884" lon="12.966338234496451"><ele>446.5</ele><time>2026-03-28T11:09:21Z</time></trkpt><trkpt lat="43.18190221621663" lon="12.96651609842877"><ele>447.75</ele><time>2026-03-28T11:09:22Z</time></trkpt><trkpt lat="43.18186286681926" lon="12.96669082370504"><ele>449.0</ele><time>2026-03-28T11:09:23Z</time></trkpt><trkpt lat="43.18182723793937" lon="12.96686525252894"><ele>449.5</ele><time>2026-03-28T11:09:24Z</time></trkpt><trkpt lat="43.18179468458072" lon="12.967049599405788"><ele>450.0</ele><time>2026-03-28T11:09:25Z</time></trkpt><trkpt lat="43.181764130907474" lon="12.967230976974152"><ele>450.5</ele><time>2026-03-28T11:09:26Z</time></trkpt><trkpt lat="43.18173415937804" lon="12.967417543439446"><ele>451.0</ele><time>2026-03-28T11:09:27Z</time></trkpt><trkpt lat="43.18170422312392" lon="12.967607736341366"><ele>451.5</ele><time>2026-03-28T11:09:28Z</time></trkpt><trkpt lat="43.18167408277678" lon="12.96780639344223"><ele>452.0</ele><time>2026-03-28T11:09:29Z</time></trkpt><trkpt lat="43.18164666067401" lon="12.967994734400815"><ele>452.5</ele><time>2026-03-28T11:09:30Z</time></trkpt><trkpt lat="43.18162340378254" lon="12.96818001125583"><ele>453.0</ele><time>2026-03-28T11:09:31Z</time></trkpt><trkpt lat="43.18160510698737" lon="12.9683932692392"><ele>453.75</ele><time>2026-03-28T11:09:32Z</time></trkpt><trkpt lat="43.181587024012195" lon="12.968597871488004"><ele>454.5</ele><time>2026-03-28T11:09:33Z</time></trkpt><trkpt lat="43.181577600065495" lon="12.968799651562486"><ele>455.25</ele><time>2026-03-28T11:09:34Z</time></trkpt><trkpt lat="43.18157223328658" lon="12.969000250417198"><ele>456.0</ele><time>2026-03-28T11:09:35Z</time></trkpt><trkpt lat="43.181565023523376" lon="12.969197132290695"><ele>456.0</ele><time>2026-03-28T11:09:36Z</time></trkpt><trkpt lat="43.181562780819405" lon="12.96939692916673"><ele>456.0</ele><time>2026-03-28T11:09:37Z</time></trkpt><trkpt lat="43.18156132311609" lon="12.96960212386602"><ele>456.0</ele><time>2026-03-28T11:09:38Z</time></trkpt><trkpt lat="43.18155889715003" lon="12.969811852856093"><ele>456.0</ele><time>2026-03-28T11:09:39Z</time></trkpt><trkpt lat="43.18156225811917" lon="12.97002371266485"><ele>457.25</ele><time>2026-03-28T11:09:40Z</time></trkpt><trkpt lat="43.1815693385273" lon="12.970223062935784"><ele>458.5</ele><time>2026-03-28T11:09:41Z</time></trkpt><trkpt lat="43.18157857739076" lon="12.970415645832809"><ele>459.75</ele><time>2026-03-28T11:09:42Z</time></trkpt><trkpt lat="43.181591699168045" lon="12.970607420236002"><ele>461.0</ele><time>2026-03-28T11:09:43Z</time></trkpt><trkpt lat="43.18160221118098" lon="12.970795291045482"><ele>460.0</ele><time>2026-03-28T11:09:44.001Z</time></trkpt><trkpt lat="43.181594324297755" lon="12.970999821170784"><ele>459.0</ele><time>2026-03-28T11:09:45.001Z</time></trkpt><trkpt lat="43.1815952610677" lon="12.971236946267284"><ele>458.0</ele><time>2026-03-28T11:09:46.001Z</time></trkpt><trkpt lat="43.18161045303173" lon="12.97147402933517"><ele>457.0</ele><time>2026-03-28T11:09:47.001Z</time></trkpt><trkpt lat="43.18159792621869" lon="12.971698229039179"><ele>456.0</ele><time>2026-03-28T11:09:48.001Z</time></trkpt><trkpt lat="43.18158494264582" lon="12.971923323085365"><ele>455.0</ele><time>2026-03-28T11:09:49.001Z</time></trkpt><trkpt lat="43.18157393718707" lon="12.972120913389025"><ele>455.0</ele><time>2026-03-28T11:09:50.001Z</time></trkpt><trkpt lat="43.18156103788888" lon="12.97233641647878"><ele>455.0</ele><time>2026-03-28T11:09:51.001Z</time></trkpt><trkpt lat="43.18155124171735" lon="12.972523942358407"><ele>455.0</ele><time>2026-03-28T11:09:52.001Z</time></trkpt><trkpt lat="43.18155592228366" lon="12.97270380788964"><ele>455.0</ele><time>2026-03-28T11:09:53.001Z</time></trkpt><trkpt lat="43.18155911647147" lon="12.972871031835624"><ele>453.5</ele><time>2026-03-28T11:09:54.001Z</time></trkpt><trkpt lat="43.18155484569393" lon="12.973052527784288"><ele>452.0</ele><time>2026-03-28T11:09:55.001Z</time></trkpt><trkpt lat="43.18154858697119" lon="12.973220223008047"><ele>450.5</ele><time>2026-03-28T11:09:56.001Z</time></trkpt><trkpt lat="43.18153998616515" lon="12.973376272260529"><ele>449.0</ele><time>2026-03-28T11:09:57.001Z</time></trkpt><trkpt lat="43.18152668069112" lon="12.973513441991845"><ele>447.6</ele><time>2026-03-28T11:09:58.001Z</time></trkpt><trkpt lat="43.18145957408536" lon="12.973614330392175"><ele>446.2</ele><time>2026-03-28T11:09:59.001Z</time></trkpt><trkpt lat="43.18140652116397" lon="12.973711229587334"><ele>444.80000000000007</ele><time>2026-03-28T11:10:00.001Z</time></trkpt><trkpt lat="43.181338859389975" lon="12.973811425932157"><ele>443.40000000000003</ele><time>2026-03-28T11:10:01.001Z</time></trkpt><trkpt lat="43.18125587585259" lon="12.97392595130498"><ele>442.0</ele><time>2026-03-28T11:10:02.001Z</time></trkpt><trkpt lat="43.18118502061555" lon="12.974028836646829"><ele>442.0</ele><time>2026-03-28T11:10:03.001Z</time></trkpt><trkpt lat="43.18110952517083" lon="12.974141035624527"><ele>442.0</ele><time>2026-03-28T11:10:04.001Z</time></trkpt><trkpt lat="43.181026890336874" lon="12.974287535689843"><ele>442.0</ele><time>2026-03-28T11:10:05.001Z</time></trkpt><trkpt lat="43.180959912951586" lon="12.974451932293192"><ele>442.0</ele><time>2026-03-28T11:10:06.001Z</time></trkpt><trkpt lat="43.180919608098996" lon="12.974602933439078"><ele>442.5</ele><time>2026-03-28T11:10:07.001Z</time></trkpt><trkpt lat="43.180890434542064" lon="12.974727981622266"><ele>443.0</ele><time>2026-03-28T11:10:08.001Z</time></trkpt><trkpt lat="43.180858712118564" lon="12.974873954883394"><ele>443.5</ele><time>2026-03-28T11:10:09.001Z</time></trkpt><trkpt lat="43.18082748350264" lon="12.975030362139362"><ele>444.0</ele><time>2026-03-28T11:10:10.001Z</time></trkpt><trkpt lat="43.18078861031749" lon="12.975195294417329"><ele>443.5</ele><time>2026-03-28T11:10:11.001Z</time></trkpt><trkpt lat="43.18073809219072" lon="12.975353917384815"><ele>443.0</ele><time>2026-03-28T11:10:12.001Z</time></trkpt><trkpt lat="43.18068225776812" lon="12.975477963179493"><ele>442.5</ele><time>2026-03-28T11:10:13.001Z</time></trkpt><trkpt lat="43.180606669956596" lon="12.975613594018395"><ele>442.0</ele><time>2026-03-28T11:10:14.001Z</time></trkpt><trkpt lat="43.180517845571806" lon="12.975749940233065"><ele>442.5</ele><time>2026-03-28T11:10:15.001Z</time></trkpt><trkpt lat="43.18042710234024" lon="12.975878285717021"><ele>443.0</ele><time>2026-03-28T11:10:16.001Z</time></trkpt><trkpt lat="43.1803351196162" lon="12.976007541780382"><ele>443.5</ele><time>2026-03-28T11:10:17.001Z</time></trkpt><trkpt lat="43.18024909701044" lon="12.976123758020737"><ele>444.0</ele><time>2026-03-28T11:10:18.001Z</time></trkpt><trkpt lat="43.18015229496756" lon="12.976284773671454"><ele>444.0</ele><time>2026-03-28T11:10:19.001Z</time></trkpt><trkpt lat="43.18008084444152" lon="12.976441056846994"><ele>444.0</ele><time>2026-03-28T11:10:20.001Z</time></trkpt><trkpt lat="43.18001952833376" lon="12.976625040620638"><ele>444.0</ele><time>2026-03-28T11:10:21.001Z</time></trkpt><trkpt lat="43.179970115755594" lon="12.976792915490128"><ele>444.0</ele><time>2026-03-28T11:10:22.001Z</time></trkpt><trkpt lat="43.17992637609862" lon="12.976959062543964"><ele>444.0</ele><time>2026-03-28T11:10:23.001Z</time></trkpt><trkpt lat="43.17988538789905" lon="12.977149140537405"><ele>444.0</ele><time>2026-03-28T11:10:24.001Z</time></trkpt><trkpt lat="43.1798546728166" lon="12.9773138142402"><ele>444.0</ele><time>2026-03-28T11:10:25.001Z</time></trkpt><trkpt lat="43.17982962623564" lon="12.977467696788267"><ele>444.0</ele><time>2026-03-28T11:10:26.001Z</time></trkpt><trkpt lat="43.179806489095846" lon="12.97764282049893"><ele>443.5</ele><time>2026-03-28T11:10:27.001Z</time></trkpt><trkpt lat="43.17978714658916" lon="12.977831121729857"><ele>443.0</ele><time>2026-03-28T11:10:28.001Z</time></trkpt><trkpt lat="43.17977161666466" lon="12.978016311350684"><ele>442.5</ele><time>2026-03-28T11:10:29.001Z</time></trkpt><trkpt lat="43.17975774000735" lon="12.978222459616935"><ele>442.0</ele><time>2026-03-28T11:10:30.001Z</time></trkpt><trkpt lat="43.17974557378174" lon="12.978419778524184"><ele>441.75</ele><time>2026-03-28T11:10:31.001Z</time></trkpt><trkpt lat="43.17973471747252" lon="12.97860414832002"><ele>441.5</ele><time>2026-03-28T11:10:32.001Z</time></trkpt><trkpt lat="43.1797233253727" lon="12.978784863316486"><ele>441.25</ele><time>2026-03-28T11:10:33.001Z</time></trkpt><trkpt lat="43.179711948030786" lon="12.978965344223292"><ele>441.0</ele><time>2026-03-28T11:10:34.001Z</time></trkpt><trkpt lat="43.17970027612563" lon="12.979150497853139"><ele>441.25</ele><time>2026-03-28T11:10:35.001Z</time></trkpt><trkpt lat="43.17968900096856" lon="12.979331041511374"><ele>441.5</ele><time>2026-03-28T11:10:36.001Z</time></trkpt><trkpt lat="43.1796783552785" lon="12.979501784336891"><ele>441.75</ele><time>2026-03-28T11:10:37.001Z</time></trkpt><trkpt lat="43.17966750161146" lon="12.97967060797976"><ele>442.0</ele><time>2026-03-28T11:10:38.001Z</time></trkpt><trkpt lat="43.17967003926428" lon="12.979853333963497"><ele>443.0</ele><time>2026-03-28T11:10:39.001Z</time></trkpt><trkpt lat="43.17964388583472" lon="12.980034943242247"><ele>444.0</ele><time>2026-03-28T11:10:40.001Z</time></trkpt><trkpt lat="43.1796330457927" lon="12.980202179315881"><ele>445.0</ele><time>2026-03-28T11:10:41.001Z</time></trkpt><trkpt lat="43.17963849444506" lon="12.980370233585528"><ele>446.0</ele><time>2026-03-28T11:10:42.001Z</time></trkpt><trkpt lat="43.17961197634537" lon="12.98053218469908"><ele>446.0</ele><time>2026-03-28T11:10:43.001Z</time></trkpt><trkpt lat="43.17960084525336" lon="12.980698032916491"><ele>446.0</ele><time>2026-03-28T11:10:44.001Z</time></trkpt><trkpt lat="43.17958950323251" lon="12.980867966661007"><ele>446.0</ele><time>2026-03-28T11:10:45.001Z</time></trkpt><trkpt lat="43.17957877719524" lon="12.981035783402799"><ele>446.0</ele><time>2026-03-28T11:10:46.001Z</time></trkpt><trkpt lat="43.17956753166611" lon="12.9812105615303"><ele>445.75</ele><time>2026-03-28T11:10:47.001Z</time></trkpt><trkpt lat="43.1795552044076" lon="12.981402151808389"><ele>445.5</ele><time>2026-03-28T11:10:48.001Z</time></trkpt><trkpt lat="43.179542672103466" lon="12.981589795228606"><ele>445.25</ele><time>2026-03-28T11:10:49.001Z</time></trkpt><trkpt lat="43.17953134199403" lon="12.9817697440402"><ele>445.0</ele><time>2026-03-28T11:10:50.001Z</time></trkpt><trkpt lat="43.17952102895051" lon="12.981947647886436"><ele>444.75</ele><time>2026-03-28T11:10:51.001Z</time></trkpt><trkpt lat="43.17951017023291" lon="12.982131010891587"><ele>444.5</ele><time>2026-03-28T11:10:52.001Z</time></trkpt><trkpt lat="43.17949945395019" lon="12.982310202563244"><ele>444.25</ele><time>2026-03-28T11:10:53.001Z</time></trkpt><trkpt lat="43.17948872214586" lon="12.982489653759405"><ele>444.0</ele><time>2026-03-28T11:10:54.001Z</time></trkpt><trkpt lat="43.1794781788447" lon="12.982668776141626"><ele>444.0</ele><time>2026-03-28T11:10:55.001Z</time></trkpt><trkpt lat="43.179467644254196" lon="12.982848181193233"><ele>444.0</ele><time>2026-03-28T11:10:56.001Z</time></trkpt><trkpt lat="43.17945789602674" lon="12.98301419441218"><ele>444.0</ele><time>2026-03-28T11:10:57.001Z</time></trkpt><trkpt lat="43.17946022692762" lon="12.983185863732695"><ele>444.0</ele><time>2026-03-28T11:10:58.001Z</time></trkpt><trkpt lat="43.17945082974262" lon="12.983357155601064"><ele>444.6</ele><time>2026-03-28T11:10:59.001Z</time></trkpt><trkpt lat="43.17944223585436" lon="12.983520952878898"><ele>445.2</ele><time>2026-03-28T11:11:00.001Z</time></trkpt><trkpt lat="43.179430319206986" lon="12.983677141741586"><ele>445.80000000000007</ele><time>2026-03-28T11:11:01.001Z</time></trkpt><trkpt lat="43.17942146942723" lon="12.983793396771707"><ele>446.40000000000003</ele><time>2026-03-28T11:11:02.001Z</time></trkpt><trkpt lat="43.179415698444984" lon="12.983889475500703"><ele>447.0</ele><time>2026-03-28T11:11:03.001Z</time></trkpt><trkpt lat="43.179395634122194" lon="12.983997711732366"><ele>447.0</ele><time>2026-03-28T11:11:04.001Z</time></trkpt><trkpt lat="43.17936909518604" lon="12.984154408477359"><ele>447.0</ele><time>2026-03-28T11:11:06.001Z</time></trkpt><trkpt lat="43.17935032011504" lon="12.984245812792652"><ele>447.0</ele><time>2026-03-28T11:11:07.001Z</time></trkpt><trkpt lat="43.17932080585801" lon="12.984335732848102"><ele>447.0</ele><time>2026-03-28T11:11:08.001Z</time></trkpt><trkpt lat="43.17926697734974" lon="12.984410101009408"><ele>447.0</ele><time>2026-03-28T11:11:09.001Z</time></trkpt><trkpt lat="43.179220386793986" lon="12.984472171395566"><ele>447.0</ele><time>2026-03-28T11:11:10.001Z</time></trkpt><trkpt lat="43.17916816789986" lon="12.984530524278584"><ele>447.0</ele><time>2026-03-28T11:11:11.001Z</time></trkpt><trkpt lat="43.17911217494555" lon="12.984588581786753"><ele>447.0</ele><time>2026-03-28T11:11:12.001Z</time></trkpt><trkpt lat="43.17901696150115" lon="12.984631007872027"><ele>447.0</ele><time>2026-03-28T11:11:14.001Z</time></trkpt><trkpt lat="43.17893885097213" lon="12.984696585877442"><ele>447.0</ele><time>2026-03-28T11:11:16.001Z</time></trkpt><trkpt lat="43.179052430807765" lon="12.985070194669747"><ele>447.0</ele><time>2026-03-28T11:11:20.001Z</time></trkpt><trkpt lat="43.17908149676799" lon="12.985151585747818"><ele>447.0</ele><time>2026-03-28T11:11:21.001Z</time></trkpt><trkpt lat="43.179153264052886" lon="12.98523113685646"><ele>447.0</ele><time>2026-03-28T11:11:23.001Z</time></trkpt><trkpt lat="43.17919149397488" lon="12.985366685014123"><ele>447.0</ele><time>2026-03-28T11:11:25.001Z</time></trkpt><trkpt lat="43.179247034569045" lon="12.98546574115942"><ele>447.0</ele><time>2026-03-28T11:11:27.001Z</time></trkpt><trkpt lat="43.17928121535193" lon="12.985575607043023"><ele>447.0</ele><time>2026-03-28T11:11:31.001Z</time></trkpt><trkpt lat="43.17932168271879" lon="12.985658852987726"><ele>447.0</ele><time>2026-03-28T11:11:34.001Z</time></trkpt><trkpt lat="43.17940716957064" lon="12.98578189105615"><ele>447.00000000000006</ele><time>2026-03-28T11:11:37.001Z</time></trkpt><trkpt lat="43.17946105937588" lon="12.985903705929902"><ele>447.00000000000006</ele><time>2026-03-28T11:11:39.001Z</time></trkpt><trkpt lat="43.179467425629625" lon="12.98602552647817"><ele>447.0</ele><time>2026-03-28T11:11:40.001Z</time></trkpt><trkpt lat="43.17950238257841" lon="12.98619322599828"><ele>447.0</ele><time>2026-03-28T11:11:42.001Z</time></trkpt><trkpt lat="43.179505992842685" lon="12.986355297306341"><ele>446.40000000000003</ele><time>2026-03-28T11:11:44.001Z</time></trkpt><trkpt lat="43.17950952342622" lon="12.986528179172764"><ele>445.80000000000007</ele><time>2026-03-28T11:11:46.001Z</time></trkpt><trkpt lat="43.1794847175555" lon="12.986676404543395"><ele>445.2</ele><time>2026-03-28T11:11:48.001Z</time></trkpt><trkpt lat="43.1794748988939" lon="12.986826729609115"><ele>444.6</ele><time>2026-03-28T11:11:50.001Z</time></trkpt><trkpt lat="43.1794793417793" lon="12.986918552401109"><ele>444.0</ele><time>2026-03-28T11:11:51.001Z</time></trkpt><trkpt lat="43.17949006094393" lon="12.987053988954818"><ele>441.0</ele><time>2026-03-28T11:11:52.001Z</time></trkpt><trkpt lat="43.17949076945105" lon="12.987161998241891"><ele>438.0</ele><time>2026-03-28T11:11:53.001Z</time></trkpt><trkpt lat="43.179489890355875" lon="12.987258266626993"><ele>435.0</ele><time>2026-03-28T11:11:54.001Z</time></trkpt><trkpt lat="43.17943581756462" lon="12.987432406425688"><ele>432.0</ele><time>2026-03-28T11:11:56.001Z</time></trkpt><trkpt lat="43.17937035364345" lon="12.987509409401056"><ele>429.0</ele><time>2026-03-28T11:11:57.001Z</time></trkpt><trkpt lat="43.17929857741854" lon="12.987633795884244"><ele>425.8333333333333</ele><time>2026-03-28T11:11:58.001Z</time></trkpt><trkpt lat="43.17925752889736" lon="12.987714939187361"><ele>422.66666666666663</ele><time>2026-03-28T11:11:59.001Z</time></trkpt><trkpt lat="43.17919645141388" lon="12.987820533641088"><ele>419.5</ele><time>2026-03-28T11:12:00.001Z</time></trkpt><trkpt lat="43.17913876078743" lon="12.987885554838925"><ele>416.3333333333333</ele><time>2026-03-28T11:12:01.001Z</time></trkpt><trkpt lat="43.17908461940649" lon="12.987949968238466"><ele>413.16666666666663</ele><time>2026-03-28T11:12:02.001Z</time></trkpt><trkpt lat="43.17902054640759" lon="12.987999790512918"><ele>410.0</ele><time>2026-03-28T11:12:03.001Z</time></trkpt><trkpt lat="43.17896011485359" lon="12.988037848330418"><ele>409.8333333333333</ele><time>2026-03-28T11:12:04.001Z</time></trkpt><trkpt lat="43.178906771623616" lon="12.988132180007359"><ele>409.66666666666663</ele><time>2026-03-28T11:12:05.001Z</time></trkpt><trkpt lat="43.17887626811806" lon="12.988221473463188"><ele>409.5</ele><time>2026-03-28T11:12:06.001Z</time></trkpt><trkpt lat="43.17880520721575" lon="12.988334331939335"><ele>409.33333333333337</ele><time>2026-03-28T11:12:08.001Z</time></trkpt><trkpt lat="43.17887251358435" lon="12.988270930504388"><ele>409.1666666666667</ele><time>2026-03-28T11:12:12.001Z</time></trkpt><trkpt lat="43.17879957759079" lon="12.988356479907857"><ele>409.0</ele><time>2026-03-28T11:12:15.001Z</time></trkpt><trkpt lat="43.17905792363075" lon="12.98841223885004"><ele>409.0</ele><time>2026-03-28T11:12:16.001Z</time></trkpt><trkpt lat="43.17913776031432" lon="12.9884642028079"><ele>409.0</ele><time>2026-03-28T11:12:17.001Z</time></trkpt><trkpt lat="43.17921631973834" lon="12.988506510327415"><ele>409.0</ele><time>2026-03-28T11:12:18.001Z</time></trkpt><trkpt lat="43.179285686975575" lon="12.988541828955261"><ele>409.0</ele><time>2026-03-28T11:12:19.001Z</time></trkpt><trkpt lat="43.1793945719049" lon="12.988610385007549"><ele>409.0</ele><time>2026-03-28T11:12:21.001Z</time></trkpt><trkpt lat="43.17953631904797" lon="12.988677111648924"><ele>409.0</ele><time>2026-03-28T11:12:23.001Z</time></trkpt><trkpt lat="43.17967984729761" lon="12.988796758249215"><ele>409.0</ele><time>2026-03-28T11:12:24.001Z</time></trkpt><trkpt lat="43.17978034635321" lon="12.988909419581896"><ele>409.0</ele><time>2026-03-28T11:12:25.001Z</time></trkpt><trkpt lat="43.1798846767364" lon="12.989016700509906"><ele>409.0</ele><time>2026-03-28T11:12:26.001Z</time></trkpt><trkpt lat="43.17994224205973" lon="12.989115174608102"><ele>419.50000000000006</ele><time>2026-03-28T11:12:27.001Z</time></trkpt><trkpt lat="43.18002381144729" lon="12.989240165397378"><ele>430.0</ele><time>2026-03-28T11:12:28.001Z</time></trkpt><trkpt lat="43.180046120833815" lon="12.989325338166"><ele>440.5</ele><time>2026-03-28T11:12:29.001Z</time></trkpt><trkpt lat="43.18007637800776" lon="12.989435335520136"><ele>451.0</ele><time>2026-03-28T11:12:30.001Z</time></trkpt><trkpt lat="43.180125580487285" lon="12.989502719496757"><ele>461.50000000000006</ele><time>2026-03-28T11:12:31.001Z</time></trkpt><trkpt lat="43.18015613921733" lon="12.989578359822456"><ele>472.0</ele><time>2026-03-28T11:12:32.001Z</time></trkpt><trkpt lat="43.1801941834916" lon="12.989667211720109"><ele>472.0</ele><time>2026-03-28T11:12:33.001Z</time></trkpt><trkpt lat="43.18026643883692" lon="12.989792009453264"><ele>472.0</ele><time>2026-03-28T11:12:35.001Z</time></trkpt><trkpt lat="43.180320863830566" lon="12.989903101309748"><ele>472.0</ele><time>2026-03-28T11:12:37.001Z</time></trkpt><trkpt lat="43.18037192552895" lon="12.989967432569033"><ele>472.0</ele><time>2026-03-28T11:12:39.001Z</time></trkpt><trkpt lat="43.178717379639004" lon="12.993659942461512"><ele>456.8</ele><time>2026-03-28T11:13:08.001Z</time></trkpt><trkpt lat="43.1787320880991" lon="12.993832562962524"><ele>441.6</ele><time>2026-03-28T11:13:09.001Z</time></trkpt><trkpt lat="43.17871540846266" lon="12.993963925262145"><ele>426.40000000000003</ele><time>2026-03-28T11:13:10.001Z</time></trkpt><trkpt lat="43.17867556565486" lon="12.994048936840231"><ele>411.20000000000005</ele><time>2026-03-28T11:13:11.001Z</time></trkpt><trkpt lat="43.1786822060939" lon="12.994193903939447"><ele>396.0</ele><time>2026-03-28T11:13:12.001Z</time></trkpt><trkpt lat="43.178768842359055" lon="12.994353436986696"><ele>393.8333333333333</ele><time>2026-03-28T11:13:13.001Z</time></trkpt><trkpt lat="43.1786743423222" lon="12.994437132896259"><ele>391.6666666666667</ele><time>2026-03-28T11:13:14Z</time></trkpt><trkpt lat="43.178679088344744" lon="12.994529564001663"><ele>389.5</ele><time>2026-03-28T11:13:15Z</time></trkpt><trkpt lat="43.17867688668208" lon="12.994626646580947"><ele>387.33333333333337</ele><time>2026-03-28T11:13:16Z</time></trkpt><trkpt lat="43.17864222742188" lon="12.99474083671589"><ele>385.1666666666667</ele><time>2026-03-28T11:13:19Z</time></trkpt><trkpt lat="43.17866154253224" lon="12.994878057403824"><ele>383.0</ele><time>2026-03-28T11:13:21Z</time></trkpt><trkpt lat="43.17873426292678" lon="12.995019445810728"><ele>382.83333333333337</ele><time>2026-03-28T11:13:23Z</time></trkpt><trkpt lat="43.1787500617891" lon="12.995107717679804"><ele>382.6666666666667</ele><time>2026-03-28T11:13:24Z</time></trkpt><trkpt lat="43.17875847353667" lon="12.99522470057897"><ele>382.5</ele><time>2026-03-28T11:13:25Z</time></trkpt><trkpt lat="43.17877571691631" lon="12.995333733303239"><ele>382.3333333333333</ele><time>2026-03-28T11:13:26Z</time></trkpt><trkpt lat="43.17873231399989" lon="12.995415769504543"><ele>382.16666666666663</ele><time>2026-03-28T11:13:27Z</time></trkpt><trkpt lat="43.17869201013275" lon="12.995492501895583"><ele>382.0</ele><time>2026-03-28T11:13:28Z</time></trkpt><trkpt lat="43.17863683407985" lon="12.99559305917186"><ele>382.0</ele><time>2026-03-28T11:13:29Z</time></trkpt><trkpt lat="43.17858917765703" lon="12.99568490054761"><ele>382.0</ele><time>2026-03-28T11:13:30Z</time></trkpt><trkpt lat="43.17854142137091" lon="12.995782175639524"><ele>382.0</ele><time>2026-03-28T11:13:31Z</time></trkpt><trkpt lat="43.178441648951626" lon="12.996009502568041"><ele>382.0</ele><time>2026-03-28T11:13:32Z</time></trkpt><trkpt lat="43.178407088947075" lon="12.996104293972973"><ele>382.0</ele><time>2026-03-28T11:13:33Z</time></trkpt><trkpt lat="43.17836349245254" lon="12.996255294802115"><ele>388.25</ele><time>2026-03-28T11:13:34Z</time></trkpt><trkpt lat="43.17832157039997" lon="12.99639075504796"><ele>394.5</ele><time>2026-03-28T11:13:35Z</time></trkpt><trkpt lat="43.17828697296097" lon="12.996514938748838"><ele>400.75</ele><time>2026-03-28T11:13:36Z</time></trkpt><trkpt lat="43.17822236990407" lon="12.996687513369874"><ele>407.0</ele><time>2026-03-28T11:13:37Z</time></trkpt><trkpt lat="43.17818601441288" lon="12.996835280310663"><ele>403.40000000000003</ele><time>2026-03-28T11:13:38Z</time></trkpt><trkpt lat="43.178136445201446" lon="12.996943134875254"><ele>399.8</ele><time>2026-03-28T11:13:39Z</time></trkpt><trkpt lat="43.17808989366652" lon="12.997057343557529"><ele>396.2</ele><time>2026-03-28T11:13:40Z</time></trkpt><trkpt lat="43.17803929194704" lon="12.997145193048208"><ele>392.6</ele><time>2026-03-28T11:13:41Z</time></trkpt><trkpt lat="43.177976490260285" lon="12.997225476413838"><ele>389.0</ele><time>2026-03-28T11:13:42Z</time></trkpt><trkpt lat="43.17787869383759" lon="12.99732970796166"><ele>389.0</ele><time>2026-03-28T11:13:43Z</time></trkpt><trkpt lat="43.17779932607585" lon="12.997414133299669"><ele>389.0</ele><time>2026-03-28T11:13:44Z</time></trkpt><trkpt lat="43.17770368873463" lon="12.997515720295038"><ele>389.0</ele><time>2026-03-28T11:13:45Z</time></trkpt><trkpt lat="43.17766259066816" lon="12.997656999123096"><ele>389.0</ele><time>2026-03-28T11:13:46Z</time></trkpt><trkpt lat="43.17767966543098" lon="12.997790536842329"><ele>389.0</ele><time>2026-03-28T11:13:47Z</time></trkpt><trkpt lat="43.177709882861734" lon="12.997867760620805"><ele>388.49999999999994</ele><time>2026-03-28T11:13:48Z</time></trkpt><trkpt lat="43.17779541023234" lon="12.997918595991315"><ele>388.0</ele><time>2026-03-28T11:13:49Z</time></trkpt><trkpt lat="43.17792309258684" lon="12.997959432891003"><ele>387.5</ele><time>2026-03-28T11:13:51Z</time></trkpt><trkpt lat="43.17799067535447" lon="12.997978254181906"><ele>387.0</ele><time>2026-03-28T11:13:52Z</time></trkpt><trkpt lat="43.17806134953574" lon="12.998006639942034"><ele>386.49999999999994</ele><time>2026-03-28T11:13:53Z</time></trkpt><trkpt lat="43.178127439248264" lon="12.998046063005486"><ele>386.0</ele><time>2026-03-28T11:13:54Z</time></trkpt><trkpt lat="43.178186967055666" lon="12.998118570190357"><ele>392.20000000000005</ele><time>2026-03-28T11:13:55Z</time></trkpt><trkpt lat="43.17823106451287" lon="12.998195418378048"><ele>398.40000000000003</ele><time>2026-03-28T11:13:56Z</time></trkpt><trkpt lat="43.17827429246261" lon="12.998285976879798"><ele>404.6</ele><time>2026-03-28T11:13:57Z</time></trkpt><trkpt lat="43.17834897103631" lon="12.998416378057406"><ele>410.8</ele><time>2026-03-28T11:13:58Z</time></trkpt><trkpt lat="43.17841293430498" lon="12.998551427915135"><ele>417.0</ele><time>2026-03-28T11:13:59Z</time></trkpt><trkpt lat="43.17847612742125" lon="12.998710514918915"><ele>417.0</ele><time>2026-03-28T11:14:00Z</time></trkpt><trkpt lat="43.17854561735599" lon="12.998837572618093"><ele>417.0</ele><time>2026-03-28T11:14:01Z</time></trkpt><trkpt lat="43.17860929804804" lon="12.998948861082347"><ele>417.0</ele><time>2026-03-28T11:14:02Z</time></trkpt><trkpt lat="43.178667988214684" lon="12.999049769294313"><ele>417.0</ele><time>2026-03-28T11:14:03Z</time></trkpt><trkpt lat="43.17872778665914" lon="12.99915090632186"><ele>417.0</ele><time>2026-03-28T11:14:04Z</time></trkpt><trkpt lat="43.17878405571054" lon="12.9992440224407"><ele>415.0</ele><time>2026-03-28T11:14:05Z</time></trkpt><trkpt lat="43.178843851220506" lon="12.99934310464748"><ele>413.0</ele><time>2026-03-28T11:14:06Z</time></trkpt><trkpt lat="43.178900537546" lon="12.999442741353556"><ele>411.0</ele><time>2026-03-28T11:14:07Z</time></trkpt><trkpt lat="43.17895645745507" lon="12.999545999051099"><ele>409.0</ele><time>2026-03-28T11:14:08Z</time></trkpt><trkpt lat="43.17900780423716" lon="12.99964445888659"><ele>407.0</ele><time>2026-03-28T11:14:09Z</time></trkpt><trkpt lat="43.179076867388105" lon="12.999778790184044"><ele>415.6</ele><time>2026-03-28T11:14:10Z</time></trkpt><trkpt lat="43.179133980643066" lon="12.999899426806447"><ele>424.20000000000005</ele><time>2026-03-28T11:14:11Z</time></trkpt><trkpt lat="43.179189105393995" lon="13.000020364032594"><ele>432.8</ele><time>2026-03-28T11:14:12Z</time></trkpt><trkpt lat="43.179243556893084" lon="13.00014959082071"><ele>441.4</ele><time>2026-03-28T11:14:13Z</time></trkpt><trkpt lat="43.17929940947838" lon="13.00029121723556"><ele>450.0</ele><time>2026-03-28T11:14:14Z</time></trkpt><trkpt lat="43.1793593602209" lon="13.000456337689181"><ele>450.0</ele><time>2026-03-28T11:14:15Z</time></trkpt><trkpt lat="43.17940924378612" lon="13.00063007422761"><ele>450.0</ele><time>2026-03-28T11:14:16Z</time></trkpt><trkpt lat="43.17946796960633" lon="13.000812623132683"><ele>450.0</ele><time>2026-03-28T11:14:17Z</time></trkpt><trkpt lat="43.17953745940146" lon="13.00100143603357"><ele>450.0</ele><time>2026-03-28T11:14:18Z</time></trkpt><trkpt lat="43.17961895970707" lon="13.001159706754976"><ele>447.75</ele><time>2026-03-28T11:14:19Z</time></trkpt><trkpt lat="43.179696673912034" lon="13.001311698022805"><ele>445.5</ele><time>2026-03-28T11:14:20Z</time></trkpt><trkpt lat="43.17977864424593" lon="13.00148659449247"><ele>443.25</ele><time>2026-03-28T11:14:21Z</time></trkpt><trkpt lat="43.179850456848484" lon="13.001677124052952"><ele>441.0</ele><time>2026-03-28T11:14:22Z</time></trkpt><trkpt lat="43.1799264672595" lon="13.001888838569736"><ele>449.25</ele><time>2026-03-28T11:14:23Z</time></trkpt><trkpt lat="43.17999364467622" lon="13.002082429099769"><ele>457.5</ele><time>2026-03-28T11:14:24Z</time></trkpt><trkpt lat="43.180063335618144" lon="13.002270059324996"><ele>465.75</ele><time>2026-03-28T11:14:25Z</time></trkpt><trkpt lat="43.18012740681125" lon="13.002392806183966"><ele>474.0</ele><time>2026-03-28T11:14:26Z</time></trkpt><trkpt lat="43.180211603708976" lon="13.002480268855754"><ele>472.33333333333337</ele><time>2026-03-28T11:14:28Z</time></trkpt><trkpt lat="43.18027029414973" lon="13.002523419167307"><ele>470.6666666666667</ele><time>2026-03-28T11:14:29Z</time></trkpt><trkpt lat="43.18033974566776" lon="13.002569526109824"><ele>469.0</ele><time>2026-03-28T11:14:30Z</time></trkpt><trkpt lat="43.18024602874576" lon="13.003095607519143"><ele>469.00000000000006</ele><time>2026-03-28T11:14:31Z</time></trkpt><trkpt lat="43.18032543340908" lon="13.003148282962353"><ele>469.0</ele><time>2026-03-28T11:14:32Z</time></trkpt><trkpt lat="43.18040022410629" lon="13.003219506360914"><ele>469.0</ele><time>2026-03-28T11:14:33Z</time></trkpt><trkpt lat="43.18042830993875" lon="13.003354541057968"><ele>469.0</ele><time>2026-03-28T11:14:36Z</time></trkpt><trkpt lat="43.180437791396756" lon="13.003450453990526"><ele>469.00000000000006</ele><time>2026-03-28T11:14:39Z</time></trkpt><trkpt lat="43.180494148138834" lon="13.003531818638763"><ele>469.0</ele><time>2026-03-28T11:14:41Z</time></trkpt><trkpt lat="43.18055124447357" lon="13.00360910173273"><ele>469.00000000000006</ele><time>2026-03-28T11:14:42Z</time></trkpt><trkpt lat="43.18062837532808" lon="13.003715460201931"><ele>469.0</ele><time>2026-03-28T11:14:44Z</time></trkpt><trkpt lat="43.180673039419446" lon="13.003789484664962"><ele>469.0</ele><time>2026-03-28T11:14:45Z</time></trkpt><trkpt lat="43.18071794161889" lon="13.003902939052132"><ele>469.0</ele><time>2026-03-28T11:14:46Z</time></trkpt><trkpt lat="43.18078612197581" lon="13.003945014139333"><ele>469.00000000000006</ele><time>2026-03-28T11:14:47Z</time></trkpt><trkpt lat="43.18085619886142" lon="13.003975718065906"><ele>469.0</ele><time>2026-03-28T11:14:48Z</time></trkpt><trkpt lat="43.18093523278525" lon="13.003987125624485"><ele>475.75</ele><time>2026-03-28T11:14:49Z</time></trkpt><trkpt lat="43.18100785336321" lon="13.003960622945657"><ele>482.5</ele><time>2026-03-28T11:14:50Z</time></trkpt><trkpt lat="43.181308200932776" lon="13.003947142718737"><ele>489.25</ele><time>2026-03-28T11:14:56Z</time></trkpt><trkpt lat="43.1813773449484" lon="13.003938586135268"><ele>496.0</ele><time>2026-03-28T11:14:57Z</time></trkpt><trkpt lat="43.1815479544229" lon="13.003940497552113"><ele>501.25</ele><time>2026-03-28T11:14:59Z</time></trkpt><trkpt lat="43.18163440223228" lon="13.003943682746739"><ele>506.5</ele><time>2026-03-28T11:15:00Z</time></trkpt><trkpt lat="43.18170836523345" lon="13.003953971077157"><ele>511.75</ele><time>2026-03-28T11:15:01Z</time></trkpt><trkpt lat="43.1819420786721" lon="13.003957957738347"><ele>517.0</ele><time>2026-03-28T11:15:04Z</time></trkpt><trkpt lat="43.182026166321315" lon="13.004003844172086"><ele>517.0</ele><time>2026-03-28T11:15:05Z</time></trkpt><trkpt lat="43.18211734162998" lon="13.004063648493025"><ele>517.0</ele><time>2026-03-28T11:15:06Z</time></trkpt><trkpt lat="43.18220367989176" lon="13.004179654465757"><ele>517.0</ele><time>2026-03-28T11:15:07Z</time></trkpt><trkpt lat="43.182291640734206" lon="13.004296692063123"><ele>517.0</ele><time>2026-03-28T11:15:08Z</time></trkpt><trkpt lat="43.18236402565778" lon="13.004379187512573"><ele>517.0</ele><time>2026-03-28T11:15:09Z</time></trkpt><trkpt lat="43.18245167383032" lon="13.004434940902298"><ele>519.6</ele><time>2026-03-28T11:15:10Z</time></trkpt><trkpt lat="43.18252068070572" lon="13.00452793486158"><ele>522.2</ele><time>2026-03-28T11:15:11Z</time></trkpt><trkpt lat="43.18259869562426" lon="13.004639335954597"><ele>524.8</ele><time>2026-03-28T11:15:12Z</time></trkpt><trkpt lat="43.18266694020171" lon="13.004755728399212"><ele>527.4</ele><time>2026-03-28T11:15:13Z</time></trkpt><trkpt lat="43.18272114977366" lon="13.004834274078632"><ele>530.0</ele><time>2026-03-28T11:15:14Z</time></trkpt><trkpt lat="43.18278109145617" lon="13.00490854245938"><ele>530.0</ele><time>2026-03-28T11:15:16Z</time></trkpt><trkpt lat="43.18289537393568" lon="13.004922625322788"><ele>530.0</ele><time>2026-03-28T11:15:18Z</time></trkpt><trkpt lat="43.18295899576448" lon="13.004932389044189"><ele>530.0</ele><time>2026-03-28T11:15:19Z</time></trkpt><trkpt lat="43.183032386187875" lon="13.004959755867047"><ele>530.0</ele><time>2026-03-28T11:15:20Z</time></trkpt><trkpt lat="43.18309698747297" lon="13.005002445084017"><ele>530.0</ele><time>2026-03-28T11:15:21.001Z</time></trkpt><trkpt lat="43.18316907140952" lon="13.005044082150393"><ele>530.0</ele><time>2026-03-28T11:15:22.001Z</time></trkpt><trkpt lat="43.18324648152709" lon="13.005112191090545"><ele>530.4</ele><time>2026-03-28T11:15:23.001Z</time></trkpt><trkpt lat="43.18331222171357" lon="13.005138394984233"><ele>530.8</ele><time>2026-03-28T11:15:24.001Z</time></trkpt><trkpt lat="43.18342336847519" lon="13.005263429105913"><ele>531.2</ele><time>2026-03-28T11:15:26.001Z</time></trkpt><trkpt lat="43.18354020361001" lon="13.005307612219832"><ele>531.6</ele><time>2026-03-28T11:15:28.001Z</time></trkpt><trkpt lat="43.18362924217953" lon="13.005327849448179"><ele>532.0</ele><time>2026-03-28T11:15:29.001Z</time></trkpt><trkpt lat="43.18372251376363" lon="13.005338470292042"><ele>532.0</ele><time>2026-03-28T11:15:30.001Z</time></trkpt><trkpt lat="43.18382611530068" lon="13.005356350081382"><ele>532.0</ele><time>2026-03-28T11:15:31.001Z</time></trkpt><trkpt lat="43.18387583907311" lon="13.005410221076323"><ele>532.0</ele><time>2026-03-28T11:15:32.001Z</time></trkpt><trkpt lat="43.18390939360473" lon="13.005494149949698"><ele>532.0</ele><time>2026-03-28T11:15:33.001Z</time></trkpt><trkpt lat="43.18396640606124" lon="13.005606081461712"><ele>532.0</ele><time>2026-03-28T11:15:35.001Z</time></trkpt><trkpt lat="43.18402388686878" lon="13.005674715425467"><ele>532.0</ele><time>2026-03-28T11:15:36.001Z</time></trkpt><trkpt lat="43.18406871656087" lon="13.005741837257103"><ele>530.8333333333334</ele><time>2026-03-28T11:15:37.001Z</time></trkpt><trkpt lat="43.184082565969916" lon="13.005829174110252"><ele>529.6666666666667</ele><time>2026-03-28T11:15:38.001Z</time></trkpt><trkpt lat="43.1841481346898" lon="13.005894231421761"><ele>528.5</ele><time>2026-03-28T11:15:39.001Z</time></trkpt><trkpt lat="43.18422677859927" lon="13.00594141185586"><ele>527.3333333333334</ele><time>2026-03-28T11:15:40.001Z</time></trkpt><trkpt lat="43.18430775321855" lon="13.005980111095038"><ele>526.1666666666666</ele><time>2026-03-28T11:15:41.001Z</time></trkpt><trkpt lat="43.18437453971827" lon="13.006030403158414"><ele>525.0</ele><time>2026-03-28T11:15:42.001Z</time></trkpt><trkpt lat="43.184573484205444" lon="13.00605886833523"><ele>525.0</ele><time>2026-03-28T11:15:45.001Z</time></trkpt><trkpt lat="43.18465749833044" lon="13.006095200561607"><ele>525.0</ele><time>2026-03-28T11:15:46.001Z</time></trkpt><trkpt lat="43.184743707786886" lon="13.006110251067271"><ele>525.0</ele><time>2026-03-28T11:15:47.001Z</time></trkpt><trkpt lat="43.18504463892923" lon="13.006100667324644"><ele>527.6</ele><time>2026-03-28T11:15:52.001Z</time></trkpt><trkpt lat="43.18517226083324" lon="13.006082229449504"><ele>530.2</ele><time>2026-03-28T11:15:54.001Z</time></trkpt><trkpt lat="43.18525024939793" lon="13.006084368567342"><ele>532.8</ele><time>2026-03-28T11:15:55.001Z</time></trkpt><trkpt lat="43.18531938161667" lon="13.006109687802294"><ele>535.4</ele><time>2026-03-28T11:15:56.001Z</time></trkpt><trkpt lat="43.18540260364622" lon="13.006117523326285"><ele>538.0</ele><time>2026-03-28T11:15:58.001Z</time></trkpt><trkpt lat="43.185497898689476" lon="13.006135503792793"><ele>538.0</ele><time>2026-03-28T11:16:00.001Z</time></trkpt><trkpt lat="43.18562638622345" lon="13.006141459294588"><ele>538.0</ele><time>2026-03-28T11:16:02.001Z</time></trkpt><trkpt lat="43.18570884166793" lon="13.006161147528466"><ele>538.0</ele><time>2026-03-28T11:16:03.001Z</time></trkpt><trkpt lat="43.185800729246154" lon="13.006177336979635"><ele>538.0</ele><time>2026-03-28T11:16:04.001Z</time></trkpt><trkpt lat="43.185894477035106" lon="13.006202460127229"><ele>538.0</ele><time>2026-03-28T11:16:05.001Z</time></trkpt><trkpt lat="43.185967587582724" lon="13.006208283462197"><ele>539.1666666666667</ele><time>2026-03-28T11:16:06.001Z</time></trkpt><trkpt lat="43.186045777443034" lon="13.006216107685349"><ele>540.3333333333334</ele><time>2026-03-28T11:16:07.001Z</time></trkpt><trkpt lat="43.18611581223289" lon="13.00622224992535"><ele>541.5</ele><time>2026-03-28T11:16:08.001Z</time></trkpt><trkpt lat="43.186188260452504" lon="13.006233759337029"><ele>542.6666666666666</ele><time>2026-03-28T11:16:09.001Z</time></trkpt><trkpt lat="43.18625899097659" lon="13.006250371320245"><ele>543.8333333333333</ele><time>2026-03-28T11:16:10.001Z</time></trkpt><trkpt lat="43.18633682706688" lon="13.006269492839465"><ele>545.0</ele><time>2026-03-28T11:16:11.001Z</time></trkpt><trkpt lat="43.18642083443681" lon="13.00627227558741"><ele>545.0</ele><time>2026-03-28T11:16:12.001Z</time></trkpt><trkpt lat="43.18649420453239" lon="13.006263433968936"><ele>545.0</ele><time>2026-03-28T11:16:13.001Z</time></trkpt><trkpt lat="43.186560894208135" lon="13.006257880517696"><ele>545.0</ele><time>2026-03-28T11:16:14.001Z</time></trkpt><trkpt lat="43.18669526527421" lon="13.006242686230836"><ele>545.0</ele><time>2026-03-28T11:16:16.001Z</time></trkpt><trkpt lat="43.186806602241106" lon="13.006256258890767"><ele>545.0</ele><time>2026-03-28T11:16:17.001Z</time></trkpt><trkpt lat="43.18689665313408" lon="13.006280545023778"><ele>547.6666666666666</ele><time>2026-03-28T11:16:18.001Z</time></trkpt><trkpt lat="43.18697713537713" lon="13.006291897019834"><ele>550.3333333333333</ele><time>2026-03-28T11:16:19.001Z</time></trkpt><trkpt lat="43.18705527000897" lon="13.006317366212837"><ele>553.0</ele><time>2026-03-28T11:16:20.001Z</time></trkpt><trkpt lat="43.18711988630229" lon="13.00634274401591"><ele>555.6666666666666</ele><time>2026-03-28T11:16:21.001Z</time></trkpt><trkpt lat="43.187190055630445" lon="13.006376998238316"><ele>558.3333333333334</ele><time>2026-03-28T11:16:22.001Z</time></trkpt><trkpt lat="43.18725009049451" lon="13.006406128764358"><ele>561.0</ele><time>2026-03-28T11:16:23.001Z</time></trkpt><trkpt lat="43.18735155133678" lon="13.006432085981139"><ele>565.2</ele><time>2026-03-28T11:16:25.001Z</time></trkpt><trkpt lat="43.187462350169184" lon="13.00652922861388"><ele>569.4000000000001</ele><time>2026-03-28T11:16:27.001Z</time></trkpt><trkpt lat="43.18753441944892" lon="13.006583694112026"><ele>573.6</ele><time>2026-03-28T11:16:29.001Z</time></trkpt><trkpt lat="43.187605558967284" lon="13.00656778026354"><ele>577.8000000000001</ele><time>2026-03-28T11:16:31.001Z</time></trkpt><trkpt lat="43.18770476509855" lon="13.00653519940506"><ele>582.0</ele><time>2026-03-28T11:16:33.001Z</time></trkpt><trkpt lat="43.18779950479253" lon="13.006521516899525"><ele>582.0</ele><time>2026-03-28T11:16:35.001Z</time></trkpt><trkpt lat="43.188031148840736" lon="13.006504309488564"><ele>582.0</ele><time>2026-03-28T11:16:40.001Z</time></trkpt><trkpt lat="43.188133620026676" lon="13.006429339384518"><ele>582.0</ele><time>2026-03-28T11:16:42.001Z</time></trkpt><trkpt lat="43.18821803270057" lon="13.006369023410912"><ele>582.0</ele><time>2026-03-28T11:16:44.001Z</time></trkpt><trkpt lat="43.18828087161427" lon="13.006316190723624"><ele>585.2</ele><time>2026-03-28T11:16:46.001Z</time></trkpt><trkpt lat="43.188335981947496" lon="13.006267040107488"><ele>588.4000000000001</ele><time>2026-03-28T11:16:47.001Z</time></trkpt><trkpt lat="43.18841540965524" lon="13.006176669595861"><ele>591.5999999999999</ele><time>2026-03-28T11:16:49.001Z</time></trkpt><trkpt lat="43.188493258918236" lon="13.006089508411772"><ele>594.8</ele><time>2026-03-28T11:16:51.001Z</time></trkpt><trkpt lat="43.18855798648873" lon="13.005988313207546"><ele>598.0</ele><time>2026-03-28T11:16:53.001Z</time></trkpt><trkpt lat="43.18863509177396" lon="13.005927693999357"><ele>598.0</ele><time>2026-03-28T11:16:55.001Z</time></trkpt><trkpt lat="43.188757108482854" lon="13.005897872535483"><ele>598.0</ele><time>2026-03-28T11:16:57.001Z</time></trkpt><trkpt lat="43.18882553508749" lon="13.005867370976091"><ele>598.0</ele><time>2026-03-28T11:16:58.001Z</time></trkpt><trkpt lat="43.18891958143924" lon="13.005839779809312"><ele>598.0</ele><time>2026-03-28T11:17:00.001Z</time></trkpt><trkpt lat="43.18894041885567" lon="13.005996820519599"><ele>598.0</ele><time>2026-03-28T11:17:01.001Z</time></trkpt><trkpt lat="43.18906695535621" lon="13.006061413101856"><ele>599.3333333333334</ele><time>2026-03-28T11:17:03.001Z</time></trkpt><trkpt lat="43.18913716281745" lon="13.006095848727155"><ele>600.6666666666667</ele><time>2026-03-28T11:17:04.001Z</time></trkpt><trkpt lat="43.189213527036635" lon="13.006128974809537"><ele>602.0</ele><time>2026-03-28T11:17:05.001Z</time></trkpt><trkpt lat="43.189278495629374" lon="13.006157114280482"><ele>603.3333333333334</ele><time>2026-03-28T11:17:06.001Z</time></trkpt><trkpt lat="43.189365555354016" lon="13.006192875913184"><ele>604.6666666666666</ele><time>2026-03-28T11:17:07.001Z</time></trkpt><trkpt lat="43.18945323070008" lon="13.006228925334828"><ele>606.0</ele><time>2026-03-28T11:17:08.001Z</time></trkpt><trkpt lat="43.18953092988887" lon="13.006265886526872"><ele>606.0</ele><time>2026-03-28T11:17:09.001Z</time></trkpt><trkpt lat="43.189613149789416" lon="13.006287655355353"><ele>606.0</ele><time>2026-03-28T11:17:10.001Z</time></trkpt><trkpt lat="43.18968932948822" lon="13.006354164648336"><ele>606.0</ele><time>2026-03-28T11:17:11.001Z</time></trkpt><trkpt lat="43.18976582269324" lon="13.006397820912506"><ele>606.0</ele><time>2026-03-28T11:17:12.001Z</time></trkpt><trkpt lat="43.18984483731192" lon="13.006441184401913"><ele>606.0</ele><time>2026-03-28T11:17:13.001Z</time></trkpt><trkpt lat="43.189918434953704" lon="13.006475532647197"><ele>606.0</ele><time>2026-03-28T11:17:14.001Z</time></trkpt><trkpt lat="43.18999325586299" lon="13.006507302569462"><ele>607.5</ele><time>2026-03-28T11:17:15.001Z</time></trkpt><trkpt lat="43.19007172120119" lon="13.006525185381816"><ele>609.0</ele><time>2026-03-28T11:17:16.001Z</time></trkpt><trkpt lat="43.19015246934569" lon="13.006536784578726"><ele>610.5</ele><time>2026-03-28T11:17:17.001Z</time></trkpt><trkpt lat="43.19024028606429" lon="13.006539912672023"><ele>612.0</ele><time>2026-03-28T11:17:18.001Z</time></trkpt><trkpt lat="43.19032900719615" lon="13.006537580289896"><ele>613.5</ele><time>2026-03-28T11:17:19.001Z</time></trkpt><trkpt lat="43.19040898966527" lon="13.006536941043125"><ele>615.0</ele><time>2026-03-28T11:17:20.001Z</time></trkpt><trkpt lat="43.19049783065232" lon="13.006540633562272"><ele>615.0</ele><time>2026-03-28T11:17:21.001Z</time></trkpt><trkpt lat="43.19057528559073" lon="13.006546533077124"><ele>615.0</ele><time>2026-03-28T11:17:22.001Z</time></trkpt><trkpt lat="43.19066352770031" lon="13.006557872010823"><ele>615.0</ele><time>2026-03-28T11:17:23.001Z</time></trkpt><trkpt lat="43.190742025987" lon="13.006560572660685"><ele>615.0</ele><time>2026-03-28T11:17:24.001Z</time></trkpt><trkpt lat="43.19081443365181" lon="13.006580108969843"><ele>615.0</ele><time>2026-03-28T11:17:25.001Z</time></trkpt><trkpt lat="43.19089362899874" lon="13.006604319023744"><ele>615.0</ele><time>2026-03-28T11:17:26.001Z</time></trkpt><trkpt lat="43.190978407755566" lon="13.00663843231609"><ele>614.2</ele><time>2026-03-28T11:17:27.001Z</time></trkpt><trkpt lat="43.191076114992306" lon="13.006671517182607"><ele>613.4</ele><time>2026-03-28T11:17:28.001Z</time></trkpt><trkpt lat="43.19116885809623" lon="13.006666166384933"><ele>612.6</ele><time>2026-03-28T11:17:29.001Z</time></trkpt><trkpt lat="43.19126935942288" lon="13.006642938860953"><ele>611.8</ele><time>2026-03-28T11:17:30.001Z</time></trkpt><trkpt lat="43.19137568554396" lon="13.006616673913118"><ele>611.0</ele><time>2026-03-28T11:17:31.001Z</time></trkpt><trkpt lat="43.19148527887825" lon="13.00658449337547"><ele>608.75</ele><time>2026-03-28T11:17:32.001Z</time></trkpt><trkpt lat="43.19159186737326" lon="13.00654278276941"><ele>606.5</ele><time>2026-03-28T11:17:33.001Z</time></trkpt><trkpt lat="43.19169421959883" lon="13.00649545170058"><ele>604.25</ele><time>2026-03-28T11:17:34.001Z</time></trkpt><trkpt lat="43.191802337872495" lon="13.006441228818225"><ele>602.0</ele><time>2026-03-28T11:17:35.001Z</time></trkpt><trkpt lat="43.19191344969283" lon="13.006384923064807"><ele>602.0</ele><time>2026-03-28T11:17:36.001Z</time></trkpt><trkpt lat="43.1920139681658" lon="13.006332028363747"><ele>602.0</ele><time>2026-03-28T11:17:37.001Z</time></trkpt><trkpt lat="43.19210062190392" lon="13.006286429169938"><ele>602.0</ele><time>2026-03-28T11:17:38.001Z</time></trkpt><trkpt lat="43.19219167005095" lon="13.006238517725963"><ele>602.0</ele><time>2026-03-28T11:17:39.001Z</time></trkpt><trkpt lat="43.19229671215344" lon="13.006183242567307"><ele>602.0</ele><time>2026-03-28T11:17:40.001Z</time></trkpt><trkpt lat="43.192397819621135" lon="13.006135592482329"><ele>599.4</ele><time>2026-03-28T11:17:41.001Z</time></trkpt><trkpt lat="43.1924929259227" lon="13.006109079310306"><ele>596.8000000000001</ele><time>2026-03-28T11:17:42.001Z</time></trkpt><trkpt lat="43.19257687239165" lon="13.006110326340135"><ele>594.2</ele><time>2026-03-28T11:17:43.001Z</time></trkpt><trkpt lat="43.19266359056718" lon="13.006121823531208"><ele>591.6</ele><time>2026-03-28T11:17:44.001Z</time></trkpt><trkpt lat="43.192763788114085" lon="13.006137461806835"><ele>589.0</ele><time>2026-03-28T11:17:45.001Z</time></trkpt><trkpt lat="43.19285277293647" lon="13.006149874041276"><ele>589.0</ele><time>2026-03-28T11:17:46.001Z</time></trkpt><trkpt lat="43.19293700488181" lon="13.006139194536118"><ele>589.0</ele><time>2026-03-28T11:17:47.001Z</time></trkpt><trkpt lat="43.19301755135399" lon="13.006165393654118"><ele>589.0</ele><time>2026-03-28T11:17:48.001Z</time></trkpt><trkpt lat="43.19309791769283" lon="13.006165315465088"><ele>589.0</ele><time>2026-03-28T11:17:49.001Z</time></trkpt><trkpt lat="43.193187363418836" lon="13.006160649618662"><ele>589.0</ele><time>2026-03-28T11:17:50.001Z</time></trkpt><trkpt lat="43.1932853691706" lon="13.006153480059954"><ele>589.0</ele><time>2026-03-28T11:17:51.001Z</time></trkpt><trkpt lat="43.19338436741109" lon="13.006144133585991"><ele>586.0</ele><time>2026-03-28T11:17:52.001Z</time></trkpt><trkpt lat="43.193505542349584" lon="13.006133008980187"><ele>583.0</ele><time>2026-03-28T11:17:53.001Z</time></trkpt><trkpt lat="43.193628369590165" lon="13.006104620617217"><ele>580.0</ele><time>2026-03-28T11:17:54.001Z</time></trkpt><trkpt lat="43.19373844914629" lon="13.006097351664591"><ele>577.0</ele><time>2026-03-28T11:17:55.001Z</time></trkpt><trkpt lat="43.193848792094066" lon="13.006094500268894"><ele>577.0</ele><time>2026-03-28T11:17:56.001Z</time></trkpt><trkpt lat="43.19395027532834" lon="13.006094787430014"><ele>577.0</ele><time>2026-03-28T11:17:57.001Z</time></trkpt><trkpt lat="43.19405561587078" lon="13.00609583491776"><ele>577.0</ele><time>2026-03-28T11:17:58.001Z</time></trkpt><trkpt lat="43.19415474444883" lon="13.006095328208284"><ele>577.0</ele><time>2026-03-28T11:17:59.001Z</time></trkpt><trkpt lat="43.19425304727186" lon="13.00608850824883"><ele>577.0</ele><time>2026-03-28T11:18:00.001Z</time></trkpt><trkpt lat="43.194361615288095" lon="13.006109975069945"><ele>576.0</ele><time>2026-03-28T11:18:01.001Z</time></trkpt><trkpt lat="43.194464986487986" lon="13.006097924677253"><ele>575.0</ele><time>2026-03-28T11:18:02.001Z</time></trkpt><trkpt lat="43.19457935875664" lon="13.00610931969648"><ele>574.0</ele><time>2026-03-28T11:18:03.001Z</time></trkpt><trkpt lat="43.194691353209976" lon="13.006106101793613"><ele>573.0</ele><time>2026-03-28T11:18:04.001Z</time></trkpt><trkpt lat="43.1948046253464" lon="13.00613256090887"><ele>572.0</ele><time>2026-03-28T11:18:05.001Z</time></trkpt><trkpt lat="43.19491748811614" lon="13.00611679038112"><ele>572.0</ele><time>2026-03-28T11:18:06.001Z</time></trkpt><trkpt lat="43.195036359382016" lon="13.006113749648264"><ele>572.0</ele><time>2026-03-28T11:18:07.001Z</time></trkpt><trkpt lat="43.19516652878189" lon="13.006125322996295"><ele>572.0</ele><time>2026-03-28T11:18:08.001Z</time></trkpt><trkpt lat="43.19528919751713" lon="13.006110388389168"><ele>572.0</ele><time>2026-03-28T11:18:09.001Z</time></trkpt><trkpt lat="43.19540118380485" lon="13.006104480270471"><ele>572.0</ele><time>2026-03-28T11:18:10.001Z</time></trkpt><trkpt lat="43.19551114819236" lon="13.006061235917286"><ele>572.0</ele><time>2026-03-28T11:18:11.001Z</time></trkpt><trkpt lat="43.19560710953469" lon="13.006012376223296"><ele>572.0</ele><time>2026-03-28T11:18:12.001Z</time></trkpt><trkpt lat="43.19569229144717" lon="13.005936894122653"><ele>572.0</ele><time>2026-03-28T11:18:13.001Z</time></trkpt><trkpt lat="43.19577046398593" lon="13.005871172816027"><ele>572.0</ele><time>2026-03-28T11:18:14.001Z</time></trkpt><trkpt lat="43.19585823191194" lon="13.005799938113793"><ele>572.4</ele><time>2026-03-28T11:18:15.001Z</time></trkpt><trkpt lat="43.19592948418496" lon="13.005727091868351"><ele>572.8000000000001</ele><time>2026-03-28T11:18:16.001Z</time></trkpt><trkpt lat="43.196012767411624" lon="13.005654020082453"><ele>573.2</ele><time>2026-03-28T11:18:17.001Z</time></trkpt><trkpt lat="43.19606812955263" lon="13.005538820199746"><ele>573.6</ele><time>2026-03-28T11:18:18.001Z</time></trkpt><trkpt lat="43.19613390144498" lon="13.005439733408213"><ele>574.0</ele><time>2026-03-28T11:18:19.001Z</time></trkpt><trkpt lat="43.19620848637708" lon="13.005337563656454"><ele>574.0</ele><time>2026-03-28T11:18:20.001Z</time></trkpt><trkpt lat="43.196295909278156" lon="13.005216939362565"><ele>574.0</ele><time>2026-03-28T11:18:21.001Z</time></trkpt><trkpt lat="43.19637991751496" lon="13.005101266205573"><ele>574.0</ele><time>2026-03-28T11:18:22.001Z</time></trkpt><trkpt lat="43.196468804428484" lon="13.004994106207992"><ele>574.0</ele><time>2026-03-28T11:18:23.001Z</time></trkpt><trkpt lat="43.19656154371982" lon="13.004886376950955"><ele>572.5</ele><time>2026-03-28T11:18:24.001Z</time></trkpt><trkpt lat="43.19664809779984" lon="13.004777280216093"><ele>571.0</ele><time>2026-03-28T11:18:25.001Z</time></trkpt><trkpt lat="43.19673214094883" lon="13.00467563637397"><ele>569.5</ele><time>2026-03-28T11:18:26.001Z</time></trkpt><trkpt lat="43.196828685173045" lon="13.00458919669167"><ele>568.0</ele><time>2026-03-28T11:18:27.001Z</time></trkpt><trkpt lat="43.19692643153876" lon="13.004502895342727"><ele>568.0</ele><time>2026-03-28T11:18:28.001Z</time></trkpt><trkpt lat="43.19702675728829" lon="13.004433931572096"><ele>568.0</ele><time>2026-03-28T11:18:29.001Z</time></trkpt><trkpt lat="43.197125702358896" lon="13.004368373475435"><ele>568.0</ele><time>2026-03-28T11:18:30.001Z</time></trkpt><trkpt lat="43.19723092464811" lon="13.004300919557618"><ele>568.0</ele><time>2026-03-28T11:18:31.001Z</time></trkpt><trkpt lat="43.197321962672696" lon="13.004211060088547"><ele>567.8</ele><time>2026-03-28T11:18:32.001Z</time></trkpt><trkpt lat="43.19742272665047" lon="13.004156505198521"><ele>567.5999999999999</ele><time>2026-03-28T11:18:33.001Z</time></trkpt><trkpt lat="43.19751423295536" lon="13.004077556169477"><ele>567.4000000000001</ele><time>2026-03-28T11:18:34.001Z</time></trkpt><trkpt lat="43.19759476789745" lon="13.003983445878873"><ele>567.2</ele><time>2026-03-28T11:18:35.001Z</time></trkpt><trkpt lat="43.19768016626953" lon="13.003913139786633"><ele>567.0</ele><time>2026-03-28T11:18:36.001Z</time></trkpt><trkpt lat="43.1977578857061" lon="13.003844528752056"><ele>567.0</ele><time>2026-03-28T11:18:37.001Z</time></trkpt><trkpt lat="43.19783317454391" lon="13.003772648407185"><ele>567.0</ele><time>2026-03-28T11:18:38.001Z</time></trkpt><trkpt lat="43.19787359340337" lon="13.003662913141087"><ele>567.0</ele><time>2026-03-28T11:18:39.001Z</time></trkpt><trkpt lat="43.19792627465228" lon="13.003560244451137"><ele>567.0</ele><time>2026-03-28T11:18:40.001Z</time></trkpt><trkpt lat="43.19798708573991" lon="13.003461225563806"><ele>567.0</ele><time>2026-03-28T11:18:41.001Z</time></trkpt><trkpt lat="43.198029027148465" lon="13.003353809554062"><ele>568.3333333333334</ele><time>2026-03-28T11:18:42.001Z</time></trkpt><trkpt lat="43.19807125713982" lon="13.003258018658197"><ele>569.6666666666666</ele><time>2026-03-28T11:18:43.001Z</time></trkpt><trkpt lat="43.19811739983264" lon="13.003156834932067"><ele>571.0</ele><time>2026-03-28T11:18:44.001Z</time></trkpt><trkpt lat="43.19816739231618" lon="13.00305545099489"><ele>572.3333333333333</ele><time>2026-03-28T11:18:45.001Z</time></trkpt><trkpt lat="43.198220577601724" lon="13.002949764661754"><ele>573.6666666666666</ele><time>2026-03-28T11:18:46.001Z</time></trkpt><trkpt lat="43.198276799105464" lon="13.002841693193968"><ele>575.0</ele><time>2026-03-28T11:18:47.001Z</time></trkpt><trkpt lat="43.19833475524558" lon="13.002739335862271"><ele>572.6666666666666</ele><time>2026-03-28T11:18:48.001Z</time></trkpt><trkpt lat="43.19838955625182" lon="13.002644493332891"><ele>570.3333333333333</ele><time>2026-03-28T11:18:49.001Z</time></trkpt><trkpt lat="43.198444333439106" lon="13.00255399006041"><ele>568.0</ele><time>2026-03-28T11:18:50.001Z</time></trkpt><trkpt lat="43.198499449617195" lon="13.00246448199565"><ele>565.6666666666666</ele><time>2026-03-28T11:18:51.001Z</time></trkpt><trkpt lat="43.19854171035066" lon="13.002361219833642"><ele>563.3333333333334</ele><time>2026-03-28T11:18:52.001Z</time></trkpt><trkpt lat="43.19856961669435" lon="13.002247430529025"><ele>561.0</ele><time>2026-03-28T11:18:53.001Z</time></trkpt><trkpt lat="43.1985877924579" lon="13.002134398262747"><ele>561.0</ele><time>2026-03-28T11:18:54.001Z</time></trkpt><trkpt lat="43.19860179081063" lon="13.002038280851309"><ele>561.0</ele><time>2026-03-28T11:18:55.001Z</time></trkpt><trkpt lat="43.19862548762217" lon="13.001942304746434"><ele>561.0</ele><time>2026-03-28T11:18:56.001Z</time></trkpt><trkpt lat="43.198658572364586" lon="13.001842696149382"><ele>561.0</ele><time>2026-03-28T11:18:57.001Z</time></trkpt><trkpt lat="43.198699218764304" lon="13.00174130881785"><ele>561.0</ele><time>2026-03-28T11:18:58.001Z</time></trkpt><trkpt lat="43.19874442734814" lon="13.001632451007444"><ele>561.0</ele><time>2026-03-28T11:18:59.001Z</time></trkpt><trkpt lat="43.19878841299794" lon="13.001530247903903"><ele>561.3333333333334</ele><time>2026-03-28T11:19:00.001Z</time></trkpt><trkpt lat="43.19883175840398" lon="13.001431310321188"><ele>561.6666666666666</ele><time>2026-03-28T11:19:01.001Z</time></trkpt><trkpt lat="43.198875863189826" lon="13.001330639439908"><ele>562.0</ele><time>2026-03-28T11:19:02.002Z</time></trkpt><trkpt lat="43.19891648043872" lon="13.001240848731577"><ele>562.3333333333333</ele><time>2026-03-28T11:19:03.002Z</time></trkpt><trkpt lat="43.19894569983798" lon="13.001140094480483"><ele>562.6666666666666</ele><time>2026-03-28T11:19:04.002Z</time></trkpt><trkpt lat="43.199011408830295" lon="13.001077363454089"><ele>563.0</ele><time>2026-03-28T11:19:05.002Z</time></trkpt><trkpt lat="43.19906199304819" lon="13.000988919998726"><ele>560.5</ele><time>2026-03-28T11:19:06.002Z</time></trkpt><trkpt lat="43.19912296402123" lon="13.000917997315879"><ele>558.0</ele><time>2026-03-28T11:19:07.002Z</time></trkpt><trkpt lat="43.19919785946463" lon="13.000854786769615"><ele>555.5</ele><time>2026-03-28T11:19:08.002Z</time></trkpt><trkpt lat="43.199277958665526" lon="13.000797675491926"><ele>553.0</ele><time>2026-03-28T11:19:09.002Z</time></trkpt><trkpt lat="43.199360037753294" lon="13.000743948666688"><ele>550.5</ele><time>2026-03-28T11:19:10.002Z</time></trkpt><trkpt lat="43.199444207347526" lon="13.000690227473493"><ele>548.0</ele><time>2026-03-28T11:19:11.002Z</time></trkpt><trkpt lat="43.19952134215645" lon="13.000627347202588"><ele>548.0</ele><time>2026-03-28T11:19:12.002Z</time></trkpt><trkpt lat="43.199602800389954" lon="13.000546112489618"><ele>548.0</ele><time>2026-03-28T11:19:13.002Z</time></trkpt><trkpt lat="43.19970173258104" lon="13.00050325803085"><ele>548.0</ele><time>2026-03-28T11:19:14.002Z</time></trkpt><trkpt lat="43.19980090318822" lon="13.000464428654308"><ele>548.0</ele><time>2026-03-28T11:19:15.002Z</time></trkpt><trkpt lat="43.19989897599039" lon="13.000411896414747"><ele>548.0</ele><time>2026-03-28T11:19:16.002Z</time></trkpt><trkpt lat="43.199999084515596" lon="13.000380677946612"><ele>545.6</ele><time>2026-03-28T11:19:17.002Z</time></trkpt><trkpt lat="43.20009569072328" lon="13.000341892867064"><ele>543.1999999999999</ele><time>2026-03-28T11:19:18.002Z</time></trkpt><trkpt lat="43.20019129532661" lon="13.000304284687024"><ele>540.8</ele><time>2026-03-28T11:19:19.002Z</time></trkpt><trkpt lat="43.200286903446624" lon="13.0002773019583"><ele>538.4</ele><time>2026-03-28T11:19:20.002Z</time></trkpt><trkpt lat="43.20038854668141" lon="13.00026713499831"><ele>536.0</ele><time>2026-03-28T11:19:21.002Z</time></trkpt><trkpt lat="43.200482850243404" lon="13.000240085616534"><ele>536.0</ele><time>2026-03-28T11:19:22.002Z</time></trkpt><trkpt lat="43.200581562781394" lon="13.000213071229824"><ele>536.0</ele><time>2026-03-28T11:19:23.002Z</time></trkpt><trkpt lat="43.200671260285404" lon="13.000189344436693"><ele>536.0</ele><time>2026-03-28T11:19:24.002Z</time></trkpt><trkpt lat="43.20076186317783" lon="13.000166674381937"><ele>536.0</ele><time>2026-03-28T11:19:25.002Z</time></trkpt><trkpt lat="43.20085354502592" lon="13.000148120621361"><ele>536.0</ele><time>2026-03-28T11:19:26.002Z</time></trkpt><trkpt lat="43.20093934029762" lon="13.000134540339202"><ele>534.3333333333333</ele><time>2026-03-28T11:19:27.002Z</time></trkpt><trkpt lat="43.201026320123596" lon="13.000123901508585"><ele>532.6666666666666</ele><time>2026-03-28T11:19:28.002Z</time></trkpt><trkpt lat="43.20111146148426" lon="13.000104823681765"><ele>531.0</ele><time>2026-03-28T11:19:29.002Z</time></trkpt><trkpt lat="43.201194953358765" lon="13.000092803555244"><ele>529.3333333333334</ele><time>2026-03-28T11:19:30.002Z</time></trkpt><trkpt lat="43.20127784562527" lon="13.00010402964594"><ele>527.6666666666667</ele><time>2026-03-28T11:19:31.002Z</time></trkpt><trkpt lat="43.20136984917159" lon="13.000090833122718"><ele>526.0</ele><time>2026-03-28T11:19:32.002Z</time></trkpt><trkpt lat="43.20148826987659" lon="13.00006668792328"><ele>523.5</ele><time>2026-03-28T11:19:33.002Z</time></trkpt><trkpt lat="43.20159371996118" lon="12.99993931399699"><ele>521.0</ele><time>2026-03-28T11:19:34.002Z</time></trkpt><trkpt lat="43.201627269444714" lon="12.999796375730819"><ele>518.5</ele><time>2026-03-28T11:19:35.002Z</time></trkpt><trkpt lat="43.20163081167835" lon="12.999644317977976"><ele>516.0</ele><time>2026-03-28T11:19:36.002Z</time></trkpt><trkpt lat="43.20161436887563" lon="12.999508928559214"><ele>516.0</ele><time>2026-03-28T11:19:37.002Z</time></trkpt><trkpt lat="43.2015887208648" lon="12.999389211128745"><ele>516.0</ele><time>2026-03-28T11:19:38.002Z</time></trkpt><trkpt lat="43.201556601822055" lon="12.99926678525187"><ele>516.0</ele><time>2026-03-28T11:19:39.002Z</time></trkpt><trkpt lat="43.20153025480651" lon="12.999168779926677"><ele>516.0</ele><time>2026-03-28T11:19:40.002Z</time></trkpt><trkpt lat="43.20149614106211" lon="12.999058442313432"><ele>516.0</ele><time>2026-03-28T11:19:41.002Z</time></trkpt><trkpt lat="43.20145958171374" lon="12.99894909182406"><ele>516.0</ele><time>2026-03-28T11:19:42.002Z</time></trkpt><trkpt lat="43.20145075882085" lon="12.998853838961875"><ele>518.5</ele><time>2026-03-28T11:19:43.002Z</time></trkpt><trkpt lat="43.20141515840592" lon="12.998767401737485"><ele>521.0</ele><time>2026-03-28T11:19:44.002Z</time></trkpt><trkpt lat="43.20139376746147" lon="12.998683796034745"><ele>523.5</ele><time>2026-03-28T11:19:45.002Z</time></trkpt><trkpt lat="43.201354939494045" lon="12.998546087928561"><ele>526.0</ele><time>2026-03-28T11:19:47.002Z</time></trkpt><trkpt lat="43.20134823569559" lon="12.99845743994972"><ele>528.5</ele><time>2026-03-28T11:19:48.002Z</time></trkpt><trkpt lat="43.20131515597531" lon="12.998318471630089"><ele>531.0</ele><time>2026-03-28T11:19:50.002Z</time></trkpt><trkpt lat="43.20135319138639" lon="12.998193441715138"><ele>531.6666666666666</ele><time>2026-03-28T11:19:52.002Z</time></trkpt><trkpt lat="43.20134760962786" lon="12.99806276116964"><ele>532.3333333333334</ele><time>2026-03-28T11:19:54.002Z</time></trkpt><trkpt lat="43.20136912507677" lon="12.997947911830192"><ele>533.0</ele><time>2026-03-28T11:19:55.002Z</time></trkpt><trkpt lat="43.201385008262655" lon="12.997852302739581"><ele>533.6666666666667</ele><time>2026-03-28T11:19:56.002Z</time></trkpt><trkpt lat="43.201389080349" lon="12.997758098640364"><ele>534.3333333333334</ele><time>2026-03-28T11:19:57.002Z</time></trkpt><trkpt lat="43.20143159700686" lon="12.997624660744123"><ele>535.0</ele><time>2026-03-28T11:19:58.002Z</time></trkpt><trkpt lat="43.20146158993374" lon="12.997541694390845"><ele>535.6666666666667</ele><time>2026-03-28T11:19:59.002Z</time></trkpt><trkpt lat="43.201493984034904" lon="12.997398474725223"><ele>536.3333333333334</ele><time>2026-03-28T11:20:00.002Z</time></trkpt><trkpt lat="43.201519863500906" lon="12.997111831866722"><ele>537.0</ele><time>2026-03-28T11:20:02.002Z</time></trkpt><trkpt lat="43.201587383713445" lon="12.996747300444301"><ele>525.0</ele><time>2026-03-28T11:20:04.002Z</time></trkpt><trkpt lat="43.20199395657559" lon="12.996849256369831"><ele>513.0</ele><time>2026-03-28T11:20:10.002Z</time></trkpt><trkpt lat="43.20205748280902" lon="12.997035876732506"><ele>513.0</ele><time>2026-03-28T11:20:12.002Z</time></trkpt><trkpt lat="43.20208926553445" lon="12.997177357257018"><ele>513.0</ele><time>2026-03-28T11:20:14.002Z</time></trkpt><trkpt lat="43.20215096651926" lon="12.997300133881133"><ele>513.0</ele><time>2026-03-28T11:20:16.002Z</time></trkpt><trkpt lat="43.20218721918673" lon="12.997384368628923"><ele>513.0</ele><time>2026-03-28T11:20:18.002Z</time></trkpt><trkpt lat="43.20222565171816" lon="12.997467981779426"><ele>513.0</ele><time>2026-03-28T11:20:19.002Z</time></trkpt><trkpt lat="43.20226560631433" lon="12.997593385044333"><ele>512.1999999999999</ele><time>2026-03-28T11:20:20Z</time></trkpt><trkpt lat="43.202322506065315" lon="12.997642171554894"><ele>511.4</ele><time>2026-03-28T11:20:21Z</time></trkpt><trkpt lat="43.20240279577795" lon="12.997710432723885"><ele>510.59999999999997</ele><time>2026-03-28T11:20:22Z</time></trkpt><trkpt lat="43.2024929408013" lon="12.997769807753196"><ele>509.79999999999995</ele><time>2026-03-28T11:20:23Z</time></trkpt><trkpt lat="43.20257615288743" lon="12.99781814199465"><ele>509.0</ele><time>2026-03-28T11:20:24Z</time></trkpt><trkpt lat="43.20273131043978" lon="12.997898455974791"><ele>508.25</ele><time>2026-03-28T11:20:25Z</time></trkpt><trkpt lat="43.20281719881325" lon="12.997937731789117"><ele>507.5</ele><time>2026-03-28T11:20:26Z</time></trkpt><trkpt lat="43.20293564753658" lon="12.997991897888507"><ele>506.75</ele><time>2026-03-28T11:20:27Z</time></trkpt><trkpt lat="43.20304797839113" lon="12.998040684319408"><ele>506.0</ele><time>2026-03-28T11:20:28Z</time></trkpt><trkpt lat="43.20316507040601" lon="12.998090162423953"><ele>506.0</ele><time>2026-03-28T11:20:28.999Z</time></trkpt><trkpt lat="43.203288510765844" lon="12.998130124963174"><ele>506.0</ele><time>2026-03-28T11:20:29.999Z</time></trkpt><trkpt lat="43.20341448203863" lon="12.998164761986567"><ele>506.0</ele><time>2026-03-28T11:20:30.999Z</time></trkpt><trkpt lat="43.203526926879874" lon="12.99817016739747"><ele>506.0</ele><time>2026-03-28T11:20:31.999Z</time></trkpt><trkpt lat="43.20364311141267" lon="12.998171911859863"><ele>506.0</ele><time>2026-03-28T11:20:32.999Z</time></trkpt><trkpt lat="43.20373941445222" lon="12.99817750645934"><ele>506.0</ele><time>2026-03-28T11:20:34Z</time></trkpt><trkpt lat="43.2038564998612" lon="12.998212582765643"><ele>506.0</ele><time>2026-03-28T11:20:35Z</time></trkpt><trkpt lat="43.20399401872194" lon="12.998289869945301"><ele>506.0</ele><time>2026-03-28T11:20:36Z</time></trkpt><trkpt lat="43.204108813481426" lon="12.998370905054825"><ele>502.75</ele><time>2026-03-28T11:20:37Z</time></trkpt><trkpt lat="43.204181677307076" lon="12.99842966974812"><ele>499.5</ele><time>2026-03-28T11:20:38Z</time></trkpt><trkpt lat="43.204311488460945" lon="12.998548408435214"><ele>496.25</ele><time>2026-03-28T11:20:39Z</time></trkpt><trkpt lat="43.20440486730846" lon="12.99863727353241"><ele>493.0</ele><time>2026-03-28T11:20:40Z</time></trkpt><trkpt lat="43.20447554756143" lon="12.998735595577957"><ele>493.0</ele><time>2026-03-28T11:20:41Z</time></trkpt><trkpt lat="43.20459688181566" lon="12.99880697650387"><ele>493.0</ele><time>2026-03-28T11:20:42Z</time></trkpt><trkpt lat="43.204695520452475" lon="12.99885846076117"><ele>493.0</ele><time>2026-03-28T11:20:43Z</time></trkpt><trkpt lat="43.20481366020957" lon="12.99892498748119"><ele>493.0</ele><time>2026-03-28T11:20:44Z</time></trkpt><trkpt lat="43.20490369425588" lon="12.99898797702626"><ele>491.5</ele><time>2026-03-28T11:20:45Z</time></trkpt><trkpt lat="43.2050106059995" lon="12.999048336091857"><ele>490.0</ele><time>2026-03-28T11:20:46Z</time></trkpt><trkpt lat="43.20510667582083" lon="12.999117472699186"><ele>488.5</ele><time>2026-03-28T11:20:47Z</time></trkpt><trkpt lat="43.205236983246024" lon="12.999206089935832"><ele>487.0</ele><time>2026-03-28T11:20:48Z</time></trkpt><trkpt lat="43.20535908715849" lon="12.999280652123407"><ele>487.0</ele><time>2026-03-28T11:20:49Z</time></trkpt><trkpt lat="43.20551637304026" lon="12.999278458173238"><ele>487.0</ele><time>2026-03-28T11:20:50Z</time></trkpt><trkpt lat="43.20566410646603" lon="12.999218506215975"><ele>487.0</ele><time>2026-03-28T11:20:51Z</time></trkpt><trkpt lat="43.205779396532435" lon="12.999144344640504"><ele>487.0</ele><time>2026-03-28T11:20:52Z</time></trkpt><trkpt lat="43.205902645863375" lon="12.999057501989796"><ele>490.8</ele><time>2026-03-28T11:20:53Z</time></trkpt><trkpt lat="43.20601372860378" lon="12.998978205554543"><ele>494.6</ele><time>2026-03-28T11:20:54Z</time></trkpt><trkpt lat="43.20611686267598" lon="12.99890585791385"><ele>498.40000000000003</ele><time>2026-03-28T11:20:55Z</time></trkpt><trkpt lat="43.206211068036104" lon="12.998840149799653"><ele>502.20000000000005</ele><time>2026-03-28T11:20:56Z</time></trkpt><trkpt lat="43.20630203711293" lon="12.998778080988458"><ele>506.0</ele><time>2026-03-28T11:20:57Z</time></trkpt><trkpt lat="43.206396919164" lon="12.99871758188732"><ele>506.0</ele><time>2026-03-28T11:20:58Z</time></trkpt><trkpt lat="43.20648864189643" lon="12.99866998226988"><ele>506.0</ele><time>2026-03-28T11:20:59Z</time></trkpt><trkpt lat="43.206572011642" lon="12.998647367772318"><ele>506.0</ele><time>2026-03-28T11:21:00Z</time></trkpt><trkpt lat="43.20666443740356" lon="12.998641079249051"><ele>506.0</ele><time>2026-03-28T11:21:01Z</time></trkpt><trkpt lat="43.20675028804278" lon="12.998646567071571"><ele>506.0</ele><time>2026-03-28T11:21:02Z</time></trkpt><trkpt lat="43.206841168608015" lon="12.998671853427341"><ele>506.4</ele><time>2026-03-28T11:21:03Z</time></trkpt><trkpt lat="43.20692466550053" lon="12.998718090788547"><ele>506.8</ele><time>2026-03-28T11:21:04Z</time></trkpt><trkpt lat="43.20699201279193" lon="12.99878172842801"><ele>507.19999999999993</ele><time>2026-03-28T11:21:05Z</time></trkpt><trkpt lat="43.2070531375875" lon="12.998852023712322"><ele>507.59999999999997</ele><time>2026-03-28T11:21:06Z</time></trkpt><trkpt lat="43.207110845632386" lon="12.998945015177297"><ele>508.0</ele><time>2026-03-28T11:21:08Z</time></trkpt><trkpt lat="43.20718584149967" lon="12.998832604185143"><ele>508.0</ele><time>2026-03-28T11:21:11Z</time></trkpt><trkpt lat="43.20716915683631" lon="12.998710885771496"><ele>507.99999999999994</ele><time>2026-03-28T11:21:13Z</time></trkpt><trkpt lat="43.20715220229146" lon="12.998570952354816"><ele>507.99999999999994</ele><time>2026-03-28T11:21:15Z</time></trkpt><trkpt lat="43.20718579761093" lon="12.99839616271133"><ele>508.0</ele><time>2026-03-28T11:21:17Z</time></trkpt><trkpt lat="43.207219465929754" lon="12.998295156656432"><ele>508.0</ele><time>2026-03-28T11:21:18Z</time></trkpt><trkpt lat="43.20726151510457" lon="12.998188299053973"><ele>509.5</ele><time>2026-03-28T11:21:19Z</time></trkpt><trkpt lat="43.20730154567156" lon="12.998040024452596"><ele>511.0</ele><time>2026-03-28T11:21:20Z</time></trkpt><trkpt lat="43.20733413491829" lon="12.997918882377585"><ele>512.5</ele><time>2026-03-28T11:21:21Z</time></trkpt><trkpt lat="43.20740173548861" lon="12.997797727033673"><ele>514.0</ele><time>2026-03-28T11:21:22Z</time></trkpt><trkpt lat="43.20745957600025" lon="12.997635418737687"><ele>516.0</ele><time>2026-03-28T11:21:23Z</time></trkpt><trkpt lat="43.20750425682051" lon="12.9974859329956"><ele>518.0</ele><time>2026-03-28T11:21:24Z</time></trkpt><trkpt lat="43.20753912773808" lon="12.997374327439898"><ele>520.0</ele><time>2026-03-28T11:21:25Z</time></trkpt><trkpt lat="43.20757210986219" lon="12.997282919476152"><ele>522.0</ele><time>2026-03-28T11:21:26Z</time></trkpt><trkpt lat="43.20759217803852" lon="12.997196750851598"><ele>524.0</ele><time>2026-03-28T11:21:27Z</time></trkpt><trkpt lat="43.2075680417146" lon="12.997106409278532"><ele>526.0</ele><time>2026-03-28T11:21:28Z</time></trkpt><trkpt lat="43.20756056479666" lon="12.996971768307235"><ele>526.0</ele><time>2026-03-28T11:21:30Z</time></trkpt><trkpt lat="43.207564131769" lon="12.996881930332723"><ele>526.0</ele><time>2026-03-28T11:21:31Z</time></trkpt><trkpt lat="43.20756730033537" lon="12.996773468786335"><ele>526.0</ele><time>2026-03-28T11:21:32Z</time></trkpt><trkpt lat="43.20760943957418" lon="12.996682247419434"><ele>526.0</ele><time>2026-03-28T11:21:33Z</time></trkpt><trkpt lat="43.20764783114347" lon="12.996610679515426"><ele>526.0</ele><time>2026-03-28T11:21:34Z</time></trkpt><trkpt lat="43.20777418352797" lon="12.996551841998025"><ele>526.0</ele><time>2026-03-28T11:21:36Z</time></trkpt><trkpt lat="43.20784785201955" lon="12.996504733273321"><ele>526.0</ele><time>2026-03-28T11:21:37Z</time></trkpt><trkpt lat="43.20794165626974" lon="12.996436961987696"><ele>526.0</ele><time>2026-03-28T11:21:38Z</time></trkpt><trkpt lat="43.20804036681551" lon="12.996378934903921"><ele>526.0</ele><time>2026-03-28T11:21:39Z</time></trkpt><trkpt lat="43.20814077162017" lon="12.996292127757151"><ele>526.0</ele><time>2026-03-28T11:21:40Z</time></trkpt><trkpt lat="43.20823223933991" lon="12.996193244872968"><ele>526.0</ele><time>2026-03-28T11:21:41Z</time></trkpt><trkpt lat="43.20829945122826" lon="12.996082026331027"><ele>526.0</ele><time>2026-03-28T11:21:42Z</time></trkpt><trkpt lat="43.20838063077057" lon="12.995999668007219"><ele>526.0</ele><time>2026-03-28T11:21:43Z</time></trkpt><trkpt lat="43.20841882242586" lon="12.995894877639453"><ele>526.0</ele><time>2026-03-28T11:21:44Z</time></trkpt><trkpt lat="43.20843751669725" lon="12.995761985799398"><ele>526.0</ele><time>2026-03-28T11:21:45Z</time></trkpt><trkpt lat="43.208444198355146" lon="12.99562696441507"><ele>526.0</ele><time>2026-03-28T11:21:46Z</time></trkpt><trkpt lat="43.20843745993757" lon="12.995474546293021"><ele>531.5</ele><time>2026-03-28T11:21:47Z</time></trkpt><trkpt lat="43.208408991144985" lon="12.9952896819197"><ele>537.0</ele><time>2026-03-28T11:21:48Z</time></trkpt><trkpt lat="43.20838809627796" lon="12.995086334280545"><ele>542.5</ele><time>2026-03-28T11:21:49Z</time></trkpt><trkpt lat="43.20836892551941" lon="12.99491211800525"><ele>548.0</ele><time>2026-03-28T11:21:50Z</time></trkpt><trkpt lat="43.20837133636367" lon="12.994726674403807"><ele>550.5</ele><time>2026-03-28T11:21:51Z</time></trkpt><trkpt lat="43.20839508910332" lon="12.994538848108045"><ele>553.0</ele><time>2026-03-28T11:21:52Z</time></trkpt><trkpt lat="43.20841105971311" lon="12.994361877989887"><ele>555.5</ele><time>2026-03-28T11:21:53Z</time></trkpt><trkpt lat="43.20842130290737" lon="12.994191841706545"><ele>558.0</ele><time>2026-03-28T11:21:54Z</time></trkpt><trkpt lat="43.208422599529996" lon="12.994034736312122"><ele>559.75</ele><time>2026-03-28T11:21:55Z</time></trkpt><trkpt lat="43.20838088203926" lon="12.993890299114122"><ele>561.5</ele><time>2026-03-28T11:21:56Z</time></trkpt><trkpt lat="43.20834287847395" lon="12.993747434048537"><ele>563.25</ele><time>2026-03-28T11:21:57Z</time></trkpt><trkpt lat="43.20826902439557" lon="12.993600807982276"><ele>565.0</ele><time>2026-03-28T11:21:58Z</time></trkpt><trkpt lat="43.20822301235252" lon="12.993459542876815"><ele>565.8</ele><time>2026-03-28T11:21:59Z</time></trkpt><trkpt lat="43.20819233090995" lon="12.993299157249425"><ele>566.6</ele><time>2026-03-28T11:22:00Z</time></trkpt><trkpt lat="43.20815664645531" lon="12.993152015764267"><ele>567.4</ele><time>2026-03-28T11:22:01Z</time></trkpt><trkpt lat="43.208140214598515" lon="12.993021832871168"><ele>568.2</ele><time>2026-03-28T11:22:02Z</time></trkpt><trkpt lat="43.20818138576717" lon="12.992870589895698"><ele>569.0</ele><time>2026-03-28T11:22:04Z</time></trkpt><trkpt lat="43.208242334216344" lon="12.992795848744146"><ele>569.0</ele><time>2026-03-28T11:22:06Z</time></trkpt><trkpt lat="43.20831873235945" lon="12.99270398977968"><ele>569.0</ele><time>2026-03-28T11:22:08Z</time></trkpt><trkpt lat="43.20836627199428" lon="12.992624632483473"><ele>569.0</ele><time>2026-03-28T11:22:10Z</time></trkpt><trkpt lat="43.208514297760814" lon="12.99261802557193"><ele>569.0</ele><time>2026-03-28T11:22:13Z</time></trkpt><trkpt lat="43.2086381819452" lon="12.992728275397303"><ele>569.0</ele><time>2026-03-28T11:22:14Z</time></trkpt><trkpt lat="43.2087406597509" lon="12.992854070280453"><ele>569.0</ele><time>2026-03-28T11:22:15Z</time></trkpt><trkpt lat="43.20885565390568" lon="12.992978830613149"><ele>569.0</ele><time>2026-03-28T11:22:16Z</time></trkpt><trkpt lat="43.20896892860994" lon="12.993097124012673"><ele>569.0</ele><time>2026-03-28T11:22:17Z</time></trkpt><trkpt lat="43.209054018722114" lon="12.993196797405203"><ele>568.4</ele><time>2026-03-28T11:22:18Z</time></trkpt><trkpt lat="43.2091355765188" lon="12.993292517537185"><ele>567.8</ele><time>2026-03-28T11:22:19Z</time></trkpt><trkpt lat="43.20919182232758" lon="12.993361773354641"><ele>567.2</ele><time>2026-03-28T11:22:20Z</time></trkpt><trkpt lat="43.20924215386216" lon="12.993470076401474"><ele>566.6</ele><time>2026-03-28T11:22:22Z</time></trkpt><trkpt lat="43.20931023099448" lon="12.993507158370997"><ele>566.0</ele><time>2026-03-28T11:22:28Z</time></trkpt><trkpt lat="43.20936124660974" lon="12.993373688848866"><ele>566.0</ele><time>2026-03-28T11:22:31Z</time></trkpt><trkpt lat="43.209378582952894" lon="12.993260524237666"><ele>566.0</ele><time>2026-03-28T11:22:33Z</time></trkpt><trkpt lat="43.20937561025993" lon="12.99313824993846"><ele>566.0</ele><time>2026-03-28T11:22:35Z</time></trkpt><trkpt lat="43.209367850400454" lon="12.99304731341825"><ele>566.0</ele><time>2026-03-28T11:22:37Z</time></trkpt><trkpt lat="43.209391764241445" lon="12.992907364266205"><ele>566.0</ele><time>2026-03-28T11:22:40Z</time></trkpt><trkpt lat="43.209402321250614" lon="12.992803538802763"><ele>566.0</ele><time>2026-03-28T11:22:42Z</time></trkpt><trkpt lat="43.20939018239018" lon="12.992690136229497"><ele>566.0</ele><time>2026-03-28T11:22:44Z</time></trkpt><trkpt lat="43.2093734786267" lon="12.992545713942654"><ele>566.0</ele><time>2026-03-28T11:22:46Z</time></trkpt><trkpt lat="43.20934089239458" lon="12.992430065628756"><ele>566.0</ele><time>2026-03-28T11:22:48Z</time></trkpt><trkpt lat="43.20932233654766" lon="12.992338429436357"><ele>566.0</ele><time>2026-03-28T11:22:50Z</time></trkpt><trkpt lat="43.20929928974828" lon="12.992224085216478"><ele>566.0</ele><time>2026-03-28T11:22:52Z</time></trkpt><trkpt lat="43.20924224503117" lon="12.992100671475846"><ele>569.0</ele><time>2026-03-28T11:22:54Z</time></trkpt><trkpt lat="43.2092170896566" lon="12.991988533233936"><ele>572.0</ele><time>2026-03-28T11:22:56Z</time></trkpt><trkpt lat="43.209177971827486" lon="12.991874260417266"><ele>575.0</ele><time>2026-03-28T11:22:59Z</time></trkpt><trkpt lat="43.20915259053424" lon="12.991756903109067"><ele>578.0</ele><time>2026-03-28T11:23:02Z</time></trkpt><trkpt lat="43.20916349827117" lon="12.991636035855608"><ele>581.0</ele><time>2026-03-28T11:23:05Z</time></trkpt><trkpt lat="43.20916385768311" lon="12.991537324710642"><ele>584.0</ele><time>2026-03-28T11:23:07Z</time></trkpt><trkpt lat="43.209155323429655" lon="12.99144401262936"><ele>587.1428571428571</ele><time>2026-03-28T11:23:09Z</time></trkpt><trkpt lat="43.20916061041703" lon="12.991353375693182"><ele>590.2857142857143</ele><time>2026-03-28T11:23:11Z</time></trkpt><trkpt lat="43.2091232471297" lon="12.991263515598085"><ele>593.4285714285714</ele><time>2026-03-28T11:23:13Z</time></trkpt><trkpt lat="43.209091239589604" lon="12.991183616368062"><ele>596.5714285714286</ele><time>2026-03-28T11:23:16Z</time></trkpt><trkpt lat="43.20907571941283" lon="12.991091565952933"><ele>599.7142857142857</ele><time>2026-03-28T11:23:19Z</time></trkpt><trkpt lat="43.20908721718269" lon="12.991004072081608"><ele>602.8571428571429</ele><time>2026-03-28T11:23:25Z</time></trkpt><trkpt lat="43.209151387472154" lon="12.990981871400187"><ele>606.0</ele><time>2026-03-28T11:23:31Z</time></trkpt><trkpt lat="43.20924210289203" lon="12.990951686910755"><ele>606.0</ele><time>2026-03-28T11:23:34Z</time></trkpt><trkpt lat="43.20931646563536" lon="12.990908927402318"><ele>606.0</ele><time>2026-03-28T11:23:36Z</time></trkpt><trkpt lat="43.20938319596185" lon="12.990867272576542"><ele>606.0</ele><time>2026-03-28T11:23:38Z</time></trkpt><trkpt lat="43.209446092865875" lon="12.990813564034104"><ele>606.0</ele><time>2026-03-28T11:23:40Z</time></trkpt><trkpt lat="43.209518023711816" lon="12.990751779539304"><ele>606.0</ele><time>2026-03-28T11:23:42Z</time></trkpt><trkpt lat="43.209587468854096" lon="12.990701267602223"><ele>606.0</ele><time>2026-03-28T11:23:44Z</time></trkpt><trkpt lat="43.20969082613657" lon="12.99064099708106"><ele>606.8</ele><time>2026-03-28T11:23:46Z</time></trkpt><trkpt lat="43.209784481456126" lon="12.9905745158952"><ele>607.6</ele><time>2026-03-28T11:23:48Z</time></trkpt><trkpt lat="43.209889744023606" lon="12.990516900185856"><ele>608.4</ele><time>2026-03-28T11:23:50Z</time></trkpt><trkpt lat="43.21000174315789" lon="12.990446596963839"><ele>609.2</ele><time>2026-03-28T11:23:52Z</time></trkpt><trkpt lat="43.21005981987277" lon="12.990403927348801"><ele>610.0</ele><time>2026-03-28T11:23:53Z</time></trkpt><trkpt lat="43.210121635326544" lon="12.990346197644298"><ele>610.0</ele><time>2026-03-28T11:23:54Z</time></trkpt><trkpt lat="43.210183187049076" lon="12.99031696634083"><ele>610.0</ele><time>2026-03-28T11:23:55Z</time></trkpt><trkpt lat="43.210249211875194" lon="12.99027112248051"><ele>610.0</ele><time>2026-03-28T11:23:56Z</time></trkpt><trkpt lat="43.21032705129364" lon="12.990236412049722"><ele>610.0</ele><time>2026-03-28T11:23:57Z</time></trkpt><trkpt lat="43.2104184086123" lon="12.990218073609462"><ele>610.0</ele><time>2026-03-28T11:23:58Z</time></trkpt><trkpt lat="43.21050386927536" lon="12.99021032393083"><ele>610.0</ele><time>2026-03-28T11:23:59Z</time></trkpt><trkpt lat="43.21058796416312" lon="12.99020661949292"><ele>607.5</ele><time>2026-03-28T11:24:00Z</time></trkpt><trkpt lat="43.21067529742275" lon="12.990205685826824"><ele>605.0</ele><time>2026-03-28T11:24:01Z</time></trkpt><trkpt lat="43.210769292965814" lon="12.99020386079235"><ele>602.5</ele><time>2026-03-28T11:24:02Z</time></trkpt><trkpt lat="43.21086213006817" lon="12.990193975779965"><ele>600.0</ele><time>2026-03-28T11:24:03Z</time></trkpt><trkpt lat="43.21094383813329" lon="12.990173756383596"><ele>597.5</ele><time>2026-03-28T11:24:04Z</time></trkpt><trkpt lat="43.211027680424536" lon="12.99014066041405"><ele>595.0</ele><time>2026-03-28T11:24:05Z</time></trkpt><trkpt lat="43.21112187648331" lon="12.990103344274642"><ele>595.0</ele><time>2026-03-28T11:24:06Z</time></trkpt><trkpt lat="43.2112272350311" lon="12.99005861986557"><ele>595.0</ele><time>2026-03-28T11:24:07Z</time></trkpt><trkpt lat="43.211344291163314" lon="12.99002255352303"><ele>595.0</ele><time>2026-03-28T11:24:08Z</time></trkpt><trkpt lat="43.211449612987074" lon="12.989987592496623"><ele>595.0</ele><time>2026-03-28T11:24:09Z</time></trkpt><trkpt lat="43.211552125565504" lon="12.989935803104212"><ele>595.0</ele><time>2026-03-28T11:24:10Z</time></trkpt><trkpt lat="43.21164621877287" lon="12.989884110578204"><ele>595.4</ele><time>2026-03-28T11:24:11Z</time></trkpt><trkpt lat="43.21174079372311" lon="12.98984969078684"><ele>595.8</ele><time>2026-03-28T11:24:12Z</time></trkpt><trkpt lat="43.21184262469014" lon="12.98984960151092"><ele>596.2</ele><time>2026-03-28T11:24:13Z</time></trkpt><trkpt lat="43.21193999929529" lon="12.98986828883312"><ele>596.6</ele><time>2026-03-28T11:24:14.001Z</time></trkpt><trkpt lat="43.21203747087257" lon="12.989881390945754"><ele>597.0</ele><time>2026-03-28T11:24:15.001Z</time></trkpt><trkpt lat="43.21214371412143" lon="12.989886055016736"><ele>597.0</ele><time>2026-03-28T11:24:16.001Z</time></trkpt><trkpt lat="43.212245903416054" lon="12.98993657005194"><ele>597.0</ele><time>2026-03-28T11:24:17.001Z</time></trkpt><trkpt lat="43.21246836337785" lon="12.989910839623034"><ele>597.0</ele><time>2026-03-28T11:24:19.001Z</time></trkpt><trkpt lat="43.212602778550604" lon="12.989867791676993"><ele>597.5</ele><time>2026-03-28T11:24:20.001Z</time></trkpt><trkpt lat="43.21271802215506" lon="12.989828859540424"><ele>598.0</ele><time>2026-03-28T11:24:21.001Z</time></trkpt><trkpt lat="43.21283052105165" lon="12.98979210236776"><ele>598.5</ele><time>2026-03-28T11:24:22.001Z</time></trkpt><trkpt lat="43.21294339006094" lon="12.98975717043981"><ele>599.0</ele><time>2026-03-28T11:24:23.001Z</time></trkpt><trkpt lat="43.213046600105656" lon="12.989727592000913"><ele>599.0</ele><time>2026-03-28T11:24:24.001Z</time></trkpt><trkpt lat="43.21314827918975" lon="12.989699414523992"><ele>599.0</ele><time>2026-03-28T11:24:25.001Z</time></trkpt><trkpt lat="43.21328469080616" lon="12.989668072229987"><ele>599.0</ele><time>2026-03-28T11:24:26.001Z</time></trkpt><trkpt lat="43.21339303306169" lon="12.989631108595404"><ele>599.0</ele><time>2026-03-28T11:24:27.001Z</time></trkpt><trkpt lat="43.213506218775194" lon="12.989617437548258"><ele>598.0</ele><time>2026-03-28T11:24:28.001Z</time></trkpt><trkpt lat="43.21364034806344" lon="12.989606641193179"><ele>597.0</ele><time>2026-03-28T11:24:29.001Z</time></trkpt><trkpt lat="43.213771590696595" lon="12.98959876237495"><ele>596.0</ele><time>2026-03-28T11:24:30.001Z</time></trkpt><trkpt lat="43.213888146091705" lon="12.989547124102222"><ele>595.0</ele><time>2026-03-28T11:24:31.001Z</time></trkpt><trkpt lat="43.213994028405715" lon="12.989492217262685"><ele>592.5</ele><time>2026-03-28T11:24:32.001Z</time></trkpt><trkpt lat="43.21410183030667" lon="12.98943606391713"><ele>590.0</ele><time>2026-03-28T11:24:33.001Z</time></trkpt><trkpt lat="43.2142062587262" lon="12.989383625180553"><ele>587.5</ele><time>2026-03-28T11:24:34.001Z</time></trkpt><trkpt lat="43.21431541205693" lon="12.989334030085942"><ele>585.0</ele><time>2026-03-28T11:24:35.001Z</time></trkpt><trkpt lat="43.2144307572383" lon="12.98928088553672"><ele>585.0</ele><time>2026-03-28T11:24:36.001Z</time></trkpt><trkpt lat="43.214552424522275" lon="12.98924967652201"><ele>585.0</ele><time>2026-03-28T11:24:37.001Z</time></trkpt><trkpt lat="43.21467566977722" lon="12.989195195309374"><ele>585.0</ele><time>2026-03-28T11:24:38.001Z</time></trkpt><trkpt lat="43.214797920435046" lon="12.989141153619332"><ele>585.0</ele><time>2026-03-28T11:24:39.001Z</time></trkpt><trkpt lat="43.214910854423536" lon="12.989091875616293"><ele>586.0</ele><time>2026-03-28T11:24:40.001Z</time></trkpt><trkpt lat="43.2150232788523" lon="12.989052913872808"><ele>587.0</ele><time>2026-03-28T11:24:41.001Z</time></trkpt><trkpt lat="43.215146799725744" lon="12.989010250239183"><ele>588.0</ele><time>2026-03-28T11:24:42.001Z</time></trkpt><trkpt lat="43.2152761869616" lon="12.98901071088437"><ele>589.0</ele><time>2026-03-28T11:24:43.001Z</time></trkpt><trkpt lat="43.21539382553257" lon="12.988974930715758"><ele>589.0</ele><time>2026-03-28T11:24:44.001Z</time></trkpt><trkpt lat="43.21551124899427" lon="12.988976406149487"><ele>589.0</ele><time>2026-03-28T11:24:45.001Z</time></trkpt><trkpt lat="43.21562918808079" lon="12.988953411043948"><ele>589.0</ele><time>2026-03-28T11:24:46.001Z</time></trkpt><trkpt lat="43.215745423162986" lon="12.988927109631668"><ele>589.0</ele><time>2026-03-28T11:24:47.001Z</time></trkpt><trkpt lat="43.2158646599118" lon="12.988896308118798"><ele>587.6</ele><time>2026-03-28T11:24:48.001Z</time></trkpt><trkpt lat="43.21597963821262" lon="12.9888601502261"><ele>586.2</ele><time>2026-03-28T11:24:49.001Z</time></trkpt><trkpt lat="43.2160878401529" lon="12.988821996303972"><ele>584.8000000000001</ele><time>2026-03-28T11:24:50.001Z</time></trkpt><trkpt lat="43.216188662526186" lon="12.988784018256206"><ele>583.4</ele><time>2026-03-28T11:24:51.001Z</time></trkpt><trkpt lat="43.21628196559432" lon="12.988758621240423"><ele>582.0</ele><time>2026-03-28T11:24:52.001Z</time></trkpt><trkpt lat="43.216383480561646" lon="12.98875161154886"><ele>580.2</ele><time>2026-03-28T11:24:53.001Z</time></trkpt><trkpt lat="43.21649071273969" lon="12.988766069558947"><ele>578.4000000000001</ele><time>2026-03-28T11:24:54.001Z</time></trkpt><trkpt lat="43.21659091224944" lon="12.988786556733448"><ele>576.5999999999999</ele><time>2026-03-28T11:24:55.001Z</time></trkpt><trkpt lat="43.21669752903965" lon="12.988808418923966"><ele>574.8</ele><time>2026-03-28T11:24:56.001Z</time></trkpt><trkpt lat="43.21678911023257" lon="12.988829384654585"><ele>573.0</ele><time>2026-03-28T11:24:57.001Z</time></trkpt><trkpt lat="43.21688654732825" lon="12.98885478835113"><ele>573.0</ele><time>2026-03-28T11:24:58.001Z</time></trkpt><trkpt lat="43.216986633654265" lon="12.988891784919312"><ele>573.0</ele><time>2026-03-28T11:24:59.001Z</time></trkpt><trkpt lat="43.21707326909374" lon="12.988944904432326"><ele>573.0</ele><time>2026-03-28T11:25:00.001Z</time></trkpt><trkpt lat="43.21716224333352" lon="12.988982006571497"><ele>573.0</ele><time>2026-03-28T11:25:01.001Z</time></trkpt><trkpt lat="43.21725548047201" lon="12.98895959349667"><ele>573.0</ele><time>2026-03-28T11:25:02.001Z</time></trkpt><trkpt lat="43.217364101019065" lon="12.988925702277674"><ele>571.0</ele><time>2026-03-28T11:25:03.001Z</time></trkpt><trkpt lat="43.21746370666624" lon="12.988883305266832"><ele>569.0</ele><time>2026-03-28T11:25:04.001Z</time></trkpt><trkpt lat="43.21756762191578" lon="12.988822569146125"><ele>567.0</ele><time>2026-03-28T11:25:05.001Z</time></trkpt><trkpt lat="43.2176568063246" lon="12.98871005406682"><ele>565.0</ele><time>2026-03-28T11:25:06.001Z</time></trkpt><trkpt lat="43.2177583250014" lon="12.988607146099794"><ele>565.0</ele><time>2026-03-28T11:25:07.001Z</time></trkpt><trkpt lat="43.21786613679115" lon="12.988505329949682"><ele>565.0</ele><time>2026-03-28T11:25:08.001Z</time></trkpt><trkpt lat="43.21796277544941" lon="12.98841792031734"><ele>565.0</ele><time>2026-03-28T11:25:09.001Z</time></trkpt><trkpt lat="43.218055237704526" lon="12.988331497410883"><ele>565.0</ele><time>2026-03-28T11:25:10.001Z</time></trkpt><trkpt lat="43.218139932364096" lon="12.988254304003082"><ele>564.0</ele><time>2026-03-28T11:25:11.001Z</time></trkpt><trkpt lat="43.21821607925714" lon="12.988182831209642"><ele>563.0</ele><time>2026-03-28T11:25:12.001Z</time></trkpt><trkpt lat="43.21829405300005" lon="12.988126486614398"><ele>562.0</ele><time>2026-03-28T11:25:13.001Z</time></trkpt><trkpt lat="43.218367655496266" lon="12.988114810018704"><ele>561.0</ele><time>2026-03-28T11:25:14.001Z</time></trkpt><trkpt lat="43.21848011912893" lon="12.988117371980197"><ele>560.0</ele><time>2026-03-28T11:25:16.001Z</time></trkpt><trkpt lat="43.21859452930105" lon="12.9881953327709"><ele>560.0</ele><time>2026-03-28T11:25:18.001Z</time></trkpt><trkpt lat="43.21867014414258" lon="12.98823620424496"><ele>560.0</ele><time>2026-03-28T11:25:19.001Z</time></trkpt><trkpt lat="43.21866643358588" lon="12.988366053149482"><ele>560.0</ele><time>2026-03-28T11:25:20.001Z</time></trkpt><trkpt lat="43.21868673476359" lon="12.988471137027444"><ele>560.0</ele><time>2026-03-28T11:25:21.001Z</time></trkpt><trkpt lat="43.21870650356661" lon="12.988603865402027"><ele>560.0</ele><time>2026-03-28T11:25:22.001Z</time></trkpt><trkpt lat="43.218734038324676" lon="12.988724367082497"><ele>560.0</ele><time>2026-03-28T11:25:23.001Z</time></trkpt><trkpt lat="43.21876334073784" lon="12.988835772764741"><ele>559.6</ele><time>2026-03-28T11:25:24.001Z</time></trkpt><trkpt lat="43.2188107931456" lon="12.988936278368534"><ele>559.2</ele><time>2026-03-28T11:25:25.001Z</time></trkpt><trkpt lat="43.21884061933202" lon="12.989029768620712"><ele>558.8</ele><time>2026-03-28T11:25:26.001Z</time></trkpt><trkpt lat="43.218863318556025" lon="12.989165855289198"><ele>558.4</ele><time>2026-03-28T11:25:28.001Z</time></trkpt><trkpt lat="43.21898528701278" lon="12.989166524484407"><ele>558.0</ele><time>2026-03-28T11:25:31.001Z</time></trkpt><trkpt lat="43.21906788386067" lon="12.98906800369583"><ele>557.1666666666666</ele><time>2026-03-28T11:25:33.001Z</time></trkpt><trkpt lat="43.21911926236459" lon="12.988996149192626"><ele>556.3333333333334</ele><time>2026-03-28T11:25:34.001Z</time></trkpt><trkpt lat="43.21916611964992" lon="12.988932904531877"><ele>555.5</ele><time>2026-03-28T11:25:35.001Z</time></trkpt><trkpt lat="43.219219334066075" lon="12.98888530083672"><ele>554.6666666666667</ele><time>2026-03-28T11:25:36.001Z</time></trkpt><trkpt lat="43.21932857961874" lon="12.98881019367996"><ele>553.8333333333334</ele><time>2026-03-28T11:25:38.001Z</time></trkpt><trkpt lat="43.21943022527705" lon="12.988750360029686"><ele>553.0</ele><time>2026-03-28T11:25:40.001Z</time></trkpt><trkpt lat="43.21954714353922" lon="12.988705893300523"><ele>553.0</ele><time>2026-03-28T11:25:42.001Z</time></trkpt><trkpt lat="43.2196148519945" lon="12.988677573963537"><ele>553.0</ele><time>2026-03-28T11:25:43.001Z</time></trkpt><trkpt lat="43.21968287364621" lon="12.988655036278072"><ele>553.0</ele><time>2026-03-28T11:25:44.001Z</time></trkpt><trkpt lat="43.21974676787778" lon="12.988647998839808"><ele>553.0</ele><time>2026-03-28T11:25:45.001Z</time></trkpt><trkpt lat="43.219853583576565" lon="12.988640852969956"><ele>553.0</ele><time>2026-03-28T11:25:47.001Z</time></trkpt><trkpt lat="43.21993409137647" lon="12.988598918868574"><ele>553.0</ele><time>2026-03-28T11:25:49.001Z</time></trkpt><trkpt lat="43.21999435653864" lon="12.988511017841809"><ele>552.5</ele><time>2026-03-28T11:25:52.001Z</time></trkpt><trkpt lat="43.22000094711984" lon="12.98840349965098"><ele>552.0</ele><time>2026-03-28T11:25:55.001Z</time></trkpt><trkpt lat="43.21997654670728" lon="12.988323570032717"><ele>551.5</ele><time>2026-03-28T11:25:57.001Z</time></trkpt><trkpt lat="43.219906767596505" lon="12.98824273611564"><ele>551.0</ele><time>2026-03-28T11:25:59.001Z</time></trkpt><trkpt lat="43.219832027001985" lon="12.98814495559398"><ele>550.5</ele><time>2026-03-28T11:26:01.001Z</time></trkpt><trkpt lat="43.21974754640039" lon="12.988042663856785"><ele>550.0</ele><time>2026-03-28T11:26:03.001Z</time></trkpt><trkpt lat="43.21966389443351" lon="12.987956637718716"><ele>550.0</ele><time>2026-03-28T11:26:05.001Z</time></trkpt><trkpt lat="43.21958942618581" lon="12.9878801536349"><ele>550.0</ele><time>2026-03-28T11:26:07.001Z</time></trkpt><trkpt lat="43.21950903704824" lon="12.9878168987205"><ele>550.0</ele><time>2026-03-28T11:26:09.001Z</time></trkpt><trkpt lat="43.2194531287622" lon="12.987770194803081"><ele>550.0</ele><time>2026-03-28T11:26:10.001Z</time></trkpt><trkpt lat="43.21938657677784" lon="12.987722520047878"><ele>550.0</ele><time>2026-03-28T11:26:11.001Z</time></trkpt><trkpt lat="43.21932844535134" lon="12.9876756538735"><ele>550.0</ele><time>2026-03-28T11:26:12.001Z</time></trkpt><trkpt lat="43.219240782975476" lon="12.987631656945723"><ele>550.0</ele><time>2026-03-28T11:26:14.001Z</time></trkpt><trkpt lat="43.219149123249096" lon="12.987555098110553"><ele>550.0</ele><time>2026-03-28T11:26:16.001Z</time></trkpt><trkpt lat="43.219049182062996" lon="12.987495223459435"><ele>550.0</ele><time>2026-03-28T11:26:18.001Z</time></trkpt><trkpt lat="43.21896602883987" lon="12.987409489898344"><ele>550.0</ele><time>2026-03-28T11:26:20.001Z</time></trkpt><trkpt lat="43.218875295128875" lon="12.987352222814943"><ele>550.0</ele><time>2026-03-28T11:26:22.001Z</time></trkpt><trkpt lat="43.21877630772761" lon="12.987261637187213"><ele>548.6</ele><time>2026-03-28T11:26:24.001Z</time></trkpt><trkpt lat="43.21868192431697" lon="12.987191324804554"><ele>547.2</ele><time>2026-03-28T11:26:26.001Z</time></trkpt><trkpt lat="43.21859812063569" lon="12.987154838742008"><ele>545.8</ele><time>2026-03-28T11:26:28.001Z</time></trkpt><trkpt lat="43.2185491811818" lon="12.987015055418475"><ele>544.4</ele><time>2026-03-28T11:26:30.001Z</time></trkpt><trkpt lat="43.21848039939252" lon="12.986914622278022"><ele>543.0</ele><time>2026-03-28T11:26:32.001Z</time></trkpt><trkpt lat="43.21842305065786" lon="12.986863792138244"><ele>543.0</ele><time>2026-03-28T11:26:33.001Z</time></trkpt><trkpt lat="43.21834744851266" lon="12.986787208258404"><ele>543.0</ele><time>2026-03-28T11:26:35.001Z</time></trkpt><trkpt lat="43.218284943778556" lon="12.986830224733756"><ele>543.0</ele><time>2026-03-28T11:26:39.001Z</time></trkpt><trkpt lat="43.21823102538794" lon="12.986682848571643"><ele>543.0</ele><time>2026-03-28T11:26:42.001Z</time></trkpt><trkpt lat="43.218171321122405" lon="12.986627368666786"><ele>543.0</ele><time>2026-03-28T11:26:47.001Z</time></trkpt><trkpt lat="43.21825334270629" lon="12.986563700600053"><ele>538.1999999999999</ele><time>2026-03-28T11:26:52.001Z</time></trkpt><trkpt lat="43.21832787025489" lon="12.98643173506576"><ele>533.4</ele><time>2026-03-28T11:26:54.001Z</time></trkpt><trkpt lat="43.21838582896486" lon="12.986348934087228"><ele>528.5999999999999</ele><time>2026-03-28T11:26:56.001Z</time></trkpt><trkpt lat="43.218504470013904" lon="12.986232675678439"><ele>523.8</ele><time>2026-03-28T11:26:58.001Z</time></trkpt><trkpt lat="43.218558603707876" lon="12.98617348785801"><ele>519.0</ele><time>2026-03-28T11:26:59.001Z</time></trkpt><trkpt lat="43.218623666740825" lon="12.986096405084302"><ele>519.0</ele><time>2026-03-28T11:27:00.001Z</time></trkpt><trkpt lat="43.21869344464117" lon="12.986006049291126"><ele>519.0</ele><time>2026-03-28T11:27:02.001Z</time></trkpt><trkpt lat="43.2187642413807" lon="12.985895582108833"><ele>519.0</ele><time>2026-03-28T11:27:04.001Z</time></trkpt><trkpt lat="43.21880219934304" lon="12.985760544597875"><ele>519.0</ele><time>2026-03-28T11:27:06.001Z</time></trkpt><trkpt lat="43.21880422224435" lon="12.985664043350718"><ele>519.0</ele><time>2026-03-28T11:27:07.001Z</time></trkpt><trkpt lat="43.21881149137255" lon="12.985574650153131"><ele>519.0</ele><time>2026-03-28T11:27:08.001Z</time></trkpt><trkpt lat="43.21882803915508" lon="12.985488200697633"><ele>518.8</ele><time>2026-03-28T11:27:09.001Z</time></trkpt><trkpt lat="43.218909929257414" lon="12.985369984300865"><ele>518.5999999999999</ele><time>2026-03-28T11:27:11.001Z</time></trkpt><trkpt lat="43.21898014742875" lon="12.98525606292138"><ele>518.4</ele><time>2026-03-28T11:27:13.001Z</time></trkpt><trkpt lat="43.219025390143265" lon="12.985168977141685"><ele>518.1999999999999</ele><time>2026-03-28T11:27:17.001Z</time></trkpt><trkpt lat="43.21905805234604" lon="12.985091228548674"><ele>518.0</ele><time>2026-03-28T11:27:22.001Z</time></trkpt><trkpt lat="43.2190071737885" lon="12.98500240325355"><ele>520.0</ele><time>2026-03-28T11:27:26Z</time></trkpt><trkpt lat="43.21898723985506" lon="12.984904511277245"><ele>522.0</ele><time>2026-03-28T11:27:32Z</time></trkpt><trkpt lat="43.21899660947882" lon="12.984818534705184"><ele>524.0</ele><time>2026-03-28T11:27:35Z</time></trkpt><trkpt lat="43.219032257795966" lon="12.9847169994336"><ele>526.0</ele><time>2026-03-28T11:27:37Z</time></trkpt><trkpt lat="43.21905436239502" lon="12.98462947984807"><ele>528.0</ele><time>2026-03-28T11:27:39Z</time></trkpt><trkpt lat="43.219074710429304" lon="12.98453718061286"><ele>530.0</ele><time>2026-03-28T11:27:46Z</time></trkpt><trkpt lat="43.218977031389024" lon="12.984391134584337"><ele>530.0</ele><time>2026-03-28T11:28:01Z</time></trkpt><trkpt lat="43.218911762319735" lon="12.984347322564878"><ele>530.0</ele><time>2026-03-28T11:28:02Z</time></trkpt><trkpt lat="43.21884123659693" lon="12.984318239335408"><ele>530.0</ele><time>2026-03-28T11:28:03Z</time></trkpt><trkpt lat="43.21876914473764" lon="12.984303194039338"><ele>530.0</ele><time>2026-03-28T11:28:04Z</time></trkpt><trkpt lat="43.218686888278555" lon="12.984226774132182"><ele>530.0</ele><time>2026-03-28T11:28:05Z</time></trkpt><trkpt lat="43.218628590095086" lon="12.984123882609467"><ele>530.0</ele><time>2026-03-28T11:28:06Z</time></trkpt><trkpt lat="43.21857393456178" lon="12.98402214532397"><ele>531.8</ele><time>2026-03-28T11:28:07Z</time></trkpt><trkpt lat="43.21851430524192" lon="12.983913481605656"><ele>533.6</ele><time>2026-03-28T11:28:08Z</time></trkpt><trkpt lat="43.218457593018826" lon="12.983799028415223"><ele>535.4</ele><time>2026-03-28T11:28:09Z</time></trkpt><trkpt lat="43.2183787288791" lon="12.98365799980368"><ele>537.2</ele><time>2026-03-28T11:28:10Z</time></trkpt><trkpt lat="43.218312183237835" lon="12.98353673110535"><ele>539.0</ele><time>2026-03-28T11:28:11Z</time></trkpt><trkpt lat="43.21824494767444" lon="12.983422938874197"><ele>539.0</ele><time>2026-03-28T11:28:12Z</time></trkpt><trkpt lat="43.21816622229002" lon="12.983322572036245"><ele>539.0</ele><time>2026-03-28T11:28:13Z</time></trkpt><trkpt lat="43.21808371745212" lon="12.983247945790819"><ele>539.0</ele><time>2026-03-28T11:28:14Z</time></trkpt><trkpt lat="43.21800345785203" lon="12.983199357475803"><ele>539.0</ele><time>2026-03-28T11:28:15Z</time></trkpt><trkpt lat="43.217921396214436" lon="12.983148457394655"><ele>539.0</ele><time>2026-03-28T11:28:16Z</time></trkpt><trkpt lat="43.21785698600073" lon="12.98311353498111"><ele>540.0</ele><time>2026-03-28T11:28:17Z</time></trkpt><trkpt lat="43.21778710529846" lon="12.983120554898795"><ele>541.0</ele><time>2026-03-28T11:28:18Z</time></trkpt><trkpt lat="43.21771591895203" lon="12.983156244908114"><ele>542.0</ele><time>2026-03-28T11:28:19Z</time></trkpt><trkpt lat="43.21765356016948" lon="12.983183019419696"><ele>543.0</ele><time>2026-03-28T11:28:20Z</time></trkpt><trkpt lat="43.2175824788777" lon="12.983217796184837"><ele>544.0</ele><time>2026-03-28T11:28:21Z</time></trkpt><trkpt lat="43.21747009151716" lon="12.983247872990713"><ele>545.0</ele><time>2026-03-28T11:28:23Z</time></trkpt><trkpt lat="43.217404969757446" lon="12.983245259649147"><ele>545.0</ele><time>2026-03-28T11:28:24Z</time></trkpt><trkpt lat="43.21732102755255" lon="12.983245749073406"><ele>545.0</ele><time>2026-03-28T11:28:25Z</time></trkpt><trkpt lat="43.21721940867963" lon="12.983240299895838"><ele>545.0</ele><time>2026-03-28T11:28:26Z</time></trkpt><trkpt lat="43.21710874423713" lon="12.983243191583595"><ele>545.0</ele><time>2026-03-28T11:28:27Z</time></trkpt><trkpt lat="43.21702270415611" lon="12.983238246800624"><ele>545.0</ele><time>2026-03-28T11:28:28Z</time></trkpt><trkpt lat="43.216940179490265" lon="12.983227912042633"><ele>545.0</ele><time>2026-03-28T11:28:29Z</time></trkpt><trkpt lat="43.21685055360756" lon="12.983220552458627"><ele>545.0</ele><time>2026-03-28T11:28:30Z</time></trkpt><trkpt lat="43.216756677471814" lon="12.9832152780124"><ele>545.0</ele><time>2026-03-28T11:28:31Z</time></trkpt><trkpt lat="43.21665567951794" lon="12.983213366490723"><ele>545.0</ele><time>2026-03-28T11:28:32Z</time></trkpt><trkpt lat="43.21656363346219" lon="12.983204926534894"><ele>545.0</ele><time>2026-03-28T11:28:33Z</time></trkpt><trkpt lat="43.216479502936544" lon="12.983198966950493"><ele>545.5</ele><time>2026-03-28T11:28:34Z</time></trkpt><trkpt lat="43.21639982881688" lon="12.983197513822184"><ele>546.0</ele><time>2026-03-28T11:28:35Z</time></trkpt><trkpt lat="43.2163286702447" lon="12.98319494914342"><ele>546.5</ele><time>2026-03-28T11:28:36Z</time></trkpt><trkpt lat="43.216258092362864" lon="12.983188309449565"><ele>547.0</ele><time>2026-03-28T11:28:37Z</time></trkpt><trkpt lat="43.216183217372695" lon="12.983173227985368"><ele>547.5</ele><time>2026-03-28T11:28:38Z</time></trkpt><trkpt lat="43.21611223433058" lon="12.98315451193415"><ele>548.0</ele><time>2026-03-28T11:28:39Z</time></trkpt><trkpt lat="43.21602375366894" lon="12.983112130034911"><ele>548.0</ele><time>2026-03-28T11:28:40Z</time></trkpt><trkpt lat="43.2159452011853" lon="12.98308436701716"><ele>548.0</ele><time>2026-03-28T11:28:41Z</time></trkpt><trkpt lat="43.215870235234476" lon="12.9830572111947"><ele>548.0</ele><time>2026-03-28T11:28:42Z</time></trkpt><trkpt lat="43.21579013431786" lon="12.983026571426844"><ele>548.0</ele><time>2026-03-28T11:28:43Z</time></trkpt><trkpt lat="43.21570545726581" lon="12.983001624665917"><ele>548.0</ele><time>2026-03-28T11:28:44Z</time></trkpt><trkpt lat="43.21563165504209" lon="12.982983312632287"><ele>548.0</ele><time>2026-03-28T11:28:45Z</time></trkpt><trkpt lat="43.21556699736817" lon="12.982969873730253"><ele>550.6</ele><time>2026-03-28T11:28:46Z</time></trkpt><trkpt lat="43.21545608103639" lon="12.982960986809363"><ele>553.1999999999999</ele><time>2026-03-28T11:28:48Z</time></trkpt><trkpt lat="43.21538262050993" lon="12.98301721658899"><ele>555.8</ele><time>2026-03-28T11:28:50Z</time></trkpt><trkpt lat="43.21533482369818" lon="12.9831267859706"><ele>558.4</ele><time>2026-03-28T11:28:52Z</time></trkpt><trkpt lat="43.21528425097299" lon="12.983268303426847"><ele>561.0</ele><time>2026-03-28T11:28:54Z</time></trkpt><trkpt lat="43.21521634254298" lon="12.983373095764811"><ele>561.0</ele><time>2026-03-28T11:28:56Z</time></trkpt><trkpt lat="43.21515017450546" lon="12.98335232751731"><ele>561.0</ele><time>2026-03-28T11:28:58Z</time></trkpt><trkpt lat="43.21505780697882" lon="12.983274414221306"><ele>561.0</ele><time>2026-03-28T11:29:00Z</time></trkpt><trkpt lat="43.214999689839416" lon="12.983219215711213"><ele>561.0</ele><time>2026-03-28T11:29:01Z</time></trkpt><trkpt lat="43.2149423503275" lon="12.98317431436218"><ele>561.0</ele><time>2026-03-28T11:29:02Z</time></trkpt><trkpt lat="43.214879154185866" lon="12.983152920765415"><ele>561.0</ele><time>2026-03-28T11:29:03Z</time></trkpt><trkpt lat="43.21476144730644" lon="12.98312721041361"><ele>564.6</ele><time>2026-03-28T11:29:05Z</time></trkpt><trkpt lat="43.21463686732523" lon="12.983116818151203"><ele>568.2</ele><time>2026-03-28T11:29:07Z</time></trkpt><trkpt lat="43.21456682915217" lon="12.983106660483111"><ele>571.8</ele><time>2026-03-28T11:29:08Z</time></trkpt><trkpt lat="43.21449426838444" lon="12.98308231058731"><ele>575.4</ele><time>2026-03-28T11:29:09Z</time></trkpt><trkpt lat="43.21434628008658" lon="12.983017316501579"><ele>579.0</ele><time>2026-03-28T11:29:11Z</time></trkpt><trkpt lat="43.2142640109335" lon="12.982985972943984"><ele>579.0</ele><time>2026-03-28T11:29:12Z</time></trkpt><trkpt lat="43.21418313301687" lon="12.982942977864743"><ele>579.0</ele><time>2026-03-28T11:29:13Z</time></trkpt><trkpt lat="43.214111460792665" lon="12.982911596150943"><ele>579.0</ele><time>2026-03-28T11:29:14Z</time></trkpt><trkpt lat="43.214042062871684" lon="12.982891192958967"><ele>579.0</ele><time>2026-03-28T11:29:15Z</time></trkpt><trkpt lat="43.21396727950753" lon="12.9828318767274"><ele>579.0</ele><time>2026-03-28T11:29:16Z</time></trkpt><trkpt lat="43.21389025241718" lon="12.982777052266146"><ele>579.0</ele><time>2026-03-28T11:29:17Z</time></trkpt><trkpt lat="43.21380804682246" lon="12.982723089146502"><ele>579.6666666666666</ele><time>2026-03-28T11:29:18Z</time></trkpt><trkpt lat="43.21372510245684" lon="12.982669703553633"><ele>580.3333333333334</ele><time>2026-03-28T11:29:19Z</time></trkpt><trkpt lat="43.213643510659935" lon="12.982617593830962"><ele>581.0</ele><time>2026-03-28T11:29:20Z</time></trkpt><trkpt lat="43.213563829303325" lon="12.982567137225079"><ele>581.6666666666667</ele><time>2026-03-28T11:29:21Z</time></trkpt><trkpt lat="43.21348474647555" lon="12.982507517580373"><ele>582.3333333333334</ele><time>2026-03-28T11:29:22Z</time></trkpt><trkpt lat="43.21341116592844" lon="12.982446879338463"><ele>583.0</ele><time>2026-03-28T11:29:23.001Z</time></trkpt><trkpt lat="43.21334735077988" lon="12.982380013298823"><ele>583.5714285714287</ele><time>2026-03-28T11:29:24.001Z</time></trkpt><trkpt lat="43.21328761546334" lon="12.98231604892819"><ele>584.1428571428571</ele><time>2026-03-28T11:29:25.001Z</time></trkpt><trkpt lat="43.21323971198185" lon="12.982226855987578"><ele>584.7142857142858</ele><time>2026-03-28T11:29:26.001Z</time></trkpt><trkpt lat="43.21319321941536" lon="12.982167377210935"><ele>585.2857142857143</ele><time>2026-03-28T11:29:27.001Z</time></trkpt><trkpt lat="43.213139535689656" lon="12.982104614017354"><ele>585.8571428571429</ele><time>2026-03-28T11:29:28.001Z</time></trkpt><trkpt lat="43.213082652247024" lon="12.982049929523704"><ele>586.4285714285714</ele><time>2026-03-28T11:29:29.001Z</time></trkpt><trkpt lat="43.21301784568643" lon="12.981995165735727"><ele>587.0</ele><time>2026-03-28T11:29:30.001Z</time></trkpt><trkpt lat="43.212956761375175" lon="12.98194009879891"><ele>592.5</ele><time>2026-03-28T11:29:31.001Z</time></trkpt><trkpt lat="43.21295346087277" lon="12.981798423274522"><ele>598.0</ele><time>2026-03-28T11:29:33.001Z</time></trkpt><trkpt lat="43.212966234908535" lon="12.981704982787592"><ele>603.5</ele><time>2026-03-28T11:29:35.001Z</time></trkpt><trkpt lat="43.212895924939495" lon="12.981663770483836"><ele>609.0</ele><time>2026-03-28T11:29:38.001Z</time></trkpt><trkpt lat="43.21282162347796" lon="12.981615513422375"><ele>614.5</ele><time>2026-03-28T11:29:40.001Z</time></trkpt><trkpt lat="43.212764499320066" lon="12.981565532798417"><ele>620.0</ele><time>2026-03-28T11:29:41.001Z</time></trkpt><trkpt lat="43.21269292347841" lon="12.98147141817303"><ele>620.0</ele><time>2026-03-28T11:29:43.001Z</time></trkpt><trkpt lat="43.21268228980049" lon="12.98135593917831"><ele>620.0</ele><time>2026-03-28T11:29:46.001Z</time></trkpt><trkpt lat="43.212769510573494" lon="12.981371813128572"><ele>620.0</ele><time>2026-03-28T11:29:49.001Z</time></trkpt><trkpt lat="43.21285708978168" lon="12.981411037645447"><ele>620.0</ele><time>2026-03-28T11:29:51.001Z</time></trkpt><trkpt lat="43.212954884998396" lon="12.981433784312005"><ele>620.0</ele><time>2026-03-28T11:29:53.001Z</time></trkpt><trkpt lat="43.21304894525509" lon="12.98149575619154"><ele>620.0</ele><time>2026-03-28T11:29:55.001Z</time></trkpt><trkpt lat="43.21313431044167" lon="12.981535978359018"><ele>620.0</ele><time>2026-03-28T11:29:57.001Z</time></trkpt><trkpt lat="43.213227165352194" lon="12.98158812415306"><ele>620.0</ele><time>2026-03-28T11:29:59.001Z</time></trkpt><trkpt lat="43.21330317346476" lon="12.981603207259495"><ele>620.0</ele><time>2026-03-28T11:30:01.001Z</time></trkpt><trkpt lat="43.21338132140239" lon="12.98161296204147"><ele>620.0</ele><time>2026-03-28T11:30:03.001Z</time></trkpt><trkpt lat="43.213829198583205" lon="12.981604696385544"><ele>613.2</ele><time>2026-03-28T11:30:12.001Z</time></trkpt><trkpt lat="43.21393373725768" lon="12.981592480920497"><ele>606.4</ele><time>2026-03-28T11:30:14.001Z</time></trkpt><trkpt lat="43.214028510513685" lon="12.981581546658544"><ele>599.6</ele><time>2026-03-28T11:30:16.001Z</time></trkpt><trkpt lat="43.214125718056735" lon="12.98149594190396"><ele>592.8</ele><time>2026-03-28T11:30:18.001Z</time></trkpt><trkpt lat="43.21421867699494" lon="12.981365619232502"><ele>586.0</ele><time>2026-03-28T11:30:20.001Z</time></trkpt><trkpt lat="43.21425656797417" lon="12.981276609473285"><ele>586.0</ele><time>2026-03-28T11:30:21.001Z</time></trkpt><trkpt lat="43.21430369182313" lon="12.981168079178596"><ele>586.0</ele><time>2026-03-28T11:30:22.001Z</time></trkpt><trkpt lat="43.214333948683006" lon="12.981049864790343"><ele>586.0</ele><time>2026-03-28T11:30:23.001Z</time></trkpt><trkpt lat="43.214361488136205" lon="12.980968598838366"><ele>586.0</ele><time>2026-03-28T11:30:24.001Z</time></trkpt><trkpt lat="43.21440849091656" lon="12.980888542870916"><ele>586.0</ele><time>2026-03-28T11:30:25.001Z</time></trkpt><trkpt lat="43.214464887811026" lon="12.980820870597379"><ele>586.0</ele><time>2026-03-28T11:30:26.001Z</time></trkpt><trkpt lat="43.21453099180125" lon="12.98068585373757"><ele>591.1666666666667</ele><time>2026-03-28T11:30:28.001Z</time></trkpt><trkpt lat="43.214566543355794" lon="12.980586484584236"><ele>596.3333333333334</ele><time>2026-03-28T11:30:29.001Z</time></trkpt><trkpt lat="43.21460706468982" lon="12.980491475926089"><ele>601.5</ele><time>2026-03-28T11:30:30.001Z</time></trkpt><trkpt lat="43.214649918742" lon="12.980408932952928"><ele>606.6666666666666</ele><time>2026-03-28T11:30:31.001Z</time></trkpt><trkpt lat="43.214693626957704" lon="12.980334332402004"><ele>611.8333333333333</ele><time>2026-03-28T11:30:32.001Z</time></trkpt><trkpt lat="43.21475127442483" lon="12.980260269093785"><ele>617.0</ele><time>2026-03-28T11:30:33.001Z</time></trkpt><trkpt lat="43.214814199963925" lon="12.980186790903883"><ele>616.0</ele><time>2026-03-28T11:30:34.001Z</time></trkpt><trkpt lat="43.21487160375733" lon="12.98010575801965"><ele>615.0</ele><time>2026-03-28T11:30:35.001Z</time></trkpt><trkpt lat="43.2149153455976" lon="12.980030250268758"><ele>614.0</ele><time>2026-03-28T11:30:36.001Z</time></trkpt><trkpt lat="43.21495723977337" lon="12.979963748814871"><ele>613.0</ele><time>2026-03-28T11:30:37.001Z</time></trkpt><trkpt lat="43.21501591209755" lon="12.979902380689438"><ele>612.0</ele><time>2026-03-28T11:30:38.001Z</time></trkpt><trkpt lat="43.2150983531131" lon="12.979827935828638"><ele>611.0</ele><time>2026-03-28T11:30:39.001Z</time></trkpt><trkpt lat="43.21516995383229" lon="12.979762006831077"><ele>617.0</ele><time>2026-03-28T11:30:40.001Z</time></trkpt><trkpt lat="43.21522532153292" lon="12.979707983125497"><ele>623.0</ele><time>2026-03-28T11:30:41.001Z</time></trkpt><trkpt lat="43.21529363760077" lon="12.979647415678162"><ele>629.0</ele><time>2026-03-28T11:30:42.001Z</time></trkpt><trkpt lat="43.21535957449207" lon="12.979592856377709"><ele>635.0</ele><time>2026-03-28T11:30:43.001Z</time></trkpt><trkpt lat="43.21541776336014" lon="12.979532130861392"><ele>641.0</ele><time>2026-03-28T11:30:44.001Z</time></trkpt><trkpt lat="43.21548247346831" lon="12.979462920003767"><ele>647.0</ele><time>2026-03-28T11:30:45.001Z</time></trkpt><trkpt lat="43.21555448168718" lon="12.979399804166063"><ele>647.0</ele><time>2026-03-28T11:30:46.001Z</time></trkpt><trkpt lat="43.21562371068728" lon="12.979327686528075"><ele>647.0</ele><time>2026-03-28T11:30:47.001Z</time></trkpt><trkpt lat="43.21568989381098" lon="12.97926352530026"><ele>647.0</ele><time>2026-03-28T11:30:48.001Z</time></trkpt><trkpt lat="43.215763304792745" lon="12.979206832034887"><ele>647.0</ele><time>2026-03-28T11:30:49.001Z</time></trkpt><trkpt lat="43.215816514637254" lon="12.979158914584962"><ele>647.0</ele><time>2026-03-28T11:30:50.001Z</time></trkpt><trkpt lat="43.21588192089351" lon="12.979092492208029"><ele>647.0</ele><time>2026-03-28T11:30:51.001Z</time></trkpt><trkpt lat="43.21593960371496" lon="12.979036848018552"><ele>650.8333333333333</ele><time>2026-03-28T11:30:52.001Z</time></trkpt><trkpt lat="43.216001088436634" lon="12.978965635909734"><ele>654.6666666666666</ele><time>2026-03-28T11:30:53.001Z</time></trkpt><trkpt lat="43.21607102192139" lon="12.978912087769402"><ele>658.5</ele><time>2026-03-28T11:30:54.001Z</time></trkpt><trkpt lat="43.21613384766051" lon="12.978853497841992"><ele>662.3333333333334</ele><time>2026-03-28T11:30:55.001Z</time></trkpt><trkpt lat="43.216189176230856" lon="12.978784468898514"><ele>666.1666666666667</ele><time>2026-03-28T11:30:56.001Z</time></trkpt><trkpt lat="43.21626236449872" lon="12.978705115931955"><ele>670.0</ele><time>2026-03-28T11:30:57.001Z</time></trkpt><trkpt lat="43.216320253662694" lon="12.97862846855947"><ele>670.0</ele><time>2026-03-28T11:30:58.001Z</time></trkpt><trkpt lat="43.21635713788038" lon="12.97853610944568"><ele>670.0</ele><time>2026-03-28T11:30:59.001Z</time></trkpt><trkpt lat="43.21643103951593" lon="12.9784101884277"><ele>670.0</ele><time>2026-03-28T11:31:01.001Z</time></trkpt><trkpt lat="43.21649872677152" lon="12.978295845097293"><ele>670.0</ele><time>2026-03-28T11:31:03.001Z</time></trkpt><trkpt lat="43.21655335453123" lon="12.97819090337972"><ele>670.0</ele><time>2026-03-28T11:31:05.001Z</time></trkpt><trkpt lat="43.21660427094011" lon="12.978073179439003"><ele>670.5</ele><time>2026-03-28T11:31:07.001Z</time></trkpt><trkpt lat="43.21665058450679" lon="12.977939650907663"><ele>671.0</ele><time>2026-03-28T11:31:09.001Z</time></trkpt><trkpt lat="43.216670527681615" lon="12.977849715921401"><ele>671.5</ele><time>2026-03-28T11:31:10.001Z</time></trkpt><trkpt lat="43.216687832307734" lon="12.97775178008313"><ele>672.0</ele><time>2026-03-28T11:31:11.001Z</time></trkpt><trkpt lat="43.21675000089031" lon="12.977607592495993"><ele>672.5</ele><time>2026-03-28T11:31:13.001Z</time></trkpt><trkpt lat="43.216791523202545" lon="12.977518199231634"><ele>673.0</ele><time>2026-03-28T11:31:15.001Z</time></trkpt><trkpt lat="43.21683428356799" lon="12.977337580988124"><ele>675.6666666666667</ele><time>2026-03-28T11:31:17.001Z</time></trkpt><trkpt lat="43.21686438585025" lon="12.97723985745965"><ele>678.3333333333334</ele><time>2026-03-28T11:31:19.001Z</time></trkpt><trkpt lat="43.2168889290895" lon="12.97712195207113"><ele>681.0</ele><time>2026-03-28T11:31:21.001Z</time></trkpt><trkpt lat="43.216931642757615" lon="12.977045926907278"><ele>683.6666666666666</ele><time>2026-03-28T11:31:24.001Z</time></trkpt><trkpt lat="43.21699788794843" lon="12.976993168747942"><ele>686.3333333333333</ele><time>2026-03-28T11:31:29.001Z</time></trkpt><trkpt lat="43.21705624748226" lon="12.97689522664661"><ele>689.0</ele><time>2026-03-28T11:31:32.001Z</time></trkpt><trkpt lat="43.21710764198858" lon="12.976833254209447"><ele>689.0</ele><time>2026-03-28T11:31:34.001Z</time></trkpt><trkpt lat="43.2171647127025" lon="12.976787561650626"><ele>689.0</ele><time>2026-03-28T11:31:35.001Z</time></trkpt><trkpt lat="43.217227579243385" lon="12.976728885247898"><ele>689.0</ele><time>2026-03-28T11:31:37.001Z</time></trkpt><trkpt lat="43.217280529564945" lon="12.976682015853912"><ele>689.0</ele><time>2026-03-28T11:31:39.001Z</time></trkpt><trkpt lat="43.21731777049164" lon="12.97659196149651"><ele>689.0</ele><time>2026-03-28T11:31:41.001Z</time></trkpt><trkpt lat="43.217320471535636" lon="12.976470386164912"><ele>689.0</ele><time>2026-03-28T11:31:43.001Z</time></trkpt><trkpt lat="43.21731054025316" lon="12.976357680477571"><ele>686.4285714285714</ele><time>2026-03-28T11:31:46.001Z</time></trkpt><trkpt lat="43.2173310829283" lon="12.97627600370226"><ele>683.8571428571429</ele><time>2026-03-28T11:31:49.001Z</time></trkpt><trkpt lat="43.21737631496972" lon="12.976175887167443"><ele>681.2857142857142</ele><time>2026-03-28T11:31:51.001Z</time></trkpt><trkpt lat="43.2174349339219" lon="12.976129427805935"><ele>678.7142857142858</ele><time>2026-03-28T11:31:53.001Z</time></trkpt><trkpt lat="43.21750301699775" lon="12.976054343307956"><ele>676.1428571428572</ele><time>2026-03-28T11:31:55.001Z</time></trkpt><trkpt lat="43.217559437937965" lon="12.97597991200904"><ele>673.5714285714286</ele><time>2026-03-28T11:31:57.001Z</time></trkpt><trkpt lat="43.217608432216295" lon="12.97592200129786"><ele>671.0</ele><time>2026-03-28T11:31:59.001Z</time></trkpt><trkpt lat="43.217639101008636" lon="12.975844434395206"><ele>671.0</ele><time>2026-03-28T11:32:01.001Z</time></trkpt><trkpt lat="43.21763723491813" lon="12.975755584368777"><ele>671.0</ele><time>2026-03-28T11:32:04.001Z</time></trkpt><trkpt lat="43.21766657996576" lon="12.975663140869626"><ele>671.0</ele><time>2026-03-28T11:32:08.001Z</time></trkpt><trkpt lat="43.21771792240366" lon="12.975598154834222"><ele>671.0</ele><time>2026-03-28T11:32:11.001Z</time></trkpt><trkpt lat="43.21776630254205" lon="12.975531551023401"><ele>671.0</ele><time>2026-03-28T11:32:13.001Z</time></trkpt><trkpt lat="43.21781561759659" lon="12.975474330015688"><ele>671.0</ele><time>2026-03-28T11:32:16.001Z</time></trkpt><trkpt lat="43.21785797104479" lon="12.975407082892328"><ele>671.0</ele><time>2026-03-28T11:32:22.001Z</time></trkpt><trkpt lat="43.217978791127884" lon="12.97537133459668"><ele>671.0</ele><time>2026-03-28T11:32:29.001Z</time></trkpt><trkpt lat="43.21808752762782" lon="12.975319273314236"><ele>671.0</ele><time>2026-03-28T11:32:37.001Z</time></trkpt><trkpt lat="43.2181510038016" lon="12.975303956026643"><ele>671.0</ele><time>2026-03-28T11:32:38.001Z</time></trkpt><trkpt lat="43.21840737042995" lon="12.975291653486272"><ele>671.0</ele><time>2026-03-28T11:33:15.002Z</time></trkpt><trkpt lat="43.21845135821688" lon="12.975216563592282"><ele>666.2857142857142</ele><time>2026-03-28T11:33:18.002Z</time></trkpt><trkpt lat="43.21850369663129" lon="12.975165126739526"><ele>661.5714285714287</ele><time>2026-03-28T11:33:21.002Z</time></trkpt><trkpt lat="43.218541835496424" lon="12.97508595195404"><ele>656.8571428571429</ele><time>2026-03-28T11:33:24.002Z</time></trkpt><trkpt lat="43.21856517258875" lon="12.97499704090533"><ele>652.1428571428571</ele><time>2026-03-28T11:33:26.002Z</time></trkpt><trkpt lat="43.21857185811613" lon="12.974872608406814"><ele>647.4285714285713</ele><time>2026-03-28T11:33:32.002Z</time></trkpt><trkpt lat="43.21863345764596" lon="12.97490446784546"><ele>642.7142857142858</ele><time>2026-03-28T11:33:56.002Z</time></trkpt><trkpt lat="43.218717897431084" lon="12.974944950183554"><ele>638.0</ele><time>2026-03-28T11:34:00.002Z</time></trkpt><trkpt lat="43.21878237776524" lon="12.97498962834417"><ele>637.8</ele><time>2026-03-28T11:34:05.002Z</time></trkpt><trkpt lat="43.218851125340485" lon="12.9750460227649"><ele>637.5999999999999</ele><time>2026-03-28T11:34:07.002Z</time></trkpt><trkpt lat="43.21887894973198" lon="12.975135826212908"><ele>637.4000000000001</ele><time>2026-03-28T11:34:09.002Z</time></trkpt><trkpt lat="43.218932397345554" lon="12.975203836262049"><ele>637.2</ele><time>2026-03-28T11:34:11.002Z</time></trkpt><trkpt lat="43.219012167159704" lon="12.97525805365371"><ele>637.0</ele><time>2026-03-28T11:34:14.002Z</time></trkpt><trkpt lat="43.219106289959036" lon="12.975442697405756"><ele>629.8333333333334</ele><time>2026-03-28T11:34:17.002Z</time></trkpt><trkpt lat="43.21916977318778" lon="12.975522247279802"><ele>622.6666666666667</ele><time>2026-03-28T11:34:20.002Z</time></trkpt><trkpt lat="43.21923680242425" lon="12.975568114971958"><ele>615.5</ele><time>2026-03-28T11:34:24.002Z</time></trkpt><trkpt lat="43.21930892894848" lon="12.975471640235002"><ele>608.3333333333334</ele><time>2026-03-28T11:34:38Z</time></trkpt><trkpt lat="43.21929736211558" lon="12.975356042933933"><ele>601.1666666666666</ele><time>2026-03-28T11:34:41Z</time></trkpt><trkpt lat="43.21930712676345" lon="12.975254097596308"><ele>594.0</ele><time>2026-03-28T11:34:46Z</time></trkpt><trkpt lat="43.21932132293704" lon="12.975126177636389"><ele>594.0</ele><time>2026-03-28T11:34:50Z</time></trkpt><trkpt lat="43.21933077376046" lon="12.975039257819876"><ele>594.0</ele><time>2026-03-28T11:34:54Z</time></trkpt><trkpt lat="43.219296562742954" lon="12.974963728364022"><ele>594.0</ele><time>2026-03-28T11:35:15Z</time></trkpt><trkpt lat="43.21931564764273" lon="12.97483669546655"><ele>594.0</ele><time>2026-03-28T11:35:17Z</time></trkpt><trkpt lat="43.21931997171814" lon="12.974700443741403"><ele>594.0</ele><time>2026-03-28T11:35:19Z</time></trkpt><trkpt lat="43.21931300072721" lon="12.97454284053868"><ele>594.0</ele><time>2026-03-28T11:35:21Z</time></trkpt><trkpt lat="43.21930921300171" lon="12.974453962228305"><ele>595.3333333333334</ele><time>2026-03-28T11:35:22Z</time></trkpt><trkpt lat="43.21933348145053" lon="12.974367421146352"><ele>596.6666666666666</ele><time>2026-03-28T11:35:24Z</time></trkpt><trkpt lat="43.21934351074736" lon="12.974275712150023"><ele>598.0</ele><time>2026-03-28T11:35:26Z</time></trkpt><trkpt lat="43.219336248241746" lon="12.974163514061779"><ele>599.3333333333333</ele><time>2026-03-28T11:35:29Z</time></trkpt><trkpt lat="43.21931007620876" lon="12.974066263937935"><ele>600.6666666666666</ele><time>2026-03-28T11:35:32Z</time></trkpt><trkpt lat="43.219295600196595" lon="12.973947167691268"><ele>602.0</ele><time>2026-03-28T11:35:34Z</time></trkpt><trkpt lat="43.219259417017" lon="12.973806961643911"><ele>602.5</ele><time>2026-03-28T11:35:36Z</time></trkpt><trkpt lat="43.219233267498936" lon="12.973725598257577"><ele>603.0</ele><time>2026-03-28T11:35:37Z</time></trkpt><trkpt lat="43.21917873292369" lon="12.973587453769861"><ele>603.5</ele><time>2026-03-28T11:35:39Z</time></trkpt><trkpt lat="43.21914848093165" lon="12.973503656928948"><ele>604.0</ele><time>2026-03-28T11:35:40Z</time></trkpt><trkpt lat="43.21911025168537" lon="12.973412516471527"><ele>604.5</ele><time>2026-03-28T11:35:41Z</time></trkpt><trkpt lat="43.219092991335366" lon="12.973312280887734"><ele>605.0</ele><time>2026-03-28T11:35:42Z</time></trkpt><trkpt lat="43.219070573160515" lon="12.973205057254805"><ele>604.1428571428571</ele><time>2026-03-28T11:35:43Z</time></trkpt><trkpt lat="43.219048208549665" lon="12.973100034038737"><ele>603.2857142857143</ele><time>2026-03-28T11:35:44Z</time></trkpt><trkpt lat="43.219049639931015" lon="12.972990066341215"><ele>602.4285714285714</ele><time>2026-03-28T11:35:45Z</time></trkpt><trkpt lat="43.219036387131005" lon="12.972889641958478"><ele>601.5714285714286</ele><time>2026-03-28T11:35:46Z</time></trkpt><trkpt lat="43.21902847942311" lon="12.972800380583788"><ele>600.7142857142857</ele><time>2026-03-28T11:35:47Z</time></trkpt><trkpt lat="43.21900900746492" lon="12.972707027781416"><ele>599.8571428571429</ele><time>2026-03-28T11:35:48Z</time></trkpt><trkpt lat="43.21899065739199" lon="12.972622000464334"><ele>599.0</ele><time>2026-03-28T11:35:49Z</time></trkpt><trkpt lat="43.2189589724543" lon="12.972546973911204"><ele>598.0</ele><time>2026-03-28T11:35:50Z</time></trkpt><trkpt lat="43.21893293865614" lon="12.9724667301595"><ele>597.0</ele><time>2026-03-28T11:35:51Z</time></trkpt><trkpt lat="43.21891776353753" lon="12.972380618122353"><ele>596.0</ele><time>2026-03-28T11:35:52Z</time></trkpt><trkpt lat="43.21894492450132" lon="12.972210318283619"><ele>595.0</ele><time>2026-03-28T11:35:53Z</time></trkpt><trkpt lat="43.21901814081196" lon="12.972107059538514"><ele>594.0</ele><time>2026-03-28T11:35:54Z</time></trkpt><trkpt lat="43.219090946214735" lon="12.97203715946293"><ele>593.0</ele><time>2026-03-28T11:35:55Z</time></trkpt><trkpt lat="43.21914396758327" lon="12.971946290905796"><ele>589.3333333333333</ele><time>2026-03-28T11:35:56Z</time></trkpt><trkpt lat="43.2192077474312" lon="12.971884049004773"><ele>585.6666666666666</ele><time>2026-03-28T11:35:57Z</time></trkpt><trkpt lat="43.21928968412165" lon="12.97185835780992"><ele>582.0</ele><time>2026-03-28T11:35:58Z</time></trkpt><trkpt lat="43.21935037699378" lon="12.971830001641003"><ele>578.3333333333334</ele><time>2026-03-28T11:36:00Z</time></trkpt><trkpt lat="43.21942925815392" lon="12.971801273274295"><ele>574.6666666666667</ele><time>2026-03-28T11:36:02Z</time></trkpt><trkpt lat="43.21949541434099" lon="12.971743161015176"><ele>571.0</ele><time>2026-03-28T11:36:04Z</time></trkpt><trkpt lat="43.219603214826364" lon="12.971715335887833"><ele>568.2</ele><time>2026-03-28T11:36:06Z</time></trkpt><trkpt lat="43.21964939532824" lon="12.971625175208166"><ele>565.4000000000001</ele><time>2026-03-28T11:36:08Z</time></trkpt><trkpt lat="43.21972622691218" lon="12.971558474436028"><ele>562.6</ele><time>2026-03-28T11:36:10Z</time></trkpt><trkpt lat="43.219833793303486" lon="12.971422554939599"><ele>559.8000000000001</ele><time>2026-03-28T11:36:12Z</time></trkpt><trkpt lat="43.21991702206493" lon="12.971361868841626"><ele>557.0</ele><time>2026-03-28T11:36:14Z</time></trkpt><trkpt lat="43.220009104529574" lon="12.971326056418286"><ele>557.0</ele><time>2026-03-28T11:36:16Z</time></trkpt><trkpt lat="43.220178399723395" lon="12.971311559135764"><ele>557.0</ele><time>2026-03-28T11:36:17Z</time></trkpt><trkpt lat="43.22028810112576" lon="12.971271066968654"><ele>557.0</ele><time>2026-03-28T11:36:19Z</time></trkpt><trkpt lat="43.22037938581092" lon="12.971234749033517"><ele>557.0</ele><time>2026-03-28T11:36:21Z</time></trkpt><trkpt lat="43.22050208937133" lon="12.97121657412335"><ele>557.0</ele><time>2026-03-28T11:36:23Z</time></trkpt><trkpt lat="43.22060599685373" lon="12.971213324107785"><ele>557.0</ele><time>2026-03-28T11:36:25Z</time></trkpt><trkpt lat="43.22069363038438" lon="12.971196392289022"><ele>557.0</ele><time>2026-03-28T11:36:27Z</time></trkpt><trkpt lat="43.22078103259937" lon="12.97112621393304"><ele>557.0</ele><time>2026-03-28T11:36:29Z</time></trkpt><trkpt lat="43.220855797963125" lon="12.971079362089275"><ele>557.0</ele><time>2026-03-28T11:36:31Z</time></trkpt><trkpt lat="43.22094010300903" lon="12.971028212862349"><ele>555.5</ele><time>2026-03-28T11:36:33Z</time></trkpt><trkpt lat="43.22106617168538" lon="12.971028029035283"><ele>554.0</ele><time>2026-03-28T11:36:34Z</time></trkpt><trkpt lat="43.2211914921172" lon="12.971011338883253"><ele>552.5</ele><time>2026-03-28T11:36:36Z</time></trkpt><trkpt lat="43.221326802249266" lon="12.970981799919517"><ele>551.0</ele><time>2026-03-28T11:36:39Z</time></trkpt><trkpt lat="43.221444169943545" lon="12.970980134806927"><ele>549.0</ele><time>2026-03-28T11:36:43Z</time></trkpt><trkpt lat="43.22153493672285" lon="12.970975767216421"><ele>547.0</ele><time>2026-03-28T11:36:45Z</time></trkpt><trkpt lat="43.221865950660415" lon="12.970928952781401"><ele>545.0</ele><time>2026-03-28T11:36:49Z</time></trkpt><trkpt lat="43.2219574852203" lon="12.97095482583902"><ele>545.0</ele><time>2026-03-28T11:36:52Z</time></trkpt><trkpt lat="43.22207054427077" lon="12.970988091576807"><ele>545.0</ele><time>2026-03-28T11:36:54Z</time></trkpt><trkpt lat="43.222147765342235" lon="12.97102194898155"><ele>545.0</ele><time>2026-03-28T11:36:56Z</time></trkpt><trkpt lat="43.22223952258644" lon="12.971068231846012"><ele>545.0</ele><time>2026-03-28T11:36:58Z</time></trkpt><trkpt lat="43.22235154295709" lon="12.97108690562223"><ele>545.0</ele><time>2026-03-28T11:37:00Z</time></trkpt><trkpt lat="43.222600156802464" lon="12.971074027471587"><ele>543.8</ele><time>2026-03-28T11:37:06Z</time></trkpt><trkpt lat="43.222673222759" lon="12.970989935259785"><ele>542.6</ele><time>2026-03-28T11:37:09Z</time></trkpt><trkpt lat="43.22274646726167" lon="12.970866145553337"><ele>541.4</ele><time>2026-03-28T11:37:11Z</time></trkpt><trkpt lat="43.22276639585549" lon="12.970782972024336"><ele>540.2</ele><time>2026-03-28T11:37:12Z</time></trkpt><trkpt lat="43.222776211562135" lon="12.970673115498293"><ele>539.0</ele><time>2026-03-28T11:37:14Z</time></trkpt><trkpt lat="43.22281114105929" lon="12.970551169154042"><ele>545.1666666666666</ele><time>2026-03-28T11:37:18Z</time></trkpt><trkpt lat="43.22283537102153" lon="12.970455345565865"><ele>551.3333333333333</ele><time>2026-03-28T11:37:20Z</time></trkpt><trkpt lat="43.222858220079665" lon="12.970364091604173"><ele>557.5</ele><time>2026-03-28T11:37:23Z</time></trkpt><trkpt lat="43.22290486177657" lon="12.970283158918553"><ele>563.6666666666666</ele><time>2026-03-28T11:37:28Z</time></trkpt><trkpt lat="43.222945387433136" lon="12.970213318146286"><ele>569.8333333333334</ele><time>2026-03-28T11:37:31Z</time></trkpt><trkpt lat="43.222981048351656" lon="12.970099798375017"><ele>576.0</ele><time>2026-03-28T11:37:32Z</time></trkpt><trkpt lat="43.223011525796146" lon="12.969996181460878"><ele>580.1666666666666</ele><time>2026-03-28T11:37:34Z</time></trkpt><trkpt lat="43.223073410814685" lon="12.969954074254813"><ele>584.3333333333334</ele><time>2026-03-28T11:37:36Z</time></trkpt><trkpt lat="43.223091374917416" lon="12.969868158194748"><ele>588.5</ele><time>2026-03-28T11:37:41Z</time></trkpt><trkpt lat="43.22315514301994" lon="12.969779322814901"><ele>592.6666666666667</ele><time>2026-03-28T11:37:44Z</time></trkpt><trkpt lat="43.223204440598685" lon="12.969707802278398"><ele>596.8333333333334</ele><time>2026-03-28T11:37:47Z</time></trkpt><trkpt lat="43.223251291343495" lon="12.96955392633794"><ele>601.0</ele><time>2026-03-28T11:37:50Z</time></trkpt><trkpt lat="43.22328738412953" lon="12.969453944007348"><ele>601.0</ele><time>2026-03-28T11:37:53Z</time></trkpt><trkpt lat="43.223308703903996" lon="12.969357482865632"><ele>601.0</ele><time>2026-03-28T11:37:56Z</time></trkpt><trkpt lat="43.2233473606268" lon="12.969241933013164"><ele>601.0</ele><time>2026-03-28T11:37:59Z</time></trkpt><trkpt lat="43.22339781901868" lon="12.969172347171494"><ele>601.0</ele><time>2026-03-28T11:38:02Z</time></trkpt><trkpt lat="43.22344626950255" lon="12.969053048733894"><ele>601.0</ele><time>2026-03-28T11:38:06Z</time></trkpt><trkpt lat="43.22350552126038" lon="12.968977933347041"><ele>601.0</ele><time>2026-03-28T11:38:09Z</time></trkpt><trkpt lat="43.22355589255733" lon="12.968919146067055"><ele>610.5</ele><time>2026-03-28T11:38:12Z</time></trkpt><trkpt lat="43.22364038605865" lon="12.968890423852345"><ele>620.0</ele><time>2026-03-28T11:38:15Z</time></trkpt><trkpt lat="43.22403574637837" lon="12.968914860911257"><ele>601.6666666666666</ele><time>2026-03-28T11:38:25.001Z</time></trkpt><trkpt lat="43.224083192591216" lon="12.96897631489778"><ele>583.3333333333334</ele><time>2026-03-28T11:38:26.001Z</time></trkpt><trkpt lat="43.2244110255846" lon="12.969039217489192"><ele>565.0</ele><time>2026-03-28T11:38:35.764Z</time></trkpt><trkpt lat="43.225901545480326" lon="12.967960914778464"><ele>563.0</ele><time>2026-03-28T11:38:56.001Z</time></trkpt><trkpt lat="43.22595769281524" lon="12.96782599854292"><ele>561.0</ele><time>2026-03-28T11:39:00.001Z</time></trkpt><trkpt lat="43.22601435893306" lon="12.96777824551371"><ele>559.0</ele><time>2026-03-28T11:39:03.001Z</time></trkpt><trkpt lat="43.22606290949907" lon="12.967714220769725"><ele>557.0</ele><time>2026-03-28T11:39:05.001Z</time></trkpt><trkpt lat="43.22614525727399" lon="12.967586583146987"><ele>555.0</ele><time>2026-03-28T11:39:06.001Z</time></trkpt><trkpt lat="43.22620167038967" lon="12.967478372892735"><ele>547.0</ele><time>2026-03-28T11:39:07.001Z</time></trkpt><trkpt lat="43.22636883386557" lon="12.967546344862306"><ele>539.0</ele><time>2026-03-28T11:39:08.001Z</time></trkpt><trkpt lat="43.22646754542659" lon="12.967606813100058"><ele>531.0</ele><time>2026-03-28T11:39:09.001Z</time></trkpt><trkpt lat="43.226579148806344" lon="12.967642704570533"><ele>523.0</ele><time>2026-03-28T11:39:11.001Z</time></trkpt><trkpt lat="43.22663670889154" lon="12.967734366140395"><ele>520.0</ele><time>2026-03-28T11:39:12.001Z</time></trkpt><trkpt lat="43.22669748262773" lon="12.967793571476584"><ele>517.0</ele><time>2026-03-28T11:39:13.001Z</time></trkpt><trkpt lat="43.22677455510483" lon="12.967875165351664"><ele>514.0</ele><time>2026-03-28T11:39:14.001Z</time></trkpt><trkpt lat="43.22692925535541" lon="12.96802629915874"><ele>511.0</ele><time>2026-03-28T11:39:15.001Z</time></trkpt><trkpt lat="43.227011966553476" lon="12.968107243536238"><ele>511.0</ele><time>2026-03-28T11:39:16.001Z</time></trkpt><trkpt lat="43.2270946834705" lon="12.968201826533607"><ele>511.0</ele><time>2026-03-28T11:39:17.001Z</time></trkpt><trkpt lat="43.22725280239619" lon="12.968387406422224"><ele>511.0</ele><time>2026-03-28T11:39:18.001Z</time></trkpt><trkpt lat="43.227339903719304" lon="12.968484284074034"><ele>511.0</ele><time>2026-03-28T11:39:19.001Z</time></trkpt><trkpt lat="43.22741867500808" lon="12.96859398583465"><ele>508.0</ele><time>2026-03-28T11:39:20.001Z</time></trkpt><trkpt lat="43.22754658613418" lon="12.96873252647844"><ele>505.0</ele><time>2026-03-28T11:39:21.001Z</time></trkpt><trkpt lat="43.22761260170368" lon="12.968797432108317"><ele>502.0</ele><time>2026-03-28T11:39:22.001Z</time></trkpt><trkpt lat="43.22767089693793" lon="12.968868512573989"><ele>499.0</ele><time>2026-03-28T11:39:23.001Z</time></trkpt><trkpt lat="43.227740096070455" lon="12.968936847898846"><ele>496.0</ele><time>2026-03-28T11:39:24.001Z</time></trkpt><trkpt lat="43.22779612217962" lon="12.969036721200183"><ele>496.00000000000006</ele><time>2026-03-28T11:39:26.001Z</time></trkpt><trkpt lat="43.22782181310311" lon="12.968923770691548"><ele>496.0</ele><time>2026-03-28T11:39:28.001Z</time></trkpt><trkpt lat="43.227802115949224" lon="12.968841352361615"><ele>496.0</ele><time>2026-03-28T11:39:29.001Z</time></trkpt><trkpt lat="43.22778442020637" lon="12.968736407385009"><ele>496.0</ele><time>2026-03-28T11:39:30.001Z</time></trkpt><trkpt lat="43.22777818812526" lon="12.96860334156424"><ele>496.00000000000006</ele><time>2026-03-28T11:39:31.001Z</time></trkpt><trkpt lat="43.22777314710947" lon="12.968438541201534"><ele>496.0</ele><time>2026-03-28T11:39:32.001Z</time></trkpt><trkpt lat="43.2277541280052" lon="12.968272245351034"><ele>502.25</ele><time>2026-03-28T11:39:33.001Z</time></trkpt><trkpt lat="43.22773341776032" lon="12.968117611252715"><ele>508.5</ele><time>2026-03-28T11:39:34.001Z</time></trkpt><trkpt lat="43.22771834412076" lon="12.967977390807896"><ele>514.75</ele><time>2026-03-28T11:39:35.001Z</time></trkpt><trkpt lat="43.22769321842823" lon="12.96780449202956"><ele>521.0</ele><time>2026-03-28T11:39:37.001Z</time></trkpt><trkpt lat="43.227706219020945" lon="12.967627356211397"><ele>527.0</ele><time>2026-03-28T11:39:39.001Z</time></trkpt><trkpt lat="43.227728454825645" lon="12.967471082153182"><ele>533.0</ele><time>2026-03-28T11:39:40.001Z</time></trkpt><trkpt lat="43.22776600421155" lon="12.967364210170553"><ele>539.0</ele><time>2026-03-28T11:39:41.001Z</time></trkpt><trkpt lat="43.22782353574528" lon="12.967252575434554"><ele>545.0</ele><time>2026-03-28T11:39:43.001Z</time></trkpt><trkpt lat="43.22783180063257" lon="12.967140213073431"><ele>551.0</ele><time>2026-03-28T11:39:44.001Z</time></trkpt><trkpt lat="43.22784332106046" lon="12.96702627445456"><ele>551.0</ele><time>2026-03-28T11:39:45.001Z</time></trkpt><trkpt lat="43.22785196933631" lon="12.96690175898226"><ele>551.0</ele><time>2026-03-28T11:39:46.001Z</time></trkpt><trkpt lat="43.227874765976324" lon="12.966800558004017"><ele>551.0</ele><time>2026-03-28T11:39:47.001Z</time></trkpt><trkpt lat="43.227878127847156" lon="12.966683638478933"><ele>551.0</ele><time>2026-03-28T11:39:49.001Z</time></trkpt><trkpt lat="43.22780682527094" lon="12.966501129992233"><ele>551.0</ele><time>2026-03-28T11:39:51.001Z</time></trkpt><trkpt lat="43.22780628779024" lon="12.966357929251485"><ele>557.8</ele><time>2026-03-28T11:39:52.001Z</time></trkpt><trkpt lat="43.22780982337477" lon="12.966215415105827"><ele>564.6</ele><time>2026-03-28T11:39:53.001Z</time></trkpt><trkpt lat="43.22786854237179" lon="12.96606324983133"><ele>571.4</ele><time>2026-03-28T11:39:55.001Z</time></trkpt><trkpt lat="43.22792198442563" lon="12.965976264726429"><ele>578.2</ele><time>2026-03-28T11:39:56.001Z</time></trkpt><trkpt lat="43.22800144101073" lon="12.965888414687992"><ele>585.0</ele><time>2026-03-28T11:39:57.001Z</time></trkpt><trkpt lat="43.228075181034576" lon="12.965791538181442"><ele>588.0</ele><time>2026-03-28T11:39:58.001Z</time></trkpt><trkpt lat="43.22814139585685" lon="12.965704154226504"><ele>591.0</ele><time>2026-03-28T11:39:59.001Z</time></trkpt><trkpt lat="43.22822070358197" lon="12.965662664000357"><ele>594.0</ele><time>2026-03-28T11:40:00.001Z</time></trkpt><trkpt lat="43.22831902721201" lon="12.965616096524753"><ele>597.0</ele><time>2026-03-28T11:40:01.001Z</time></trkpt><trkpt lat="43.228420315776404" lon="12.965531788270614"><ele>600.0</ele><time>2026-03-28T11:40:02.001Z</time></trkpt><trkpt lat="43.22847630142104" lon="12.96547911804843"><ele>600.0</ele><time>2026-03-28T11:40:03.001Z</time></trkpt><trkpt lat="43.22854215652947" lon="12.965450787834367"><ele>600.0</ele><time>2026-03-28T11:40:04.001Z</time></trkpt><trkpt lat="43.22865281436578" lon="12.965415412774556"><ele>600.0</ele><time>2026-03-28T11:40:06.001Z</time></trkpt><trkpt lat="43.2287108832062" lon="12.965286969986161"><ele>600.0</ele><time>2026-03-28T11:40:08.001Z</time></trkpt><trkpt lat="43.22876720119893" lon="12.965217191201104"><ele>600.0</ele><time>2026-03-28T11:40:09.001Z</time></trkpt><trkpt lat="43.228832167016826" lon="12.965149594735689"><ele>600.0</ele><time>2026-03-28T11:40:10.001Z</time></trkpt><trkpt lat="43.22890515021897" lon="12.96504074484329"><ele>600.0</ele><time>2026-03-28T11:40:12.001Z</time></trkpt><trkpt lat="43.22896326333785" lon="12.964933513359874"><ele>600.0</ele><time>2026-03-28T11:40:14.001Z</time></trkpt><trkpt lat="43.22898904788725" lon="12.96484482559396"><ele>600.0</ele><time>2026-03-28T11:40:16.001Z</time></trkpt><trkpt lat="43.22901906222634" lon="12.964762014288487"><ele>600.0</ele><time>2026-03-28T11:40:18.001Z</time></trkpt><trkpt lat="43.229031348165876" lon="12.96467531164321"><ele>600.0</ele><time>2026-03-28T11:40:22.001Z</time></trkpt><trkpt lat="43.22896735624619" lon="12.964577705284205"><ele>603.3333333333334</ele><time>2026-03-28T11:40:25.001Z</time></trkpt><trkpt lat="43.229118966598016" lon="12.964242719048455"><ele>606.6666666666667</ele><time>2026-03-28T11:40:34.001Z</time></trkpt><trkpt lat="43.229209207430785" lon="12.964195332056615"><ele>610.0</ele><time>2026-03-28T11:40:35.001Z</time></trkpt><trkpt lat="43.22930138637267" lon="12.964141490489038"><ele>615.2</ele><time>2026-03-28T11:40:36.001Z</time></trkpt><trkpt lat="43.2293929376935" lon="12.964048142389286"><ele>620.4</ele><time>2026-03-28T11:40:37.001Z</time></trkpt><trkpt lat="43.22946709101574" lon="12.963966290734538"><ele>625.6</ele><time>2026-03-28T11:40:38.001Z</time></trkpt><trkpt lat="43.22954920029447" lon="12.963910696134812"><ele>630.8</ele><time>2026-03-28T11:40:39.001Z</time></trkpt><trkpt lat="43.229633594707494" lon="12.963859465158905"><ele>636.0</ele><time>2026-03-28T11:40:40.001Z</time></trkpt><trkpt lat="43.229706852584194" lon="12.963795354509918"><ele>636.0</ele><time>2026-03-28T11:40:41.001Z</time></trkpt><trkpt lat="43.229771485574545" lon="12.963726962886732"><ele>636.0</ele><time>2026-03-28T11:40:42.001Z</time></trkpt><trkpt lat="43.22983437869061" lon="12.96370443767835"><ele>636.0</ele><time>2026-03-28T11:40:43.001Z</time></trkpt><trkpt lat="43.229897965030105" lon="12.963656290372375"><ele>636.0</ele><time>2026-03-28T11:40:44.001Z</time></trkpt><trkpt lat="43.22996234072746" lon="12.963604386105454"><ele>636.0</ele><time>2026-03-28T11:40:45.001Z</time></trkpt><trkpt lat="43.23000701194257" lon="12.963523103955234"><ele>636.0</ele><time>2026-03-28T11:40:46.001Z</time></trkpt><trkpt lat="43.23003059606873" lon="12.963412353140201"><ele>634.8</ele><time>2026-03-28T11:40:47.001Z</time></trkpt><trkpt lat="43.23006592693684" lon="12.963297994204927"><ele>633.6</ele><time>2026-03-28T11:40:48.001Z</time></trkpt><trkpt lat="43.2300957414933" lon="12.96318945677415"><ele>632.4</ele><time>2026-03-28T11:40:49.001Z</time></trkpt><trkpt lat="43.230127400604424" lon="12.963088670165533"><ele>631.2</ele><time>2026-03-28T11:40:50.001Z</time></trkpt><trkpt lat="43.230177253966175" lon="12.962980964062824"><ele>630.0</ele><time>2026-03-28T11:40:51.001Z</time></trkpt><trkpt lat="43.23024742013068" lon="12.962860307187642"><ele>630.0</ele><time>2026-03-28T11:40:52.001Z</time></trkpt><trkpt lat="43.230319823952854" lon="12.962762855652107"><ele>630.0</ele><time>2026-03-28T11:40:53.001Z</time></trkpt><trkpt lat="43.23037678609756" lon="12.96268729035146"><ele>630.0</ele><time>2026-03-28T11:40:54.001Z</time></trkpt><trkpt lat="43.23043048709235" lon="12.962605120970226"><ele>630.0</ele><time>2026-03-28T11:40:55.001Z</time></trkpt><trkpt lat="43.23051321508845" lon="12.962518148012423"><ele>630.0</ele><time>2026-03-28T11:40:56.001Z</time></trkpt><trkpt lat="43.23058830403694" lon="12.9624478246799"><ele>629.0</ele><time>2026-03-28T11:40:57.001Z</time></trkpt><trkpt lat="43.2306819377955" lon="12.962352821854981"><ele>628.0</ele><time>2026-03-28T11:40:58.001Z</time></trkpt><trkpt lat="43.230741688175996" lon="12.96226146206133"><ele>627.0</ele><time>2026-03-28T11:40:59.001Z</time></trkpt><trkpt lat="43.23082169043074" lon="12.962178220410973"><ele>626.0</ele><time>2026-03-28T11:41:00.001Z</time></trkpt><trkpt lat="43.231599252941784" lon="12.961869523320384"><ele>619.4</ele><time>2026-03-28T11:41:08.001Z</time></trkpt><trkpt lat="43.231693011086115" lon="12.961929925342442"><ele>612.8</ele><time>2026-03-28T11:41:09.001Z</time></trkpt><trkpt lat="43.2317730834221" lon="12.962000956594956"><ele>606.1999999999999</ele><time>2026-03-28T11:41:10.001Z</time></trkpt><trkpt lat="43.23184679856335" lon="12.962046016360137"><ele>599.6</ele><time>2026-03-28T11:41:11.001Z</time></trkpt><trkpt lat="43.231992754919965" lon="12.9621447647939"><ele>593.0</ele><time>2026-03-28T11:41:13.001Z</time></trkpt><trkpt lat="43.2320647244818" lon="12.962245773360996"><ele>593.0</ele><time>2026-03-28T11:41:15.001Z</time></trkpt><trkpt lat="43.23218882543183" lon="12.96230527628567"><ele>593.0</ele><time>2026-03-28T11:41:17.001Z</time></trkpt><trkpt lat="43.23225381968484" lon="12.962407725719725"><ele>593.0</ele><time>2026-03-28T11:41:19.001Z</time></trkpt><trkpt lat="43.232294473088565" lon="12.962509237277335"><ele>593.0</ele><time>2026-03-28T11:41:20.001Z</time></trkpt><trkpt lat="43.232340694173196" lon="12.962627063172855"><ele>593.0</ele><time>2026-03-28T11:41:21.001Z</time></trkpt><trkpt lat="43.232367197254646" lon="12.962719308451643"><ele>586.8333333333333</ele><time>2026-03-28T11:41:22.001Z</time></trkpt><trkpt lat="43.232392699401544" lon="12.962817137320146"><ele>580.6666666666666</ele><time>2026-03-28T11:41:23.001Z</time></trkpt><trkpt lat="43.23242920937834" lon="12.962913064797277"><ele>574.5</ele><time>2026-03-28T11:41:24.001Z</time></trkpt><trkpt lat="43.232452269943394" lon="12.963023016668355"><ele>568.3333333333334</ele><time>2026-03-28T11:41:25.001Z</time></trkpt><trkpt lat="43.23248275279885" lon="12.963129680424373"><ele>562.1666666666667</ele><time>2026-03-28T11:41:26.001Z</time></trkpt><trkpt lat="43.232505058350554" lon="12.963211348435738"><ele>556.0</ele><time>2026-03-28T11:41:27.001Z</time></trkpt><trkpt lat="43.2325850301713" lon="12.963407759917608"><ele>553.8</ele><time>2026-03-28T11:41:29.001Z</time></trkpt><trkpt lat="43.232625278764246" lon="12.963482567304029"><ele>551.6</ele><time>2026-03-28T11:41:30.001Z</time></trkpt><trkpt lat="43.23267369418048" lon="12.963560257136198"><ele>549.4</ele><time>2026-03-28T11:41:31.001Z</time></trkpt><trkpt lat="43.23275947275128" lon="12.963699684573067"><ele>547.2</ele><time>2026-03-28T11:41:33.001Z</time></trkpt><trkpt lat="43.23285633134711" lon="12.963767443854675"><ele>545.0</ele><time>2026-03-28T11:41:35.001Z</time></trkpt><trkpt lat="43.23305276065504" lon="12.963782186551063"><ele>545.0</ele><time>2026-03-28T11:41:39Z</time></trkpt><trkpt lat="43.23311095932793" lon="12.96381901323669"><ele>545.0</ele><time>2026-03-28T11:41:40Z</time></trkpt><trkpt lat="43.2331733799134" lon="12.963836897487669"><ele>545.0</ele><time>2026-03-28T11:41:41Z</time></trkpt><trkpt lat="43.23358548820293" lon="12.963851026842267"><ele>539.5</ele><time>2026-03-28T11:41:48Z</time></trkpt><trkpt lat="43.233636685584116" lon="12.963902846064807"><ele>534.0</ele><time>2026-03-28T11:41:50Z</time></trkpt><trkpt lat="43.23366277650389" lon="12.963985665949899"><ele>528.5</ele><time>2026-03-28T11:41:52Z</time></trkpt><trkpt lat="43.23396822050639" lon="12.964000048966527"><ele>523.0</ele><time>2026-03-28T11:42:02Z</time></trkpt><trkpt lat="43.23400828316127" lon="12.96408689866734"><ele>518.1999999999999</ele><time>2026-03-28T11:42:03Z</time></trkpt><trkpt lat="43.23407498720658" lon="12.964236035960957"><ele>513.4</ele><time>2026-03-28T11:42:05Z</time></trkpt><trkpt lat="43.234117334484566" lon="12.964320147973345"><ele>508.59999999999997</ele><time>2026-03-28T11:42:06Z</time></trkpt><trkpt lat="43.23414919651308" lon="12.964404446017804"><ele>503.79999999999995</ele><time>2026-03-28T11:42:07Z</time></trkpt><trkpt lat="43.23418956472505" lon="12.96449048198406"><ele>499.0</ele><time>2026-03-28T11:42:08Z</time></trkpt><trkpt lat="43.23427679553617" lon="12.964648699694477"><ele>499.0</ele><time>2026-03-28T11:42:10Z</time></trkpt><trkpt lat="43.23433860244288" lon="12.96475346277916"><ele>499.0</ele><time>2026-03-28T11:42:11Z</time></trkpt><trkpt lat="43.234391463989056" lon="12.964859984436117"><ele>499.0</ele><time>2026-03-28T11:42:12Z</time></trkpt><trkpt lat="43.23444036212701" lon="12.964972049145869"><ele>499.0</ele><time>2026-03-28T11:42:13Z</time></trkpt><trkpt lat="43.23448190764179" lon="12.965064961856553"><ele>499.0</ele><time>2026-03-28T11:42:14Z</time></trkpt><trkpt lat="43.23453073972052" lon="12.965165556050806"><ele>497.2</ele><time>2026-03-28T11:42:15Z</time></trkpt><trkpt lat="43.234581486655905" lon="12.965269300827359"><ele>495.4</ele><time>2026-03-28T11:42:16Z</time></trkpt><trkpt lat="43.23463480394018" lon="12.965375474713602"><ele>493.6</ele><time>2026-03-28T11:42:17Z</time></trkpt><trkpt lat="43.23468902179429" lon="12.965487200459792"><ele>491.8</ele><time>2026-03-28T11:42:18Z</time></trkpt><trkpt lat="43.23475141953929" lon="12.965580642253132"><ele>490.0</ele><time>2026-03-28T11:42:19Z</time></trkpt><trkpt lat="43.23481829169658" lon="12.96566840580946"><ele>489.33333333333337</ele><time>2026-03-28T11:42:20Z</time></trkpt><trkpt lat="43.23488064902604" lon="12.965744657411443"><ele>488.6666666666667</ele><time>2026-03-28T11:42:21Z</time></trkpt><trkpt lat="43.23495025543985" lon="12.965829792813846"><ele>488.0</ele><time>2026-03-28T11:42:22Z</time></trkpt><trkpt lat="43.23501653257704" lon="12.965908254936926"><ele>487.33333333333337</ele><time>2026-03-28T11:42:23Z</time></trkpt><trkpt lat="43.23508858744733" lon="12.965994938159259"><ele>486.6666666666667</ele><time>2026-03-28T11:42:24Z</time></trkpt><trkpt lat="43.235148592497744" lon="12.9660774742279"><ele>486.0</ele><time>2026-03-28T11:42:25Z</time></trkpt><trkpt lat="43.23521471234692" lon="12.966150335046516"><ele>484.0</ele><time>2026-03-28T11:42:26Z</time></trkpt><trkpt lat="43.235279177072215" lon="12.966204904809873"><ele>482.0</ele><time>2026-03-28T11:42:27Z</time></trkpt><trkpt lat="43.23535762514724" lon="12.966245282626643"><ele>480.0</ele><time>2026-03-28T11:42:28Z</time></trkpt><trkpt lat="43.23546893232545" lon="12.966261307208862"><ele>478.0</ele><time>2026-03-28T11:42:29Z</time></trkpt><trkpt lat="43.235566409945505" lon="12.966288714237141"><ele>476.0</ele><time>2026-03-28T11:42:30Z</time></trkpt><trkpt lat="43.235663023994306" lon="12.966307313933507"><ele>475.4</ele><time>2026-03-28T11:42:31Z</time></trkpt><trkpt lat="43.23575648907644" lon="12.966331922613074"><ele>474.8</ele><time>2026-03-28T11:42:32Z</time></trkpt><trkpt lat="43.23585859550347" lon="12.966363872566669"><ele>474.19999999999993</ele><time>2026-03-28T11:42:33Z</time></trkpt><trkpt lat="43.23596700925873" lon="12.966384724355342"><ele>473.59999999999997</ele><time>2026-03-28T11:42:34Z</time></trkpt><trkpt lat="43.236080246505985" lon="12.966398143707655"><ele>473.0</ele><time>2026-03-28T11:42:35Z</time></trkpt><trkpt lat="43.23619770004022" lon="12.966410285123704"><ele>473.0</ele><time>2026-03-28T11:42:36Z</time></trkpt><trkpt lat="43.236297425239364" lon="12.966454390275567"><ele>473.0</ele><time>2026-03-28T11:42:37Z</time></trkpt><trkpt lat="43.23639530272437" lon="12.966520936345674"><ele>473.0</ele><time>2026-03-28T11:42:38Z</time></trkpt><trkpt lat="43.23650224688205" lon="12.966594191302834"><ele>473.0</ele><time>2026-03-28T11:42:39Z</time></trkpt><trkpt lat="43.236615445387294" lon="12.966695252740175"><ele>471.59999999999997</ele><time>2026-03-28T11:42:40Z</time></trkpt><trkpt lat="43.236714884914704" lon="12.966801456337505"><ele>470.19999999999993</ele><time>2026-03-28T11:42:41Z</time></trkpt><trkpt lat="43.23680366187164" lon="12.966909098187218"><ele>468.8</ele><time>2026-03-28T11:42:42Z</time></trkpt><trkpt lat="43.236866793852656" lon="12.967001873548906"><ele>467.4</ele><time>2026-03-28T11:42:43Z</time></trkpt><trkpt lat="43.236932870661704" lon="12.967101205399384"><ele>466.0</ele><time>2026-03-28T11:42:44Z</time></trkpt><trkpt lat="43.237007859856824" lon="12.967217075645213"><ele>466.0</ele><time>2026-03-28T11:42:45Z</time></trkpt><trkpt lat="43.237082581718106" lon="12.96733604186642"><ele>466.0</ele><time>2026-03-28T11:42:46Z</time></trkpt><trkpt lat="43.237165751502125" lon="12.967467017848877"><ele>466.0</ele><time>2026-03-28T11:42:47Z</time></trkpt><trkpt lat="43.237245562926205" lon="12.96757882352769"><ele>466.0</ele><time>2026-03-28T11:42:48Z</time></trkpt><trkpt lat="43.2373345722955" lon="12.967660631489501"><ele>464.5</ele><time>2026-03-28T11:42:49Z</time></trkpt><trkpt lat="43.23742633263961" lon="12.967751961492905"><ele>463.0</ele><time>2026-03-28T11:42:50Z</time></trkpt><trkpt lat="43.23752314107614" lon="12.967845880659391"><ele>461.5</ele><time>2026-03-28T11:42:51Z</time></trkpt><trkpt lat="43.23761753275537" lon="12.967932189469257"><ele>460.0</ele><time>2026-03-28T11:42:52Z</time></trkpt><trkpt lat="43.23771860043182" lon="12.96802338432174"><ele>460.00000000000006</ele><time>2026-03-28T11:42:53Z</time></trkpt><trkpt lat="43.23779621905813" lon="12.968098065011528"><ele>460.0</ele><time>2026-03-28T11:42:54Z</time></trkpt><trkpt lat="43.237863564578504" lon="12.968134241348322"><ele>460.0</ele><time>2026-03-28T11:42:55Z</time></trkpt><trkpt lat="43.23793024497525" lon="12.968195394037327"><ele>460.0</ele><time>2026-03-28T11:42:56Z</time></trkpt><trkpt lat="43.23799122571353" lon="12.968241278648282"><ele>460.00000000000006</ele><time>2026-03-28T11:42:57Z</time></trkpt><trkpt lat="43.23807269928805" lon="12.968240709364236"><ele>460.0</ele><time>2026-03-28T11:42:58Z</time></trkpt><trkpt lat="43.23815399566939" lon="12.968213557524376"><ele>460.25</ele><time>2026-03-28T11:42:59Z</time></trkpt><trkpt lat="43.238278101436116" lon="12.968073187026237"><ele>460.5</ele><time>2026-03-28T11:43:00Z</time></trkpt><trkpt lat="43.238370805805225" lon="12.96794847478982"><ele>460.75</ele><time>2026-03-28T11:43:01Z</time></trkpt><trkpt lat="43.238458952667656" lon="12.967839534644822"><ele>461.0</ele><time>2026-03-28T11:43:02Z</time></trkpt><trkpt lat="43.23854154201851" lon="12.967764749912737"><ele>461.0</ele><time>2026-03-28T11:43:03Z</time></trkpt><trkpt lat="43.23862065230329" lon="12.967705639841032"><ele>461.0</ele><time>2026-03-28T11:43:04Z</time></trkpt><trkpt lat="43.2387171335359" lon="12.967654701855308"><ele>461.0</ele><time>2026-03-28T11:43:05Z</time></trkpt><trkpt lat="43.238822763645324" lon="12.967593808257325"><ele>461.0</ele><time>2026-03-28T11:43:06Z</time></trkpt><trkpt lat="43.23892450656181" lon="12.967522857644317"><ele>461.0</ele><time>2026-03-28T11:43:07Z</time></trkpt><trkpt lat="43.23902788268873" lon="12.96744341363098"><ele>462.4</ele><time>2026-03-28T11:43:08Z</time></trkpt><trkpt lat="43.23912793248992" lon="12.967366781371126"><ele>463.8</ele><time>2026-03-28T11:43:09Z</time></trkpt><trkpt lat="43.23921776749795" lon="12.96726436620107"><ele>465.19999999999993</ele><time>2026-03-28T11:43:10Z</time></trkpt><trkpt lat="43.23930101243393" lon="12.967154647735066"><ele>466.59999999999997</ele><time>2026-03-28T11:43:11Z</time></trkpt><trkpt lat="43.239367211174034" lon="12.96704771368613"><ele>468.0</ele><time>2026-03-28T11:43:12Z</time></trkpt><trkpt lat="43.23942016381452" lon="12.96692560527445"><ele>468.0</ele><time>2026-03-28T11:43:13Z</time></trkpt><trkpt lat="43.239454946450614" lon="12.966798978499877"><ele>468.0</ele><time>2026-03-28T11:43:14Z</time></trkpt><trkpt lat="43.239486058660574" lon="12.966695190752455"><ele>468.0</ele><time>2026-03-28T11:43:15Z</time></trkpt><trkpt lat="43.23951330038954" lon="12.9666068605854"><ele>468.0</ele><time>2026-03-28T11:43:16Z</time></trkpt><trkpt lat="43.23958946729565" lon="12.96650365518405"><ele>468.0</ele><time>2026-03-28T11:43:18Z</time></trkpt><trkpt lat="43.23965305862229" lon="12.96643302613803"><ele>468.0</ele><time>2026-03-28T11:43:19Z</time></trkpt><trkpt lat="43.23972311501635" lon="12.966349159864277"><ele>466.0</ele><time>2026-03-28T11:43:21Z</time></trkpt><trkpt lat="43.239802008337136" lon="12.966247778183234"><ele>463.99999999999994</ele><time>2026-03-28T11:43:23Z</time></trkpt><trkpt lat="43.23986955170961" lon="12.96620095359037"><ele>461.99999999999994</ele><time>2026-03-28T11:43:24Z</time></trkpt><trkpt lat="43.239931681087974" lon="12.966076616339949"><ele>460.0</ele><time>2026-03-28T11:43:37.001Z</time></trkpt><trkpt lat="43.24001955210563" lon="12.96602735721325"><ele>458.0</ele><time>2026-03-28T11:43:38.001Z</time></trkpt><trkpt lat="43.24016148644088" lon="12.965914934631217"><ele>457.0</ele><time>2026-03-28T11:43:39.001Z</time></trkpt><trkpt lat="43.24027386206288" lon="12.965816863311645"><ele>456.0</ele><time>2026-03-28T11:43:40.001Z</time></trkpt><trkpt lat="43.24039884680383" lon="12.965713102034606"><ele>455.0</ele><time>2026-03-28T11:43:41.001Z</time></trkpt><trkpt lat="43.24050663994502" lon="12.965601336839127"><ele>454.0</ele><time>2026-03-28T11:43:42.001Z</time></trkpt><trkpt lat="43.24059854988506" lon="12.965475223719052"><ele>451.0</ele><time>2026-03-28T11:43:43.001Z</time></trkpt><trkpt lat="43.240665929547745" lon="12.965368242179874"><ele>448.0</ele><time>2026-03-28T11:43:44.001Z</time></trkpt><trkpt lat="43.240739121434196" lon="12.965270277836217"><ele>445.0</ele><time>2026-03-28T11:43:45.001Z</time></trkpt><trkpt lat="43.240808076455195" lon="12.965183042245446"><ele>442.0</ele><time>2026-03-28T11:43:46.001Z</time></trkpt><trkpt lat="43.24088845550451" lon="12.965096834579043"><ele>439.0</ele><time>2026-03-28T11:43:47.001Z</time></trkpt><trkpt lat="43.2409546680204" lon="12.965032459892274"><ele>437.6</ele><time>2026-03-28T11:43:48.001Z</time></trkpt><trkpt lat="43.24101808194972" lon="12.964924208237964"><ele>436.2</ele><time>2026-03-28T11:43:49.001Z</time></trkpt><trkpt lat="43.24107132330524" lon="12.96479580711103"><ele>434.80000000000007</ele><time>2026-03-28T11:43:50.001Z</time></trkpt><trkpt lat="43.24110831741709" lon="12.964672812178595"><ele>433.40000000000003</ele><time>2026-03-28T11:43:51.001Z</time></trkpt><trkpt lat="43.24115822400494" lon="12.964519344978795"><ele>432.0</ele><time>2026-03-28T11:43:52.001Z</time></trkpt><trkpt lat="43.24119520297722" lon="12.964403083959136"><ele>432.0</ele><time>2026-03-28T11:43:53.001Z</time></trkpt><trkpt lat="43.2412274587667" lon="12.964274021029157"><ele>432.0</ele><time>2026-03-28T11:43:54.001Z</time></trkpt><trkpt lat="43.24125747622449" lon="12.964170880394946"><ele>432.0</ele><time>2026-03-28T11:43:55.001Z</time></trkpt><trkpt lat="43.24130922886865" lon="12.96406564832845"><ele>432.0</ele><time>2026-03-28T11:43:57.001Z</time></trkpt><trkpt lat="43.24138487370482" lon="12.964097656276016"><ele>432.0</ele><time>2026-03-28T11:43:59.001Z</time></trkpt><trkpt lat="43.241426053181776" lon="12.964167811321428"><ele>432.0</ele><time>2026-03-28T11:44:00.001Z</time></trkpt><trkpt lat="43.24148178029228" lon="12.964229331801858"><ele>431.0</ele><time>2026-03-28T11:44:01.001Z</time></trkpt><trkpt lat="43.241554205447784" lon="12.9643046666104"><ele>430.00000000000006</ele><time>2026-03-28T11:44:02.001Z</time></trkpt><trkpt lat="43.241621883992906" lon="12.964362063784854"><ele>429.00000000000006</ele><time>2026-03-28T11:44:03.001Z</time></trkpt><trkpt lat="43.24171432424351" lon="12.964428044558368"><ele>428.0</ele><time>2026-03-28T11:44:04.001Z</time></trkpt><trkpt lat="43.24179879393403" lon="12.964485086421426"><ele>427.0</ele><time>2026-03-28T11:44:05.001Z</time></trkpt><trkpt lat="43.24189823925347" lon="12.964548293480476"><ele>427.0</ele><time>2026-03-28T11:44:06.001Z</time></trkpt><trkpt lat="43.24200044447154" lon="12.964614324836164"><ele>427.0</ele><time>2026-03-28T11:44:07.001Z</time></trkpt><trkpt lat="43.242107822550274" lon="12.964700021316888"><ele>427.0</ele><time>2026-03-28T11:44:08.001Z</time></trkpt><trkpt lat="43.2422184452911" lon="12.964794696352266"><ele>427.0</ele><time>2026-03-28T11:44:09.001Z</time></trkpt><trkpt lat="43.242339501848036" lon="12.964887066172215"><ele>426.75</ele><time>2026-03-28T11:44:10.001Z</time></trkpt><trkpt lat="43.24245140788307" lon="12.964993344979789"><ele>426.5</ele><time>2026-03-28T11:44:11.001Z</time></trkpt><trkpt lat="43.24255552963221" lon="12.965092723492953"><ele>426.25</ele><time>2026-03-28T11:44:12.001Z</time></trkpt><trkpt lat="43.24263433864914" lon="12.965197775069829"><ele>426.0</ele><time>2026-03-28T11:44:13.001Z</time></trkpt><trkpt lat="43.2427110694284" lon="12.96529263250606"><ele>428.0</ele><time>2026-03-28T11:44:14.001Z</time></trkpt><trkpt lat="43.2428054385567" lon="12.965390317397366"><ele>430.0</ele><time>2026-03-28T11:44:15.001Z</time></trkpt><trkpt lat="43.242891656863165" lon="12.965478903091688"><ele>432.0</ele><time>2026-03-28T11:44:16.001Z</time></trkpt><trkpt lat="43.242990997286334" lon="12.96555875732062"><ele>434.0</ele><time>2026-03-28T11:44:17.001Z</time></trkpt><trkpt lat="43.24309727355002" lon="12.965634820967813"><ele>434.0</ele><time>2026-03-28T11:44:18.001Z</time></trkpt><trkpt lat="43.24320928314904" lon="12.9657059376076"><ele>434.0</ele><time>2026-03-28T11:44:19.001Z</time></trkpt><trkpt lat="43.24332841554903" lon="12.965785124660464"><ele>434.0</ele><time>2026-03-28T11:44:20.001Z</time></trkpt><trkpt lat="43.24344421389462" lon="12.965869586688418"><ele>434.0</ele><time>2026-03-28T11:44:21.001Z</time></trkpt><trkpt lat="43.243541897280636" lon="12.965953068060175"><ele>434.0</ele><time>2026-03-28T11:44:22.001Z</time></trkpt><trkpt lat="43.24362503707945" lon="12.966025178291998"><ele>434.0</ele><time>2026-03-28T11:44:23.001Z</time></trkpt><trkpt lat="43.243720172880664" lon="12.966086942647319"><ele>434.0</ele><time>2026-03-28T11:44:24.001Z</time></trkpt><trkpt lat="43.24380387483203" lon="12.96613334918616"><ele>434.0</ele><time>2026-03-28T11:44:25.001Z</time></trkpt><trkpt lat="43.24389752088846" lon="12.96614257981917"><ele>434.0</ele><time>2026-03-28T11:44:26.001Z</time></trkpt><trkpt lat="43.244003714533164" lon="12.966129193265202"><ele>431.6</ele><time>2026-03-28T11:44:27.001Z</time></trkpt><trkpt lat="43.24411101914499" lon="12.966082697646474"><ele>429.2</ele><time>2026-03-28T11:44:28.001Z</time></trkpt><trkpt lat="43.24420141868033" lon="12.966017948615159"><ele>426.8</ele><time>2026-03-28T11:44:29.001Z</time></trkpt><trkpt lat="43.2442673688512" lon="12.965968157533233"><ele>424.40000000000003</ele><time>2026-03-28T11:44:30.001Z</time></trkpt><trkpt lat="43.24438127821108" lon="12.965886070031102"><ele>422.0</ele><time>2026-03-28T11:44:31.001Z</time></trkpt><trkpt lat="43.244492120185576" lon="12.96583279279989"><ele>421.25</ele><time>2026-03-28T11:44:32.001Z</time></trkpt><trkpt lat="43.244615049337554" lon="12.965786578164186"><ele>420.5</ele><time>2026-03-28T11:44:33.001Z</time></trkpt><trkpt lat="43.24474500501058" lon="12.965744761035229"><ele>419.75</ele><time>2026-03-28T11:44:34.001Z</time></trkpt><trkpt lat="43.244876505771046" lon="12.965868416842987"><ele>419.0</ele><time>2026-03-28T11:44:35.001Z</time></trkpt><trkpt lat="43.24503325987451" lon="12.965845449401408"><ele>418.5</ele><time>2026-03-28T11:44:36.001Z</time></trkpt><trkpt lat="43.24516160241421" lon="12.96577816623053"><ele>418.0</ele><time>2026-03-28T11:44:37.001Z</time></trkpt><trkpt lat="43.245270067478614" lon="12.96570760252687"><ele>417.5</ele><time>2026-03-28T11:44:38.001Z</time></trkpt><trkpt lat="43.24537759569678" lon="12.965647300654583"><ele>417.0</ele><time>2026-03-28T11:44:39.001Z</time></trkpt><trkpt lat="43.2454977310282" lon="12.965600443307464"><ele>417.0</ele><time>2026-03-28T11:44:40.001Z</time></trkpt><trkpt lat="43.2456185392717" lon="12.965549281896537"><ele>417.0</ele><time>2026-03-28T11:44:41.001Z</time></trkpt><trkpt lat="43.24573871941147" lon="12.965522112810111"><ele>417.0</ele><time>2026-03-28T11:44:42.001Z</time></trkpt><trkpt lat="43.24586906200064" lon="12.965519547836571"><ele>417.0</ele><time>2026-03-28T11:44:43.001Z</time></trkpt><trkpt lat="43.246011486695956" lon="12.965489238937783"><ele>416.75</ele><time>2026-03-28T11:44:44.001Z</time></trkpt><trkpt lat="43.2461537425683" lon="12.965447749644682"><ele>416.5</ele><time>2026-03-28T11:44:45.001Z</time></trkpt><trkpt lat="43.24627519197335" lon="12.965408039155069"><ele>416.25</ele><time>2026-03-28T11:44:46.001Z</time></trkpt><trkpt lat="43.246391613045034" lon="12.965369972827302"><ele>416.0</ele><time>2026-03-28T11:44:47.001Z</time></trkpt><trkpt lat="43.24649448422441" lon="12.965336336858723"><ele>415.25</ele><time>2026-03-28T11:44:48.001Z</time></trkpt><trkpt lat="43.246590946702234" lon="12.965304796409773"><ele>414.5</ele><time>2026-03-28T11:44:49.001Z</time></trkpt><trkpt lat="43.246740910083574" lon="12.965236204072724"><ele>413.75</ele><time>2026-03-28T11:44:50.001Z</time></trkpt><trkpt lat="43.2468581241975" lon="12.96522177118289"><ele>413.0</ele><time>2026-03-28T11:44:51.001Z</time></trkpt><trkpt lat="43.24696057754798" lon="12.96519178057723"><ele>413.0</ele><time>2026-03-28T11:44:52.001Z</time></trkpt><trkpt lat="43.24706623719588" lon="12.965160102728229"><ele>413.0</ele><time>2026-03-28T11:44:53.001Z</time></trkpt><trkpt lat="43.247176940861344" lon="12.965126498964302"><ele>413.0</ele><time>2026-03-28T11:44:54.001Z</time></trkpt><trkpt lat="43.24727562839594" lon="12.965095707813537"><ele>413.0</ele><time>2026-03-28T11:44:55.001Z</time></trkpt><trkpt lat="43.24740030948366" lon="12.965052781459892"><ele>413.0</ele><time>2026-03-28T11:44:56.001Z</time></trkpt><trkpt lat="43.24750803379167" lon="12.964984421444207"><ele>413.0</ele><time>2026-03-28T11:44:57.001Z</time></trkpt><trkpt lat="43.24761451810174" lon="12.964959568296289"><ele>413.0</ele><time>2026-03-28T11:44:58.001Z</time></trkpt><trkpt lat="43.24773746558361" lon="12.964934790018043"><ele>413.0</ele><time>2026-03-28T11:44:59.001Z</time></trkpt><trkpt lat="43.24810041856255" lon="12.96492367296189"><ele>413.25</ele><time>2026-03-28T11:45:02.001Z</time></trkpt><trkpt lat="43.24822128101319" lon="12.964926246167728"><ele>413.5</ele><time>2026-03-28T11:45:03.001Z</time></trkpt><trkpt lat="43.248359709359455" lon="12.964933667242114"><ele>413.75</ele><time>2026-03-28T11:45:04.001Z</time></trkpt><trkpt lat="43.24849298727613" lon="12.96494096414052"><ele>414.0</ele><time>2026-03-28T11:45:05.001Z</time></trkpt><trkpt lat="43.248603724932465" lon="12.964948376346715"><ele>414.0</ele><time>2026-03-28T11:45:06.001Z</time></trkpt><trkpt lat="43.24870311645747" lon="12.964964922109381"><ele>414.0</ele><time>2026-03-28T11:45:07.001Z</time></trkpt><trkpt lat="43.24878793515515" lon="12.964971789783068"><ele>414.0</ele><time>2026-03-28T11:45:08.001Z</time></trkpt><trkpt lat="43.248875271911785" lon="12.964983043091447"><ele>414.0</ele><time>2026-03-28T11:45:09.001Z</time></trkpt><trkpt lat="43.248965470211296" lon="12.964988698989567"><ele>414.0</ele><time>2026-03-28T11:45:10.001Z</time></trkpt><trkpt lat="43.24905165541035" lon="12.96499078120806"><ele>414.0</ele><time>2026-03-28T11:45:11.001Z</time></trkpt><trkpt lat="43.24942482873005" lon="12.96500527551202"><ele>414.0</ele><time>2026-03-28T11:45:15.001Z</time></trkpt><trkpt lat="43.24961906927578" lon="12.965028495419775"><ele>414.0</ele><time>2026-03-28T11:45:17.001Z</time></trkpt><trkpt lat="43.249805476616565" lon="12.965035016082476"><ele>414.0</ele><time>2026-03-28T11:45:18.001Z</time></trkpt><trkpt lat="43.250108558747854" lon="12.965270169808974"><ele>414.0</ele><time>2026-03-28T11:45:20.001Z</time></trkpt><trkpt lat="43.25016462037861" lon="12.96544465515329"><ele>414.0</ele><time>2026-03-28T11:45:21.001Z</time></trkpt><trkpt lat="43.25021468732642" lon="12.96561650089298"><ele>414.0</ele><time>2026-03-28T11:45:22.001Z</time></trkpt><trkpt lat="43.250269312754085" lon="12.965810337340475"><ele>414.0</ele><time>2026-03-28T11:45:23.001Z</time></trkpt><trkpt lat="43.25031965304277" lon="12.96599132246396"><ele>412.75</ele><time>2026-03-28T11:45:24.001Z</time></trkpt><trkpt lat="43.25041403524354" lon="12.966186925100226"><ele>411.5</ele><time>2026-03-28T11:45:25.001Z</time></trkpt><trkpt lat="43.25046202166734" lon="12.966353268283191"><ele>410.25</ele><time>2026-03-28T11:45:26.001Z</time></trkpt><trkpt lat="43.250509687458276" lon="12.96652897757237"><ele>409.0</ele><time>2026-03-28T11:45:27.001Z</time></trkpt><trkpt lat="43.25055486606024" lon="12.966692992036306"><ele>409.25</ele><time>2026-03-28T11:45:28.001Z</time></trkpt><trkpt lat="43.25060169327415" lon="12.96686875995718"><ele>409.5</ele><time>2026-03-28T11:45:29.001Z</time></trkpt><trkpt lat="43.25064991238811" lon="12.967057351037298"><ele>409.75</ele><time>2026-03-28T11:45:30.001Z</time></trkpt><trkpt lat="43.250686054720106" lon="12.967250459921795"><ele>410.0</ele><time>2026-03-28T11:45:31.001Z</time></trkpt><trkpt lat="43.250733401677934" lon="12.967450410052413"><ele>410.5</ele><time>2026-03-28T11:45:32.001Z</time></trkpt><trkpt lat="43.25076540749589" lon="12.967631527795342"><ele>411.0</ele><time>2026-03-28T11:45:33.001Z</time></trkpt><trkpt lat="43.250789832254306" lon="12.967824276734623"><ele>411.5</ele><time>2026-03-28T11:45:34.001Z</time></trkpt><trkpt lat="43.250816647787445" lon="12.968030071876123"><ele>412.0</ele><time>2026-03-28T11:45:35.001Z</time></trkpt><trkpt lat="43.25081090047129" lon="12.96822913453722"><ele>412.5</ele><time>2026-03-28T11:45:36.001Z</time></trkpt><trkpt lat="43.2507967552172" lon="12.96842364967763"><ele>413.0</ele><time>2026-03-28T11:45:37.001Z</time></trkpt><trkpt lat="43.2507425171572" lon="12.96861622143244"><ele>413.5</ele><time>2026-03-28T11:45:38.001Z</time></trkpt><trkpt lat="43.25068749173976" lon="12.96880682654407"><ele>414.0</ele><time>2026-03-28T11:45:39.001Z</time></trkpt><trkpt lat="43.25063070923029" lon="12.968971206361006"><ele>413.0</ele><time>2026-03-28T11:45:40.001Z</time></trkpt><trkpt lat="43.250574592435406" lon="12.969118385841542"><ele>412.0</ele><time>2026-03-28T11:45:41.001Z</time></trkpt><trkpt lat="43.250521242092105" lon="12.96925729501458"><ele>411.0</ele><time>2026-03-28T11:45:42.001Z</time></trkpt><trkpt lat="43.25047059353747" lon="12.969389169353233"><ele>410.0</ele><time>2026-03-28T11:45:43.001Z</time></trkpt><trkpt lat="43.25042531638811" lon="12.969507058006009"><ele>409.0</ele><time>2026-03-28T11:45:44.001Z</time></trkpt><trkpt lat="43.250381708142164" lon="12.969620601685333"><ele>408.83333333333337</ele><time>2026-03-28T11:45:45.001Z</time></trkpt><trkpt lat="43.25034191474873" lon="12.969724212303682"><ele>408.6666666666667</ele><time>2026-03-28T11:45:46.001Z</time></trkpt><trkpt lat="43.25030347878483" lon="12.969824288585468"><ele>408.5</ele><time>2026-03-28T11:45:47.001Z</time></trkpt><trkpt lat="43.25026880956769" lon="12.9699145572752"><ele>408.33333333333337</ele><time>2026-03-28T11:45:48.001Z</time></trkpt><trkpt lat="43.250237792049106" lon="12.969995315372422"><ele>408.1666666666667</ele><time>2026-03-28T11:45:49.001Z</time></trkpt><trkpt lat="43.25020748851568" lon="12.9700726901572"><ele>408.0</ele><time>2026-03-28T11:45:50.001Z</time></trkpt><trkpt lat="43.25015120666247" lon="12.970217325482492"><ele>408.0</ele><time>2026-03-28T11:45:52.001Z</time></trkpt><trkpt lat="43.25025664534623" lon="12.970622497947593"><ele>408.0</ele><time>2026-03-28T11:45:54.001Z</time></trkpt><trkpt lat="43.250314378613" lon="12.970674613596904"><ele>408.0</ele><time>2026-03-28T11:45:55.001Z</time></trkpt><trkpt lat="43.25039717016676" lon="12.970698080477066"><ele>408.0</ele><time>2026-03-28T11:45:56.001Z</time></trkpt><trkpt lat="43.250473223758284" lon="12.970414074872403"><ele>408.0</ele><time>2026-03-28T11:46:34.001Z</time></trkpt><trkpt lat="43.25050141373808" lon="12.97033641688319"><ele>408.0</ele><time>2026-03-28T11:46:51.001Z</time></trkpt><trkpt lat="43.25054454634814" lon="12.970261230609362"><ele>408.0</ele><time>2026-03-28T11:47:13.002Z</time></trkpt><trkpt lat="43.25047988296728" lon="12.9702540942842"><ele>408.0</ele><time>2026-03-28T11:47:58.002Z</time></trkpt><trkpt lat="43.25048839048466" lon="12.970116042492306"><ele>408.0</ele><time>2026-03-28T11:48:09.002Z</time></trkpt><trkpt lat="43.25057375756832" lon="12.97009634469733"><ele>408.0</ele><time>2026-03-28T11:48:20.002Z</time></trkpt><trkpt lat="43.250616004846336" lon="12.970178172679406"><ele>408.0</ele><time>2026-03-28T11:48:30.002Z</time></trkpt><trkpt lat="43.25066254107011" lon="12.970238780002425"><ele>408.0</ele><time>2026-03-28T11:48:55.001Z</time></trkpt><trkpt lat="43.25067109620707" lon="12.970328496744711"><ele>408.0</ele><time>2026-03-28T11:49:00.001Z</time></trkpt><trkpt lat="43.25064258977939" lon="12.970422032915256"><ele>408.0</ele><time>2026-03-28T11:51:16Z</time></trkpt><trkpt lat="43.250543799456096" lon="12.970348309133515"><ele>408.0</ele><time>2026-03-28T11:52:03Z</time></trkpt><trkpt lat="43.2506050003278" lon="12.970384554162402"><ele>408.0</ele><time>2026-03-28T11:53:03.001Z</time></trkpt><trkpt lat="43.250644182057215" lon="12.970453624172844"><ele>408.0</ele><time>2026-03-28T11:53:12.001Z</time></trkpt><trkpt lat="43.250561483192065" lon="12.970470829948786"><ele>408.0</ele><time>2026-03-28T11:53:52.001Z</time></trkpt><trkpt lat="43.25052039652747" lon="12.970397961306896"><ele>408.0</ele><time>2026-03-28T11:54:15.001Z</time></trkpt><trkpt lat="43.250437589321926" lon="12.970405151516147"><ele>408.0</ele><time>2026-03-28T11:54:18.001Z</time></trkpt><trkpt lat="43.250357055949024" lon="12.970394239024388"><ele>408.0</ele><time>2026-03-28T11:54:21.001Z</time></trkpt><trkpt lat="43.250303422676524" lon="12.970459562630044"><ele>408.0</ele><time>2026-03-28T11:54:27.001Z</time></trkpt><trkpt lat="43.25036836617335" lon="12.97043170291499"><ele>408.0</ele><time>2026-03-28T11:54:32.001Z</time></trkpt><trkpt lat="43.250413124258436" lon="12.97036031803707"><ele>408.0</ele><time>2026-03-28T11:54:37.001Z</time></trkpt><trkpt lat="43.25051008253343" lon="12.970317279752825"><ele>408.0</ele><time>2026-03-28T11:56:15Z</time></trkpt><trkpt lat="43.25046239737984" lon="12.970234314697443"><ele>408.0</ele><time>2026-03-28T12:06:08Z</time></trkpt><trkpt lat="43.25044371683497" lon="12.97014738499992"><ele>408.0</ele><time>2026-03-28T12:06:46.001Z</time></trkpt><trkpt lat="43.25046540046363" lon="12.970230363115423"><ele>408.0</ele><time>2026-03-28T12:07:26.001Z</time></trkpt><trkpt lat="43.250496035547016" lon="12.970305876833633"><ele>408.0</ele><time>2026-03-28T12:07:58.001Z</time></trkpt><trkpt lat="43.250603753475396" lon="12.970317107204677"><ele>408.0</ele><time>2026-03-28T12:09:49.001Z</time></trkpt><trkpt lat="43.25055354669887" lon="12.970416571100948"><ele>408.0</ele><time>2026-03-28T12:10:22Z</time></trkpt><trkpt lat="43.250522963036794" lon="12.970326720966392"><ele>408.0</ele><time>2026-03-28T12:11:05Z</time></trkpt></trkseg></trk></gpx>